<?xml version="1.0" encoding="UTF-8" standalone="no" ?>
<gpx xmlns="http://www.topografix.com/GPX/1/1" xmlns:xsi="http://www.w3.org/2001/XMLSchema-instance" xsi:schemaLocation="http://www.topografix.com/GPX/1/1 http://www.topografix.com/GPX/1/1/gpx.xsd" version="1.1" creator="VisuGPX - https://www.visugpx.com">
  <metadata>
    <name>BA116 35</name>
  </metadata>
  <trk>
    <name><![CDATA[BA116 35]]></name>
    <trkseg>
      <trkpt lat="47.79447" lon="6.36898">
        <ele>275.112671</ele>
      </trkpt>
      <trkpt lat="47.80043" lon="6.37819">
        <ele>281</ele>
      </trkpt>
      <trkpt lat="47.80117" lon="6.37961">
        <ele>281</ele>
      </trkpt>
      <trkpt lat="47.80246" lon="6.38128">
        <ele>280.506042</ele>
      </trkpt>
      <trkpt lat="47.80345" lon="6.3828">
        <ele>281</ele>
      </trkpt>
      <trkpt lat="47.80376" lon="6.38359">
        <ele>281.701263</ele>
      </trkpt>
      <trkpt lat="47.8039" lon="6.3838">
        <ele>282.007507</ele>
        <time>2020-05-12T15:42:29Z</time>
      </trkpt>
      <trkpt lat="47.80404" lon="6.38377">
        <ele>281.945007</ele>
        <time>2020-05-12T15:42:31Z</time>
      </trkpt>
      <trkpt lat="47.80418" lon="6.38374">
        <ele>281.883759</ele>
        <time>2020-05-12T15:42:33Z</time>
      </trkpt>
      <trkpt lat="47.80425" lon="6.38373">
        <ele>281.859985</ele>
        <time>2020-05-12T15:42:34Z</time>
      </trkpt>
      <trkpt lat="47.80439" lon="6.38369">
        <ele>281.773743</ele>
        <time>2020-05-12T15:42:36Z</time>
      </trkpt>
      <trkpt lat="47.80446" lon="6.38367">
        <ele>281.736237</ele>
        <time>2020-05-12T15:42:37Z</time>
      </trkpt>
      <trkpt lat="47.80459" lon="6.38365">
        <ele>281.702515</ele>
        <time>2020-05-12T15:42:39Z</time>
      </trkpt>
      <trkpt lat="47.80465" lon="6.38364">
        <ele>281.681244</ele>
        <time>2020-05-12T15:42:40Z</time>
      </trkpt>
      <trkpt lat="47.80472" lon="6.38363">
        <ele>281.657501</ele>
        <time>2020-05-12T15:42:41Z</time>
      </trkpt>
      <trkpt lat="47.80485" lon="6.3836">
        <ele>281.596252</ele>
        <time>2020-05-12T15:42:43Z</time>
      </trkpt>
      <trkpt lat="47.80498" lon="6.38356">
        <ele>281.518738</ele>
        <time>2020-05-12T15:42:45Z</time>
      </trkpt>
      <trkpt lat="47.80511" lon="6.38353">
        <ele>281.456238</ele>
        <time>2020-05-12T15:42:47Z</time>
      </trkpt>
      <trkpt lat="47.80525" lon="6.3835">
        <ele>281.394989</ele>
        <time>2020-05-12T15:42:49Z</time>
      </trkpt>
      <trkpt lat="47.8054" lon="6.38348">
        <ele>281.347504</ele>
        <time>2020-05-12T15:42:51Z</time>
      </trkpt>
      <trkpt lat="47.80547" lon="6.38347">
        <ele>281.329987</ele>
        <time>2020-05-12T15:42:52Z</time>
      </trkpt>
      <trkpt lat="47.80555" lon="6.38348">
        <ele>281.33374</ele>
        <time>2020-05-12T15:42:53Z</time>
      </trkpt>
      <trkpt lat="47.80568" lon="6.38349">
        <ele>281.338745</ele>
        <time>2020-05-12T15:42:55Z</time>
      </trkpt>
      <trkpt lat="47.80575" lon="6.3835">
        <ele>281.348755</ele>
        <time>2020-05-12T15:42:56Z</time>
      </trkpt>
      <trkpt lat="47.80581" lon="6.38352">
        <ele>281.371246</ele>
        <time>2020-05-12T15:42:57Z</time>
      </trkpt>
      <trkpt lat="47.80593" lon="6.38356">
        <ele>281.413757</ele>
        <time>2020-05-12T15:42:59Z</time>
      </trkpt>
      <trkpt lat="47.80598" lon="6.38358">
        <ele>281.434998</ele>
        <time>2020-05-12T15:43:00Z</time>
      </trkpt>
      <trkpt lat="47.8061" lon="6.38362">
        <ele>281.45105</ele>
        <time>2020-05-12T15:43:02Z</time>
      </trkpt>
      <trkpt lat="47.80622" lon="6.38368">
        <ele>281.361053</ele>
        <time>2020-05-12T15:43:04Z</time>
      </trkpt>
      <trkpt lat="47.80628" lon="6.3837">
        <ele>281.298981</ele>
        <time>2020-05-12T15:43:05Z</time>
      </trkpt>
      <trkpt lat="47.80641" lon="6.38375">
        <ele>281.150116</ele>
        <time>2020-05-12T15:43:07Z</time>
      </trkpt>
      <trkpt lat="47.80647" lon="6.38377">
        <ele>281.06601</ele>
        <time>2020-05-12T15:43:08Z</time>
      </trkpt>
      <trkpt lat="47.80659" lon="6.3838">
        <ele>281</ele>
        <time>2020-05-12T15:43:10Z</time>
      </trkpt>
      <trkpt lat="47.80672" lon="6.38379">
        <ele>281</ele>
        <time>2020-05-12T15:43:12Z</time>
      </trkpt>
      <trkpt lat="47.80678" lon="6.38378">
        <ele>281</ele>
        <time>2020-05-12T15:43:13Z</time>
      </trkpt>
      <trkpt lat="47.80685" lon="6.38376">
        <ele>281</ele>
        <time>2020-05-12T15:43:14Z</time>
      </trkpt>
      <trkpt lat="47.80698" lon="6.38372">
        <ele>281</ele>
        <time>2020-05-12T15:43:16Z</time>
      </trkpt>
      <trkpt lat="47.80711" lon="6.38366">
        <ele>281</ele>
        <time>2020-05-12T15:43:18Z</time>
      </trkpt>
      <trkpt lat="47.80722" lon="6.3836">
        <ele>281</ele>
        <time>2020-05-12T15:43:20Z</time>
      </trkpt>
      <trkpt lat="47.80734" lon="6.38355">
        <ele>281</ele>
        <time>2020-05-12T15:43:22Z</time>
      </trkpt>
      <trkpt lat="47.8074" lon="6.38353">
        <ele>281</ele>
        <time>2020-05-12T15:43:23Z</time>
      </trkpt>
      <trkpt lat="47.80751" lon="6.3835">
        <ele>281</ele>
        <time>2020-05-12T15:43:25Z</time>
      </trkpt>
      <trkpt lat="47.80756" lon="6.38348">
        <ele>281</ele>
        <time>2020-05-12T15:43:26Z</time>
      </trkpt>
      <trkpt lat="47.80762" lon="6.38346">
        <ele>281</ele>
        <time>2020-05-12T15:43:27Z</time>
      </trkpt>
      <trkpt lat="47.80768" lon="6.38345">
        <ele>281</ele>
        <time>2020-05-12T15:43:28Z</time>
      </trkpt>
      <trkpt lat="47.80782" lon="6.38341">
        <ele>281.023926</ele>
        <time>2020-05-12T15:43:30Z</time>
      </trkpt>
      <trkpt lat="47.80788" lon="6.38339">
        <ele>281.08371</ele>
        <time>2020-05-12T15:43:31Z</time>
      </trkpt>
      <trkpt lat="47.80795" lon="6.38337">
        <ele>281.252991</ele>
        <time>2020-05-12T15:43:32Z</time>
      </trkpt>
      <trkpt lat="47.80809" lon="6.38337">
        <ele>281.544342</ele>
        <time>2020-05-12T15:43:34Z</time>
      </trkpt>
      <trkpt lat="47.80816" lon="6.38338">
        <ele>281.665771</ele>
        <time>2020-05-12T15:43:35Z</time>
      </trkpt>
      <trkpt lat="47.80828" lon="6.38341">
        <ele>281.898254</ele>
        <time>2020-05-12T15:43:37Z</time>
      </trkpt>
      <trkpt lat="47.80837" lon="6.38349">
        <ele>281.980011</ele>
        <time>2020-05-12T15:43:39Z</time>
      </trkpt>
      <trkpt lat="47.80846" lon="6.38359">
        <ele>281.834991</ele>
        <time>2020-05-12T15:43:41Z</time>
      </trkpt>
      <trkpt lat="47.80853" lon="6.38359">
        <ele>281.846252</ele>
        <time>2020-05-12T15:43:42Z</time>
      </trkpt>
      <trkpt lat="47.80858" lon="6.38354">
        <ele>281.926239</ele>
        <time>2020-05-12T15:43:43Z</time>
      </trkpt>
      <trkpt lat="47.80866" lon="6.38337">
        <ele>282.139618</ele>
        <time>2020-05-12T15:43:45Z</time>
      </trkpt>
      <trkpt lat="47.8087" lon="6.38319">
        <ele>282.374329</ele>
        <time>2020-05-12T15:43:47Z</time>
      </trkpt>
      <trkpt lat="47.80875" lon="6.38314">
        <ele>282.501038</ele>
        <time>2020-05-12T15:43:48Z</time>
      </trkpt>
      <trkpt lat="47.80888" lon="6.38308">
        <ele>282.847504</ele>
        <time>2020-05-12T15:43:50Z</time>
      </trkpt>
      <trkpt lat="47.80894" lon="6.38307">
        <ele>283.012482</ele>
        <time>2020-05-12T15:43:51Z</time>
      </trkpt>
      <trkpt lat="47.80906" lon="6.38306">
        <ele>283.317505</ele>
        <time>2020-05-12T15:43:53Z</time>
      </trkpt>
      <trkpt lat="47.80912" lon="6.38306">
        <ele>283.450012</ele>
        <time>2020-05-12T15:43:54Z</time>
      </trkpt>
      <trkpt lat="47.80923" lon="6.38302">
        <ele>283.737488</ele>
        <time>2020-05-12T15:43:56Z</time>
      </trkpt>
      <trkpt lat="47.80933" lon="6.383">
        <ele>284.247986</ele>
        <time>2020-05-12T15:43:58Z</time>
      </trkpt>
      <trkpt lat="47.80944" lon="6.38299">
        <ele>284.790405</ele>
        <time>2020-05-12T15:44:00Z</time>
      </trkpt>
      <trkpt lat="47.80949" lon="6.38298">
        <ele>285.0466</ele>
        <time>2020-05-12T15:44:01Z</time>
      </trkpt>
      <trkpt lat="47.80954" lon="6.38298">
        <ele>285.308563</ele>
        <time>2020-05-12T15:44:02Z</time>
      </trkpt>
      <trkpt lat="47.80964" lon="6.38295">
        <ele>285.783051</ele>
        <time>2020-05-12T15:44:04Z</time>
      </trkpt>
      <trkpt lat="47.80973" lon="6.38288">
        <ele>286.279999</ele>
        <time>2020-05-12T15:44:06Z</time>
      </trkpt>
      <trkpt lat="47.80976" lon="6.38285">
        <ele>286.579987</ele>
        <time>2020-05-12T15:44:07Z</time>
      </trkpt>
      <trkpt lat="47.80984" lon="6.38282">
        <ele>287.26001</ele>
        <time>2020-05-12T15:44:09Z</time>
      </trkpt>
      <trkpt lat="47.80992" lon="6.38278">
        <ele>287.980011</ele>
        <time>2020-05-12T15:44:11Z</time>
      </trkpt>
      <trkpt lat="47.81" lon="6.38275">
        <ele>288.660004</ele>
        <time>2020-05-12T15:44:13Z</time>
      </trkpt>
      <trkpt lat="47.81005" lon="6.38276">
        <ele>289.140015</ele>
        <time>2020-05-12T15:44:15Z</time>
      </trkpt>
      <trkpt lat="47.8101" lon="6.38273">
        <ele>289.540009</ele>
        <time>2020-05-12T15:44:16Z</time>
      </trkpt>
      <trkpt lat="47.81016" lon="6.3827">
        <ele>290.13913</ele>
        <time>2020-05-12T15:44:17Z</time>
      </trkpt>
      <trkpt lat="47.81021" lon="6.38268">
        <ele>290.597839</ele>
        <time>2020-05-12T15:44:19Z</time>
      </trkpt>
      <trkpt lat="47.81026" lon="6.38266">
        <ele>291.118439</ele>
        <time>2020-05-12T15:44:20Z</time>
      </trkpt>
      <trkpt lat="47.81033" lon="6.38264">
        <ele>291.788849</ele>
        <time>2020-05-12T15:44:21Z</time>
      </trkpt>
      <trkpt lat="47.81038" lon="6.38262">
        <ele>292.295624</ele>
        <time>2020-05-12T15:44:23Z</time>
      </trkpt>
      <trkpt lat="47.81045" lon="6.3826">
        <ele>292.917206</ele>
        <time>2020-05-12T15:44:24Z</time>
      </trkpt>
      <trkpt lat="47.8105" lon="6.38258">
        <ele>293.381287</ele>
        <time>2020-05-12T15:44:25Z</time>
      </trkpt>
      <trkpt lat="47.81059" lon="6.38253">
        <ele>294.147095</ele>
        <time>2020-05-12T15:44:27Z</time>
      </trkpt>
      <trkpt lat="47.81064" lon="6.38251">
        <ele>294.42749</ele>
        <time>2020-05-12T15:44:28Z</time>
      </trkpt>
      <trkpt lat="47.81068" lon="6.38249">
        <ele>294.580017</ele>
        <time>2020-05-12T15:44:29Z</time>
      </trkpt>
      <trkpt lat="47.81074" lon="6.38247">
        <ele>294.808746</ele>
        <time>2020-05-12T15:44:31Z</time>
      </trkpt>
      <trkpt lat="47.81079" lon="6.38246">
        <ele>295.002502</ele>
        <time>2020-05-12T15:44:32Z</time>
      </trkpt>
      <trkpt lat="47.81085" lon="6.38244">
        <ele>295.238739</ele>
        <time>2020-05-12T15:44:33Z</time>
      </trkpt>
      <trkpt lat="47.81092" lon="6.38244">
        <ele>295.540009</ele>
        <time>2020-05-12T15:44:34Z</time>
      </trkpt>
      <trkpt lat="47.81098" lon="6.38243">
        <ele>295.786255</ele>
        <time>2020-05-12T15:44:36Z</time>
      </trkpt>
      <trkpt lat="47.81103" lon="6.38243">
        <ele>296.012512</ele>
        <time>2020-05-12T15:44:37Z</time>
      </trkpt>
      <trkpt lat="47.81106" lon="6.38242">
        <ele>296.126251</ele>
        <time>2020-05-12T15:44:38Z</time>
      </trkpt>
      <trkpt lat="47.8111" lon="6.38242">
        <ele>296.195007</ele>
        <time>2020-05-12T15:44:39Z</time>
      </trkpt>
      <trkpt lat="47.81111" lon="6.38242">
        <ele>296.209991</ele>
        <time>2020-05-12T15:44:40Z</time>
      </trkpt>
      <trkpt lat="47.81112" lon="6.38242">
        <ele>296.241241</ele>
        <time>2020-05-12T15:44:41Z</time>
      </trkpt>
      <trkpt lat="47.81113" lon="6.38241">
        <ele>296.261261</ele>
        <time>2020-05-12T15:44:42Z</time>
      </trkpt>
      <trkpt lat="47.81117" lon="6.3824">
        <ele>296.332489</ele>
        <time>2020-05-12T15:44:44Z</time>
      </trkpt>
      <trkpt lat="47.8112" lon="6.38239">
        <ele>296.373749</ele>
        <time>2020-05-12T15:44:45Z</time>
      </trkpt>
      <trkpt lat="47.81121" lon="6.38239">
        <ele>296.383759</ele>
        <time>2020-05-12T15:44:46Z</time>
      </trkpt>
      <trkpt lat="47.81126" lon="6.38237">
        <ele>296.46875</ele>
        <time>2020-05-12T15:44:48Z</time>
      </trkpt>
      <trkpt lat="47.81131" lon="6.38235">
        <ele>296.549988</ele>
        <time>2020-05-12T15:44:50Z</time>
      </trkpt>
      <trkpt lat="47.81133" lon="6.38233">
        <ele>296.600006</ele>
        <time>2020-05-12T15:44:51Z</time>
      </trkpt>
      <trkpt lat="47.81134" lon="6.38233">
        <ele>296.625</ele>
        <time>2020-05-12T15:44:52Z</time>
      </trkpt>
      <trkpt lat="47.81136" lon="6.38231">
        <ele>296.654999</ele>
        <time>2020-05-12T15:44:53Z</time>
      </trkpt>
      <trkpt lat="47.81142" lon="6.3823">
        <ele>296.779999</ele>
        <time>2020-05-12T15:44:55Z</time>
      </trkpt>
      <trkpt lat="47.81155" lon="6.38221">
        <ele>297.079987</ele>
        <time>2020-05-12T15:44:56Z</time>
      </trkpt>
      <trkpt lat="47.81167" lon="6.38212">
        <ele>297.329987</ele>
        <time>2020-05-12T15:44:58Z</time>
      </trkpt>
      <trkpt lat="47.81171" lon="6.38211">
        <ele>297.424988</ele>
        <time>2020-05-12T15:44:59Z</time>
      </trkpt>
      <trkpt lat="47.81182" lon="6.38211">
        <ele>297.665009</ele>
        <time>2020-05-12T15:45:00Z</time>
      </trkpt>
      <trkpt lat="47.81191" lon="6.38211">
        <ele>297.855011</ele>
        <time>2020-05-12T15:45:02Z</time>
      </trkpt>
      <trkpt lat="47.81202" lon="6.3821">
        <ele>298.049988</ele>
        <time>2020-05-12T15:45:04Z</time>
      </trkpt>
      <trkpt lat="47.81208" lon="6.38209">
        <ele>298.1203</ele>
        <time>2020-05-12T15:45:05Z</time>
      </trkpt>
      <trkpt lat="47.81213" lon="6.38208">
        <ele>298.17041</ele>
        <time>2020-05-12T15:45:06Z</time>
      </trkpt>
      <trkpt lat="47.81222" lon="6.38204">
        <ele>298.228149</ele>
        <time>2020-05-12T15:45:08Z</time>
      </trkpt>
      <trkpt lat="47.81229" lon="6.38201">
        <ele>298.261719</ele>
        <time>2020-05-12T15:45:10Z</time>
      </trkpt>
      <trkpt lat="47.81237" lon="6.38199">
        <ele>298.288757</ele>
        <time>2020-05-12T15:45:12Z</time>
      </trkpt>
      <trkpt lat="47.81244" lon="6.38198">
        <ele>298.324646</ele>
        <time>2020-05-12T15:45:14Z</time>
      </trkpt>
      <trkpt lat="47.81248" lon="6.38198">
        <ele>298.369202</ele>
        <time>2020-05-12T15:45:15Z</time>
      </trkpt>
      <trkpt lat="47.81251" lon="6.38197">
        <ele>298.414215</ele>
        <time>2020-05-12T15:45:16Z</time>
      </trkpt>
      <trkpt lat="47.81259" lon="6.38196">
        <ele>298.523987</ele>
        <time>2020-05-12T15:45:18Z</time>
      </trkpt>
      <trkpt lat="47.81263" lon="6.38195">
        <ele>298.574738</ele>
        <time>2020-05-12T15:45:19Z</time>
      </trkpt>
      <trkpt lat="47.81272" lon="6.38193">
        <ele>298.708405</ele>
        <time>2020-05-12T15:45:21Z</time>
      </trkpt>
      <trkpt lat="47.81276" lon="6.38192">
        <ele>298.781036</ele>
        <time>2020-05-12T15:45:22Z</time>
      </trkpt>
      <trkpt lat="47.81285" lon="6.38189">
        <ele>298.938049</ele>
        <time>2020-05-12T15:45:24Z</time>
      </trkpt>
      <trkpt lat="47.81291" lon="6.38189">
        <ele>299.00592</ele>
        <time>2020-05-12T15:45:26Z</time>
      </trkpt>
      <trkpt lat="47.81295" lon="6.38187">
        <ele>299.011993</ele>
        <time>2020-05-12T15:45:27Z</time>
      </trkpt>
      <trkpt lat="47.81297" lon="6.38185">
        <ele>299.007996</ele>
        <time>2020-05-12T15:45:28Z</time>
      </trkpt>
      <trkpt lat="47.81302" lon="6.38183">
        <ele>299.002319</ele>
        <time>2020-05-12T15:45:30Z</time>
      </trkpt>
      <trkpt lat="47.81305" lon="6.38181">
        <ele>298.984985</ele>
        <time>2020-05-12T15:45:31Z</time>
      </trkpt>
      <trkpt lat="47.81309" lon="6.3818">
        <ele>298.961243</ele>
        <time>2020-05-12T15:45:33Z</time>
      </trkpt>
      <trkpt lat="47.81313" lon="6.3818">
        <ele>298.956238</ele>
        <time>2020-05-12T15:45:34Z</time>
      </trkpt>
      <trkpt lat="47.81315" lon="6.3818">
        <ele>298.951263</ele>
        <time>2020-05-12T15:45:35Z</time>
      </trkpt>
      <trkpt lat="47.81316" lon="6.38179">
        <ele>298.941254</ele>
        <time>2020-05-12T15:45:36Z</time>
      </trkpt>
      <trkpt lat="47.81316" lon="6.38178">
        <ele>298.918762</ele>
        <time>2020-05-12T15:45:38Z</time>
      </trkpt>
      <trkpt lat="47.81316" lon="6.38177">
        <ele>298.907501</ele>
        <time>2020-05-12T15:45:40Z</time>
      </trkpt>
      <trkpt lat="47.81316" lon="6.38177">
        <ele>298.898743</ele>
        <time>2020-05-12T15:45:42Z</time>
      </trkpt>
      <trkpt lat="47.81316" lon="6.38176">
        <ele>298.894989</ele>
        <time>2020-05-12T15:45:43Z</time>
      </trkpt>
      <trkpt lat="47.81316" lon="6.38176">
        <ele>298.88501</ele>
        <time>2020-05-12T15:45:44Z</time>
      </trkpt>
      <trkpt lat="47.81316" lon="6.38173">
        <ele>298.851257</ele>
        <time>2020-05-12T15:45:46Z</time>
      </trkpt>
      <trkpt lat="47.81317" lon="6.38173">
        <ele>298.838745</ele>
        <time>2020-05-12T15:45:48Z</time>
      </trkpt>
      <trkpt lat="47.81319" lon="6.38173">
        <ele>298.839996</ele>
        <time>2020-05-12T15:45:49Z</time>
      </trkpt>
      <trkpt lat="47.8133" lon="6.38174">
        <ele>298.839996</ele>
        <time>2020-05-12T15:45:51Z</time>
      </trkpt>
      <trkpt lat="47.81401" lon="6.38477">
        <ele>300.787659</ele>
        <time>2020-05-12T15:45:53Z</time>
      </trkpt>
      <trkpt lat="47.81408" lon="6.3854">
        <ele>302.437805</ele>
        <time>2020-05-12T15:45:54Z</time>
      </trkpt>
      <trkpt lat="47.8145" lon="6.3862">
        <ele>303.79303</ele>
        <time>2020-05-12T15:45:56Z</time>
      </trkpt>
      <trkpt lat="47.81548" lon="6.38753">
        <ele>302.80426</ele>
        <time>2020-05-12T15:45:57Z</time>
      </trkpt>
      <trkpt lat="47.81585" lon="6.38817">
        <ele>299.844971</ele>
        <time>2020-05-12T15:45:58Z</time>
      </trkpt>
      <trkpt lat="47.81657" lon="6.38784">
        <ele>296.805664</ele>
        <time>2020-05-12T15:46:00Z</time>
      </trkpt>
      <trkpt lat="47.81814" lon="6.3881">
        <ele>299.531952</ele>
        <time>2020-05-12T15:46:01Z</time>
      </trkpt>
      <trkpt lat="47.81863" lon="6.38812">
        <ele>300.36499</ele>
        <time>2020-05-12T15:46:02Z</time>
      </trkpt>
      <trkpt lat="47.81937" lon="6.38844">
        <ele>303.744415</ele>
        <time>2020-05-12T12:37:27Z</time>
      </trkpt>
      <trkpt lat="47.81938" lon="6.38843">
        <ele>303.675262</ele>
        <time>2020-05-12T12:37:29Z</time>
      </trkpt>
      <trkpt lat="47.81939" lon="6.38842">
        <ele>303.6539</ele>
        <time>2020-05-12T12:37:30Z</time>
      </trkpt>
      <trkpt lat="47.81941" lon="6.38842">
        <ele>303.706238</ele>
        <time>2020-05-12T12:37:32Z</time>
      </trkpt>
      <trkpt lat="47.81942" lon="6.38842">
        <ele>303.677704</ele>
        <time>2020-05-12T12:37:33Z</time>
      </trkpt>
      <trkpt lat="47.81943" lon="6.38841">
        <ele>303.638824</ele>
        <time>2020-05-12T12:37:34Z</time>
      </trkpt>
      <trkpt lat="47.81946" lon="6.38841">
        <ele>303.562653</ele>
        <time>2020-05-12T12:37:36Z</time>
      </trkpt>
      <trkpt lat="47.8195" lon="6.3884">
        <ele>303.475403</ele>
        <time>2020-05-12T12:37:38Z</time>
      </trkpt>
      <trkpt lat="47.81954" lon="6.38839">
        <ele>303.444305</ele>
        <time>2020-05-12T12:37:39Z</time>
      </trkpt>
      <trkpt lat="47.81961" lon="6.38839">
        <ele>303.409119</ele>
        <time>2020-05-12T12:37:40Z</time>
      </trkpt>
      <trkpt lat="47.81969" lon="6.38839">
        <ele>303.302063</ele>
        <time>2020-05-12T12:37:41Z</time>
      </trkpt>
      <trkpt lat="47.81976" lon="6.38839">
        <ele>303.288513</ele>
        <time>2020-05-12T12:37:43Z</time>
      </trkpt>
      <trkpt lat="47.81982" lon="6.3884">
        <ele>303.347504</ele>
        <time>2020-05-12T12:37:44Z</time>
      </trkpt>
      <trkpt lat="47.81987" lon="6.38841">
        <ele>303.398834</ele>
        <time>2020-05-12T12:37:45Z</time>
      </trkpt>
      <trkpt lat="47.81992" lon="6.38842">
        <ele>303.483124</ele>
        <time>2020-05-12T12:37:46Z</time>
      </trkpt>
      <trkpt lat="47.81998" lon="6.38844">
        <ele>303.618683</ele>
        <time>2020-05-12T12:37:48Z</time>
      </trkpt>
      <trkpt lat="47.82003" lon="6.38846">
        <ele>303.839355</ele>
        <time>2020-05-12T12:37:49Z</time>
      </trkpt>
      <trkpt lat="47.82011" lon="6.3885">
        <ele>304.148865</ele>
        <time>2020-05-12T12:37:51Z</time>
      </trkpt>
      <trkpt lat="47.82016" lon="6.38852">
        <ele>304.346375</ele>
        <time>2020-05-12T12:37:52Z</time>
      </trkpt>
      <trkpt lat="47.82021" lon="6.38854">
        <ele>304.492706</ele>
        <time>2020-05-12T12:37:53Z</time>
      </trkpt>
      <trkpt lat="47.82025" lon="6.38856">
        <ele>304.685608</ele>
        <time>2020-05-12T12:37:54Z</time>
      </trkpt>
      <trkpt lat="47.82029" lon="6.38859">
        <ele>304.98056</ele>
        <time>2020-05-12T12:37:55Z</time>
      </trkpt>
      <trkpt lat="47.82035" lon="6.38863">
        <ele>305.22406</ele>
        <time>2020-05-12T12:37:56Z</time>
      </trkpt>
      <trkpt lat="47.82041" lon="6.38867">
        <ele>305.352631</ele>
        <time>2020-05-12T12:37:58Z</time>
      </trkpt>
      <trkpt lat="47.82047" lon="6.38871">
        <ele>305.568756</ele>
        <time>2020-05-12T12:38:00Z</time>
      </trkpt>
      <trkpt lat="47.8205" lon="6.38873">
        <ele>305.64975</ele>
        <time>2020-05-12T12:38:02Z</time>
      </trkpt>
      <trkpt lat="47.8205" lon="6.38872">
        <ele>305.598206</ele>
        <time>2020-05-12T12:38:03Z</time>
      </trkpt>
      <trkpt lat="47.8205" lon="6.38872">
        <ele>305.590546</ele>
        <time>2020-05-12T12:38:04Z</time>
      </trkpt>
      <trkpt lat="47.8205" lon="6.38872">
        <ele>305.599854</ele>
        <time>2020-05-12T12:38:05Z</time>
      </trkpt>
      <trkpt lat="47.8205" lon="6.38872">
        <ele>305.592194</ele>
        <time>2020-05-12T12:38:07Z</time>
      </trkpt>
      <trkpt lat="47.8205" lon="6.38873">
        <ele>305.601501</ele>
        <time>2020-05-12T12:38:08Z</time>
      </trkpt>
      <trkpt lat="47.8205" lon="6.38873">
        <ele>305.593842</ele>
        <time>2020-05-12T12:38:10Z</time>
      </trkpt>
      <trkpt lat="47.8205" lon="6.38873">
        <ele>305.60318</ele>
        <time>2020-05-12T12:43:18Z</time>
      </trkpt>
      <trkpt lat="47.8205" lon="6.38873">
        <ele>305.59552</ele>
        <time>2020-05-12T12:43:19Z</time>
      </trkpt>
      <trkpt lat="47.82051" lon="6.38873">
        <ele>305.597198</ele>
        <time>2020-05-12T12:43:21Z</time>
      </trkpt>
      <trkpt lat="47.82051" lon="6.38873">
        <ele>305.597198</ele>
        <time>2020-05-12T12:43:23Z</time>
      </trkpt>
      <trkpt lat="47.82051" lon="6.38873">
        <ele>305.606537</ele>
        <time>2020-05-12T12:43:25Z</time>
      </trkpt>
      <trkpt lat="47.82051" lon="6.38873">
        <ele>305.598907</ele>
        <time>2020-05-12T12:43:26Z</time>
      </trkpt>
      <trkpt lat="47.82051" lon="6.38873">
        <ele>305.608246</ele>
        <time>2020-05-12T12:43:28Z</time>
      </trkpt>
      <trkpt lat="47.82051" lon="6.38873">
        <ele>305.591278</ele>
        <time>2020-05-12T12:43:29Z</time>
      </trkpt>
      <trkpt lat="47.82051" lon="6.38873">
        <ele>305.602356</ele>
        <time>2020-05-12T12:43:31Z</time>
      </trkpt>
      <trkpt lat="47.82051" lon="6.38873">
        <ele>305.611694</ele>
        <time>2020-05-12T12:43:32Z</time>
      </trkpt>
      <trkpt lat="47.82051" lon="6.38873">
        <ele>305.604095</ele>
        <time>2020-05-12T12:43:33Z</time>
      </trkpt>
      <trkpt lat="47.82052" lon="6.38873">
        <ele>305.613434</ele>
        <time>2020-05-12T12:43:35Z</time>
      </trkpt>
      <trkpt lat="47.82052" lon="6.38873">
        <ele>305.605835</ele>
        <time>2020-05-12T12:43:37Z</time>
      </trkpt>
      <trkpt lat="47.82052" lon="6.38873">
        <ele>305.615204</ele>
        <time>2020-05-12T12:43:38Z</time>
      </trkpt>
      <trkpt lat="47.82052" lon="6.38873">
        <ele>305.607605</ele>
        <time>2020-05-12T12:43:39Z</time>
      </trkpt>
      <trkpt lat="47.82052" lon="6.38873">
        <ele>305.616974</ele>
        <time>2020-05-12T12:43:41Z</time>
      </trkpt>
      <trkpt lat="47.82052" lon="6.38873">
        <ele>305.609375</ele>
        <time>2020-05-12T12:43:43Z</time>
      </trkpt>
      <trkpt lat="47.82052" lon="6.38874">
        <ele>305.611176</ele>
        <time>2020-05-12T12:43:45Z</time>
      </trkpt>
      <trkpt lat="47.82052" lon="6.38874">
        <ele>305.601776</ele>
        <time>2020-05-12T12:43:46Z</time>
      </trkpt>
      <trkpt lat="47.82053" lon="6.38874">
        <ele>305.612976</ele>
        <time>2020-05-12T12:43:48Z</time>
      </trkpt>
      <trkpt lat="47.82053" lon="6.38874">
        <ele>305.603577</ele>
        <time>2020-05-12T12:43:49Z</time>
      </trkpt>
      <trkpt lat="47.82053" lon="6.38874">
        <ele>305.614777</ele>
        <time>2020-05-12T12:43:51Z</time>
      </trkpt>
      <trkpt lat="47.82053" lon="6.38874">
        <ele>305.605377</ele>
        <time>2020-05-12T12:43:52Z</time>
      </trkpt>
      <trkpt lat="47.82053" lon="6.38874">
        <ele>305.616608</ele>
        <time>2020-05-12T12:43:54Z</time>
      </trkpt>
      <trkpt lat="47.82053" lon="6.38874">
        <ele>305.626007</ele>
        <time>2020-05-12T12:43:55Z</time>
      </trkpt>
      <trkpt lat="47.82053" lon="6.38874">
        <ele>305.618439</ele>
        <time>2020-05-12T12:43:57Z</time>
      </trkpt>
      <trkpt lat="47.82053" lon="6.38874">
        <ele>305.627838</ele>
        <time>2020-05-12T12:43:59Z</time>
      </trkpt>
      <trkpt lat="47.82053" lon="6.38874">
        <ele>305.6203</ele>
        <time>2020-05-12T12:44:00Z</time>
      </trkpt>
      <trkpt lat="47.82054" lon="6.38874">
        <ele>305.622162</ele>
        <time>2020-05-12T12:44:01Z</time>
      </trkpt>
      <trkpt lat="47.82054" lon="6.38874">
        <ele>305.612732</ele>
        <time>2020-05-12T12:44:03Z</time>
      </trkpt>
      <trkpt lat="47.82054" lon="6.38874">
        <ele>305.631561</ele>
        <time>2020-05-12T12:44:04Z</time>
      </trkpt>
      <trkpt lat="47.82054" lon="6.38874">
        <ele>305.614594</ele>
        <time>2020-05-12T12:44:06Z</time>
      </trkpt>
      <trkpt lat="47.82054" lon="6.38874">
        <ele>305.633453</ele>
        <time>2020-05-12T12:44:07Z</time>
      </trkpt>
      <trkpt lat="47.82054" lon="6.38874">
        <ele>305.616486</ele>
        <time>2020-05-12T12:44:08Z</time>
      </trkpt>
      <trkpt lat="47.82054" lon="6.38874">
        <ele>305.618378</ele>
        <time>2020-05-12T12:44:10Z</time>
      </trkpt>
      <trkpt lat="47.82054" lon="6.38874">
        <ele>305.618378</ele>
        <time>2020-05-12T12:44:11Z</time>
      </trkpt>
      <trkpt lat="47.82055" lon="6.38875">
        <ele>305.62973</ele>
        <time>2020-05-12T12:44:39Z</time>
      </trkpt>
      <trkpt lat="47.82055" lon="6.38875">
        <ele>305.63916</ele>
        <time>2020-05-12T12:44:41Z</time>
      </trkpt>
      <trkpt lat="47.82055" lon="6.38875">
        <ele>305.622192</ele>
        <time>2020-05-12T12:44:42Z</time>
      </trkpt>
      <trkpt lat="47.82055" lon="6.38875">
        <ele>305.641113</ele>
        <time>2020-05-12T12:44:43Z</time>
      </trkpt>
      <trkpt lat="47.82055" lon="6.38875">
        <ele>305.624146</ele>
        <time>2020-05-12T12:44:45Z</time>
      </trkpt>
      <trkpt lat="47.82055" lon="6.38875">
        <ele>305.643036</ele>
        <time>2020-05-12T12:44:46Z</time>
      </trkpt>
      <trkpt lat="47.82055" lon="6.38875">
        <ele>305.626068</ele>
        <time>2020-05-12T12:44:48Z</time>
      </trkpt>
      <trkpt lat="47.82055" lon="6.38875">
        <ele>305.644989</ele>
        <time>2020-05-12T12:44:49Z</time>
      </trkpt>
      <trkpt lat="47.82056" lon="6.38875">
        <ele>305.628021</ele>
        <time>2020-05-12T12:44:50Z</time>
      </trkpt>
      <trkpt lat="47.82056" lon="6.38875">
        <ele>305.630005</ele>
        <time>2020-05-12T12:44:52Z</time>
      </trkpt>
      <trkpt lat="47.82056" lon="6.38875">
        <ele>305.630005</ele>
        <time>2020-05-12T12:44:53Z</time>
      </trkpt>
      <trkpt lat="47.82056" lon="6.38875">
        <ele>305.639465</ele>
        <time>2020-05-12T12:44:55Z</time>
      </trkpt>
      <trkpt lat="47.82056" lon="6.38875">
        <ele>305.631989</ele>
        <time>2020-05-12T12:44:56Z</time>
      </trkpt>
      <trkpt lat="47.82056" lon="6.38875">
        <ele>305.633972</ele>
        <time>2020-05-12T12:44:58Z</time>
      </trkpt>
      <trkpt lat="47.82056" lon="6.38875">
        <ele>305.633972</ele>
        <time>2020-05-12T12:44:59Z</time>
      </trkpt>
      <trkpt lat="47.82056" lon="6.38875">
        <ele>305.635986</ele>
        <time>2020-05-12T12:45:00Z</time>
      </trkpt>
      <trkpt lat="47.82058" lon="6.38876">
        <ele>305.61969</ele>
        <time>2020-05-12T12:45:01Z</time>
      </trkpt>
      <trkpt lat="47.82061" lon="6.38877">
        <ele>305.659485</ele>
        <time>2020-05-12T12:45:03Z</time>
      </trkpt>
      <trkpt lat="47.82066" lon="6.3888">
        <ele>305.717102</ele>
        <time>2020-05-12T12:45:04Z</time>
      </trkpt>
      <trkpt lat="47.8207" lon="6.3888">
        <ele>305.591736</ele>
        <time>2020-05-12T12:45:05Z</time>
      </trkpt>
      <trkpt lat="47.82073" lon="6.38879">
        <ele>305.304016</ele>
        <time>2020-05-12T12:45:07Z</time>
      </trkpt>
      <trkpt lat="47.82076" lon="6.3888">
        <ele>305.276001</ele>
        <time>2020-05-12T12:45:08Z</time>
      </trkpt>
      <trkpt lat="47.82077" lon="6.3888">
        <ele>305.288666</ele>
        <time>2020-05-12T12:45:09Z</time>
      </trkpt>
      <trkpt lat="47.82078" lon="6.38881">
        <ele>305.246002</ele>
        <time>2020-05-12T12:45:10Z</time>
      </trkpt>
      <trkpt lat="47.82079" lon="6.38881">
        <ele>305.251923</ele>
        <time>2020-05-12T12:45:12Z</time>
      </trkpt>
      <trkpt lat="47.8208" lon="6.38882">
        <ele>305.180817</ele>
        <time>2020-05-12T12:45:13Z</time>
      </trkpt>
      <trkpt lat="47.82086" lon="6.38883">
        <ele>304.890381</ele>
        <time>2020-05-12T12:45:14Z</time>
      </trkpt>
      <trkpt lat="47.82091" lon="6.38885">
        <ele>304.68158</ele>
        <time>2020-05-12T12:45:16Z</time>
      </trkpt>
      <trkpt lat="47.82099" lon="6.38889">
        <ele>304.428772</ele>
        <time>2020-05-12T12:45:17Z</time>
      </trkpt>
      <trkpt lat="47.82105" lon="6.38892">
        <ele>304.220459</ele>
        <time>2020-05-12T12:45:18Z</time>
      </trkpt>
      <trkpt lat="47.82112" lon="6.38896">
        <ele>303.983917</ele>
        <time>2020-05-12T12:45:19Z</time>
      </trkpt>
      <trkpt lat="47.82123" lon="6.38901">
        <ele>303.460571</ele>
        <time>2020-05-12T12:45:21Z</time>
      </trkpt>
      <trkpt lat="47.8213" lon="6.38905">
        <ele>302.972473</ele>
        <time>2020-05-12T12:45:22Z</time>
      </trkpt>
      <trkpt lat="47.82136" lon="6.38908">
        <ele>302.589691</ele>
        <time>2020-05-12T12:45:23Z</time>
      </trkpt>
      <trkpt lat="47.82143" lon="6.38913">
        <ele>302.089539</ele>
        <time>2020-05-12T12:45:25Z</time>
      </trkpt>
      <trkpt lat="47.82147" lon="6.38917">
        <ele>301.927307</ele>
        <time>2020-05-12T12:45:26Z</time>
      </trkpt>
      <trkpt lat="47.8215" lon="6.38922">
        <ele>301.932709</ele>
        <time>2020-05-12T12:45:28Z</time>
      </trkpt>
      <trkpt lat="47.82153" lon="6.38925">
        <ele>301.888733</ele>
        <time>2020-05-12T12:45:29Z</time>
      </trkpt>
      <trkpt lat="47.82156" lon="6.38929">
        <ele>301.825562</ele>
        <time>2020-05-12T12:45:30Z</time>
      </trkpt>
      <trkpt lat="47.82159" lon="6.38934">
        <ele>301.771606</ele>
        <time>2020-05-12T12:45:31Z</time>
      </trkpt>
      <trkpt lat="47.82163" lon="6.3894">
        <ele>301.719025</ele>
        <time>2020-05-12T12:45:32Z</time>
      </trkpt>
      <trkpt lat="47.82166" lon="6.38946">
        <ele>301.771271</ele>
        <time>2020-05-12T12:45:33Z</time>
      </trkpt>
      <trkpt lat="47.82171" lon="6.38955">
        <ele>301.989838</ele>
        <time>2020-05-12T12:45:35Z</time>
      </trkpt>
      <trkpt lat="47.82176" lon="6.38967">
        <ele>302.283844</ele>
        <time>2020-05-12T12:45:36Z</time>
      </trkpt>
      <trkpt lat="47.8218" lon="6.38975">
        <ele>302.328217</ele>
        <time>2020-05-12T12:45:38Z</time>
      </trkpt>
      <trkpt lat="47.82183" lon="6.38977">
        <ele>302.068848</ele>
        <time>2020-05-12T12:45:39Z</time>
      </trkpt>
      <trkpt lat="47.82188" lon="6.38978">
        <ele>301.558258</ele>
        <time>2020-05-12T12:45:41Z</time>
      </trkpt>
      <trkpt lat="47.82191" lon="6.38979">
        <ele>301.274841</ele>
        <time>2020-05-12T12:45:42Z</time>
      </trkpt>
      <trkpt lat="47.82201" lon="6.38987">
        <ele>300.520111</ele>
        <time>2020-05-12T12:45:43Z</time>
      </trkpt>
      <trkpt lat="47.8221" lon="6.38995">
        <ele>300.022675</ele>
        <time>2020-05-12T12:45:44Z</time>
      </trkpt>
      <trkpt lat="47.82216" lon="6.39001">
        <ele>299.832184</ele>
        <time>2020-05-12T12:45:45Z</time>
      </trkpt>
      <trkpt lat="47.8222" lon="6.39005">
        <ele>299.659912</ele>
        <time>2020-05-12T12:45:46Z</time>
      </trkpt>
      <trkpt lat="47.82225" lon="6.39009">
        <ele>299.43335</ele>
        <time>2020-05-12T12:45:47Z</time>
      </trkpt>
      <trkpt lat="47.82229" lon="6.39013">
        <ele>299.259247</ele>
        <time>2020-05-12T12:45:49Z</time>
      </trkpt>
      <trkpt lat="47.82233" lon="6.39017">
        <ele>299.09726</ele>
        <time>2020-05-12T12:45:50Z</time>
      </trkpt>
      <trkpt lat="47.82234" lon="6.39021">
        <ele>299.036865</ele>
        <time>2020-05-12T12:45:51Z</time>
      </trkpt>
      <trkpt lat="47.82235" lon="6.39026">
        <ele>299.037659</ele>
        <time>2020-05-12T12:45:52Z</time>
      </trkpt>
      <trkpt lat="47.82237" lon="6.39027">
        <ele>298.84848</ele>
        <time>2020-05-12T12:45:54Z</time>
      </trkpt>
      <trkpt lat="47.82239" lon="6.39031">
        <ele>298.764923</ele>
        <time>2020-05-12T12:45:56Z</time>
      </trkpt>
      <trkpt lat="47.8224" lon="6.39038">
        <ele>298.670807</ele>
        <time>2020-05-12T12:45:57Z</time>
      </trkpt>
      <trkpt lat="47.82242" lon="6.39046">
        <ele>298.571564</ele>
        <time>2020-05-12T12:45:59Z</time>
      </trkpt>
      <trkpt lat="47.82243" lon="6.3905">
        <ele>298.457794</ele>
        <time>2020-05-12T12:46:00Z</time>
      </trkpt>
      <trkpt lat="47.82248" lon="6.39061">
        <ele>298.00473</ele>
        <time>2020-05-12T12:46:02Z</time>
      </trkpt>
      <trkpt lat="47.82252" lon="6.39067">
        <ele>298.072571</ele>
        <time>2020-05-12T12:46:03Z</time>
      </trkpt>
      <trkpt lat="47.82255" lon="6.39073">
        <ele>298.122803</ele>
        <time>2020-05-12T12:46:04Z</time>
      </trkpt>
      <trkpt lat="47.82258" lon="6.3908">
        <ele>298.156555</ele>
        <time>2020-05-12T12:46:06Z</time>
      </trkpt>
      <trkpt lat="47.82261" lon="6.39084">
        <ele>298.182617</ele>
        <time>2020-05-12T12:46:07Z</time>
      </trkpt>
      <trkpt lat="47.82267" lon="6.39091">
        <ele>298.225647</ele>
        <time>2020-05-12T12:46:09Z</time>
      </trkpt>
      <trkpt lat="47.82276" lon="6.39101">
        <ele>298.246429</ele>
        <time>2020-05-12T12:46:11Z</time>
      </trkpt>
      <trkpt lat="47.82281" lon="6.39111">
        <ele>298.179016</ele>
        <time>2020-05-12T12:46:12Z</time>
      </trkpt>
      <trkpt lat="47.8229" lon="6.3913">
        <ele>298</ele>
        <time>2020-05-12T12:46:14Z</time>
      </trkpt>
      <trkpt lat="47.82295" lon="6.39144">
        <ele>298.473175</ele>
        <time>2020-05-12T12:46:15Z</time>
      </trkpt>
      <trkpt lat="47.82299" lon="6.39155">
        <ele>298.998535</ele>
        <time>2020-05-12T12:46:17Z</time>
      </trkpt>
      <trkpt lat="47.82302" lon="6.39162">
        <ele>299.255798</ele>
        <time>2020-05-12T12:46:18Z</time>
      </trkpt>
      <trkpt lat="47.82306" lon="6.39168">
        <ele>299.516052</ele>
        <time>2020-05-12T12:46:20Z</time>
      </trkpt>
      <trkpt lat="47.82309" lon="6.39173">
        <ele>299.722137</ele>
        <time>2020-05-12T12:46:21Z</time>
      </trkpt>
      <trkpt lat="47.82313" lon="6.39179">
        <ele>299.995453</ele>
        <time>2020-05-12T12:46:23Z</time>
      </trkpt>
      <trkpt lat="47.82317" lon="6.39184">
        <ele>300.177094</ele>
        <time>2020-05-12T12:46:24Z</time>
      </trkpt>
      <trkpt lat="47.82324" lon="6.39192">
        <ele>300.460144</ele>
        <time>2020-05-12T12:46:26Z</time>
      </trkpt>
      <trkpt lat="47.82328" lon="6.39196">
        <ele>300.656494</ele>
        <time>2020-05-12T12:46:27Z</time>
      </trkpt>
      <trkpt lat="47.82332" lon="6.39201">
        <ele>300.868011</ele>
        <time>2020-05-12T12:46:28Z</time>
      </trkpt>
      <trkpt lat="47.82338" lon="6.39209">
        <ele>301.501984</ele>
        <time>2020-05-12T12:46:30Z</time>
      </trkpt>
      <trkpt lat="47.82342" lon="6.39214">
        <ele>302.055237</ele>
        <time>2020-05-12T12:46:32Z</time>
      </trkpt>
      <trkpt lat="47.82344" lon="6.39218">
        <ele>302.311249</ele>
        <time>2020-05-12T12:46:33Z</time>
      </trkpt>
      <trkpt lat="47.82346" lon="6.39221">
        <ele>302.514465</ele>
        <time>2020-05-12T12:46:34Z</time>
      </trkpt>
      <trkpt lat="47.82348" lon="6.39225">
        <ele>302.710114</ele>
        <time>2020-05-12T12:46:35Z</time>
      </trkpt>
      <trkpt lat="47.82351" lon="6.39229">
        <ele>302.96524</ele>
        <time>2020-05-12T12:46:36Z</time>
      </trkpt>
      <trkpt lat="47.82352" lon="6.39231">
        <ele>303.07312</ele>
        <time>2020-05-12T12:46:37Z</time>
      </trkpt>
      <trkpt lat="47.82355" lon="6.39236">
        <ele>303.358063</ele>
        <time>2020-05-12T12:46:39Z</time>
      </trkpt>
      <trkpt lat="47.82358" lon="6.39239">
        <ele>303.695313</ele>
        <time>2020-05-12T12:46:40Z</time>
      </trkpt>
      <trkpt lat="47.82361" lon="6.39239">
        <ele>304.129089</ele>
        <time>2020-05-12T12:46:41Z</time>
      </trkpt>
      <trkpt lat="47.82366" lon="6.39237">
        <ele>304.856262</ele>
        <time>2020-05-12T12:46:43Z</time>
      </trkpt>
      <trkpt lat="47.82368" lon="6.39236">
        <ele>305.097565</ele>
        <time>2020-05-12T12:46:44Z</time>
      </trkpt>
      <trkpt lat="47.82369" lon="6.39235">
        <ele>305.34079</ele>
        <time>2020-05-12T12:46:45Z</time>
      </trkpt>
      <trkpt lat="47.82374" lon="6.39234">
        <ele>306.065704</ele>
        <time>2020-05-12T12:46:47Z</time>
      </trkpt>
      <trkpt lat="47.82377" lon="6.39233">
        <ele>306.514862</ele>
        <time>2020-05-12T12:46:48Z</time>
      </trkpt>
      <trkpt lat="47.82378" lon="6.39232">
        <ele>306.672119</ele>
        <time>2020-05-12T12:46:49Z</time>
      </trkpt>
      <trkpt lat="47.82381" lon="6.39231">
        <ele>307.130096</ele>
        <time>2020-05-12T12:46:51Z</time>
      </trkpt>
      <trkpt lat="47.82383" lon="6.3923">
        <ele>307.527954</ele>
        <time>2020-05-12T12:46:52Z</time>
      </trkpt>
      <trkpt lat="47.82387" lon="6.39229">
        <ele>308.084717</ele>
        <time>2020-05-12T12:46:53Z</time>
      </trkpt>
      <trkpt lat="47.82388" lon="6.39229">
        <ele>308.294617</ele>
        <time>2020-05-12T12:46:54Z</time>
      </trkpt>
      <trkpt lat="47.82391" lon="6.39229">
        <ele>308.689606</ele>
        <time>2020-05-12T12:46:56Z</time>
      </trkpt>
      <trkpt lat="47.82394" lon="6.39229">
        <ele>309.141693</ele>
        <time>2020-05-12T12:46:57Z</time>
      </trkpt>
      <trkpt lat="47.82398" lon="6.39229">
        <ele>309.651184</ele>
        <time>2020-05-12T12:46:58Z</time>
      </trkpt>
      <trkpt lat="47.82404" lon="6.39227">
        <ele>310.584595</ele>
        <time>2020-05-12T12:47:00Z</time>
      </trkpt>
      <trkpt lat="47.82408" lon="6.39227">
        <ele>311.134796</ele>
        <time>2020-05-12T12:47:01Z</time>
      </trkpt>
      <trkpt lat="47.82409" lon="6.39227">
        <ele>311.392334</ele>
        <time>2020-05-12T12:47:02Z</time>
      </trkpt>
      <trkpt lat="47.82414" lon="6.39227">
        <ele>312.08255</ele>
        <time>2020-05-12T12:47:04Z</time>
      </trkpt>
      <trkpt lat="47.82416" lon="6.39227">
        <ele>312.413666</ele>
        <time>2020-05-12T12:47:05Z</time>
      </trkpt>
      <trkpt lat="47.82418" lon="6.39227">
        <ele>312.712463</ele>
        <time>2020-05-12T12:47:06Z</time>
      </trkpt>
      <trkpt lat="47.82422" lon="6.39225">
        <ele>313.233612</ele>
        <time>2020-05-12T12:47:08Z</time>
      </trkpt>
      <trkpt lat="47.82426" lon="6.39224">
        <ele>313.649902</ele>
        <time>2020-05-12T12:47:09Z</time>
      </trkpt>
      <trkpt lat="47.82428" lon="6.39224">
        <ele>313.819489</ele>
        <time>2020-05-12T12:47:10Z</time>
      </trkpt>
      <trkpt lat="47.82431" lon="6.39223">
        <ele>314.016296</ele>
        <time>2020-05-12T12:47:11Z</time>
      </trkpt>
      <trkpt lat="47.82432" lon="6.39223">
        <ele>314.105011</ele>
        <time>2020-05-12T12:47:12Z</time>
      </trkpt>
      <trkpt lat="47.82433" lon="6.39223">
        <ele>314.197968</ele>
        <time>2020-05-12T12:47:13Z</time>
      </trkpt>
      <trkpt lat="47.82436" lon="6.39222">
        <ele>314.468628</ele>
        <time>2020-05-12T12:47:14Z</time>
      </trkpt>
      <trkpt lat="47.82438" lon="6.39222">
        <ele>314.574585</ele>
        <time>2020-05-12T12:47:15Z</time>
      </trkpt>
      <trkpt lat="47.82442" lon="6.39221">
        <ele>314.878479</ele>
        <time>2020-05-12T12:47:16Z</time>
      </trkpt>
      <trkpt lat="47.82443" lon="6.39221">
        <ele>314.965118</ele>
        <time>2020-05-12T12:47:17Z</time>
      </trkpt>
      <trkpt lat="47.82446" lon="6.3922">
        <ele>315.211517</ele>
        <time>2020-05-12T12:47:18Z</time>
      </trkpt>
      <trkpt lat="47.82452" lon="6.39219">
        <ele>315.700256</ele>
        <time>2020-05-12T12:47:20Z</time>
      </trkpt>
      <trkpt lat="47.82456" lon="6.39219">
        <ele>315.935944</ele>
        <time>2020-05-12T12:47:21Z</time>
      </trkpt>
      <trkpt lat="47.82457" lon="6.39219">
        <ele>316.009369</ele>
        <time>2020-05-12T12:47:22Z</time>
      </trkpt>
      <trkpt lat="47.8246" lon="6.3922">
        <ele>316.241455</ele>
        <time>2020-05-12T12:47:23Z</time>
      </trkpt>
      <trkpt lat="47.82464" lon="6.39221">
        <ele>316.496002</ele>
        <time>2020-05-12T12:47:25Z</time>
      </trkpt>
      <trkpt lat="47.82467" lon="6.39221">
        <ele>316.734711</ele>
        <time>2020-05-12T12:47:26Z</time>
      </trkpt>
      <trkpt lat="47.82471" lon="6.39221">
        <ele>317.028656</ele>
        <time>2020-05-12T12:47:28Z</time>
      </trkpt>
      <trkpt lat="47.82479" lon="6.39219">
        <ele>317.645813</ele>
        <time>2020-05-12T12:47:30Z</time>
      </trkpt>
      <trkpt lat="47.82483" lon="6.39217">
        <ele>317.887238</ele>
        <time>2020-05-12T12:47:31Z</time>
      </trkpt>
      <trkpt lat="47.82484" lon="6.39216">
        <ele>317.97525</ele>
        <time>2020-05-12T12:47:32Z</time>
      </trkpt>
      <trkpt lat="47.82487" lon="6.39214">
        <ele>318.200378</ele>
        <time>2020-05-12T12:47:33Z</time>
      </trkpt>
      <trkpt lat="47.82491" lon="6.3921">
        <ele>318.494385</ele>
        <time>2020-05-12T12:47:35Z</time>
      </trkpt>
      <trkpt lat="47.82494" lon="6.39207">
        <ele>318.710785</ele>
        <time>2020-05-12T12:47:37Z</time>
      </trkpt>
      <trkpt lat="47.82496" lon="6.39205">
        <ele>318.8573</ele>
        <time>2020-05-12T12:47:38Z</time>
      </trkpt>
      <trkpt lat="47.82501" lon="6.392">
        <ele>319.172058</ele>
        <time>2020-05-12T12:47:40Z</time>
      </trkpt>
      <trkpt lat="47.82502" lon="6.392">
        <ele>319.274841</ele>
        <time>2020-05-12T12:47:41Z</time>
      </trkpt>
      <trkpt lat="47.82505" lon="6.39198">
        <ele>319.435486</ele>
        <time>2020-05-12T12:47:43Z</time>
      </trkpt>
      <trkpt lat="47.82506" lon="6.39197">
        <ele>319.537781</ele>
        <time>2020-05-12T12:47:44Z</time>
      </trkpt>
      <trkpt lat="47.82508" lon="6.39196">
        <ele>319.610107</ele>
        <time>2020-05-12T12:47:45Z</time>
      </trkpt>
      <trkpt lat="47.8251" lon="6.39195">
        <ele>319.792145</ele>
        <time>2020-05-12T12:47:47Z</time>
      </trkpt>
      <trkpt lat="47.82511" lon="6.39195">
        <ele>319.847717</ele>
        <time>2020-05-12T12:47:48Z</time>
      </trkpt>
      <trkpt lat="47.82515" lon="6.39193">
        <ele>320.068298</ele>
        <time>2020-05-12T12:47:50Z</time>
      </trkpt>
      <trkpt lat="47.82517" lon="6.39192">
        <ele>320.1763</ele>
        <time>2020-05-12T12:47:51Z</time>
      </trkpt>
      <trkpt lat="47.82518" lon="6.3919">
        <ele>320.228546</ele>
        <time>2020-05-12T12:47:52Z</time>
      </trkpt>
      <trkpt lat="47.8252" lon="6.39188">
        <ele>320.343536</ele>
        <time>2020-05-12T12:47:54Z</time>
      </trkpt>
      <trkpt lat="47.8252" lon="6.39187">
        <ele>320.368011</ele>
        <time>2020-05-12T12:47:55Z</time>
      </trkpt>
      <trkpt lat="47.82522" lon="6.39183">
        <ele>320.477081</ele>
        <time>2020-05-12T12:47:56Z</time>
      </trkpt>
      <trkpt lat="47.82524" lon="6.3918">
        <ele>320.567566</ele>
        <time>2020-05-12T12:47:58Z</time>
      </trkpt>
      <trkpt lat="47.82525" lon="6.39178">
        <ele>320.587494</ele>
        <time>2020-05-12T12:47:59Z</time>
      </trkpt>
      <trkpt lat="47.82527" lon="6.39175">
        <ele>320.661835</ele>
        <time>2020-05-12T12:48:00Z</time>
      </trkpt>
      <trkpt lat="47.82529" lon="6.39172">
        <ele>320.757172</ele>
        <time>2020-05-12T12:48:02Z</time>
      </trkpt>
      <trkpt lat="47.82531" lon="6.3917">
        <ele>320.876434</ele>
        <time>2020-05-12T12:48:03Z</time>
      </trkpt>
      <trkpt lat="47.82534" lon="6.39169">
        <ele>321.02063</ele>
        <time>2020-05-12T12:48:04Z</time>
      </trkpt>
      <trkpt lat="47.82535" lon="6.39168">
        <ele>321.062988</ele>
        <time>2020-05-12T12:48:05Z</time>
      </trkpt>
      <trkpt lat="47.82538" lon="6.39166">
        <ele>321.187073</ele>
        <time>2020-05-12T12:48:06Z</time>
      </trkpt>
      <trkpt lat="47.82541" lon="6.39164">
        <ele>321.315887</ele>
        <time>2020-05-12T12:48:07Z</time>
      </trkpt>
      <trkpt lat="47.82547" lon="6.39162">
        <ele>321.559265</ele>
        <time>2020-05-12T12:48:09Z</time>
      </trkpt>
      <trkpt lat="47.82549" lon="6.39161">
        <ele>321.69162</ele>
        <time>2020-05-12T12:48:10Z</time>
      </trkpt>
      <trkpt lat="47.82552" lon="6.39158">
        <ele>321.784058</ele>
        <time>2020-05-12T12:48:12Z</time>
      </trkpt>
      <trkpt lat="47.82555" lon="6.39155">
        <ele>321.845154</ele>
        <time>2020-05-12T12:48:13Z</time>
      </trkpt>
      <trkpt lat="47.82557" lon="6.39152">
        <ele>321.92627</ele>
        <time>2020-05-12T12:48:14Z</time>
      </trkpt>
      <trkpt lat="47.82561" lon="6.39147">
        <ele>322</ele>
        <time>2020-05-12T12:48:16Z</time>
      </trkpt>
      <trkpt lat="47.82563" lon="6.39143">
        <ele>321.975006</ele>
        <time>2020-05-12T12:48:17Z</time>
      </trkpt>
      <trkpt lat="47.82568" lon="6.39137">
        <ele>321.952484</ele>
        <time>2020-05-12T12:48:18Z</time>
      </trkpt>
      <trkpt lat="47.82571" lon="6.39132">
        <ele>321.972504</ele>
        <time>2020-05-12T12:48:20Z</time>
      </trkpt>
      <trkpt lat="47.82578" lon="6.39127">
        <ele>322.0625</ele>
        <time>2020-05-12T12:48:21Z</time>
      </trkpt>
      <trkpt lat="47.82581" lon="6.39123">
        <ele>322.117493</ele>
        <time>2020-05-12T12:48:23Z</time>
      </trkpt>
      <trkpt lat="47.82585" lon="6.39121">
        <ele>322.172485</ele>
        <time>2020-05-12T12:48:24Z</time>
      </trkpt>
      <trkpt lat="47.82589" lon="6.39119">
        <ele>322.297485</ele>
        <time>2020-05-12T12:48:26Z</time>
      </trkpt>
      <trkpt lat="47.8259" lon="6.39119">
        <ele>322.334991</ele>
        <time>2020-05-12T12:48:27Z</time>
      </trkpt>
      <trkpt lat="47.82594" lon="6.39117">
        <ele>322.464996</ele>
        <time>2020-05-12T12:48:28Z</time>
      </trkpt>
      <trkpt lat="47.82597" lon="6.39117">
        <ele>322.579987</ele>
        <time>2020-05-12T12:48:29Z</time>
      </trkpt>
      <trkpt lat="47.82603" lon="6.39116">
        <ele>322.795013</ele>
        <time>2020-05-12T12:48:31Z</time>
      </trkpt>
      <trkpt lat="47.82607" lon="6.39116">
        <ele>322.947327</ele>
        <time>2020-05-12T12:48:32Z</time>
      </trkpt>
      <trkpt lat="47.82613" lon="6.39116">
        <ele>323.279388</ele>
        <time>2020-05-12T12:48:34Z</time>
      </trkpt>
      <trkpt lat="47.82617" lon="6.39116">
        <ele>323.477448</ele>
        <time>2020-05-12T12:48:35Z</time>
      </trkpt>
      <trkpt lat="47.8262" lon="6.39116">
        <ele>323.653015</ele>
        <time>2020-05-12T12:48:36Z</time>
      </trkpt>
      <trkpt lat="47.82626" lon="6.39116">
        <ele>323.953583</ele>
        <time>2020-05-12T12:48:38Z</time>
      </trkpt>
      <trkpt lat="47.82632" lon="6.39116">
        <ele>324.252197</ele>
        <time>2020-05-12T12:48:39Z</time>
      </trkpt>
      <trkpt lat="47.82638" lon="6.39115">
        <ele>324.527252</ele>
        <time>2020-05-12T12:48:40Z</time>
      </trkpt>
      <trkpt lat="47.82642" lon="6.39115">
        <ele>324.767395</ele>
        <time>2020-05-12T12:48:42Z</time>
      </trkpt>
      <trkpt lat="47.82644" lon="6.39116">
        <ele>324.847107</ele>
        <time>2020-05-12T12:48:43Z</time>
      </trkpt>
      <trkpt lat="47.82647" lon="6.39116">
        <ele>325.043365</ele>
        <time>2020-05-12T12:48:44Z</time>
      </trkpt>
      <trkpt lat="47.8265" lon="6.39117">
        <ele>325.22348</ele>
        <time>2020-05-12T12:48:45Z</time>
      </trkpt>
      <trkpt lat="47.82653" lon="6.39118">
        <ele>325.439545</ele>
        <time>2020-05-12T12:48:46Z</time>
      </trkpt>
      <trkpt lat="47.82656" lon="6.39119">
        <ele>325.637604</ele>
        <time>2020-05-12T12:48:47Z</time>
      </trkpt>
      <trkpt lat="47.8266" lon="6.39121">
        <ele>325.914734</ele>
        <time>2020-05-12T12:48:49Z</time>
      </trkpt>
      <trkpt lat="47.82664" lon="6.39123">
        <ele>326.203613</ele>
        <time>2020-05-12T12:48:50Z</time>
      </trkpt>
      <trkpt lat="47.82669" lon="6.39125">
        <ele>326.652954</ele>
        <time>2020-05-12T12:48:51Z</time>
      </trkpt>
      <trkpt lat="47.82672" lon="6.39127">
        <ele>326.836151</ele>
        <time>2020-05-12T12:48:52Z</time>
      </trkpt>
      <trkpt lat="47.82678" lon="6.39129">
        <ele>327.298096</ele>
        <time>2020-05-12T12:48:54Z</time>
      </trkpt>
      <trkpt lat="47.82682" lon="6.39131">
        <ele>327.630096</ele>
        <time>2020-05-12T12:48:55Z</time>
      </trkpt>
      <trkpt lat="47.82686" lon="6.39132">
        <ele>327.867981</ele>
        <time>2020-05-12T12:48:57Z</time>
      </trkpt>
      <trkpt lat="47.82689" lon="6.39132">
        <ele>328.066864</ele>
        <time>2020-05-12T12:48:58Z</time>
      </trkpt>
      <trkpt lat="47.82692" lon="6.39133">
        <ele>328.291565</ele>
        <time>2020-05-12T12:48:59Z</time>
      </trkpt>
      <trkpt lat="47.827" lon="6.39135">
        <ele>328.785004</ele>
        <time>2020-05-12T12:49:01Z</time>
      </trkpt>
      <trkpt lat="47.82704" lon="6.39135">
        <ele>328.945007</ele>
        <time>2020-05-12T12:49:02Z</time>
      </trkpt>
      <trkpt lat="47.82708" lon="6.39135">
        <ele>329.130005</ele>
        <time>2020-05-12T12:49:04Z</time>
      </trkpt>
      <trkpt lat="47.82711" lon="6.39134">
        <ele>329.195007</ele>
        <time>2020-05-12T12:49:05Z</time>
      </trkpt>
      <trkpt lat="47.82715" lon="6.39133">
        <ele>329.234985</ele>
        <time>2020-05-12T12:49:06Z</time>
      </trkpt>
      <trkpt lat="47.82718" lon="6.39131">
        <ele>329.23999</ele>
        <time>2020-05-12T12:49:07Z</time>
      </trkpt>
      <trkpt lat="47.82724" lon="6.39127">
        <ele>329.230011</ele>
        <time>2020-05-12T12:49:09Z</time>
      </trkpt>
      <trkpt lat="47.82726" lon="6.39126">
        <ele>329.269989</ele>
        <time>2020-05-12T12:49:10Z</time>
      </trkpt>
      <trkpt lat="47.82728" lon="6.39125">
        <ele>329.309998</ele>
        <time>2020-05-12T12:49:11Z</time>
      </trkpt>
      <trkpt lat="47.82733" lon="6.39124">
        <ele>329.399994</ele>
        <time>2020-05-12T12:49:13Z</time>
      </trkpt>
      <trkpt lat="47.8274" lon="6.39122">
        <ele>329.540009</ele>
        <time>2020-05-12T12:49:15Z</time>
      </trkpt>
      <trkpt lat="47.82744" lon="6.39121">
        <ele>329.659241</ele>
        <time>2020-05-12T12:49:17Z</time>
      </trkpt>
      <trkpt lat="47.82748" lon="6.3912">
        <ele>329.789612</ele>
        <time>2020-05-12T12:49:18Z</time>
      </trkpt>
      <trkpt lat="47.8275" lon="6.39119">
        <ele>329.900208</ele>
        <time>2020-05-12T12:49:19Z</time>
      </trkpt>
      <trkpt lat="47.82755" lon="6.39118">
        <ele>330.03064</ele>
        <time>2020-05-12T12:49:20Z</time>
      </trkpt>
      <trkpt lat="47.8276" lon="6.39114">
        <ele>330.022034</ele>
        <time>2020-05-12T12:49:22Z</time>
      </trkpt>
      <trkpt lat="47.82763" lon="6.39112">
        <ele>330.001617</ele>
        <time>2020-05-12T12:49:23Z</time>
      </trkpt>
      <trkpt lat="47.82766" lon="6.39109">
        <ele>329.942596</ele>
        <time>2020-05-12T12:49:24Z</time>
      </trkpt>
      <trkpt lat="47.82769" lon="6.39105">
        <ele>329.786499</ele>
        <time>2020-05-12T12:49:26Z</time>
      </trkpt>
      <trkpt lat="47.8277" lon="6.39104">
        <ele>329.703033</ele>
        <time>2020-05-12T12:49:27Z</time>
      </trkpt>
      <trkpt lat="47.82772" lon="6.39099">
        <ele>329.440796</ele>
        <time>2020-05-12T12:49:28Z</time>
      </trkpt>
      <trkpt lat="47.82773" lon="6.39097">
        <ele>329.345123</ele>
        <time>2020-05-12T12:49:29Z</time>
      </trkpt>
      <trkpt lat="47.82775" lon="6.39091">
        <ele>329.394989</ele>
        <time>2020-05-12T12:49:30Z</time>
      </trkpt>
      <trkpt lat="47.82776" lon="6.39087">
        <ele>329.423126</ele>
        <time>2020-05-12T12:49:31Z</time>
      </trkpt>
      <trkpt lat="47.82777" lon="6.39085">
        <ele>329.40686</ele>
        <time>2020-05-12T12:49:32Z</time>
      </trkpt>
      <trkpt lat="47.82777" lon="6.39083">
        <ele>329.40097</ele>
        <time>2020-05-12T12:49:33Z</time>
      </trkpt>
      <trkpt lat="47.82778" lon="6.39078">
        <ele>329.418365</ele>
        <time>2020-05-12T12:49:35Z</time>
      </trkpt>
      <trkpt lat="47.82778" lon="6.39077">
        <ele>329.422485</ele>
        <time>2020-05-12T12:49:36Z</time>
      </trkpt>
      <trkpt lat="47.82779" lon="6.39072">
        <ele>329.461304</ele>
        <time>2020-05-12T12:49:38Z</time>
      </trkpt>
      <trkpt lat="47.8278" lon="6.39071">
        <ele>329.454498</ele>
        <time>2020-05-12T12:49:39Z</time>
      </trkpt>
      <trkpt lat="47.8278" lon="6.39068">
        <ele>329.480255</ele>
        <time>2020-05-12T12:49:40Z</time>
      </trkpt>
      <trkpt lat="47.82782" lon="6.39063">
        <ele>329.557373</ele>
        <time>2020-05-12T12:49:42Z</time>
      </trkpt>
      <trkpt lat="47.82783" lon="6.39059">
        <ele>329.619293</ele>
        <time>2020-05-12T12:49:43Z</time>
      </trkpt>
      <trkpt lat="47.82783" lon="6.39057">
        <ele>329.613312</ele>
        <time>2020-05-12T12:49:44Z</time>
      </trkpt>
      <trkpt lat="47.82784" lon="6.39054">
        <ele>329.634247</ele>
        <time>2020-05-12T12:49:45Z</time>
      </trkpt>
      <trkpt lat="47.82784" lon="6.3905">
        <ele>329.657501</ele>
        <time>2020-05-12T12:49:47Z</time>
      </trkpt>
      <trkpt lat="47.82785" lon="6.39047">
        <ele>329.681396</ele>
        <time>2020-05-12T12:49:48Z</time>
      </trkpt>
      <trkpt lat="47.82785" lon="6.39045">
        <ele>329.694855</ele>
        <time>2020-05-12T12:49:49Z</time>
      </trkpt>
      <trkpt lat="47.82786" lon="6.39041">
        <ele>329.758362</ele>
        <time>2020-05-12T12:49:51Z</time>
      </trkpt>
      <trkpt lat="47.82788" lon="6.39035">
        <ele>329.883148</ele>
        <time>2020-05-12T12:49:52Z</time>
      </trkpt>
      <trkpt lat="47.82789" lon="6.39032">
        <ele>329.940399</ele>
        <time>2020-05-12T12:49:53Z</time>
      </trkpt>
      <trkpt lat="47.8279" lon="6.3903">
        <ele>330.109924</ele>
        <time>2020-05-12T12:49:54Z</time>
      </trkpt>
      <trkpt lat="47.8279" lon="6.39027">
        <ele>330.641785</ele>
        <time>2020-05-12T12:49:55Z</time>
      </trkpt>
      <trkpt lat="47.82791" lon="6.39024">
        <ele>331.1091</ele>
        <time>2020-05-12T12:49:57Z</time>
      </trkpt>
      <trkpt lat="47.82792" lon="6.39019">
        <ele>331.780762</ele>
        <time>2020-05-12T12:49:58Z</time>
      </trkpt>
      <trkpt lat="47.82793" lon="6.39017">
        <ele>332.028076</ele>
        <time>2020-05-12T12:49:59Z</time>
      </trkpt>
      <trkpt lat="47.82794" lon="6.39011">
        <ele>332.843567</ele>
        <time>2020-05-12T12:50:01Z</time>
      </trkpt>
      <trkpt lat="47.82795" lon="6.39004">
        <ele>333.65744</ele>
        <time>2020-05-12T12:50:03Z</time>
      </trkpt>
      <trkpt lat="47.82796" lon="6.39">
        <ele>334.297241</ele>
        <time>2020-05-12T12:50:04Z</time>
      </trkpt>
      <trkpt lat="47.82797" lon="6.38994">
        <ele>334.975677</ele>
        <time>2020-05-12T12:50:05Z</time>
      </trkpt>
      <trkpt lat="47.82798" lon="6.38988">
        <ele>335.742432</ele>
        <time>2020-05-12T12:50:07Z</time>
      </trkpt>
      <trkpt lat="47.828" lon="6.38978">
        <ele>336.942596</ele>
        <time>2020-05-12T12:50:09Z</time>
      </trkpt>
      <trkpt lat="47.82801" lon="6.38972">
        <ele>337.650757</ele>
        <time>2020-05-12T12:50:10Z</time>
      </trkpt>
      <trkpt lat="47.82802" lon="6.38965">
        <ele>338.446686</ele>
        <time>2020-05-12T12:50:12Z</time>
      </trkpt>
      <trkpt lat="47.82803" lon="6.3896">
        <ele>338.613403</ele>
        <time>2020-05-12T12:50:13Z</time>
      </trkpt>
      <trkpt lat="47.82804" lon="6.38955">
        <ele>338.789215</ele>
        <time>2020-05-12T12:50:14Z</time>
      </trkpt>
      <trkpt lat="47.82806" lon="6.38943">
        <ele>339.171631</ele>
        <time>2020-05-12T12:50:15Z</time>
      </trkpt>
      <trkpt lat="47.82807" lon="6.38941">
        <ele>339.251984</ele>
        <time>2020-05-12T12:50:16Z</time>
      </trkpt>
      <trkpt lat="47.82807" lon="6.38935">
        <ele>339.4086</ele>
        <time>2020-05-12T12:50:18Z</time>
      </trkpt>
      <trkpt lat="47.82808" lon="6.3893">
        <ele>339.568054</ele>
        <time>2020-05-12T12:50:19Z</time>
      </trkpt>
      <trkpt lat="47.82808" lon="6.38928">
        <ele>339.618164</ele>
        <time>2020-05-12T12:50:20Z</time>
      </trkpt>
      <trkpt lat="47.82811" lon="6.38907">
        <ele>340.200836</ele>
        <time>2020-05-12T12:50:21Z</time>
      </trkpt>
      <trkpt lat="47.82817" lon="6.38894">
        <ele>340.013092</ele>
        <time>2020-05-12T12:50:23Z</time>
      </trkpt>
      <trkpt lat="47.82822" lon="6.38883">
        <ele>339.358002</ele>
        <time>2020-05-12T12:50:24Z</time>
      </trkpt>
      <trkpt lat="47.8283" lon="6.38867">
        <ele>338.504486</ele>
        <time>2020-05-12T12:50:25Z</time>
      </trkpt>
      <trkpt lat="47.82832" lon="6.38856">
        <ele>337.869171</ele>
        <time>2020-05-12T12:50:26Z</time>
      </trkpt>
      <trkpt lat="47.82834" lon="6.38841">
        <ele>336.965057</ele>
        <time>2020-05-12T12:50:28Z</time>
      </trkpt>
      <trkpt lat="47.82835" lon="6.38833">
        <ele>336.421204</ele>
        <time>2020-05-12T12:50:29Z</time>
      </trkpt>
      <trkpt lat="47.82835" lon="6.38823">
        <ele>335.538239</ele>
        <time>2020-05-12T12:50:30Z</time>
      </trkpt>
      <trkpt lat="47.82836" lon="6.38814">
        <ele>334.861664</ele>
        <time>2020-05-12T12:50:32Z</time>
      </trkpt>
      <trkpt lat="47.82837" lon="6.38808">
        <ele>334.339386</ele>
        <time>2020-05-12T12:50:33Z</time>
      </trkpt>
      <trkpt lat="47.82838" lon="6.38795">
        <ele>333.263489</ele>
        <time>2020-05-12T12:50:34Z</time>
      </trkpt>
      <trkpt lat="47.82842" lon="6.38779">
        <ele>331.944214</ele>
        <time>2020-05-12T12:50:36Z</time>
      </trkpt>
      <trkpt lat="47.82844" lon="6.38773">
        <ele>331.421783</ele>
        <time>2020-05-12T12:50:37Z</time>
      </trkpt>
      <trkpt lat="47.82846" lon="6.38768">
        <ele>330.859436</ele>
        <time>2020-05-12T12:50:38Z</time>
      </trkpt>
      <trkpt lat="47.82849" lon="6.38766">
        <ele>330.57785</ele>
        <time>2020-05-12T12:50:39Z</time>
      </trkpt>
      <trkpt lat="47.82849" lon="6.38767">
        <ele>330.585632</ele>
        <time>2020-05-12T12:50:40Z</time>
      </trkpt>
      <trkpt lat="47.82849" lon="6.38767">
        <ele>330.611481</ele>
        <time>2020-05-12T12:50:41Z</time>
      </trkpt>
      <trkpt lat="47.82848" lon="6.38765">
        <ele>330.461823</ele>
        <time>2020-05-12T12:50:42Z</time>
      </trkpt>
      <trkpt lat="47.8285" lon="6.38752">
        <ele>329.251434</ele>
        <time>2020-05-12T12:50:43Z</time>
      </trkpt>
      <trkpt lat="47.82852" lon="6.38739">
        <ele>327.920135</ele>
        <time>2020-05-12T12:50:44Z</time>
      </trkpt>
      <trkpt lat="47.82857" lon="6.38723">
        <ele>326.047516</ele>
        <time>2020-05-12T12:50:46Z</time>
      </trkpt>
      <trkpt lat="47.8286" lon="6.38715">
        <ele>324.923492</ele>
        <time>2020-05-12T12:50:48Z</time>
      </trkpt>
      <trkpt lat="47.82861" lon="6.38712">
        <ele>324.546387</ele>
        <time>2020-05-12T12:50:49Z</time>
      </trkpt>
      <trkpt lat="47.82863" lon="6.38712">
        <ele>324.461884</ele>
        <time>2020-05-12T12:50:50Z</time>
      </trkpt>
      <trkpt lat="47.82865" lon="6.38713">
        <ele>324.371643</ele>
        <time>2020-05-12T12:50:51Z</time>
      </trkpt>
      <trkpt lat="47.82867" lon="6.38716">
        <ele>324.46463</ele>
        <time>2020-05-12T12:50:53Z</time>
      </trkpt>
      <trkpt lat="47.82868" lon="6.38719">
        <ele>324.671234</ele>
        <time>2020-05-12T12:50:54Z</time>
      </trkpt>
      <trkpt lat="47.82872" lon="6.38731">
        <ele>325.515991</ele>
        <time>2020-05-12T12:50:56Z</time>
      </trkpt>
      <trkpt lat="47.82875" lon="6.38733">
        <ele>325.571655</ele>
        <time>2020-05-12T12:50:58Z</time>
      </trkpt>
      <trkpt lat="47.82878" lon="6.38732">
        <ele>325.250488</ele>
        <time>2020-05-12T12:50:59Z</time>
      </trkpt>
      <trkpt lat="47.8288" lon="6.3873">
        <ele>324.812286</ele>
        <time>2020-05-12T12:51:00Z</time>
      </trkpt>
      <trkpt lat="47.82884" lon="6.3873">
        <ele>324.438751</ele>
        <time>2020-05-12T12:51:01Z</time>
      </trkpt>
      <trkpt lat="47.82888" lon="6.3873">
        <ele>324.234406</ele>
        <time>2020-05-12T12:51:03Z</time>
      </trkpt>
      <trkpt lat="47.82892" lon="6.38731">
        <ele>324.21524</ele>
        <time>2020-05-12T12:51:04Z</time>
      </trkpt>
      <trkpt lat="47.82899" lon="6.38732">
        <ele>324.580475</ele>
        <time>2020-05-12T12:51:06Z</time>
      </trkpt>
      <trkpt lat="47.82903" lon="6.38733">
        <ele>324.958008</ele>
        <time>2020-05-12T12:51:07Z</time>
      </trkpt>
      <trkpt lat="47.82904" lon="6.38734">
        <ele>325.085602</ele>
        <time>2020-05-12T12:51:08Z</time>
      </trkpt>
      <trkpt lat="47.82908" lon="6.38735">
        <ele>325.361389</ele>
        <time>2020-05-12T12:51:09Z</time>
      </trkpt>
      <trkpt lat="47.8291" lon="6.38736">
        <ele>325.504761</ele>
        <time>2020-05-12T12:51:10Z</time>
      </trkpt>
      <trkpt lat="47.82914" lon="6.38736">
        <ele>325.670441</ele>
        <time>2020-05-12T12:51:12Z</time>
      </trkpt>
      <trkpt lat="47.82917" lon="6.38735">
        <ele>325.765991</ele>
        <time>2020-05-12T12:51:13Z</time>
      </trkpt>
      <trkpt lat="47.8292" lon="6.38734">
        <ele>325.827942</ele>
        <time>2020-05-12T12:51:14Z</time>
      </trkpt>
      <trkpt lat="47.82924" lon="6.3873">
        <ele>325.70697</ele>
        <time>2020-05-12T12:51:15Z</time>
      </trkpt>
      <trkpt lat="47.82927" lon="6.38728">
        <ele>325.696014</ele>
        <time>2020-05-12T12:51:17Z</time>
      </trkpt>
      <trkpt lat="47.82928" lon="6.38727">
        <ele>325.694</ele>
        <time>2020-05-12T12:51:18Z</time>
      </trkpt>
      <trkpt lat="47.82931" lon="6.38726">
        <ele>325.771515</ele>
        <time>2020-05-12T12:51:19Z</time>
      </trkpt>
      <trkpt lat="47.82932" lon="6.38726">
        <ele>325.808594</ele>
        <time>2020-05-12T12:51:20Z</time>
      </trkpt>
      <trkpt lat="47.82935" lon="6.38725">
        <ele>325.964996</ele>
        <time>2020-05-12T12:51:21Z</time>
      </trkpt>
      <trkpt lat="47.82937" lon="6.38724">
        <ele>326.204987</ele>
        <time>2020-05-12T12:51:23Z</time>
      </trkpt>
      <trkpt lat="47.82939" lon="6.38724">
        <ele>326.445007</ele>
        <time>2020-05-12T12:51:24Z</time>
      </trkpt>
      <trkpt lat="47.82941" lon="6.38723">
        <ele>326.684998</ele>
        <time>2020-05-12T12:51:25Z</time>
      </trkpt>
      <trkpt lat="47.82943" lon="6.38723">
        <ele>326.804993</ele>
        <time>2020-05-12T12:51:26Z</time>
      </trkpt>
      <trkpt lat="47.82944" lon="6.38722">
        <ele>326.975006</ele>
        <time>2020-05-12T12:51:28Z</time>
      </trkpt>
      <trkpt lat="47.82946" lon="6.3872">
        <ele>327.054993</ele>
        <time>2020-05-12T12:51:29Z</time>
      </trkpt>
      <trkpt lat="47.82947" lon="6.3872">
        <ele>327.144989</ele>
        <time>2020-05-12T12:51:30Z</time>
      </trkpt>
      <trkpt lat="47.82949" lon="6.38717">
        <ele>327.26001</ele>
        <time>2020-05-12T12:51:32Z</time>
      </trkpt>
      <trkpt lat="47.8295" lon="6.38715">
        <ele>327.265015</ele>
        <time>2020-05-12T12:51:33Z</time>
      </trkpt>
      <trkpt lat="47.82951" lon="6.38713">
        <ele>327.300018</ele>
        <time>2020-05-12T12:51:34Z</time>
      </trkpt>
      <trkpt lat="47.82954" lon="6.38707">
        <ele>327.418762</ele>
        <time>2020-05-12T12:51:36Z</time>
      </trkpt>
      <trkpt lat="47.82955" lon="6.38703">
        <ele>327.44751</ele>
        <time>2020-05-12T12:51:37Z</time>
      </trkpt>
      <trkpt lat="47.82957" lon="6.38698">
        <ele>327.576263</ele>
        <time>2020-05-12T12:51:39Z</time>
      </trkpt>
      <trkpt lat="47.82958" lon="6.38696">
        <ele>327.606262</ele>
        <time>2020-05-12T12:51:40Z</time>
      </trkpt>
      <trkpt lat="47.82959" lon="6.38693">
        <ele>327.682495</ele>
        <time>2020-05-12T12:51:41Z</time>
      </trkpt>
      <trkpt lat="47.8296" lon="6.38689">
        <ele>327.794983</ele>
        <time>2020-05-12T12:51:43Z</time>
      </trkpt>
      <trkpt lat="47.82961" lon="6.38685">
        <ele>327.858734</ele>
        <time>2020-05-12T12:51:44Z</time>
      </trkpt>
      <trkpt lat="47.82963" lon="6.38679">
        <ele>328.002502</ele>
        <time>2020-05-12T12:51:46Z</time>
      </trkpt>
      <trkpt lat="47.82964" lon="6.38676">
        <ele>328.051239</ele>
        <time>2020-05-12T12:51:47Z</time>
      </trkpt>
      <trkpt lat="47.82965" lon="6.38672">
        <ele>328.13501</ele>
        <time>2020-05-12T12:51:49Z</time>
      </trkpt>
      <trkpt lat="47.82966" lon="6.38668">
        <ele>328.16626</ele>
        <time>2020-05-12T12:51:50Z</time>
      </trkpt>
      <trkpt lat="47.82967" lon="6.38664">
        <ele>328.168762</ele>
        <time>2020-05-12T12:51:51Z</time>
      </trkpt>
      <trkpt lat="47.82967" lon="6.38661">
        <ele>328.217499</ele>
        <time>2020-05-12T12:51:53Z</time>
      </trkpt>
      <trkpt lat="47.82968" lon="6.38658">
        <ele>328.266235</ele>
        <time>2020-05-12T12:51:54Z</time>
      </trkpt>
      <trkpt lat="47.82969" lon="6.38657">
        <ele>328.326263</ele>
        <time>2020-05-12T12:51:55Z</time>
      </trkpt>
      <trkpt lat="47.8297" lon="6.38654">
        <ele>328.404999</ele>
        <time>2020-05-12T12:51:56Z</time>
      </trkpt>
      <trkpt lat="47.8297" lon="6.38652">
        <ele>328.436249</ele>
        <time>2020-05-12T12:51:57Z</time>
      </trkpt>
      <trkpt lat="47.82971" lon="6.38648">
        <ele>328.502502</ele>
        <time>2020-05-12T12:51:58Z</time>
      </trkpt>
      <trkpt lat="47.82972" lon="6.38647">
        <ele>328.508759</ele>
        <time>2020-05-12T12:51:59Z</time>
      </trkpt>
      <trkpt lat="47.82974" lon="6.38642">
        <ele>328.684052</ele>
        <time>2020-05-12T12:52:01Z</time>
      </trkpt>
      <trkpt lat="47.82974" lon="6.38641">
        <ele>328.728455</ele>
        <time>2020-05-12T12:52:02Z</time>
      </trkpt>
      <trkpt lat="47.82976" lon="6.38636">
        <ele>328.773743</ele>
        <time>2020-05-12T12:52:04Z</time>
      </trkpt>
      <trkpt lat="47.82978" lon="6.38631">
        <ele>328.863281</ele>
        <time>2020-05-12T12:52:05Z</time>
      </trkpt>
      <trkpt lat="47.82981" lon="6.38622">
        <ele>328.982819</ele>
        <time>2020-05-12T12:52:06Z</time>
      </trkpt>
      <trkpt lat="47.82983" lon="6.38617">
        <ele>329.004913</ele>
        <time>2020-05-12T12:52:08Z</time>
      </trkpt>
      <trkpt lat="47.82985" lon="6.38611">
        <ele>329.055359</ele>
        <time>2020-05-12T12:52:09Z</time>
      </trkpt>
      <trkpt lat="47.82988" lon="6.38604">
        <ele>329.07135</ele>
        <time>2020-05-12T12:52:10Z</time>
      </trkpt>
      <trkpt lat="47.82991" lon="6.38598">
        <ele>329.175934</ele>
        <time>2020-05-12T12:52:12Z</time>
      </trkpt>
      <trkpt lat="47.82993" lon="6.38591">
        <ele>329.201233</ele>
        <time>2020-05-12T12:52:13Z</time>
      </trkpt>
      <trkpt lat="47.82995" lon="6.38587">
        <ele>329.291443</ele>
        <time>2020-05-12T12:52:14Z</time>
      </trkpt>
      <trkpt lat="47.82998" lon="6.38582">
        <ele>329.452637</ele>
        <time>2020-05-12T12:52:16Z</time>
      </trkpt>
      <trkpt lat="47.82999" lon="6.3858">
        <ele>329.506378</ele>
        <time>2020-05-12T12:52:17Z</time>
      </trkpt>
      <trkpt lat="47.83" lon="6.38577">
        <ele>329.480011</ele>
        <time>2020-05-12T12:52:19Z</time>
      </trkpt>
      <trkpt lat="47.83001" lon="6.38575">
        <ele>329.511261</ele>
        <time>2020-05-12T12:52:20Z</time>
      </trkpt>
      <trkpt lat="47.83003" lon="6.38573">
        <ele>329.573761</ele>
        <time>2020-05-12T12:52:22Z</time>
      </trkpt>
      <trkpt lat="47.83003" lon="6.38572">
        <ele>329.582489</ele>
        <time>2020-05-12T12:52:23Z</time>
      </trkpt>
      <trkpt lat="47.83042" lon="6.38539">
        <ele>331.578735</ele>
        <time>2020-05-12T12:53:13Z</time>
      </trkpt>
      <trkpt lat="47.83043" lon="6.3854">
        <ele>331.64563</ele>
        <time>2020-05-12T12:53:15Z</time>
      </trkpt>
      <trkpt lat="47.83045" lon="6.38541">
        <ele>331.796783</ele>
        <time>2020-05-12T12:53:16Z</time>
      </trkpt>
      <trkpt lat="47.8305" lon="6.38546">
        <ele>332.337433</ele>
        <time>2020-05-12T12:53:17Z</time>
      </trkpt>
      <trkpt lat="47.83051" lon="6.38546">
        <ele>332.335602</ele>
        <time>2020-05-12T12:53:18Z</time>
      </trkpt>
      <trkpt lat="47.83052" lon="6.38545">
        <ele>332.362732</ele>
        <time>2020-05-12T12:53:20Z</time>
      </trkpt>
      <trkpt lat="47.83053" lon="6.38544">
        <ele>332.363647</ele>
        <time>2020-05-12T12:53:21Z</time>
      </trkpt>
      <trkpt lat="47.83055" lon="6.38542">
        <ele>332.306854</ele>
        <time>2020-05-12T12:53:22Z</time>
      </trkpt>
      <trkpt lat="47.83055" lon="6.3854">
        <ele>332.233887</ele>
        <time>2020-05-12T12:53:23Z</time>
      </trkpt>
      <trkpt lat="47.83056" lon="6.38538">
        <ele>332.155975</ele>
        <time>2020-05-12T12:53:25Z</time>
      </trkpt>
      <trkpt lat="47.83056" lon="6.38536">
        <ele>332.093323</ele>
        <time>2020-05-12T12:53:26Z</time>
      </trkpt>
      <trkpt lat="47.83057" lon="6.38534">
        <ele>332.009674</ele>
        <time>2020-05-12T12:53:27Z</time>
      </trkpt>
      <trkpt lat="47.8306" lon="6.38527">
        <ele>331.74173</ele>
        <time>2020-05-12T12:53:28Z</time>
      </trkpt>
      <trkpt lat="47.83061" lon="6.38522">
        <ele>331.497192</ele>
        <time>2020-05-12T12:53:30Z</time>
      </trkpt>
      <trkpt lat="47.83062" lon="6.38519">
        <ele>331.372009</ele>
        <time>2020-05-12T12:53:31Z</time>
      </trkpt>
      <trkpt lat="47.83063" lon="6.38516">
        <ele>331.202515</ele>
        <time>2020-05-12T12:53:32Z</time>
      </trkpt>
      <trkpt lat="47.83066" lon="6.38509">
        <ele>330.67749</ele>
        <time>2020-05-12T12:53:34Z</time>
      </trkpt>
      <trkpt lat="47.83068" lon="6.38505">
        <ele>330.404999</ele>
        <time>2020-05-12T12:53:35Z</time>
      </trkpt>
      <trkpt lat="47.83071" lon="6.38502">
        <ele>330.214996</ele>
        <time>2020-05-12T12:53:36Z</time>
      </trkpt>
      <trkpt lat="47.83078" lon="6.38501">
        <ele>330.377502</ele>
        <time>2020-05-12T12:53:37Z</time>
      </trkpt>
      <trkpt lat="47.83081" lon="6.38497">
        <ele>330.208832</ele>
        <time>2020-05-12T12:53:39Z</time>
      </trkpt>
      <trkpt lat="47.83082" lon="6.38495">
        <ele>330.062378</ele>
        <time>2020-05-12T12:53:40Z</time>
      </trkpt>
      <trkpt lat="47.83086" lon="6.38488">
        <ele>329.710541</ele>
        <time>2020-05-12T12:53:42Z</time>
      </trkpt>
      <trkpt lat="47.83088" lon="6.38485">
        <ele>329.584015</ele>
        <time>2020-05-12T12:53:43Z</time>
      </trkpt>
      <trkpt lat="47.83093" lon="6.38471">
        <ele>328.804749</ele>
        <time>2020-05-12T12:53:44Z</time>
      </trkpt>
      <trkpt lat="47.83098" lon="6.38461">
        <ele>328.201996</ele>
        <time>2020-05-12T12:53:46Z</time>
      </trkpt>
      <trkpt lat="47.83103" lon="6.38451">
        <ele>327.720001</ele>
        <time>2020-05-12T12:53:47Z</time>
      </trkpt>
      <trkpt lat="47.83111" lon="6.38436">
        <ele>326.807495</ele>
        <time>2020-05-12T12:53:48Z</time>
      </trkpt>
      <trkpt lat="47.83115" lon="6.38429">
        <ele>326.420013</ele>
        <time>2020-05-12T12:53:50Z</time>
      </trkpt>
      <trkpt lat="47.83118" lon="6.38426">
        <ele>326.309998</ele>
        <time>2020-05-12T12:53:51Z</time>
      </trkpt>
      <trkpt lat="47.8312" lon="6.38424">
        <ele>326.288757</ele>
        <time>2020-05-12T12:53:52Z</time>
      </trkpt>
      <trkpt lat="47.83123" lon="6.38422">
        <ele>326.222504</ele>
        <time>2020-05-12T12:53:54Z</time>
      </trkpt>
      <trkpt lat="47.83126" lon="6.38419">
        <ele>326.179993</ele>
        <time>2020-05-12T12:53:55Z</time>
      </trkpt>
      <trkpt lat="47.83126" lon="6.38419">
        <ele>326.166748</ele>
        <time>2020-05-12T12:53:56Z</time>
      </trkpt>
      <trkpt lat="47.83129" lon="6.38417">
        <ele>326.223816</ele>
        <time>2020-05-12T12:53:57Z</time>
      </trkpt>
      <trkpt lat="47.83133" lon="6.38414">
        <ele>326.369476</ele>
        <time>2020-05-12T12:53:59Z</time>
      </trkpt>
      <trkpt lat="47.83137" lon="6.38413">
        <ele>326.636292</ele>
        <time>2020-05-12T12:54:00Z</time>
      </trkpt>
      <trkpt lat="47.83138" lon="6.38412">
        <ele>326.738892</ele>
        <time>2020-05-12T12:54:01Z</time>
      </trkpt>
      <trkpt lat="47.83142" lon="6.3841">
        <ele>327.002441</ele>
        <time>2020-05-12T12:54:02Z</time>
      </trkpt>
      <trkpt lat="47.83147" lon="6.38407">
        <ele>327.298187</ele>
        <time>2020-05-12T12:54:04Z</time>
      </trkpt>
      <trkpt lat="47.83151" lon="6.38405">
        <ele>327.492371</ele>
        <time>2020-05-12T12:54:06Z</time>
      </trkpt>
      <trkpt lat="47.83153" lon="6.38403">
        <ele>327.602142</ele>
        <time>2020-05-12T12:54:07Z</time>
      </trkpt>
      <trkpt lat="47.83159" lon="6.384">
        <ele>327.971436</ele>
        <time>2020-05-12T12:54:09Z</time>
      </trkpt>
      <trkpt lat="47.83162" lon="6.38398">
        <ele>328.266571</ele>
        <time>2020-05-12T12:54:10Z</time>
      </trkpt>
      <trkpt lat="47.83163" lon="6.38398">
        <ele>328.335327</ele>
        <time>2020-05-12T12:54:11Z</time>
      </trkpt>
      <trkpt lat="47.83167" lon="6.38396">
        <ele>328.676086</ele>
        <time>2020-05-12T12:54:13Z</time>
      </trkpt>
      <trkpt lat="47.83168" lon="6.38396">
        <ele>328.760864</ele>
        <time>2020-05-12T12:54:14Z</time>
      </trkpt>
      <trkpt lat="47.8317" lon="6.38394">
        <ele>328.967438</ele>
        <time>2020-05-12T12:54:16Z</time>
      </trkpt>
      <trkpt lat="47.83174" lon="6.38392">
        <ele>329.127502</ele>
        <time>2020-05-12T12:54:17Z</time>
      </trkpt>
      <trkpt lat="47.83179" lon="6.38389">
        <ele>329.266235</ele>
        <time>2020-05-12T12:54:19Z</time>
      </trkpt>
      <trkpt lat="47.83183" lon="6.38385">
        <ele>329.320007</ele>
        <time>2020-05-12T12:54:20Z</time>
      </trkpt>
      <trkpt lat="47.83184" lon="6.38383">
        <ele>329.336243</ele>
        <time>2020-05-12T12:54:21Z</time>
      </trkpt>
      <trkpt lat="47.83188" lon="6.3838">
        <ele>329.358734</ele>
        <time>2020-05-12T12:54:22Z</time>
      </trkpt>
      <trkpt lat="47.8319" lon="6.38378">
        <ele>329.423737</ele>
        <time>2020-05-12T12:54:24Z</time>
      </trkpt>
      <trkpt lat="47.83193" lon="6.38375">
        <ele>329.445007</ele>
        <time>2020-05-12T12:54:25Z</time>
      </trkpt>
      <trkpt lat="47.83195" lon="6.38373">
        <ele>329.470001</ele>
        <time>2020-05-12T12:54:26Z</time>
      </trkpt>
      <trkpt lat="47.83199" lon="6.38371">
        <ele>329.517487</ele>
        <time>2020-05-12T12:54:27Z</time>
      </trkpt>
      <trkpt lat="47.83204" lon="6.38366">
        <ele>329.588745</ele>
        <time>2020-05-12T12:54:28Z</time>
      </trkpt>
      <trkpt lat="47.83206" lon="6.38364">
        <ele>329.607513</ele>
        <time>2020-05-12T12:54:30Z</time>
      </trkpt>
      <trkpt lat="47.83208" lon="6.38361">
        <ele>329.600006</ele>
        <time>2020-05-12T12:54:31Z</time>
      </trkpt>
      <trkpt lat="47.83211" lon="6.38358">
        <ele>329.589996</ele>
        <time>2020-05-12T12:54:33Z</time>
      </trkpt>
      <trkpt lat="47.83214" lon="6.38354">
        <ele>329.543762</ele>
        <time>2020-05-12T12:54:34Z</time>
      </trkpt>
      <trkpt lat="47.83216" lon="6.38351">
        <ele>329.480011</ele>
        <time>2020-05-12T12:54:35Z</time>
      </trkpt>
      <trkpt lat="47.83219" lon="6.38346">
        <ele>329.318817</ele>
        <time>2020-05-12T12:54:37Z</time>
      </trkpt>
      <trkpt lat="47.83225" lon="6.38336">
        <ele>328.631989</ele>
        <time>2020-05-12T12:54:39Z</time>
      </trkpt>
      <trkpt lat="47.83228" lon="6.38331">
        <ele>328.289581</ele>
        <time>2020-05-12T12:54:40Z</time>
      </trkpt>
      <trkpt lat="47.83236" lon="6.38321">
        <ele>327.57251</ele>
        <time>2020-05-12T12:54:42Z</time>
      </trkpt>
      <trkpt lat="47.83248" lon="6.3831">
        <ele>326.725006</ele>
        <time>2020-05-12T12:54:43Z</time>
      </trkpt>
      <trkpt lat="47.83257" lon="6.38302">
        <ele>326.125</ele>
        <time>2020-05-12T12:54:44Z</time>
      </trkpt>
      <trkpt lat="47.83265" lon="6.38292">
        <ele>325.399994</ele>
        <time>2020-05-12T12:54:45Z</time>
      </trkpt>
      <trkpt lat="47.83271" lon="6.38286">
        <ele>324.769989</ele>
        <time>2020-05-12T12:54:47Z</time>
      </trkpt>
      <trkpt lat="47.83277" lon="6.38278">
        <ele>324.027496</ele>
        <time>2020-05-12T12:54:48Z</time>
      </trkpt>
      <trkpt lat="47.83286" lon="6.3827">
        <ele>323.269989</ele>
        <time>2020-05-12T12:54:49Z</time>
      </trkpt>
      <trkpt lat="47.83289" lon="6.38264">
        <ele>322.820007</ele>
        <time>2020-05-12T12:54:50Z</time>
      </trkpt>
      <trkpt lat="47.83292" lon="6.38261">
        <ele>322.595001</ele>
        <time>2020-05-12T12:54:51Z</time>
      </trkpt>
      <trkpt lat="47.83295" lon="6.38257">
        <ele>322.350006</ele>
        <time>2020-05-12T12:54:53Z</time>
      </trkpt>
      <trkpt lat="47.83299" lon="6.38254">
        <ele>322.170013</ele>
        <time>2020-05-12T12:54:54Z</time>
      </trkpt>
      <trkpt lat="47.83304" lon="6.38252">
        <ele>322.005005</ele>
        <time>2020-05-12T12:54:55Z</time>
      </trkpt>
      <trkpt lat="47.8331" lon="6.38249">
        <ele>321.799988</ele>
        <time>2020-05-12T12:54:57Z</time>
      </trkpt>
      <trkpt lat="47.83315" lon="6.38248">
        <ele>321.605194</ele>
        <time>2020-05-12T12:54:58Z</time>
      </trkpt>
      <trkpt lat="47.83327" lon="6.38247">
        <ele>321.068115</ele>
        <time>2020-05-12T12:55:00Z</time>
      </trkpt>
      <trkpt lat="47.83333" lon="6.38252">
        <ele>321.160767</ele>
        <time>2020-05-12T12:55:02Z</time>
      </trkpt>
      <trkpt lat="47.83347" lon="6.38266">
        <ele>321.769409</ele>
        <time>2020-05-12T12:55:03Z</time>
      </trkpt>
      <trkpt lat="47.83359" lon="6.3828">
        <ele>322.55249</ele>
        <time>2020-05-12T12:55:05Z</time>
      </trkpt>
      <trkpt lat="47.83363" lon="6.38283">
        <ele>322.747498</ele>
        <time>2020-05-12T12:55:06Z</time>
      </trkpt>
      <trkpt lat="47.83366" lon="6.38286">
        <ele>322.894989</ele>
        <time>2020-05-12T12:55:07Z</time>
      </trkpt>
      <trkpt lat="47.83371" lon="6.38286">
        <ele>322.779999</ele>
        <time>2020-05-12T12:55:08Z</time>
      </trkpt>
      <trkpt lat="47.83378" lon="6.38277">
        <ele>321.742493</ele>
        <time>2020-05-12T12:55:10Z</time>
      </trkpt>
      <trkpt lat="47.83379" lon="6.38274">
        <ele>321.492493</ele>
        <time>2020-05-12T12:55:11Z</time>
      </trkpt>
      <trkpt lat="47.83381" lon="6.38273">
        <ele>321.382629</ele>
        <time>2020-05-12T12:55:12Z</time>
      </trkpt>
      <trkpt lat="47.83386" lon="6.38272">
        <ele>321.173737</ele>
        <time>2020-05-12T12:55:14Z</time>
      </trkpt>
      <trkpt lat="47.83391" lon="6.3827">
        <ele>320.886993</ele>
        <time>2020-05-12T12:55:16Z</time>
      </trkpt>
      <trkpt lat="47.83395" lon="6.3827">
        <ele>320.81366</ele>
        <time>2020-05-12T12:55:17Z</time>
      </trkpt>
      <trkpt lat="47.83401" lon="6.38269">
        <ele>320.609009</ele>
        <time>2020-05-12T12:55:19Z</time>
      </trkpt>
      <trkpt lat="47.83409" lon="6.38265">
        <ele>320.455078</ele>
        <time>2020-05-12T12:55:20Z</time>
      </trkpt>
      <trkpt lat="47.83412" lon="6.38265">
        <ele>320.54776</ele>
        <time>2020-05-12T12:55:21Z</time>
      </trkpt>
      <trkpt lat="47.83415" lon="6.38265">
        <ele>320.622955</ele>
        <time>2020-05-12T12:55:22Z</time>
      </trkpt>
      <trkpt lat="47.83421" lon="6.38268">
        <ele>320.807892</ele>
        <time>2020-05-12T12:55:24Z</time>
      </trkpt>
      <trkpt lat="47.83425" lon="6.38272">
        <ele>320.918091</ele>
        <time>2020-05-12T12:55:26Z</time>
      </trkpt>
      <trkpt lat="47.83426" lon="6.38273">
        <ele>320.946808</ele>
        <time>2020-05-12T12:55:27Z</time>
      </trkpt>
      <trkpt lat="47.83427" lon="6.38275">
        <ele>320.968811</ele>
        <time>2020-05-12T12:55:28Z</time>
      </trkpt>
      <trkpt lat="47.83429" lon="6.38281">
        <ele>321.190002</ele>
        <time>2020-05-12T12:55:30Z</time>
      </trkpt>
      <trkpt lat="47.83431" lon="6.38282">
        <ele>321.287262</ele>
        <time>2020-05-12T12:55:32Z</time>
      </trkpt>
      <trkpt lat="47.83433" lon="6.38283">
        <ele>321.321289</ele>
        <time>2020-05-12T12:55:34Z</time>
      </trkpt>
      <trkpt lat="47.83435" lon="6.38284">
        <ele>321.360016</ele>
        <time>2020-05-12T12:55:35Z</time>
      </trkpt>
      <trkpt lat="47.83436" lon="6.38284">
        <ele>321.373535</ele>
        <time>2020-05-12T12:55:36Z</time>
      </trkpt>
      <trkpt lat="47.83436" lon="6.38284">
        <ele>321.387634</ele>
        <time>2020-05-12T12:55:37Z</time>
      </trkpt>
      <trkpt lat="47.83438" lon="6.38285">
        <ele>321.392395</ele>
        <time>2020-05-12T12:55:39Z</time>
      </trkpt>
      <trkpt lat="47.8344" lon="6.38286">
        <ele>321.449402</ele>
        <time>2020-05-12T12:55:40Z</time>
      </trkpt>
      <trkpt lat="47.83441" lon="6.38289">
        <ele>321.643555</ele>
        <time>2020-05-12T12:55:42Z</time>
      </trkpt>
      <trkpt lat="47.83441" lon="6.38289">
        <ele>321.635254</ele>
        <time>2020-05-12T12:55:43Z</time>
      </trkpt>
      <trkpt lat="47.83442" lon="6.38288">
        <ele>321.553864</ele>
        <time>2020-05-12T12:55:44Z</time>
      </trkpt>
      <trkpt lat="47.83442" lon="6.38288">
        <ele>321.547302</ele>
        <time>2020-05-12T12:55:45Z</time>
      </trkpt>
      <trkpt lat="47.83442" lon="6.38287">
        <ele>321.52124</ele>
        <time>2020-05-12T12:55:46Z</time>
      </trkpt>
      <trkpt lat="47.83441" lon="6.38288">
        <ele>321.588013</ele>
        <time>2020-05-12T12:55:47Z</time>
      </trkpt>
      <trkpt lat="47.83441" lon="6.38289">
        <ele>321.652557</ele>
        <time>2020-05-12T12:55:48Z</time>
      </trkpt>
      <trkpt lat="47.83441" lon="6.38291">
        <ele>321.749054</ele>
        <time>2020-05-12T12:55:49Z</time>
      </trkpt>
      <trkpt lat="47.8344" lon="6.38293">
        <ele>321.874512</ele>
        <time>2020-05-12T12:55:50Z</time>
      </trkpt>
      <trkpt lat="47.83438" lon="6.38298">
        <ele>322.226044</ele>
        <time>2020-05-12T12:55:52Z</time>
      </trkpt>
      <trkpt lat="47.83438" lon="6.383">
        <ele>322.356262</ele>
        <time>2020-05-12T12:55:53Z</time>
      </trkpt>
      <trkpt lat="47.83439" lon="6.38301">
        <ele>322.414429</ele>
        <time>2020-05-12T12:55:54Z</time>
      </trkpt>
      <trkpt lat="47.8344" lon="6.38303">
        <ele>322.496368</ele>
        <time>2020-05-12T12:55:55Z</time>
      </trkpt>
      <trkpt lat="47.83441" lon="6.38306">
        <ele>322.675995</ele>
        <time>2020-05-12T12:55:57Z</time>
      </trkpt>
      <trkpt lat="47.83441" lon="6.38308">
        <ele>322.809601</ele>
        <time>2020-05-12T12:55:59Z</time>
      </trkpt>
      <trkpt lat="47.83441" lon="6.3831">
        <ele>322.918213</ele>
        <time>2020-05-12T12:56:00Z</time>
      </trkpt>
      <trkpt lat="47.83441" lon="6.38314">
        <ele>323.215454</ele>
        <time>2020-05-12T12:56:02Z</time>
      </trkpt>
      <trkpt lat="47.8344" lon="6.38315">
        <ele>323.273254</ele>
        <time>2020-05-12T12:56:03Z</time>
      </trkpt>
      <trkpt lat="47.8344" lon="6.38318">
        <ele>323.458679</ele>
        <time>2020-05-12T12:56:04Z</time>
      </trkpt>
      <trkpt lat="47.83439" lon="6.3832">
        <ele>323.591705</ele>
        <time>2020-05-12T12:56:05Z</time>
      </trkpt>
      <trkpt lat="47.83437" lon="6.38326">
        <ele>324.045593</ele>
        <time>2020-05-12T12:56:07Z</time>
      </trkpt>
      <trkpt lat="47.83437" lon="6.38328">
        <ele>324.191803</ele>
        <time>2020-05-12T12:56:08Z</time>
      </trkpt>
      <trkpt lat="47.83436" lon="6.3833">
        <ele>324.32666</ele>
        <time>2020-05-12T12:56:09Z</time>
      </trkpt>
      <trkpt lat="47.83434" lon="6.38337">
        <ele>324.888184</ele>
        <time>2020-05-12T12:56:11Z</time>
      </trkpt>
      <trkpt lat="47.83433" lon="6.38338">
        <ele>325.0354</ele>
        <time>2020-05-12T12:56:12Z</time>
      </trkpt>
      <trkpt lat="47.83432" lon="6.3834">
        <ele>325.192291</ele>
        <time>2020-05-12T12:56:13Z</time>
      </trkpt>
      <trkpt lat="47.8343" lon="6.38345">
        <ele>325.571259</ele>
        <time>2020-05-12T12:56:15Z</time>
      </trkpt>
      <trkpt lat="47.83429" lon="6.38347">
        <ele>325.82251</ele>
        <time>2020-05-12T12:56:16Z</time>
      </trkpt>
      <trkpt lat="47.83428" lon="6.38351">
        <ele>326.220001</ele>
        <time>2020-05-12T12:56:18Z</time>
      </trkpt>
      <trkpt lat="47.83426" lon="6.38355">
        <ele>326.73999</ele>
        <time>2020-05-12T12:56:19Z</time>
      </trkpt>
      <trkpt lat="47.83425" lon="6.38357">
        <ele>326.902496</ele>
        <time>2020-05-12T12:56:20Z</time>
      </trkpt>
      <trkpt lat="47.83424" lon="6.38362">
        <ele>327.467499</ele>
        <time>2020-05-12T12:56:21Z</time>
      </trkpt>
      <trkpt lat="47.83423" lon="6.38365">
        <ele>327.73999</ele>
        <time>2020-05-12T12:56:23Z</time>
      </trkpt>
      <trkpt lat="47.83422" lon="6.38368">
        <ele>328.119995</ele>
        <time>2020-05-12T12:56:25Z</time>
      </trkpt>
      <trkpt lat="47.8342" lon="6.38373">
        <ele>328.575012</ele>
        <time>2020-05-12T12:56:26Z</time>
      </trkpt>
      <trkpt lat="47.8342" lon="6.38374">
        <ele>328.722504</ele>
        <time>2020-05-12T12:56:27Z</time>
      </trkpt>
      <trkpt lat="47.83418" lon="6.38378">
        <ele>329.127502</ele>
        <time>2020-05-12T12:56:29Z</time>
      </trkpt>
      <trkpt lat="47.83418" lon="6.38379">
        <ele>329.26001</ele>
        <time>2020-05-12T12:56:30Z</time>
      </trkpt>
      <trkpt lat="47.83415" lon="6.38384">
        <ele>329.847504</ele>
        <time>2020-05-12T12:56:32Z</time>
      </trkpt>
      <trkpt lat="47.83414" lon="6.38386">
        <ele>330.065002</ele>
        <time>2020-05-12T12:56:33Z</time>
      </trkpt>
      <trkpt lat="47.83414" lon="6.38389">
        <ele>330.297485</ele>
        <time>2020-05-12T12:56:34Z</time>
      </trkpt>
      <trkpt lat="47.83413" lon="6.38391">
        <ele>330.48999</ele>
        <time>2020-05-12T12:56:35Z</time>
      </trkpt>
      <trkpt lat="47.83413" lon="6.38392">
        <ele>330.63501</ele>
        <time>2020-05-12T12:56:36Z</time>
      </trkpt>
      <trkpt lat="47.83412" lon="6.38396">
        <ele>330.987488</ele>
        <time>2020-05-12T12:56:38Z</time>
      </trkpt>
      <trkpt lat="47.83411" lon="6.384">
        <ele>331.38501</ele>
        <time>2020-05-12T12:56:39Z</time>
      </trkpt>
      <trkpt lat="47.8341" lon="6.38408">
        <ele>332.232513</ele>
        <time>2020-05-12T12:56:41Z</time>
      </trkpt>
      <trkpt lat="47.83409" lon="6.38412">
        <ele>332.630005</ele>
        <time>2020-05-12T12:56:42Z</time>
      </trkpt>
      <trkpt lat="47.83408" lon="6.38415">
        <ele>332.904999</ele>
        <time>2020-05-12T12:56:43Z</time>
      </trkpt>
      <trkpt lat="47.83408" lon="6.38418">
        <ele>333.149994</ele>
        <time>2020-05-12T12:56:45Z</time>
      </trkpt>
      <trkpt lat="47.83407" lon="6.38421">
        <ele>333.535004</ele>
        <time>2020-05-12T12:56:46Z</time>
      </trkpt>
      <trkpt lat="47.83406" lon="6.38423">
        <ele>333.657501</ele>
        <time>2020-05-12T12:56:47Z</time>
      </trkpt>
      <trkpt lat="47.83406" lon="6.38426">
        <ele>334.012512</ele>
        <time>2020-05-12T12:56:48Z</time>
      </trkpt>
      <trkpt lat="47.83405" lon="6.3843">
        <ele>334.424988</ele>
        <time>2020-05-12T12:56:50Z</time>
      </trkpt>
      <trkpt lat="47.83404" lon="6.38434">
        <ele>334.815002</ele>
        <time>2020-05-12T12:56:51Z</time>
      </trkpt>
      <trkpt lat="47.83402" lon="6.38441">
        <ele>335.457489</ele>
        <time>2020-05-12T12:56:53Z</time>
      </trkpt>
      <trkpt lat="47.83402" lon="6.38445">
        <ele>335.915009</ele>
        <time>2020-05-12T12:56:54Z</time>
      </trkpt>
      <trkpt lat="47.83401" lon="6.38447">
        <ele>336.089996</ele>
        <time>2020-05-12T12:56:55Z</time>
      </trkpt>
      <trkpt lat="47.83401" lon="6.38453">
        <ele>336.649994</ele>
        <time>2020-05-12T12:56:57Z</time>
      </trkpt>
      <trkpt lat="47.834" lon="6.38455">
        <ele>336.825012</ele>
        <time>2020-05-12T12:56:59Z</time>
      </trkpt>
      <trkpt lat="47.834" lon="6.38457">
        <ele>337.007507</ele>
        <time>2020-05-12T12:57:00Z</time>
      </trkpt>
      <trkpt lat="47.834" lon="6.38461">
        <ele>337.402496</ele>
        <time>2020-05-12T12:57:01Z</time>
      </trkpt>
      <trkpt lat="47.83399" lon="6.38468">
        <ele>338.032501</ele>
        <time>2020-05-12T12:57:03Z</time>
      </trkpt>
      <trkpt lat="47.83398" lon="6.3847">
        <ele>338.247498</ele>
        <time>2020-05-12T12:57:04Z</time>
      </trkpt>
      <trkpt lat="47.83397" lon="6.38472">
        <ele>338.457489</ele>
        <time>2020-05-12T12:57:05Z</time>
      </trkpt>
      <trkpt lat="47.83396" lon="6.38476">
        <ele>338.847504</ele>
        <time>2020-05-12T12:57:06Z</time>
      </trkpt>
      <trkpt lat="47.83396" lon="6.38477">
        <ele>338.987488</ele>
        <time>2020-05-12T12:57:07Z</time>
      </trkpt>
      <trkpt lat="47.83395" lon="6.38482">
        <ele>339.459991</ele>
        <time>2020-05-12T12:57:08Z</time>
      </trkpt>
      <trkpt lat="47.83395" lon="6.38483">
        <ele>339.607513</ele>
        <time>2020-05-12T12:57:09Z</time>
      </trkpt>
      <trkpt lat="47.83393" lon="6.38487">
        <ele>339.995087</ele>
        <time>2020-05-12T12:57:10Z</time>
      </trkpt>
      <trkpt lat="47.83392" lon="6.3849">
        <ele>340.40155</ele>
        <time>2020-05-12T12:57:12Z</time>
      </trkpt>
      <trkpt lat="47.8339" lon="6.38495">
        <ele>340.848389</ele>
        <time>2020-05-12T12:57:13Z</time>
      </trkpt>
      <trkpt lat="47.83389" lon="6.38498">
        <ele>341.16272</ele>
        <time>2020-05-12T12:57:14Z</time>
      </trkpt>
      <trkpt lat="47.83388" lon="6.38502">
        <ele>341.585297</ele>
        <time>2020-05-12T12:57:16Z</time>
      </trkpt>
      <trkpt lat="47.83387" lon="6.38506">
        <ele>341.95285</ele>
        <time>2020-05-12T12:57:17Z</time>
      </trkpt>
      <trkpt lat="47.83388" lon="6.38511">
        <ele>342.356415</ele>
        <time>2020-05-12T12:57:19Z</time>
      </trkpt>
      <trkpt lat="47.83388" lon="6.38512">
        <ele>342.466858</ele>
        <time>2020-05-12T12:57:20Z</time>
      </trkpt>
      <trkpt lat="47.83389" lon="6.38516">
        <ele>342.711609</ele>
        <time>2020-05-12T12:57:21Z</time>
      </trkpt>
      <trkpt lat="47.83391" lon="6.38521">
        <ele>343.119598</ele>
        <time>2020-05-12T12:57:23Z</time>
      </trkpt>
      <trkpt lat="47.83392" lon="6.38523">
        <ele>343.271881</ele>
        <time>2020-05-12T12:57:24Z</time>
      </trkpt>
      <trkpt lat="47.83393" lon="6.38526">
        <ele>343.462494</ele>
        <time>2020-05-12T12:57:25Z</time>
      </trkpt>
      <trkpt lat="47.83393" lon="6.38528">
        <ele>343.619995</ele>
        <time>2020-05-12T12:57:26Z</time>
      </trkpt>
      <trkpt lat="47.83394" lon="6.38531">
        <ele>343.807495</ele>
        <time>2020-05-12T12:57:28Z</time>
      </trkpt>
      <trkpt lat="47.83396" lon="6.38537">
        <ele>344.242493</ele>
        <time>2020-05-12T12:57:29Z</time>
      </trkpt>
      <trkpt lat="47.83397" lon="6.3854">
        <ele>344.492493</ele>
        <time>2020-05-12T12:57:30Z</time>
      </trkpt>
      <trkpt lat="47.83399" lon="6.38553">
        <ele>345.516449</ele>
        <time>2020-05-12T12:57:33Z</time>
      </trkpt>
      <trkpt lat="47.834" lon="6.38558">
        <ele>345.890503</ele>
        <time>2020-05-12T12:57:35Z</time>
      </trkpt>
      <trkpt lat="47.83401" lon="6.38562">
        <ele>346.18866</ele>
        <time>2020-05-12T12:57:36Z</time>
      </trkpt>
      <trkpt lat="47.83403" lon="6.38568">
        <ele>346.579742</ele>
        <time>2020-05-12T12:57:37Z</time>
      </trkpt>
      <trkpt lat="47.83404" lon="6.38572">
        <ele>346.856689</ele>
        <time>2020-05-12T12:57:38Z</time>
      </trkpt>
      <trkpt lat="47.83405" lon="6.38576">
        <ele>347.141418</ele>
        <time>2020-05-12T12:57:40Z</time>
      </trkpt>
      <trkpt lat="47.83407" lon="6.38581">
        <ele>347.438385</ele>
        <time>2020-05-12T12:57:41Z</time>
      </trkpt>
      <trkpt lat="47.83413" lon="6.3859">
        <ele>347.71936</ele>
        <time>2020-05-12T12:57:43Z</time>
      </trkpt>
      <trkpt lat="47.83418" lon="6.38595">
        <ele>347.828278</ele>
        <time>2020-05-12T12:57:44Z</time>
      </trkpt>
      <trkpt lat="47.83421" lon="6.386">
        <ele>347.980835</ele>
        <time>2020-05-12T12:57:45Z</time>
      </trkpt>
      <trkpt lat="47.83426" lon="6.3861">
        <ele>348.347595</ele>
        <time>2020-05-12T12:57:46Z</time>
      </trkpt>
      <trkpt lat="47.83432" lon="6.38619">
        <ele>348.712494</ele>
        <time>2020-05-12T12:57:48Z</time>
      </trkpt>
      <trkpt lat="47.83435" lon="6.38624">
        <ele>348.997498</ele>
        <time>2020-05-12T12:57:49Z</time>
      </trkpt>
      <trkpt lat="47.83437" lon="6.38627">
        <ele>349.142487</ele>
        <time>2020-05-12T12:57:50Z</time>
      </trkpt>
      <trkpt lat="47.8344" lon="6.38629">
        <ele>349.172485</ele>
        <time>2020-05-12T12:57:51Z</time>
      </trkpt>
      <trkpt lat="47.83447" lon="6.38631">
        <ele>348.962494</ele>
        <time>2020-05-12T12:57:53Z</time>
      </trkpt>
      <trkpt lat="47.8345" lon="6.38632">
        <ele>348.875</ele>
        <time>2020-05-12T12:57:55Z</time>
      </trkpt>
      <trkpt lat="47.83451" lon="6.38632">
        <ele>348.88501</ele>
        <time>2020-05-12T12:57:56Z</time>
      </trkpt>
      <trkpt lat="47.83455" lon="6.38633">
        <ele>348.707489</ele>
        <time>2020-05-12T12:57:57Z</time>
      </trkpt>
      <trkpt lat="47.83456" lon="6.38633">
        <ele>348.654999</ele>
        <time>2020-05-12T12:57:58Z</time>
      </trkpt>
      <trkpt lat="47.8346" lon="6.38634">
        <ele>348.5625</ele>
        <time>2020-05-12T12:58:00Z</time>
      </trkpt>
      <trkpt lat="47.83463" lon="6.38636">
        <ele>348.565002</ele>
        <time>2020-05-12T12:58:01Z</time>
      </trkpt>
      <trkpt lat="47.8347" lon="6.38638">
        <ele>348.402496</ele>
        <time>2020-05-12T12:58:02Z</time>
      </trkpt>
      <trkpt lat="47.83488" lon="6.38642">
        <ele>347.946014</ele>
        <time>2020-05-12T12:58:04Z</time>
      </trkpt>
      <trkpt lat="47.83497" lon="6.38647">
        <ele>348.091766</ele>
        <time>2020-05-12T12:58:05Z</time>
      </trkpt>
      <trkpt lat="47.83505" lon="6.38654">
        <ele>348.277313</ele>
        <time>2020-05-12T12:58:06Z</time>
      </trkpt>
      <trkpt lat="47.83512" lon="6.38659">
        <ele>348.426239</ele>
        <time>2020-05-12T12:58:08Z</time>
      </trkpt>
      <trkpt lat="47.83517" lon="6.38664">
        <ele>348.558105</ele>
        <time>2020-05-12T12:58:09Z</time>
      </trkpt>
      <trkpt lat="47.8352" lon="6.38668">
        <ele>348.723877</ele>
        <time>2020-05-12T12:58:10Z</time>
      </trkpt>
      <trkpt lat="47.83523" lon="6.38671">
        <ele>348.853973</ele>
        <time>2020-05-12T12:58:11Z</time>
      </trkpt>
      <trkpt lat="47.83526" lon="6.38675">
        <ele>349.141907</ele>
        <time>2020-05-12T12:58:12Z</time>
      </trkpt>
      <trkpt lat="47.83531" lon="6.38681">
        <ele>349.500946</ele>
        <time>2020-05-12T12:58:14Z</time>
      </trkpt>
      <trkpt lat="47.83536" lon="6.38688">
        <ele>350.037506</ele>
        <time>2020-05-12T12:58:15Z</time>
      </trkpt>
      <trkpt lat="47.83539" lon="6.38691">
        <ele>350.25</ele>
        <time>2020-05-12T12:58:16Z</time>
      </trkpt>
      <trkpt lat="47.8354" lon="6.38693">
        <ele>350.356262</ele>
        <time>2020-05-12T12:58:17Z</time>
      </trkpt>
      <trkpt lat="47.83544" lon="6.38697">
        <ele>350.662506</ele>
        <time>2020-05-12T12:58:19Z</time>
      </trkpt>
      <trkpt lat="47.83547" lon="6.387">
        <ele>350.887512</ele>
        <time>2020-05-12T12:58:20Z</time>
      </trkpt>
      <trkpt lat="47.8355" lon="6.38703">
        <ele>351.106262</ele>
        <time>2020-05-12T12:58:21Z</time>
      </trkpt>
      <trkpt lat="47.83553" lon="6.38706">
        <ele>351.306244</ele>
        <time>2020-05-12T12:58:22Z</time>
      </trkpt>
      <trkpt lat="47.83558" lon="6.38711">
        <ele>351.612488</ele>
        <time>2020-05-12T12:58:24Z</time>
      </trkpt>
      <trkpt lat="47.83565" lon="6.38718">
        <ele>352.118744</ele>
        <time>2020-05-12T12:58:25Z</time>
      </trkpt>
      <trkpt lat="47.83573" lon="6.38725">
        <ele>352.756256</ele>
        <time>2020-05-12T12:58:26Z</time>
      </trkpt>
      <trkpt lat="47.8358" lon="6.38732">
        <ele>353.36499</ele>
        <time>2020-05-12T12:58:27Z</time>
      </trkpt>
      <trkpt lat="47.83586" lon="6.38733">
        <ele>353.587494</ele>
        <time>2020-05-12T12:58:29Z</time>
      </trkpt>
      <trkpt lat="47.83589" lon="6.38733">
        <ele>353.661255</ele>
        <time>2020-05-12T12:58:31Z</time>
      </trkpt>
      <trkpt lat="47.83592" lon="6.38735">
        <ele>353.813751</ele>
        <time>2020-05-12T12:58:32Z</time>
      </trkpt>
      <trkpt lat="47.83595" lon="6.38738">
        <ele>354.100006</ele>
        <time>2020-05-12T12:58:33Z</time>
      </trkpt>
      <trkpt lat="47.83597" lon="6.38741">
        <ele>354.350006</ele>
        <time>2020-05-12T12:58:34Z</time>
      </trkpt>
      <trkpt lat="47.83601" lon="6.38743">
        <ele>354.588745</ele>
        <time>2020-05-12T12:58:36Z</time>
      </trkpt>
      <trkpt lat="47.83602" lon="6.38744">
        <ele>354.662506</ele>
        <time>2020-05-12T12:58:37Z</time>
      </trkpt>
      <trkpt lat="47.83604" lon="6.38745">
        <ele>354.730011</ele>
        <time>2020-05-12T12:58:38Z</time>
      </trkpt>
      <trkpt lat="47.83609" lon="6.38748">
        <ele>355.116241</ele>
        <time>2020-05-12T12:58:40Z</time>
      </trkpt>
      <trkpt lat="47.83611" lon="6.3875">
        <ele>355.261261</ele>
        <time>2020-05-12T12:58:41Z</time>
      </trkpt>
      <trkpt lat="47.83612" lon="6.38752">
        <ele>355.45874</ele>
        <time>2020-05-12T12:58:42Z</time>
      </trkpt>
      <trkpt lat="47.83615" lon="6.38755">
        <ele>355.795013</ele>
        <time>2020-05-12T12:58:44Z</time>
      </trkpt>
      <trkpt lat="47.83615" lon="6.38755">
        <ele>355.862488</ele>
        <time>2020-05-12T12:58:45Z</time>
      </trkpt>
      <trkpt lat="47.83619" lon="6.38756">
        <ele>356.015015</ele>
        <time>2020-05-12T12:58:47Z</time>
      </trkpt>
      <trkpt lat="47.83621" lon="6.38755">
        <ele>356.07251</ele>
        <time>2020-05-12T12:58:48Z</time>
      </trkpt>
      <trkpt lat="47.83625" lon="6.38754">
        <ele>356.171265</ele>
        <time>2020-05-12T12:58:50Z</time>
      </trkpt>
      <trkpt lat="47.83633" lon="6.38754">
        <ele>356.426239</ele>
        <time>2020-05-12T12:58:51Z</time>
      </trkpt>
      <trkpt lat="47.83636" lon="6.38753">
        <ele>356.475006</ele>
        <time>2020-05-12T12:58:52Z</time>
      </trkpt>
      <trkpt lat="47.8364" lon="6.38752">
        <ele>356.573761</ele>
        <time>2020-05-12T12:58:54Z</time>
      </trkpt>
      <trkpt lat="47.83643" lon="6.38752">
        <ele>356.682495</ele>
        <time>2020-05-12T12:58:55Z</time>
      </trkpt>
      <trkpt lat="47.83647" lon="6.38752">
        <ele>356.841248</ele>
        <time>2020-05-12T12:58:56Z</time>
      </trkpt>
      <trkpt lat="47.83651" lon="6.38752">
        <ele>356.951263</ele>
        <time>2020-05-12T12:58:57Z</time>
      </trkpt>
      <trkpt lat="47.83656" lon="6.38752">
        <ele>357.117706</ele>
        <time>2020-05-12T12:58:59Z</time>
      </trkpt>
      <trkpt lat="47.83661" lon="6.38753">
        <ele>357.356873</ele>
        <time>2020-05-12T12:59:00Z</time>
      </trkpt>
      <trkpt lat="47.83669" lon="6.38753">
        <ele>357.477509</ele>
        <time>2020-05-12T12:59:01Z</time>
      </trkpt>
      <trkpt lat="47.83676" lon="6.38752">
        <ele>357.603943</ele>
        <time>2020-05-12T12:59:02Z</time>
      </trkpt>
      <trkpt lat="47.8369" lon="6.3875">
        <ele>357.783936</ele>
        <time>2020-05-12T12:59:04Z</time>
      </trkpt>
      <trkpt lat="47.83698" lon="6.38749">
        <ele>357.874237</ele>
        <time>2020-05-12T12:59:05Z</time>
      </trkpt>
      <trkpt lat="47.83704" lon="6.38748">
        <ele>357.874451</ele>
        <time>2020-05-12T12:59:07Z</time>
      </trkpt>
      <trkpt lat="47.83709" lon="6.38747">
        <ele>357.848999</ele>
        <time>2020-05-12T12:59:08Z</time>
      </trkpt>
      <trkpt lat="47.83713" lon="6.38748">
        <ele>357.886993</ele>
        <time>2020-05-12T12:59:10Z</time>
      </trkpt>
      <trkpt lat="47.83721" lon="6.38748">
        <ele>357.937988</ele>
        <time>2020-05-12T12:59:11Z</time>
      </trkpt>
      <trkpt lat="47.83726" lon="6.38753">
        <ele>358.168823</ele>
        <time>2020-05-12T12:59:12Z</time>
      </trkpt>
      <trkpt lat="47.8373" lon="6.38756">
        <ele>358.334015</ele>
        <time>2020-05-12T12:59:13Z</time>
      </trkpt>
      <trkpt lat="47.83735" lon="6.3876">
        <ele>358.525055</ele>
        <time>2020-05-12T12:59:14Z</time>
      </trkpt>
      <trkpt lat="47.83741" lon="6.38766">
        <ele>358.823761</ele>
        <time>2020-05-12T12:59:16Z</time>
      </trkpt>
      <trkpt lat="47.83745" lon="6.38769">
        <ele>358.942505</ele>
        <time>2020-05-12T12:59:17Z</time>
      </trkpt>
      <trkpt lat="47.83749" lon="6.3877">
        <ele>359.079987</ele>
        <time>2020-05-12T12:59:19Z</time>
      </trkpt>
      <trkpt lat="47.83752" lon="6.3877">
        <ele>359.136261</ele>
        <time>2020-05-12T12:59:20Z</time>
      </trkpt>
      <trkpt lat="47.83757" lon="6.3877">
        <ele>359.22876</ele>
        <time>2020-05-12T12:59:21Z</time>
      </trkpt>
      <trkpt lat="47.83759" lon="6.3877">
        <ele>359.258759</ele>
        <time>2020-05-12T12:59:22Z</time>
      </trkpt>
      <trkpt lat="47.83762" lon="6.38771">
        <ele>359.342499</ele>
        <time>2020-05-12T12:59:24Z</time>
      </trkpt>
      <trkpt lat="47.83763" lon="6.38771">
        <ele>359.40625</ele>
        <time>2020-05-12T12:59:25Z</time>
      </trkpt>
      <trkpt lat="47.83767" lon="6.38774">
        <ele>359.605469</ele>
        <time>2020-05-12T12:59:27Z</time>
      </trkpt>
      <trkpt lat="47.8377" lon="6.38776">
        <ele>359.771515</ele>
        <time>2020-05-12T12:59:28Z</time>
      </trkpt>
      <trkpt lat="47.83773" lon="6.38778">
        <ele>359.938568</ele>
        <time>2020-05-12T12:59:29Z</time>
      </trkpt>
      <trkpt lat="47.83777" lon="6.38779">
        <ele>360.052917</ele>
        <time>2020-05-12T12:59:31Z</time>
      </trkpt>
      <trkpt lat="47.83782" lon="6.3878">
        <ele>360.183655</ele>
        <time>2020-05-12T12:59:32Z</time>
      </trkpt>
      <trkpt lat="47.83786" lon="6.38781">
        <ele>360.270935</ele>
        <time>2020-05-12T12:59:34Z</time>
      </trkpt>
      <trkpt lat="47.83787" lon="6.38781">
        <ele>360.312775</ele>
        <time>2020-05-12T12:59:35Z</time>
      </trkpt>
      <trkpt lat="47.83789" lon="6.38782">
        <ele>360.380005</ele>
        <time>2020-05-12T12:59:36Z</time>
      </trkpt>
      <trkpt lat="47.83795" lon="6.38783">
        <ele>360.274994</ele>
        <time>2020-05-12T12:59:38Z</time>
      </trkpt>
      <trkpt lat="47.83799" lon="6.38783">
        <ele>360.160004</ele>
        <time>2020-05-12T12:59:39Z</time>
      </trkpt>
      <trkpt lat="47.83804" lon="6.38782">
        <ele>359.966248</ele>
        <time>2020-05-12T12:59:41Z</time>
      </trkpt>
      <trkpt lat="47.83812" lon="6.38782">
        <ele>359.778748</ele>
        <time>2020-05-12T12:59:42Z</time>
      </trkpt>
      <trkpt lat="47.83815" lon="6.38781">
        <ele>359.671265</ele>
        <time>2020-05-12T12:59:43Z</time>
      </trkpt>
      <trkpt lat="47.83818" lon="6.38781">
        <ele>359.58374</ele>
        <time>2020-05-12T12:59:44Z</time>
      </trkpt>
      <trkpt lat="47.83823" lon="6.38781">
        <ele>359.445007</ele>
        <time>2020-05-12T12:59:46Z</time>
      </trkpt>
      <trkpt lat="47.83827" lon="6.3878">
        <ele>359.318756</ele>
        <time>2020-05-12T12:59:47Z</time>
      </trkpt>
      <trkpt lat="47.8383" lon="6.3878">
        <ele>359.230011</ele>
        <time>2020-05-12T12:59:48Z</time>
      </trkpt>
      <trkpt lat="47.83834" lon="6.38779">
        <ele>359.107513</ele>
        <time>2020-05-12T12:59:49Z</time>
      </trkpt>
      <trkpt lat="47.8384" lon="6.38779">
        <ele>358.92749</ele>
        <time>2020-05-12T12:59:51Z</time>
      </trkpt>
      <trkpt lat="47.83847" lon="6.38779">
        <ele>358.731262</ele>
        <time>2020-05-12T12:59:52Z</time>
      </trkpt>
      <trkpt lat="47.83852" lon="6.38779">
        <ele>358.628754</ele>
        <time>2020-05-12T12:59:54Z</time>
      </trkpt>
      <trkpt lat="47.83855" lon="6.38779">
        <ele>358.550018</ele>
        <time>2020-05-12T12:59:55Z</time>
      </trkpt>
      <trkpt lat="47.8386" lon="6.3878">
        <ele>358.440002</ele>
        <time>2020-05-12T12:59:56Z</time>
      </trkpt>
      <trkpt lat="47.83868" lon="6.38781">
        <ele>358.303741</ele>
        <time>2020-05-12T12:59:58Z</time>
      </trkpt>
      <trkpt lat="47.83872" lon="6.38783">
        <ele>358.276245</ele>
        <time>2020-05-12T12:59:59Z</time>
      </trkpt>
      <trkpt lat="47.8388" lon="6.38787">
        <ele>358.24646</ele>
        <time>2020-05-12T13:00:00Z</time>
      </trkpt>
      <trkpt lat="47.83887" lon="6.38791">
        <ele>358.226685</ele>
        <time>2020-05-12T13:00:01Z</time>
      </trkpt>
      <trkpt lat="47.83893" lon="6.38799">
        <ele>358.367523</ele>
        <time>2020-05-12T13:00:02Z</time>
      </trkpt>
      <trkpt lat="47.83901" lon="6.38802">
        <ele>358.225189</ele>
        <time>2020-05-12T13:00:03Z</time>
      </trkpt>
      <trkpt lat="47.83906" lon="6.38803">
        <ele>358.094543</ele>
        <time>2020-05-12T13:00:05Z</time>
      </trkpt>
      <trkpt lat="47.83912" lon="6.38803">
        <ele>357.903595</ele>
        <time>2020-05-12T13:00:06Z</time>
      </trkpt>
      <trkpt lat="47.83917" lon="6.38804">
        <ele>357.796539</ele>
        <time>2020-05-12T13:00:07Z</time>
      </trkpt>
      <trkpt lat="47.8392" lon="6.38804">
        <ele>357.707886</ele>
        <time>2020-05-12T13:00:08Z</time>
      </trkpt>
      <trkpt lat="47.83923" lon="6.38805">
        <ele>357.628082</ele>
        <time>2020-05-12T13:00:09Z</time>
      </trkpt>
      <trkpt lat="47.83926" lon="6.38805">
        <ele>357.657959</ele>
        <time>2020-05-12T13:00:10Z</time>
      </trkpt>
      <trkpt lat="47.8393" lon="6.38806">
        <ele>357.743103</ele>
        <time>2020-05-12T13:00:12Z</time>
      </trkpt>
      <trkpt lat="47.83937" lon="6.38809">
        <ele>357.90036</ele>
        <time>2020-05-12T13:00:13Z</time>
      </trkpt>
      <trkpt lat="47.8394" lon="6.3881">
        <ele>357.968414</ele>
        <time>2020-05-12T13:00:14Z</time>
      </trkpt>
      <trkpt lat="47.83944" lon="6.38811">
        <ele>358.04184</ele>
        <time>2020-05-12T13:00:15Z</time>
      </trkpt>
      <trkpt lat="47.83947" lon="6.38812">
        <ele>358.097778</ele>
        <time>2020-05-12T13:00:16Z</time>
      </trkpt>
      <trkpt lat="47.83951" lon="6.38813">
        <ele>358.174194</ele>
        <time>2020-05-12T13:00:18Z</time>
      </trkpt>
      <trkpt lat="47.83954" lon="6.38814">
        <ele>358.227112</ele>
        <time>2020-05-12T13:00:19Z</time>
      </trkpt>
      <trkpt lat="47.83957" lon="6.38815">
        <ele>358.294495</ele>
        <time>2020-05-12T13:00:20Z</time>
      </trkpt>
      <trkpt lat="47.8396" lon="6.38817">
        <ele>358.346588</ele>
        <time>2020-05-12T13:00:21Z</time>
      </trkpt>
      <trkpt lat="47.83966" lon="6.38819">
        <ele>358.455292</ele>
        <time>2020-05-12T13:00:23Z</time>
      </trkpt>
      <trkpt lat="47.83969" lon="6.38821">
        <ele>358.545105</ele>
        <time>2020-05-12T13:00:24Z</time>
      </trkpt>
      <trkpt lat="47.83972" lon="6.38822">
        <ele>358.766876</ele>
        <time>2020-05-12T13:00:25Z</time>
      </trkpt>
      <trkpt lat="47.83973" lon="6.38823">
        <ele>358.834381</ele>
        <time>2020-05-12T13:00:26Z</time>
      </trkpt>
      <trkpt lat="47.83977" lon="6.38825">
        <ele>359.05423</ele>
        <time>2020-05-12T13:00:28Z</time>
      </trkpt>
      <trkpt lat="47.8398" lon="6.38827">
        <ele>359.258484</ele>
        <time>2020-05-12T13:00:29Z</time>
      </trkpt>
      <trkpt lat="47.83981" lon="6.38828">
        <ele>359.325043</ele>
        <time>2020-05-12T13:00:30Z</time>
      </trkpt>
      <trkpt lat="47.83984" lon="6.38829">
        <ele>359.492737</ele>
        <time>2020-05-12T13:00:31Z</time>
      </trkpt>
      <trkpt lat="47.83991" lon="6.38833">
        <ele>359.882568</ele>
        <time>2020-05-12T13:00:33Z</time>
      </trkpt>
      <trkpt lat="47.83994" lon="6.38833">
        <ele>360.058502</ele>
        <time>2020-05-12T13:00:34Z</time>
      </trkpt>
      <trkpt lat="47.83995" lon="6.38833">
        <ele>360.118286</ele>
        <time>2020-05-12T13:00:35Z</time>
      </trkpt>
      <trkpt lat="47.83999" lon="6.38833">
        <ele>360.307129</ele>
        <time>2020-05-12T13:00:37Z</time>
      </trkpt>
      <trkpt lat="47.84003" lon="6.38834">
        <ele>360.531006</ele>
        <time>2020-05-12T13:00:38Z</time>
      </trkpt>
      <trkpt lat="47.84006" lon="6.38835">
        <ele>360.684265</ele>
        <time>2020-05-12T13:00:39Z</time>
      </trkpt>
      <trkpt lat="47.8401" lon="6.38835">
        <ele>360.883362</ele>
        <time>2020-05-12T13:00:41Z</time>
      </trkpt>
      <trkpt lat="47.84013" lon="6.38836">
        <ele>361.040009</ele>
        <time>2020-05-12T13:00:42Z</time>
      </trkpt>
      <trkpt lat="47.84021" lon="6.38838">
        <ele>361.399994</ele>
        <time>2020-05-12T13:00:43Z</time>
      </trkpt>
      <trkpt lat="47.84024" lon="6.38838">
        <ele>361.519989</ele>
        <time>2020-05-12T13:00:44Z</time>
      </trkpt>
      <trkpt lat="47.84029" lon="6.3884">
        <ele>361.730011</ele>
        <time>2020-05-12T13:00:46Z</time>
      </trkpt>
      <trkpt lat="47.84032" lon="6.38842">
        <ele>361.899994</ele>
        <time>2020-05-12T13:00:47Z</time>
      </trkpt>
      <trkpt lat="47.84034" lon="6.38842">
        <ele>361.970001</ele>
        <time>2020-05-12T13:00:48Z</time>
      </trkpt>
      <trkpt lat="47.84038" lon="6.38843">
        <ele>362.170013</ele>
        <time>2020-05-12T13:00:50Z</time>
      </trkpt>
      <trkpt lat="47.84043" lon="6.38845">
        <ele>362.380005</ele>
        <time>2020-05-12T13:00:51Z</time>
      </trkpt>
      <trkpt lat="47.84047" lon="6.38847">
        <ele>362.559998</ele>
        <time>2020-05-12T13:00:52Z</time>
      </trkpt>
      <trkpt lat="47.84054" lon="6.3885">
        <ele>362.890015</ele>
        <time>2020-05-12T13:00:54Z</time>
      </trkpt>
      <trkpt lat="47.84056" lon="6.38851">
        <ele>362.980011</ele>
        <time>2020-05-12T13:00:55Z</time>
      </trkpt>
      <trkpt lat="47.84059" lon="6.38853">
        <ele>363.157837</ele>
        <time>2020-05-12T13:00:57Z</time>
      </trkpt>
      <trkpt lat="47.84063" lon="6.38855">
        <ele>363.405487</ele>
        <time>2020-05-12T13:00:58Z</time>
      </trkpt>
      <trkpt lat="47.84066" lon="6.38857">
        <ele>363.644043</ele>
        <time>2020-05-12T13:00:59Z</time>
      </trkpt>
      <trkpt lat="47.8407" lon="6.3886">
        <ele>363.919922</ele>
        <time>2020-05-12T13:01:01Z</time>
      </trkpt>
      <trkpt lat="47.84075" lon="6.38863">
        <ele>364.230011</ele>
        <time>2020-05-12T13:01:02Z</time>
      </trkpt>
      <trkpt lat="47.84082" lon="6.38867">
        <ele>364.73999</ele>
        <time>2020-05-12T13:01:04Z</time>
      </trkpt>
      <trkpt lat="47.84083" lon="6.38868">
        <ele>364.829987</ele>
        <time>2020-05-12T13:01:05Z</time>
      </trkpt>
      <trkpt lat="47.84086" lon="6.3887">
        <ele>365.024994</ele>
        <time>2020-05-12T13:01:07Z</time>
      </trkpt>
      <trkpt lat="47.84089" lon="6.38872">
        <ele>365.220001</ele>
        <time>2020-05-12T13:01:08Z</time>
      </trkpt>
      <trkpt lat="47.84094" lon="6.38875">
        <ele>365.549988</ele>
        <time>2020-05-12T13:01:10Z</time>
      </trkpt>
      <trkpt lat="47.84097" lon="6.38877">
        <ele>365.76001</ele>
        <time>2020-05-12T13:01:11Z</time>
      </trkpt>
      <trkpt lat="47.84099" lon="6.38878">
        <ele>365.894989</ele>
        <time>2020-05-12T13:01:12Z</time>
      </trkpt>
      <trkpt lat="47.84105" lon="6.38882">
        <ele>366.236908</ele>
        <time>2020-05-12T13:01:14Z</time>
      </trkpt>
      <trkpt lat="47.84108" lon="6.38883">
        <ele>366.397919</ele>
        <time>2020-05-12T13:01:16Z</time>
      </trkpt>
      <trkpt lat="47.8411" lon="6.38884">
        <ele>366.456238</ele>
        <time>2020-05-12T13:01:17Z</time>
      </trkpt>
      <trkpt lat="47.84113" lon="6.38885">
        <ele>366.643311</ele>
        <time>2020-05-12T13:01:19Z</time>
      </trkpt>
      <trkpt lat="47.84114" lon="6.38885">
        <ele>366.699585</ele>
        <time>2020-05-12T13:01:20Z</time>
      </trkpt>
      <trkpt lat="47.84117" lon="6.38884">
        <ele>366.819885</ele>
        <time>2020-05-12T13:01:21Z</time>
      </trkpt>
      <trkpt lat="47.84128" lon="6.38884">
        <ele>367.354492</ele>
        <time>2020-05-12T13:01:23Z</time>
      </trkpt>
      <trkpt lat="47.84142" lon="6.38893">
        <ele>368.218048</ele>
        <time>2020-05-12T13:01:25Z</time>
      </trkpt>
      <trkpt lat="47.84151" lon="6.389">
        <ele>368.737488</ele>
        <time>2020-05-12T13:01:27Z</time>
      </trkpt>
      <trkpt lat="47.84154" lon="6.389">
        <ele>368.893738</ele>
        <time>2020-05-12T13:01:28Z</time>
      </trkpt>
      <trkpt lat="47.84156" lon="6.38901">
        <ele>368.957489</ele>
        <time>2020-05-12T13:01:29Z</time>
      </trkpt>
      <trkpt lat="47.8416" lon="6.38901">
        <ele>369.163757</ele>
        <time>2020-05-12T13:01:31Z</time>
      </trkpt>
      <trkpt lat="47.84162" lon="6.38902">
        <ele>369.244995</ele>
        <time>2020-05-12T13:01:32Z</time>
      </trkpt>
      <trkpt lat="47.84166" lon="6.38902">
        <ele>369.402496</ele>
        <time>2020-05-12T13:01:34Z</time>
      </trkpt>
      <trkpt lat="47.84168" lon="6.38902">
        <ele>369.496246</ele>
        <time>2020-05-12T13:01:36Z</time>
      </trkpt>
      <trkpt lat="47.84169" lon="6.38901">
        <ele>369.532501</ele>
        <time>2020-05-12T13:01:37Z</time>
      </trkpt>
      <trkpt lat="47.8417" lon="6.38901">
        <ele>369.577515</ele>
        <time>2020-05-12T13:01:39Z</time>
      </trkpt>
      <trkpt lat="47.84173" lon="6.38898">
        <ele>369.652496</ele>
        <time>2020-05-12T13:01:42Z</time>
      </trkpt>
      <trkpt lat="47.84175" lon="6.38893">
        <ele>369.670013</ele>
        <time>2020-05-12T13:01:43Z</time>
      </trkpt>
      <trkpt lat="47.84178" lon="6.38883">
        <ele>369.642487</ele>
        <time>2020-05-12T13:01:44Z</time>
      </trkpt>
      <trkpt lat="47.84181" lon="6.38875">
        <ele>369.601257</ele>
        <time>2020-05-12T13:01:45Z</time>
      </trkpt>
      <trkpt lat="47.84182" lon="6.38868">
        <ele>369.495819</ele>
        <time>2020-05-12T13:01:46Z</time>
      </trkpt>
      <trkpt lat="47.84184" lon="6.38859">
        <ele>369.187561</ele>
        <time>2020-05-12T13:01:48Z</time>
      </trkpt>
      <trkpt lat="47.84186" lon="6.3885">
        <ele>368.883759</ele>
        <time>2020-05-12T13:01:49Z</time>
      </trkpt>
      <trkpt lat="47.84187" lon="6.38845">
        <ele>368.68277</ele>
        <time>2020-05-12T13:01:50Z</time>
      </trkpt>
      <trkpt lat="47.84188" lon="6.38837">
        <ele>368.373383</ele>
        <time>2020-05-12T13:01:52Z</time>
      </trkpt>
      <trkpt lat="47.84188" lon="6.38832">
        <ele>368.166779</ele>
        <time>2020-05-12T13:01:53Z</time>
      </trkpt>
      <trkpt lat="47.84189" lon="6.38828">
        <ele>367.986908</ele>
        <time>2020-05-12T13:01:54Z</time>
      </trkpt>
      <trkpt lat="47.8419" lon="6.38821">
        <ele>367.709198</ele>
        <time>2020-05-12T13:01:56Z</time>
      </trkpt>
      <trkpt lat="47.84191" lon="6.38815">
        <ele>367.470856</ele>
        <time>2020-05-12T13:01:57Z</time>
      </trkpt>
      <trkpt lat="47.84192" lon="6.38811">
        <ele>367.285675</ele>
        <time>2020-05-12T13:01:58Z</time>
      </trkpt>
      <trkpt lat="47.84193" lon="6.38806">
        <ele>367.070526</ele>
        <time>2020-05-12T13:02:00Z</time>
      </trkpt>
      <trkpt lat="47.84194" lon="6.38801">
        <ele>366.880005</ele>
        <time>2020-05-12T13:02:01Z</time>
      </trkpt>
      <trkpt lat="47.84194" lon="6.38796">
        <ele>366.7211</ele>
        <time>2020-05-12T13:02:02Z</time>
      </trkpt>
      <trkpt lat="47.84195" lon="6.3879">
        <ele>366.54071</ele>
        <time>2020-05-12T13:02:04Z</time>
      </trkpt>
      <trkpt lat="47.84196" lon="6.38784">
        <ele>366.368103</ele>
        <time>2020-05-12T13:02:05Z</time>
      </trkpt>
      <trkpt lat="47.84197" lon="6.3878">
        <ele>366.225616</ele>
        <time>2020-05-12T13:02:06Z</time>
      </trkpt>
      <trkpt lat="47.84198" lon="6.38774">
        <ele>366.03598</ele>
        <time>2020-05-12T13:02:07Z</time>
      </trkpt>
      <trkpt lat="47.842" lon="6.38767">
        <ele>365.786316</ele>
        <time>2020-05-12T13:02:08Z</time>
      </trkpt>
      <trkpt lat="47.84202" lon="6.38758">
        <ele>365.483429</ele>
        <time>2020-05-12T13:02:10Z</time>
      </trkpt>
      <trkpt lat="47.84204" lon="6.3875">
        <ele>365.179565</ele>
        <time>2020-05-12T13:02:11Z</time>
      </trkpt>
      <trkpt lat="47.84205" lon="6.38746">
        <ele>365.009277</ele>
        <time>2020-05-12T13:02:12Z</time>
      </trkpt>
      <trkpt lat="47.84207" lon="6.38738">
        <ele>364.678864</ele>
        <time>2020-05-12T13:02:14Z</time>
      </trkpt>
      <trkpt lat="47.8421" lon="6.38724">
        <ele>363.930847</ele>
        <time>2020-05-12T13:02:16Z</time>
      </trkpt>
      <trkpt lat="47.84212" lon="6.38719">
        <ele>363.670532</ele>
        <time>2020-05-12T13:02:17Z</time>
      </trkpt>
      <trkpt lat="47.84218" lon="6.3871">
        <ele>362.971405</ele>
        <time>2020-05-12T13:02:18Z</time>
      </trkpt>
      <trkpt lat="47.8422" lon="6.387">
        <ele>362.38324</ele>
        <time>2020-05-12T13:02:19Z</time>
      </trkpt>
      <trkpt lat="47.84224" lon="6.3868">
        <ele>361.191956</ele>
        <time>2020-05-12T13:02:21Z</time>
      </trkpt>
      <trkpt lat="47.84227" lon="6.38673">
        <ele>360.711823</ele>
        <time>2020-05-12T13:02:22Z</time>
      </trkpt>
      <trkpt lat="47.84227" lon="6.38666">
        <ele>360.322723</ele>
        <time>2020-05-12T13:02:24Z</time>
      </trkpt>
      <trkpt lat="47.84227" lon="6.3866">
        <ele>360.023071</ele>
        <time>2020-05-12T13:02:25Z</time>
      </trkpt>
      <trkpt lat="47.84224" lon="6.38662">
        <ele>360.283691</ele>
        <time>2020-05-12T13:02:26Z</time>
      </trkpt>
      <trkpt lat="47.84223" lon="6.38657">
        <ele>360.028168</ele>
        <time>2020-05-12T13:02:27Z</time>
      </trkpt>
      <trkpt lat="47.84224" lon="6.38654">
        <ele>359.82724</ele>
        <time>2020-05-12T13:02:28Z</time>
      </trkpt>
      <trkpt lat="47.84227" lon="6.38654">
        <ele>359.659851</ele>
        <time>2020-05-12T13:02:30Z</time>
      </trkpt>
      <trkpt lat="47.84231" lon="6.38655">
        <ele>359.47229</ele>
        <time>2020-05-12T13:02:31Z</time>
      </trkpt>
      <trkpt lat="47.84234" lon="6.38657">
        <ele>359.42804</ele>
        <time>2020-05-12T13:02:32Z</time>
      </trkpt>
      <trkpt lat="47.84237" lon="6.3866">
        <ele>359.478516</ele>
        <time>2020-05-12T13:02:33Z</time>
      </trkpt>
      <trkpt lat="47.84239" lon="6.38663">
        <ele>359.528381</ele>
        <time>2020-05-12T13:02:34Z</time>
      </trkpt>
      <trkpt lat="47.8424" lon="6.38666">
        <ele>359.643829</ele>
        <time>2020-05-12T13:02:35Z</time>
      </trkpt>
      <trkpt lat="47.84242" lon="6.3867">
        <ele>359.741943</ele>
        <time>2020-05-12T13:02:36Z</time>
      </trkpt>
      <trkpt lat="47.84243" lon="6.38673">
        <ele>359.905243</ele>
        <time>2020-05-12T13:02:38Z</time>
      </trkpt>
      <trkpt lat="47.84245" lon="6.38678">
        <ele>360.161285</ele>
        <time>2020-05-12T13:02:39Z</time>
      </trkpt>
      <trkpt lat="47.84246" lon="6.3868">
        <ele>360.299164</ele>
        <time>2020-05-12T13:02:40Z</time>
      </trkpt>
      <trkpt lat="47.84247" lon="6.38682">
        <ele>360.36673</ele>
        <time>2020-05-12T13:02:41Z</time>
      </trkpt>
      <trkpt lat="47.84249" lon="6.38686">
        <ele>360.575043</ele>
        <time>2020-05-12T13:02:43Z</time>
      </trkpt>
      <trkpt lat="47.8425" lon="6.38689">
        <ele>360.775299</ele>
        <time>2020-05-12T13:02:44Z</time>
      </trkpt>
      <trkpt lat="47.84251" lon="6.38694">
        <ele>360.981934</ele>
        <time>2020-05-12T13:02:45Z</time>
      </trkpt>
      <trkpt lat="47.84252" lon="6.38697">
        <ele>361.167969</ele>
        <time>2020-05-12T13:02:46Z</time>
      </trkpt>
      <trkpt lat="47.84253" lon="6.38702">
        <ele>361.399628</ele>
        <time>2020-05-12T13:02:48Z</time>
      </trkpt>
      <trkpt lat="47.84255" lon="6.38707">
        <ele>361.599243</ele>
        <time>2020-05-12T13:02:49Z</time>
      </trkpt>
      <trkpt lat="47.84255" lon="6.38711">
        <ele>361.775513</ele>
        <time>2020-05-12T13:02:50Z</time>
      </trkpt>
      <trkpt lat="47.84256" lon="6.38715">
        <ele>361.959747</ele>
        <time>2020-05-12T13:02:52Z</time>
      </trkpt>
      <trkpt lat="47.84257" lon="6.3872">
        <ele>362.169739</ele>
        <time>2020-05-12T13:02:53Z</time>
      </trkpt>
      <trkpt lat="47.84257" lon="6.38722">
        <ele>362.245422</ele>
        <time>2020-05-12T13:02:54Z</time>
      </trkpt>
      <trkpt lat="47.84258" lon="6.38723">
        <ele>362.29599</ele>
        <time>2020-05-12T13:02:56Z</time>
      </trkpt>
      <trkpt lat="47.84258" lon="6.38724">
        <ele>362.350311</ele>
        <time>2020-05-12T13:02:57Z</time>
      </trkpt>
      <trkpt lat="47.84258" lon="6.38726">
        <ele>362.440918</ele>
        <time>2020-05-12T13:02:58Z</time>
      </trkpt>
      <trkpt lat="47.84258" lon="6.38728">
        <ele>362.51062</ele>
        <time>2020-05-12T13:03:00Z</time>
      </trkpt>
      <trkpt lat="47.84258" lon="6.38729">
        <ele>362.587799</ele>
        <time>2020-05-12T13:03:01Z</time>
      </trkpt>
      <trkpt lat="47.84258" lon="6.38731">
        <ele>362.648682</ele>
        <time>2020-05-12T13:03:02Z</time>
      </trkpt>
      <trkpt lat="47.84258" lon="6.38732">
        <ele>362.721283</ele>
        <time>2020-05-12T13:03:04Z</time>
      </trkpt>
      <trkpt lat="47.84258" lon="6.38734">
        <ele>362.797974</ele>
        <time>2020-05-12T13:03:05Z</time>
      </trkpt>
      <trkpt lat="47.84258" lon="6.38735">
        <ele>362.865814</ele>
        <time>2020-05-12T13:03:07Z</time>
      </trkpt>
      <trkpt lat="47.84259" lon="6.38737">
        <ele>362.933136</ele>
        <time>2020-05-12T13:03:09Z</time>
      </trkpt>
      <trkpt lat="47.84259" lon="6.38739">
        <ele>363</ele>
        <time>2020-05-12T13:03:11Z</time>
      </trkpt>
      <trkpt lat="47.84259" lon="6.3874">
        <ele>363.075989</ele>
        <time>2020-05-12T13:03:13Z</time>
      </trkpt>
      <trkpt lat="47.84259" lon="6.38742">
        <ele>363.138153</ele>
        <time>2020-05-12T13:05:14Z</time>
      </trkpt>
      <trkpt lat="47.84259" lon="6.38743">
        <ele>363.202484</ele>
        <time>2020-05-12T13:05:15Z</time>
      </trkpt>
      <trkpt lat="47.84259" lon="6.38745">
        <ele>363.263763</ele>
        <time>2020-05-12T13:05:17Z</time>
      </trkpt>
      <trkpt lat="47.84259" lon="6.38747">
        <ele>363.334991</ele>
        <time>2020-05-12T13:05:18Z</time>
      </trkpt>
      <trkpt lat="47.8426" lon="6.38754">
        <ele>363.597504</ele>
        <time>2020-05-12T13:05:19Z</time>
      </trkpt>
      <trkpt lat="47.84264" lon="6.38764">
        <ele>363.873749</ele>
        <time>2020-05-12T13:05:21Z</time>
      </trkpt>
      <trkpt lat="47.84265" lon="6.3877">
        <ele>364.05249</ele>
        <time>2020-05-12T13:05:22Z</time>
      </trkpt>
      <trkpt lat="47.84266" lon="6.38776">
        <ele>364.28125</ele>
        <time>2020-05-12T13:05:23Z</time>
      </trkpt>
      <trkpt lat="47.84267" lon="6.38784">
        <ele>364.570007</ele>
        <time>2020-05-12T13:05:25Z</time>
      </trkpt>
      <trkpt lat="47.84268" lon="6.3879">
        <ele>364.788757</ele>
        <time>2020-05-12T13:05:26Z</time>
      </trkpt>
      <trkpt lat="47.8427" lon="6.38795">
        <ele>364.931244</ele>
        <time>2020-05-12T13:05:27Z</time>
      </trkpt>
      <trkpt lat="47.84271" lon="6.38802">
        <ele>365.153748</ele>
        <time>2020-05-12T13:05:29Z</time>
      </trkpt>
      <trkpt lat="47.84273" lon="6.38809">
        <ele>365.398743</ele>
        <time>2020-05-12T13:05:30Z</time>
      </trkpt>
      <trkpt lat="47.84273" lon="6.38816">
        <ele>365.728394</ele>
        <time>2020-05-12T13:05:31Z</time>
      </trkpt>
      <trkpt lat="47.84273" lon="6.38821">
        <ele>366.016449</ele>
        <time>2020-05-12T13:05:32Z</time>
      </trkpt>
      <trkpt lat="47.84274" lon="6.38829">
        <ele>366.380981</ele>
        <time>2020-05-12T13:05:34Z</time>
      </trkpt>
      <trkpt lat="47.84275" lon="6.38834">
        <ele>366.649597</ele>
        <time>2020-05-12T13:05:35Z</time>
      </trkpt>
      <trkpt lat="47.84277" lon="6.38842">
        <ele>367.005402</ele>
        <time>2020-05-12T13:05:37Z</time>
      </trkpt>
      <trkpt lat="47.84278" lon="6.38847">
        <ele>367.264526</ele>
        <time>2020-05-12T13:05:38Z</time>
      </trkpt>
      <trkpt lat="47.84279" lon="6.38852">
        <ele>367.503693</ele>
        <time>2020-05-12T13:05:39Z</time>
      </trkpt>
      <trkpt lat="47.8428" lon="6.38858">
        <ele>367.853546</ele>
        <time>2020-05-12T13:05:40Z</time>
      </trkpt>
      <trkpt lat="47.84281" lon="6.38867">
        <ele>368.320862</ele>
        <time>2020-05-12T13:05:42Z</time>
      </trkpt>
      <trkpt lat="47.84283" lon="6.38872">
        <ele>368.548737</ele>
        <time>2020-05-12T13:05:43Z</time>
      </trkpt>
      <trkpt lat="47.84285" lon="6.38878">
        <ele>368.761353</ele>
        <time>2020-05-12T13:05:45Z</time>
      </trkpt>
      <trkpt lat="47.84286" lon="6.38881">
        <ele>368.866241</ele>
        <time>2020-05-12T13:05:46Z</time>
      </trkpt>
      <trkpt lat="47.84289" lon="6.38889">
        <ele>369.054993</ele>
        <time>2020-05-12T13:05:47Z</time>
      </trkpt>
      <trkpt lat="47.84292" lon="6.38898">
        <ele>369.326233</ele>
        <time>2020-05-12T13:05:49Z</time>
      </trkpt>
      <trkpt lat="47.84293" lon="6.38904">
        <ele>369.545013</ele>
        <time>2020-05-12T13:05:50Z</time>
      </trkpt>
      <trkpt lat="47.84295" lon="6.38911">
        <ele>369.753754</ele>
        <time>2020-05-12T13:05:51Z</time>
      </trkpt>
      <trkpt lat="47.84297" lon="6.38919">
        <ele>369.991241</ele>
        <time>2020-05-12T13:05:53Z</time>
      </trkpt>
      <trkpt lat="47.84298" lon="6.38924">
        <ele>370.178741</ele>
        <time>2020-05-12T13:05:54Z</time>
      </trkpt>
      <trkpt lat="47.84298" lon="6.38929">
        <ele>370.359985</ele>
        <time>2020-05-12T13:05:55Z</time>
      </trkpt>
      <trkpt lat="47.84299" lon="6.38933">
        <ele>370.513763</ele>
        <time>2020-05-12T13:05:56Z</time>
      </trkpt>
      <trkpt lat="47.843" lon="6.38942">
        <ele>370.811249</ele>
        <time>2020-05-12T13:05:58Z</time>
      </trkpt>
      <trkpt lat="47.84301" lon="6.38946">
        <ele>370.964996</ele>
        <time>2020-05-12T13:05:59Z</time>
      </trkpt>
      <trkpt lat="47.84301" lon="6.38951">
        <ele>371.13089</ele>
        <time>2020-05-12T13:06:00Z</time>
      </trkpt>
      <trkpt lat="47.84302" lon="6.38956">
        <ele>371.293915</ele>
        <time>2020-05-12T13:06:01Z</time>
      </trkpt>
      <trkpt lat="47.84303" lon="6.38962">
        <ele>371.440002</ele>
        <time>2020-05-12T13:06:02Z</time>
      </trkpt>
      <trkpt lat="47.84305" lon="6.38967">
        <ele>371.586517</ele>
        <time>2020-05-12T13:06:04Z</time>
      </trkpt>
      <trkpt lat="47.84307" lon="6.38975">
        <ele>371.819611</ele>
        <time>2020-05-12T13:06:06Z</time>
      </trkpt>
      <trkpt lat="47.84308" lon="6.38981">
        <ele>371.999359</ele>
        <time>2020-05-12T13:06:07Z</time>
      </trkpt>
      <trkpt lat="47.84309" lon="6.38987">
        <ele>372.161652</ele>
        <time>2020-05-12T13:06:09Z</time>
      </trkpt>
      <trkpt lat="47.8431" lon="6.38992">
        <ele>372.335266</ele>
        <time>2020-05-12T13:06:10Z</time>
      </trkpt>
      <trkpt lat="47.84312" lon="6.38997">
        <ele>372.493103</ele>
        <time>2020-05-12T13:06:11Z</time>
      </trkpt>
      <trkpt lat="47.84314" lon="6.39003">
        <ele>372.654694</ele>
        <time>2020-05-12T13:06:13Z</time>
      </trkpt>
      <trkpt lat="47.84315" lon="6.39007">
        <ele>372.793213</ele>
        <time>2020-05-12T13:06:14Z</time>
      </trkpt>
      <trkpt lat="47.84316" lon="6.39011">
        <ele>372.977661</ele>
        <time>2020-05-12T13:06:15Z</time>
      </trkpt>
      <trkpt lat="47.84316" lon="6.39015">
        <ele>373.140228</ele>
        <time>2020-05-12T13:06:16Z</time>
      </trkpt>
      <trkpt lat="47.84317" lon="6.39023">
        <ele>373.438446</ele>
        <time>2020-05-12T13:06:18Z</time>
      </trkpt>
      <trkpt lat="47.84317" lon="6.39027">
        <ele>373.601501</ele>
        <time>2020-05-12T13:06:19Z</time>
      </trkpt>
      <trkpt lat="47.84317" lon="6.3903">
        <ele>373.725586</ele>
        <time>2020-05-12T13:06:20Z</time>
      </trkpt>
      <trkpt lat="47.84318" lon="6.39032">
        <ele>373.817047</ele>
        <time>2020-05-12T13:06:21Z</time>
      </trkpt>
      <trkpt lat="47.84319" lon="6.39035">
        <ele>373.928009</ele>
        <time>2020-05-12T13:06:23Z</time>
      </trkpt>
      <trkpt lat="47.84319" lon="6.39037">
        <ele>374.027893</ele>
        <time>2020-05-12T13:06:24Z</time>
      </trkpt>
      <trkpt lat="47.84318" lon="6.39044">
        <ele>374.328491</ele>
        <time>2020-05-12T13:06:25Z</time>
      </trkpt>
      <trkpt lat="47.84318" lon="6.39048">
        <ele>374.505188</ele>
        <time>2020-05-12T13:06:26Z</time>
      </trkpt>
      <trkpt lat="47.84319" lon="6.39051">
        <ele>374.635803</ele>
        <time>2020-05-12T13:06:28Z</time>
      </trkpt>
      <trkpt lat="47.8432" lon="6.39053">
        <ele>374.698761</ele>
        <time>2020-05-12T13:06:29Z</time>
      </trkpt>
      <trkpt lat="47.84321" lon="6.39056">
        <ele>374.765015</ele>
        <time>2020-05-12T13:06:30Z</time>
      </trkpt>
      <trkpt lat="47.84323" lon="6.39061">
        <ele>374.921234</ele>
        <time>2020-05-12T13:06:31Z</time>
      </trkpt>
      <trkpt lat="47.84328" lon="6.3907">
        <ele>375.066254</ele>
        <time>2020-05-12T13:06:32Z</time>
      </trkpt>
      <trkpt lat="47.84332" lon="6.39078">
        <ele>375.206238</ele>
        <time>2020-05-12T13:06:34Z</time>
      </trkpt>
      <trkpt lat="47.84338" lon="6.39092">
        <ele>375.311157</ele>
        <time>2020-05-12T13:06:35Z</time>
      </trkpt>
      <trkpt lat="47.84341" lon="6.39099">
        <ele>375.336151</ele>
        <time>2020-05-12T13:06:37Z</time>
      </trkpt>
      <trkpt lat="47.84343" lon="6.39105">
        <ele>375.381165</ele>
        <time>2020-05-12T13:06:38Z</time>
      </trkpt>
      <trkpt lat="47.84346" lon="6.39113">
        <ele>375.452545</ele>
        <time>2020-05-12T13:06:39Z</time>
      </trkpt>
      <trkpt lat="47.84347" lon="6.39118">
        <ele>375.521637</ele>
        <time>2020-05-12T13:06:40Z</time>
      </trkpt>
      <trkpt lat="47.84348" lon="6.39123">
        <ele>375.612885</ele>
        <time>2020-05-12T13:06:42Z</time>
      </trkpt>
      <trkpt lat="47.84349" lon="6.39128">
        <ele>375.691193</ele>
        <time>2020-05-12T13:06:43Z</time>
      </trkpt>
      <trkpt lat="47.84351" lon="6.39134">
        <ele>375.812195</ele>
        <time>2020-05-12T13:06:44Z</time>
      </trkpt>
      <trkpt lat="47.84351" lon="6.39137">
        <ele>375.857727</ele>
        <time>2020-05-12T13:06:45Z</time>
      </trkpt>
      <trkpt lat="47.84352" lon="6.39141">
        <ele>375.937988</ele>
        <time>2020-05-12T13:06:46Z</time>
      </trkpt>
      <trkpt lat="47.84353" lon="6.39146">
        <ele>376.020752</ele>
        <time>2020-05-12T13:06:47Z</time>
      </trkpt>
      <trkpt lat="47.84355" lon="6.39151">
        <ele>376.138855</ele>
        <time>2020-05-12T13:06:49Z</time>
      </trkpt>
      <trkpt lat="47.84357" lon="6.39163">
        <ele>376.266266</ele>
        <time>2020-05-12T13:06:50Z</time>
      </trkpt>
      <trkpt lat="47.84358" lon="6.39167">
        <ele>376.296265</ele>
        <time>2020-05-12T13:06:52Z</time>
      </trkpt>
      <trkpt lat="47.84359" lon="6.39173">
        <ele>376.350006</ele>
        <time>2020-05-12T13:06:53Z</time>
      </trkpt>
      <trkpt lat="47.84362" lon="6.39186">
        <ele>376.480103</ele>
        <time>2020-05-12T13:06:54Z</time>
      </trkpt>
      <trkpt lat="47.84365" lon="6.39197">
        <ele>376.624817</ele>
        <time>2020-05-12T13:06:55Z</time>
      </trkpt>
      <trkpt lat="47.84368" lon="6.39209">
        <ele>376.82074</ele>
        <time>2020-05-12T13:06:56Z</time>
      </trkpt>
      <trkpt lat="47.84371" lon="6.39221">
        <ele>377.059448</ele>
        <time>2020-05-12T13:06:58Z</time>
      </trkpt>
      <trkpt lat="47.84373" lon="6.3923">
        <ele>377.351654</ele>
        <time>2020-05-12T13:06:59Z</time>
      </trkpt>
      <trkpt lat="47.84375" lon="6.39241">
        <ele>377.731842</ele>
        <time>2020-05-12T13:07:01Z</time>
      </trkpt>
      <trkpt lat="47.84376" lon="6.39248">
        <ele>378.019989</ele>
        <time>2020-05-12T13:07:02Z</time>
      </trkpt>
      <trkpt lat="47.84378" lon="6.39255">
        <ele>378.280579</ele>
        <time>2020-05-12T13:07:04Z</time>
      </trkpt>
      <trkpt lat="47.84379" lon="6.39262">
        <ele>378.531372</ele>
        <time>2020-05-12T13:07:05Z</time>
      </trkpt>
      <trkpt lat="47.8438" lon="6.39268">
        <ele>378.781677</ele>
        <time>2020-05-12T13:07:06Z</time>
      </trkpt>
      <trkpt lat="47.84381" lon="6.39274">
        <ele>379.023987</ele>
        <time>2020-05-12T13:07:08Z</time>
      </trkpt>
      <trkpt lat="47.84383" lon="6.3928">
        <ele>379.301422</ele>
        <time>2020-05-12T13:07:10Z</time>
      </trkpt>
      <trkpt lat="47.84384" lon="6.39286">
        <ele>379.526855</ele>
        <time>2020-05-12T13:07:11Z</time>
      </trkpt>
      <trkpt lat="47.84385" lon="6.3929">
        <ele>379.654419</ele>
        <time>2020-05-12T13:07:12Z</time>
      </trkpt>
      <trkpt lat="47.84386" lon="6.39295">
        <ele>379.729492</ele>
        <time>2020-05-12T13:07:13Z</time>
      </trkpt>
      <trkpt lat="47.84387" lon="6.39301">
        <ele>379.836609</ele>
        <time>2020-05-12T13:07:14Z</time>
      </trkpt>
      <trkpt lat="47.84389" lon="6.39309">
        <ele>379.952454</ele>
        <time>2020-05-12T13:07:15Z</time>
      </trkpt>
      <trkpt lat="47.84389" lon="6.39313">
        <ele>380.022125</ele>
        <time>2020-05-12T13:07:16Z</time>
      </trkpt>
      <trkpt lat="47.84389" lon="6.39318">
        <ele>380.087494</ele>
        <time>2020-05-12T13:07:17Z</time>
      </trkpt>
      <trkpt lat="47.84389" lon="6.39323">
        <ele>380.143738</ele>
        <time>2020-05-12T13:07:19Z</time>
      </trkpt>
      <trkpt lat="47.84389" lon="6.39327">
        <ele>380.190613</ele>
        <time>2020-05-12T13:07:20Z</time>
      </trkpt>
      <trkpt lat="47.84389" lon="6.39332">
        <ele>380.25708</ele>
        <time>2020-05-12T13:07:21Z</time>
      </trkpt>
      <trkpt lat="47.84389" lon="6.39334">
        <ele>380.267487</ele>
        <time>2020-05-12T13:07:22Z</time>
      </trkpt>
      <trkpt lat="47.84386" lon="6.3934">
        <ele>380.239716</ele>
        <time>2020-05-12T13:07:24Z</time>
      </trkpt>
      <trkpt lat="47.84384" lon="6.39346">
        <ele>380.208557</ele>
        <time>2020-05-12T13:07:25Z</time>
      </trkpt>
      <trkpt lat="47.84379" lon="6.39355">
        <ele>380.039185</ele>
        <time>2020-05-12T13:07:27Z</time>
      </trkpt>
      <trkpt lat="47.84374" lon="6.39363">
        <ele>379.510895</ele>
        <time>2020-05-12T13:07:28Z</time>
      </trkpt>
      <trkpt lat="47.84366" lon="6.39376">
        <ele>378.609863</ele>
        <time>2020-05-12T13:07:30Z</time>
      </trkpt>
      <trkpt lat="47.84359" lon="6.39388">
        <ele>377.720947</ele>
        <time>2020-05-12T13:07:31Z</time>
      </trkpt>
      <trkpt lat="47.84343" lon="6.39417">
        <ele>376.056</ele>
        <time>2020-05-12T13:07:33Z</time>
      </trkpt>
      <trkpt lat="47.84336" lon="6.3943">
        <ele>375.799194</ele>
        <time>2020-05-12T13:07:34Z</time>
      </trkpt>
      <trkpt lat="47.84329" lon="6.39445">
        <ele>375.387451</ele>
        <time>2020-05-12T13:07:35Z</time>
      </trkpt>
      <trkpt lat="47.84323" lon="6.39457">
        <ele>374.893005</ele>
        <time>2020-05-12T13:07:36Z</time>
      </trkpt>
      <trkpt lat="47.84315" lon="6.39478">
        <ele>373.83844</ele>
        <time>2020-05-12T13:07:38Z</time>
      </trkpt>
      <trkpt lat="47.84316" lon="6.39493">
        <ele>373.511963</ele>
        <time>2020-05-12T13:07:40Z</time>
      </trkpt>
      <trkpt lat="47.8432" lon="6.39498">
        <ele>373.672974</ele>
        <time>2020-05-12T13:07:41Z</time>
      </trkpt>
      <trkpt lat="47.84329" lon="6.39509">
        <ele>374.119507</ele>
        <time>2020-05-12T13:07:43Z</time>
      </trkpt>
      <trkpt lat="47.84333" lon="6.39515">
        <ele>374.341248</ele>
        <time>2020-05-12T13:07:44Z</time>
      </trkpt>
      <trkpt lat="47.84341" lon="6.39527">
        <ele>374.804474</ele>
        <time>2020-05-12T13:07:46Z</time>
      </trkpt>
      <trkpt lat="47.84345" lon="6.39533">
        <ele>375.01825</ele>
        <time>2020-05-12T13:07:47Z</time>
      </trkpt>
      <trkpt lat="47.84351" lon="6.39545">
        <ele>375.350403</ele>
        <time>2020-05-12T13:07:49Z</time>
      </trkpt>
      <trkpt lat="47.84354" lon="6.39549">
        <ele>375.496735</ele>
        <time>2020-05-12T13:07:50Z</time>
      </trkpt>
      <trkpt lat="47.84356" lon="6.39552">
        <ele>375.609009</ele>
        <time>2020-05-12T13:07:51Z</time>
      </trkpt>
      <trkpt lat="47.84362" lon="6.3956">
        <ele>375.975006</ele>
        <time>2020-05-12T13:07:53Z</time>
      </trkpt>
      <trkpt lat="47.84365" lon="6.39562">
        <ele>376.170013</ele>
        <time>2020-05-12T13:07:54Z</time>
      </trkpt>
      <trkpt lat="47.84367" lon="6.39564">
        <ele>376.350006</ele>
        <time>2020-05-12T13:07:55Z</time>
      </trkpt>
      <trkpt lat="47.84368" lon="6.39561">
        <ele>376.394989</ele>
        <time>2020-05-12T13:07:57Z</time>
      </trkpt>
      <trkpt lat="47.84367" lon="6.39558">
        <ele>376.320007</ele>
        <time>2020-05-12T13:07:58Z</time>
      </trkpt>
      <trkpt lat="47.84374" lon="6.39551">
        <ele>376.817505</ele>
        <time>2020-05-12T13:08:00Z</time>
      </trkpt>
      <trkpt lat="47.8438" lon="6.39546">
        <ele>377.211426</ele>
        <time>2020-05-12T13:08:01Z</time>
      </trkpt>
      <trkpt lat="47.84385" lon="6.39541">
        <ele>377.499146</ele>
        <time>2020-05-12T13:08:03Z</time>
      </trkpt>
      <trkpt lat="47.84388" lon="6.39536">
        <ele>377.715576</ele>
        <time>2020-05-12T13:08:04Z</time>
      </trkpt>
      <trkpt lat="47.84393" lon="6.39531">
        <ele>377.960632</ele>
        <time>2020-05-12T13:08:05Z</time>
      </trkpt>
      <trkpt lat="47.84396" lon="6.39527">
        <ele>378.179993</ele>
        <time>2020-05-12T13:08:06Z</time>
      </trkpt>
      <trkpt lat="47.84398" lon="6.39523">
        <ele>378.315002</ele>
        <time>2020-05-12T13:08:07Z</time>
      </trkpt>
      <trkpt lat="47.84402" lon="6.39519">
        <ele>378.524994</ele>
        <time>2020-05-12T13:08:09Z</time>
      </trkpt>
      <trkpt lat="47.84407" lon="6.39513">
        <ele>378.88501</ele>
        <time>2020-05-12T13:08:11Z</time>
      </trkpt>
      <trkpt lat="47.84412" lon="6.39508">
        <ele>379.184998</ele>
        <time>2020-05-12T13:08:12Z</time>
      </trkpt>
      <trkpt lat="47.84416" lon="6.39503">
        <ele>379.424988</ele>
        <time>2020-05-12T13:08:13Z</time>
      </trkpt>
      <trkpt lat="47.84423" lon="6.39496">
        <ele>379.904999</ele>
        <time>2020-05-12T13:08:15Z</time>
      </trkpt>
      <trkpt lat="47.8443" lon="6.39489">
        <ele>380.412506</ele>
        <time>2020-05-12T13:08:17Z</time>
      </trkpt>
      <trkpt lat="47.84435" lon="6.39486">
        <ele>380.772491</ele>
        <time>2020-05-12T13:08:18Z</time>
      </trkpt>
      <trkpt lat="47.84442" lon="6.39487">
        <ele>381.24295</ele>
        <time>2020-05-12T13:08:20Z</time>
      </trkpt>
      <trkpt lat="47.84446" lon="6.39489">
        <ele>381.486298</ele>
        <time>2020-05-12T13:08:21Z</time>
      </trkpt>
      <trkpt lat="47.84447" lon="6.39496">
        <ele>381.480011</ele>
        <time>2020-05-12T13:08:23Z</time>
      </trkpt>
      <trkpt lat="47.84447" lon="6.39507">
        <ele>381.494995</ele>
        <time>2020-05-12T13:08:24Z</time>
      </trkpt>
      <trkpt lat="47.84446" lon="6.39513">
        <ele>381.494995</ele>
        <time>2020-05-12T13:08:26Z</time>
      </trkpt>
      <trkpt lat="47.84446" lon="6.39519">
        <ele>381.480011</ele>
        <time>2020-05-12T13:08:27Z</time>
      </trkpt>
      <trkpt lat="47.84447" lon="6.39524">
        <ele>381.554993</ele>
        <time>2020-05-12T13:08:29Z</time>
      </trkpt>
      <trkpt lat="47.84448" lon="6.39529">
        <ele>381.61499</ele>
        <time>2020-05-12T13:08:30Z</time>
      </trkpt>
      <trkpt lat="47.84448" lon="6.39531">
        <ele>381.630005</ele>
        <time>2020-05-12T13:08:31Z</time>
      </trkpt>
      <trkpt lat="47.84449" lon="6.39539">
        <ele>381.720001</ele>
        <time>2020-05-12T13:08:33Z</time>
      </trkpt>
      <trkpt lat="47.84449" lon="6.39541">
        <ele>381.75</ele>
        <time>2020-05-12T13:08:34Z</time>
      </trkpt>
      <trkpt lat="47.8445" lon="6.39544">
        <ele>381.795013</ele>
        <time>2020-05-12T13:08:35Z</time>
      </trkpt>
      <trkpt lat="47.84452" lon="6.3956">
        <ele>381.959991</ele>
        <time>2020-05-12T13:08:37Z</time>
      </trkpt>
      <trkpt lat="47.84453" lon="6.39571">
        <ele>381.994446</ele>
        <time>2020-05-12T13:08:38Z</time>
      </trkpt>
      <trkpt lat="47.84452" lon="6.3958">
        <ele>381.947632</ele>
        <time>2020-05-12T13:08:39Z</time>
      </trkpt>
      <trkpt lat="47.84453" lon="6.39589">
        <ele>381.927887</ele>
        <time>2020-05-12T13:08:40Z</time>
      </trkpt>
      <trkpt lat="47.84452" lon="6.39598">
        <ele>381.887421</ele>
        <time>2020-05-12T13:08:42Z</time>
      </trkpt>
      <trkpt lat="47.84452" lon="6.39606">
        <ele>381.858856</ele>
        <time>2020-05-12T13:08:43Z</time>
      </trkpt>
      <trkpt lat="47.84452" lon="6.39613">
        <ele>381.831085</ele>
        <time>2020-05-12T13:08:44Z</time>
      </trkpt>
      <trkpt lat="47.84452" lon="6.39619">
        <ele>381.806549</ele>
        <time>2020-05-12T13:08:45Z</time>
      </trkpt>
      <trkpt lat="47.84453" lon="6.39629">
        <ele>381.799988</ele>
        <time>2020-05-12T13:08:47Z</time>
      </trkpt>
      <trkpt lat="47.84453" lon="6.39637">
        <ele>381.829987</ele>
        <time>2020-05-12T13:08:48Z</time>
      </trkpt>
      <trkpt lat="47.84454" lon="6.39645">
        <ele>381.869995</ele>
        <time>2020-05-12T13:08:49Z</time>
      </trkpt>
      <trkpt lat="47.84454" lon="6.39654">
        <ele>381.899994</ele>
        <time>2020-05-12T13:08:50Z</time>
      </trkpt>
      <trkpt lat="47.84455" lon="6.39657">
        <ele>381.920013</ele>
        <time>2020-05-12T13:08:51Z</time>
      </trkpt>
      <trkpt lat="47.84455" lon="6.39661">
        <ele>381.940002</ele>
        <time>2020-05-12T13:08:53Z</time>
      </trkpt>
      <trkpt lat="47.84455" lon="6.39664">
        <ele>381.959991</ele>
        <time>2020-05-12T13:08:54Z</time>
      </trkpt>
      <trkpt lat="47.84455" lon="6.39667">
        <ele>381.970001</ele>
        <time>2020-05-12T13:08:55Z</time>
      </trkpt>
      <trkpt lat="47.84456" lon="6.39669">
        <ele>381.980011</ele>
        <time>2020-05-12T13:08:56Z</time>
      </trkpt>
      <trkpt lat="47.84455" lon="6.39676">
        <ele>381.980011</ele>
        <time>2020-05-12T13:08:57Z</time>
      </trkpt>
      <trkpt lat="47.84455" lon="6.39683">
        <ele>381.970001</ele>
        <time>2020-05-12T13:08:59Z</time>
      </trkpt>
      <trkpt lat="47.84454" lon="6.39688">
        <ele>381.959991</ele>
        <time>2020-05-12T13:09:00Z</time>
      </trkpt>
      <trkpt lat="47.84454" lon="6.39695">
        <ele>381.962494</ele>
        <time>2020-05-12T13:09:01Z</time>
      </trkpt>
      <trkpt lat="47.84455" lon="6.39701">
        <ele>381.792511</ele>
        <time>2020-05-12T13:09:02Z</time>
      </trkpt>
      <trkpt lat="47.84455" lon="6.39708">
        <ele>381.600006</ele>
        <time>2020-05-12T13:09:04Z</time>
      </trkpt>
      <trkpt lat="47.84454" lon="6.39712">
        <ele>381.450012</ele>
        <time>2020-05-12T13:09:05Z</time>
      </trkpt>
      <trkpt lat="47.84456" lon="6.3972">
        <ele>381.294983</ele>
        <time>2020-05-12T13:09:07Z</time>
      </trkpt>
      <trkpt lat="47.84457" lon="6.39733">
        <ele>380.997498</ele>
        <time>2020-05-12T13:09:08Z</time>
      </trkpt>
      <trkpt lat="47.84457" lon="6.39736">
        <ele>380.934998</ele>
        <time>2020-05-12T13:09:09Z</time>
      </trkpt>
      <trkpt lat="47.84459" lon="6.39744">
        <ele>380.787506</ele>
        <time>2020-05-12T13:09:11Z</time>
      </trkpt>
      <trkpt lat="47.84461" lon="6.39753">
        <ele>380.595001</ele>
        <time>2020-05-12T13:09:13Z</time>
      </trkpt>
      <trkpt lat="47.84462" lon="6.39758">
        <ele>380.497498</ele>
        <time>2020-05-12T13:09:14Z</time>
      </trkpt>
      <trkpt lat="47.84464" lon="6.39768">
        <ele>380.230133</ele>
        <time>2020-05-12T13:09:15Z</time>
      </trkpt>
      <trkpt lat="47.84466" lon="6.39774">
        <ele>380.003998</ele>
        <time>2020-05-12T13:09:16Z</time>
      </trkpt>
      <trkpt lat="47.8447" lon="6.3979">
        <ele>379.497528</ele>
        <time>2020-05-12T13:09:18Z</time>
      </trkpt>
      <trkpt lat="47.84471" lon="6.39796">
        <ele>379.3125</ele>
        <time>2020-05-12T13:09:20Z</time>
      </trkpt>
      <trkpt lat="47.84472" lon="6.39802">
        <ele>379.117249</ele>
        <time>2020-05-12T13:09:21Z</time>
      </trkpt>
      <trkpt lat="47.84472" lon="6.39811">
        <ele>378.728088</ele>
        <time>2020-05-12T13:09:23Z</time>
      </trkpt>
      <trkpt lat="47.84472" lon="6.39816">
        <ele>378.49939</ele>
        <time>2020-05-12T13:09:24Z</time>
      </trkpt>
      <trkpt lat="47.84468" lon="6.39832">
        <ele>377.826141</ele>
        <time>2020-05-12T13:09:25Z</time>
      </trkpt>
      <trkpt lat="47.84467" lon="6.39849">
        <ele>378.534912</ele>
        <time>2020-05-12T13:09:27Z</time>
      </trkpt>
      <trkpt lat="47.84471" lon="6.39873">
        <ele>379.906036</ele>
        <time>2020-05-12T13:09:29Z</time>
      </trkpt>
      <trkpt lat="47.84471" lon="6.39879">
        <ele>380.257507</ele>
        <time>2020-05-12T13:09:30Z</time>
      </trkpt>
      <trkpt lat="47.84472" lon="6.39886">
        <ele>380.613739</ele>
        <time>2020-05-12T13:09:31Z</time>
      </trkpt>
      <trkpt lat="47.84472" lon="6.39891">
        <ele>380.861267</ele>
        <time>2020-05-12T13:09:32Z</time>
      </trkpt>
      <trkpt lat="47.84473" lon="6.39897">
        <ele>381.206268</ele>
        <time>2020-05-12T13:09:34Z</time>
      </trkpt>
      <trkpt lat="47.84474" lon="6.39905">
        <ele>381.607513</ele>
        <time>2020-05-12T13:09:35Z</time>
      </trkpt>
      <trkpt lat="47.84474" lon="6.39913">
        <ele>382.027496</ele>
        <time>2020-05-12T13:09:36Z</time>
      </trkpt>
      <trkpt lat="47.84476" lon="6.39927">
        <ele>382.788757</ele>
        <time>2020-05-12T13:09:37Z</time>
      </trkpt>
      <trkpt lat="47.84477" lon="6.39934">
        <ele>383.16748</ele>
        <time>2020-05-12T13:09:39Z</time>
      </trkpt>
      <trkpt lat="47.84477" lon="6.39938">
        <ele>383.399994</ele>
        <time>2020-05-12T13:09:40Z</time>
      </trkpt>
      <trkpt lat="47.84478" lon="6.39943">
        <ele>383.696259</ele>
        <time>2020-05-12T13:09:41Z</time>
      </trkpt>
      <trkpt lat="47.84479" lon="6.3995">
        <ele>384.067505</ele>
        <time>2020-05-12T13:09:42Z</time>
      </trkpt>
      <trkpt lat="47.8448" lon="6.39954">
        <ele>384.326263</ele>
        <time>2020-05-12T13:09:44Z</time>
      </trkpt>
      <trkpt lat="47.84481" lon="6.39958">
        <ele>384.566254</ele>
        <time>2020-05-12T13:09:45Z</time>
      </trkpt>
      <trkpt lat="47.84482" lon="6.39964">
        <ele>384.89624</ele>
        <time>2020-05-12T13:09:46Z</time>
      </trkpt>
      <trkpt lat="47.84483" lon="6.39973">
        <ele>385.250153</ele>
        <time>2020-05-12T13:09:48Z</time>
      </trkpt>
      <trkpt lat="47.84484" lon="6.39977">
        <ele>385.417664</ele>
        <time>2020-05-12T13:09:49Z</time>
      </trkpt>
      <trkpt lat="47.84485" lon="6.39978">
        <ele>385.476166</ele>
        <time>2020-05-12T13:09:50Z</time>
      </trkpt>
      <trkpt lat="47.84486" lon="6.39984">
        <ele>385.669983</ele>
        <time>2020-05-12T13:09:51Z</time>
      </trkpt>
      <trkpt lat="47.84486" lon="6.39986">
        <ele>385.748749</ele>
        <time>2020-05-12T13:09:52Z</time>
      </trkpt>
      <trkpt lat="47.84487" lon="6.39993">
        <ele>385.966217</ele>
        <time>2020-05-12T13:09:54Z</time>
      </trkpt>
      <trkpt lat="47.84487" lon="6.39995">
        <ele>386.04837</ele>
        <time>2020-05-12T13:09:55Z</time>
      </trkpt>
      <trkpt lat="47.84487" lon="6.39998">
        <ele>386.119171</ele>
        <time>2020-05-12T13:09:56Z</time>
      </trkpt>
      <trkpt lat="47.84487" lon="6.40003">
        <ele>386.234955</ele>
        <time>2020-05-12T13:09:58Z</time>
      </trkpt>
      <trkpt lat="47.84484" lon="6.40012">
        <ele>386.324554</ele>
        <time>2020-05-12T13:10:00Z</time>
      </trkpt>
      <trkpt lat="47.84483" lon="6.40018">
        <ele>386.420105</ele>
        <time>2020-05-12T13:10:01Z</time>
      </trkpt>
      <trkpt lat="47.84481" lon="6.40021">
        <ele>386.434814</ele>
        <time>2020-05-12T13:10:02Z</time>
      </trkpt>
      <trkpt lat="47.84479" lon="6.40026">
        <ele>386.470642</ele>
        <time>2020-05-12T13:10:04Z</time>
      </trkpt>
      <trkpt lat="47.84477" lon="6.40033">
        <ele>386.543762</ele>
        <time>2020-05-12T13:10:05Z</time>
      </trkpt>
      <trkpt lat="47.84476" lon="6.40038">
        <ele>386.586243</ele>
        <time>2020-05-12T13:10:06Z</time>
      </trkpt>
      <trkpt lat="47.84475" lon="6.40044">
        <ele>386.618744</ele>
        <time>2020-05-12T13:10:07Z</time>
      </trkpt>
      <trkpt lat="47.84467" lon="6.40058">
        <ele>386.508759</ele>
        <time>2020-05-12T13:10:09Z</time>
      </trkpt>
      <trkpt lat="47.84457" lon="6.40074">
        <ele>386.369995</ele>
        <time>2020-05-12T13:10:10Z</time>
      </trkpt>
      <trkpt lat="47.8445" lon="6.40083">
        <ele>386.191254</ele>
        <time>2020-05-12T13:10:12Z</time>
      </trkpt>
      <trkpt lat="47.84445" lon="6.40085">
        <ele>386.017517</ele>
        <time>2020-05-12T13:10:13Z</time>
      </trkpt>
      <trkpt lat="47.8444" lon="6.40089">
        <ele>385.848755</ele>
        <time>2020-05-12T13:10:14Z</time>
      </trkpt>
      <trkpt lat="47.84434" lon="6.40092">
        <ele>385.654999</ele>
        <time>2020-05-12T13:10:15Z</time>
      </trkpt>
      <trkpt lat="47.84427" lon="6.40093">
        <ele>385.378754</ele>
        <time>2020-05-12T13:10:17Z</time>
      </trkpt>
      <trkpt lat="47.84421" lon="6.40095">
        <ele>385.054016</ele>
        <time>2020-05-12T13:10:19Z</time>
      </trkpt>
      <trkpt lat="47.84416" lon="6.40095">
        <ele>384.862488</ele>
        <time>2020-05-12T13:10:20Z</time>
      </trkpt>
      <trkpt lat="47.84413" lon="6.40094">
        <ele>384.722504</ele>
        <time>2020-05-12T13:10:21Z</time>
      </trkpt>
      <trkpt lat="47.84407" lon="6.40093">
        <ele>384.47876</ele>
        <time>2020-05-12T13:10:23Z</time>
      </trkpt>
      <trkpt lat="47.84404" lon="6.40092">
        <ele>384.355011</ele>
        <time>2020-05-12T13:10:24Z</time>
      </trkpt>
      <trkpt lat="47.84401" lon="6.40091">
        <ele>384.226532</ele>
        <time>2020-05-12T13:10:25Z</time>
      </trkpt>
      <trkpt lat="47.84392" lon="6.40091">
        <ele>383.825012</ele>
        <time>2020-05-12T13:10:27Z</time>
      </trkpt>
      <trkpt lat="47.84386" lon="6.40091">
        <ele>383.546234</ele>
        <time>2020-05-12T13:10:28Z</time>
      </trkpt>
      <trkpt lat="47.8438" lon="6.40091">
        <ele>383.279999</ele>
        <time>2020-05-12T13:10:29Z</time>
      </trkpt>
      <trkpt lat="47.84375" lon="6.40091">
        <ele>383.013763</ele>
        <time>2020-05-12T13:10:30Z</time>
      </trkpt>
      <trkpt lat="47.8437" lon="6.40089">
        <ele>382.798096</ele>
        <time>2020-05-12T13:10:31Z</time>
      </trkpt>
      <trkpt lat="47.84366" lon="6.40086">
        <ele>382.605774</ele>
        <time>2020-05-12T13:10:32Z</time>
      </trkpt>
      <trkpt lat="47.84362" lon="6.40082">
        <ele>382.311676</ele>
        <time>2020-05-12T13:10:33Z</time>
      </trkpt>
      <trkpt lat="47.84352" lon="6.40088">
        <ele>382.018738</ele>
        <time>2020-05-12T13:10:34Z</time>
      </trkpt>
      <trkpt lat="47.84349" lon="6.40092">
        <ele>381.836243</ele>
        <time>2020-05-12T13:10:35Z</time>
      </trkpt>
      <trkpt lat="47.84347" lon="6.40098">
        <ele>381.681244</ele>
        <time>2020-05-12T13:10:37Z</time>
      </trkpt>
      <trkpt lat="47.84346" lon="6.40103">
        <ele>381.568756</ele>
        <time>2020-05-12T13:10:38Z</time>
      </trkpt>
      <trkpt lat="47.84346" lon="6.40108">
        <ele>381.466248</ele>
        <time>2020-05-12T13:10:39Z</time>
      </trkpt>
      <trkpt lat="47.84345" lon="6.40113">
        <ele>381.377502</ele>
        <time>2020-05-12T13:10:40Z</time>
      </trkpt>
      <trkpt lat="47.84345" lon="6.40121">
        <ele>381.256256</ele>
        <time>2020-05-12T13:10:42Z</time>
      </trkpt>
      <trkpt lat="47.84344" lon="6.40127">
        <ele>381.154999</ele>
        <time>2020-05-12T13:10:43Z</time>
      </trkpt>
      <trkpt lat="47.84343" lon="6.40138">
        <ele>380.942505</ele>
        <time>2020-05-12T13:10:44Z</time>
      </trkpt>
      <trkpt lat="47.84343" lon="6.40143">
        <ele>380.886261</ele>
        <time>2020-05-12T13:10:46Z</time>
      </trkpt>
      <trkpt lat="47.84343" lon="6.40148">
        <ele>380.813751</ele>
        <time>2020-05-12T13:10:47Z</time>
      </trkpt>
      <trkpt lat="47.84343" lon="6.40154">
        <ele>380.746246</ele>
        <time>2020-05-12T13:10:48Z</time>
      </trkpt>
      <trkpt lat="47.84343" lon="6.40162">
        <ele>380.265015</ele>
        <time>2020-05-12T13:10:50Z</time>
      </trkpt>
      <trkpt lat="47.84343" lon="6.4017">
        <ele>379.839996</ele>
        <time>2020-05-12T13:10:51Z</time>
      </trkpt>
      <trkpt lat="47.84344" lon="6.40176">
        <ele>379.475006</ele>
        <time>2020-05-12T13:10:52Z</time>
      </trkpt>
      <trkpt lat="47.84345" lon="6.40187">
        <ele>378.899994</ele>
        <time>2020-05-12T13:10:53Z</time>
      </trkpt>
      <trkpt lat="47.84353" lon="6.40204">
        <ele>378.265015</ele>
        <time>2020-05-12T13:10:54Z</time>
      </trkpt>
      <trkpt lat="47.84354" lon="6.4022">
        <ele>377.380005</ele>
        <time>2020-05-12T13:10:56Z</time>
      </trkpt>
      <trkpt lat="47.84354" lon="6.40239">
        <ele>375.54126</ele>
        <time>2020-05-12T13:10:57Z</time>
      </trkpt>
      <trkpt lat="47.84352" lon="6.40251">
        <ele>374.167511</ele>
        <time>2020-05-12T13:10:58Z</time>
      </trkpt>
      <trkpt lat="47.84351" lon="6.40327">
        <ele>365.495697</ele>
        <time>2020-05-12T13:10:59Z</time>
      </trkpt>
      <trkpt lat="47.84351" lon="6.40356">
        <ele>362.058746</ele>
        <time>2020-05-12T13:11:02Z</time>
      </trkpt>
      <trkpt lat="47.84352" lon="6.4037">
        <ele>360.28125</ele>
        <time>2020-05-12T13:11:04Z</time>
      </trkpt>
      <trkpt lat="47.84352" lon="6.40398">
        <ele>356.505005</ele>
        <time>2020-05-12T13:11:06Z</time>
      </trkpt>
      <trkpt lat="47.84352" lon="6.40411">
        <ele>354.806244</ele>
        <time>2020-05-12T13:11:07Z</time>
      </trkpt>
      <trkpt lat="47.84353" lon="6.40431">
        <ele>352.325012</ele>
        <time>2020-05-12T13:11:09Z</time>
      </trkpt>
      <trkpt lat="47.84358" lon="6.40437">
        <ele>352.019989</ele>
        <time>2020-05-12T13:11:10Z</time>
      </trkpt>
      <trkpt lat="47.84359" lon="6.40452">
        <ele>350.304993</ele>
        <time>2020-05-12T13:11:12Z</time>
      </trkpt>
      <trkpt lat="47.84359" lon="6.40463">
        <ele>349.054993</ele>
        <time>2020-05-12T13:11:13Z</time>
      </trkpt>
      <trkpt lat="47.84359" lon="6.40484">
        <ele>346.570007</ele>
        <time>2020-05-12T13:11:14Z</time>
      </trkpt>
      <trkpt lat="47.84359" lon="6.40495">
        <ele>345.435455</ele>
        <time>2020-05-12T13:11:16Z</time>
      </trkpt>
      <trkpt lat="47.84359" lon="6.40516">
        <ele>343.688049</ele>
        <time>2020-05-12T13:11:18Z</time>
      </trkpt>
      <trkpt lat="47.84362" lon="6.40537">
        <ele>341.991608</ele>
        <time>2020-05-12T13:11:20Z</time>
      </trkpt>
      <trkpt lat="47.84363" lon="6.40545">
        <ele>341.278381</ele>
        <time>2020-05-12T13:11:21Z</time>
      </trkpt>
      <trkpt lat="47.84364" lon="6.40561">
        <ele>339.924072</ele>
        <time>2020-05-12T13:11:23Z</time>
      </trkpt>
      <trkpt lat="47.84365" lon="6.40579">
        <ele>338.456879</ele>
        <time>2020-05-12T13:11:25Z</time>
      </trkpt>
      <trkpt lat="47.84366" lon="6.40588">
        <ele>337.76889</ele>
        <time>2020-05-12T13:11:26Z</time>
      </trkpt>
      <trkpt lat="47.84371" lon="6.40599">
        <ele>337.163727</ele>
        <time>2020-05-12T13:11:28Z</time>
      </trkpt>
      <trkpt lat="47.84373" lon="6.40611">
        <ele>336.271027</ele>
        <time>2020-05-12T13:11:30Z</time>
      </trkpt>
      <trkpt lat="47.8437" lon="6.40623">
        <ele>335.104126</ele>
        <time>2020-05-12T13:11:31Z</time>
      </trkpt>
      <trkpt lat="47.84372" lon="6.40628">
        <ele>335.371002</ele>
        <time>2020-05-12T13:11:33Z</time>
      </trkpt>
      <trkpt lat="47.84376" lon="6.40629">
        <ele>335.697815</ele>
        <time>2020-05-12T13:11:34Z</time>
      </trkpt>
      <trkpt lat="47.84375" lon="6.40632">
        <ele>335.842224</ele>
        <time>2020-05-12T13:11:35Z</time>
      </trkpt>
      <trkpt lat="47.84374" lon="6.40633">
        <ele>335.898438</ele>
        <time>2020-05-12T13:11:36Z</time>
      </trkpt>
      <trkpt lat="47.84373" lon="6.40635">
        <ele>335.935699</ele>
        <time>2020-05-12T13:11:38Z</time>
      </trkpt>
      <trkpt lat="47.84372" lon="6.40636">
        <ele>335.979919</ele>
        <time>2020-05-12T13:11:39Z</time>
      </trkpt>
      <trkpt lat="47.84371" lon="6.40638">
        <ele>336.045166</ele>
        <time>2020-05-12T13:11:40Z</time>
      </trkpt>
      <trkpt lat="47.84369" lon="6.40639">
        <ele>335.95813</ele>
        <time>2020-05-12T13:11:41Z</time>
      </trkpt>
      <trkpt lat="47.84367" lon="6.4064">
        <ele>335.915649</ele>
        <time>2020-05-12T13:11:43Z</time>
      </trkpt>
      <trkpt lat="47.84364" lon="6.40643">
        <ele>335.996765</ele>
        <time>2020-05-12T13:11:44Z</time>
      </trkpt>
      <trkpt lat="47.8436" lon="6.40647">
        <ele>336.075165</ele>
        <time>2020-05-12T13:11:45Z</time>
      </trkpt>
      <trkpt lat="47.84356" lon="6.40651">
        <ele>336.15979</ele>
        <time>2020-05-12T13:11:46Z</time>
      </trkpt>
      <trkpt lat="47.84352" lon="6.40655">
        <ele>336.237488</ele>
        <time>2020-05-12T13:11:47Z</time>
      </trkpt>
      <trkpt lat="47.84344" lon="6.40663">
        <ele>336.382507</ele>
        <time>2020-05-12T13:11:49Z</time>
      </trkpt>
      <trkpt lat="47.84338" lon="6.40668">
        <ele>336.397491</ele>
        <time>2020-05-12T13:11:51Z</time>
      </trkpt>
      <trkpt lat="47.84333" lon="6.40672">
        <ele>336.403748</ele>
        <time>2020-05-12T13:11:52Z</time>
      </trkpt>
      <trkpt lat="47.84328" lon="6.40675">
        <ele>336.355011</ele>
        <time>2020-05-12T13:11:53Z</time>
      </trkpt>
      <trkpt lat="47.84322" lon="6.40679">
        <ele>336.304993</ele>
        <time>2020-05-12T13:11:54Z</time>
      </trkpt>
      <trkpt lat="47.84318" lon="6.40682">
        <ele>336.299988</ele>
        <time>2020-05-12T13:11:55Z</time>
      </trkpt>
      <trkpt lat="47.84314" lon="6.40685">
        <ele>336.320007</ele>
        <time>2020-05-12T13:11:57Z</time>
      </trkpt>
      <trkpt lat="47.84311" lon="6.40689">
        <ele>336.35257</ele>
        <time>2020-05-12T13:11:58Z</time>
      </trkpt>
      <trkpt lat="47.84308" lon="6.40693">
        <ele>336.413605</ele>
        <time>2020-05-12T13:11:59Z</time>
      </trkpt>
      <trkpt lat="47.84306" lon="6.40696">
        <ele>336.523895</ele>
        <time>2020-05-12T13:12:00Z</time>
      </trkpt>
      <trkpt lat="47.84303" lon="6.407">
        <ele>336.617676</ele>
        <time>2020-05-12T13:12:01Z</time>
      </trkpt>
      <trkpt lat="47.84299" lon="6.40704">
        <ele>336.670654</ele>
        <time>2020-05-12T13:12:03Z</time>
      </trkpt>
      <trkpt lat="47.84295" lon="6.40707">
        <ele>336.672241</ele>
        <time>2020-05-12T13:12:04Z</time>
      </trkpt>
      <trkpt lat="47.84291" lon="6.4071">
        <ele>336.665985</ele>
        <time>2020-05-12T13:12:05Z</time>
      </trkpt>
      <trkpt lat="47.84288" lon="6.40713">
        <ele>336.634949</ele>
        <time>2020-05-12T13:12:07Z</time>
      </trkpt>
      <trkpt lat="47.84284" lon="6.40716">
        <ele>336.607941</ele>
        <time>2020-05-12T13:12:08Z</time>
      </trkpt>
      <trkpt lat="47.8428" lon="6.40719">
        <ele>336.568146</ele>
        <time>2020-05-12T13:12:09Z</time>
      </trkpt>
      <trkpt lat="47.84272" lon="6.40721">
        <ele>336.247925</ele>
        <time>2020-05-12T13:12:11Z</time>
      </trkpt>
      <trkpt lat="47.84265" lon="6.40724">
        <ele>336.050354</ele>
        <time>2020-05-12T13:12:12Z</time>
      </trkpt>
      <trkpt lat="47.84257" lon="6.40729">
        <ele>335.73999</ele>
        <time>2020-05-12T13:12:13Z</time>
      </trkpt>
      <trkpt lat="47.84245" lon="6.40736">
        <ele>335.024994</ele>
        <time>2020-05-12T13:12:15Z</time>
      </trkpt>
      <trkpt lat="47.84215" lon="6.40765">
        <ele>333.545349</ele>
        <time>2020-05-12T13:12:16Z</time>
      </trkpt>
      <trkpt lat="47.84184" lon="6.40795">
        <ele>332.225983</ele>
        <time>2020-05-12T13:12:18Z</time>
      </trkpt>
      <trkpt lat="47.84172" lon="6.40805">
        <ele>331.963928</ele>
        <time>2020-05-12T13:12:19Z</time>
      </trkpt>
      <trkpt lat="47.84159" lon="6.40815">
        <ele>330.662964</ele>
        <time>2020-05-12T13:12:20Z</time>
      </trkpt>
      <trkpt lat="47.84141" lon="6.40825">
        <ele>328.234711</ele>
        <time>2020-05-12T13:12:22Z</time>
      </trkpt>
      <trkpt lat="47.84132" lon="6.4083">
        <ele>327.131012</ele>
        <time>2020-05-12T13:12:23Z</time>
      </trkpt>
      <trkpt lat="47.84124" lon="6.40834">
        <ele>326.111633</ele>
        <time>2020-05-12T13:12:24Z</time>
      </trkpt>
      <trkpt lat="47.8411" lon="6.40845">
        <ele>324.350006</ele>
        <time>2020-05-12T13:12:26Z</time>
      </trkpt>
      <trkpt lat="47.84103" lon="6.40851">
        <ele>323.480011</ele>
        <time>2020-05-12T13:12:27Z</time>
      </trkpt>
      <trkpt lat="47.84091" lon="6.40861">
        <ele>321.950012</ele>
        <time>2020-05-12T13:12:29Z</time>
      </trkpt>
      <trkpt lat="47.84082" lon="6.40869">
        <ele>320.690002</ele>
        <time>2020-05-12T13:12:31Z</time>
      </trkpt>
      <trkpt lat="47.84072" lon="6.40878">
        <ele>319.346985</ele>
        <time>2020-05-12T13:12:33Z</time>
      </trkpt>
      <trkpt lat="47.8407" lon="6.40881">
        <ele>318.986115</ele>
        <time>2020-05-12T13:12:34Z</time>
      </trkpt>
      <trkpt lat="47.84068" lon="6.40882">
        <ele>318.803467</ele>
        <time>2020-05-12T13:12:36Z</time>
      </trkpt>
      <trkpt lat="47.8407" lon="6.40882">
        <ele>318.968201</ele>
        <time>2020-05-12T13:12:38Z</time>
      </trkpt>
      <trkpt lat="47.8407" lon="6.40882">
        <ele>318.991119</ele>
        <time>2020-05-12T13:12:39Z</time>
      </trkpt>
      <trkpt lat="47.8407" lon="6.40883">
        <ele>318.988953</ele>
        <time>2020-05-12T13:12:40Z</time>
      </trkpt>
      <trkpt lat="47.8407" lon="6.40889">
        <ele>318.766815</ele>
        <time>2020-05-12T13:12:42Z</time>
      </trkpt>
      <trkpt lat="47.84069" lon="6.40892">
        <ele>318.629272</ele>
        <time>2020-05-12T13:12:43Z</time>
      </trkpt>
      <trkpt lat="47.84067" lon="6.40895">
        <ele>318.364014</ele>
        <time>2020-05-12T13:12:45Z</time>
      </trkpt>
      <trkpt lat="47.84066" lon="6.4089">
        <ele>318.40274</ele>
        <time>2020-05-12T13:12:47Z</time>
      </trkpt>
      <trkpt lat="47.84067" lon="6.40888">
        <ele>318.562134</ele>
        <time>2020-05-12T13:12:48Z</time>
      </trkpt>
      <trkpt lat="47.84067" lon="6.40887">
        <ele>318.596405</ele>
        <time>2020-05-12T13:12:49Z</time>
      </trkpt>
      <trkpt lat="47.84068" lon="6.40886">
        <ele>318.718414</ele>
        <time>2020-05-12T13:12:51Z</time>
      </trkpt>
      <trkpt lat="47.84068" lon="6.40886">
        <ele>318.726715</ele>
        <time>2020-05-12T13:12:53Z</time>
      </trkpt>
      <trkpt lat="47.84068" lon="6.40886">
        <ele>318.675659</ele>
        <time>2020-05-12T13:12:54Z</time>
      </trkpt>
      <trkpt lat="47.84067" lon="6.40887">
        <ele>318.543701</ele>
        <time>2020-05-12T13:12:56Z</time>
      </trkpt>
      <trkpt lat="47.84066" lon="6.40888">
        <ele>318.417755</ele>
        <time>2020-05-12T13:12:57Z</time>
      </trkpt>
      <trkpt lat="47.84065" lon="6.40889">
        <ele>318.317413</ele>
        <time>2020-05-12T13:12:58Z</time>
      </trkpt>
      <trkpt lat="47.84063" lon="6.40891">
        <ele>318.142639</ele>
        <time>2020-05-12T13:12:59Z</time>
      </trkpt>
      <trkpt lat="47.84061" lon="6.40894">
        <ele>317.83075</ele>
        <time>2020-05-12T13:13:00Z</time>
      </trkpt>
      <trkpt lat="47.84057" lon="6.40896">
        <ele>317.472229</ele>
        <time>2020-05-12T13:13:02Z</time>
      </trkpt>
      <trkpt lat="47.84049" lon="6.40897">
        <ele>316.638</ele>
        <time>2020-05-12T13:13:03Z</time>
      </trkpt>
      <trkpt lat="47.8404" lon="6.40897">
        <ele>315.899261</ele>
        <time>2020-05-12T13:13:04Z</time>
      </trkpt>
      <trkpt lat="47.84032" lon="6.40896">
        <ele>315.163605</ele>
        <time>2020-05-12T13:13:05Z</time>
      </trkpt>
      <trkpt lat="47.84027" lon="6.40896">
        <ele>314.927399</ele>
        <time>2020-05-12T13:13:06Z</time>
      </trkpt>
      <trkpt lat="47.84019" lon="6.40895">
        <ele>314.774384</ele>
        <time>2020-05-12T13:13:08Z</time>
      </trkpt>
      <trkpt lat="47.84015" lon="6.40895">
        <ele>314.696838</ele>
        <time>2020-05-12T13:13:09Z</time>
      </trkpt>
      <trkpt lat="47.84006" lon="6.40895">
        <ele>314.489685</ele>
        <time>2020-05-12T13:13:11Z</time>
      </trkpt>
      <trkpt lat="47.84001" lon="6.40899">
        <ele>314.309845</ele>
        <time>2020-05-12T13:13:12Z</time>
      </trkpt>
      <trkpt lat="47.83998" lon="6.40902">
        <ele>314.148132</ele>
        <time>2020-05-12T13:13:14Z</time>
      </trkpt>
      <trkpt lat="47.83995" lon="6.40907">
        <ele>313.973114</ele>
        <time>2020-05-12T13:13:15Z</time>
      </trkpt>
      <trkpt lat="47.83995" lon="6.40912">
        <ele>313.851929</ele>
        <time>2020-05-12T13:13:16Z</time>
      </trkpt>
      <trkpt lat="47.83994" lon="6.40913">
        <ele>313.803528</ele>
        <time>2020-05-12T13:13:17Z</time>
      </trkpt>
      <trkpt lat="47.8399" lon="6.40915">
        <ele>313.583679</ele>
        <time>2020-05-12T13:13:18Z</time>
      </trkpt>
      <trkpt lat="47.83986" lon="6.40919">
        <ele>313.360809</ele>
        <time>2020-05-12T13:13:19Z</time>
      </trkpt>
      <trkpt lat="47.83984" lon="6.40924">
        <ele>313.122803</ele>
        <time>2020-05-12T13:13:21Z</time>
      </trkpt>
      <trkpt lat="47.83981" lon="6.40929">
        <ele>312.926514</ele>
        <time>2020-05-12T13:13:22Z</time>
      </trkpt>
      <trkpt lat="47.83978" lon="6.40935">
        <ele>312.768433</ele>
        <time>2020-05-12T13:13:23Z</time>
      </trkpt>
      <trkpt lat="47.83976" lon="6.40939">
        <ele>312.686798</ele>
        <time>2020-05-12T13:13:24Z</time>
      </trkpt>
      <trkpt lat="47.83976" lon="6.40946">
        <ele>312.609467</ele>
        <time>2020-05-12T13:13:26Z</time>
      </trkpt>
      <trkpt lat="47.83977" lon="6.40955">
        <ele>312.520081</ele>
        <time>2020-05-12T13:13:28Z</time>
      </trkpt>
      <trkpt lat="47.83978" lon="6.40959">
        <ele>312.477264</ele>
        <time>2020-05-12T13:13:29Z</time>
      </trkpt>
      <trkpt lat="47.83982" lon="6.40964">
        <ele>312.45459</ele>
        <time>2020-05-12T13:13:31Z</time>
      </trkpt>
      <trkpt lat="47.83985" lon="6.40968">
        <ele>312.468414</ele>
        <time>2020-05-12T13:13:32Z</time>
      </trkpt>
      <trkpt lat="47.83988" lon="6.40972">
        <ele>312.513611</ele>
        <time>2020-05-12T13:13:33Z</time>
      </trkpt>
      <trkpt lat="47.83991" lon="6.40975">
        <ele>312.542175</ele>
        <time>2020-05-12T13:13:34Z</time>
      </trkpt>
      <trkpt lat="47.83993" lon="6.40977">
        <ele>312.586975</ele>
        <time>2020-05-12T13:13:35Z</time>
      </trkpt>
      <trkpt lat="47.83997" lon="6.4098">
        <ele>312.643738</ele>
        <time>2020-05-12T13:13:37Z</time>
      </trkpt>
      <trkpt lat="47.83999" lon="6.40983">
        <ele>312.671509</ele>
        <time>2020-05-12T13:13:38Z</time>
      </trkpt>
      <trkpt lat="47.84" lon="6.40984">
        <ele>312.667023</ele>
        <time>2020-05-12T13:13:39Z</time>
      </trkpt>
      <trkpt lat="47.84003" lon="6.40986">
        <ele>312.715485</ele>
        <time>2020-05-12T13:13:41Z</time>
      </trkpt>
      <trkpt lat="47.84004" lon="6.40986">
        <ele>312.735596</ele>
        <time>2020-05-12T13:13:42Z</time>
      </trkpt>
      <trkpt lat="47.84006" lon="6.4099">
        <ele>312.702271</ele>
        <time>2020-05-12T13:13:43Z</time>
      </trkpt>
      <trkpt lat="47.84007" lon="6.40996">
        <ele>312.602173</ele>
        <time>2020-05-12T13:13:45Z</time>
      </trkpt>
      <trkpt lat="47.84009" lon="6.41001">
        <ele>312.761505</ele>
        <time>2020-05-12T13:13:46Z</time>
      </trkpt>
      <trkpt lat="47.84011" lon="6.41006">
        <ele>313.081665</ele>
        <time>2020-05-12T13:13:48Z</time>
      </trkpt>
      <trkpt lat="47.84012" lon="6.41008">
        <ele>313.190521</ele>
        <time>2020-05-12T13:13:49Z</time>
      </trkpt>
      <trkpt lat="47.84013" lon="6.4101">
        <ele>313.285736</ele>
        <time>2020-05-12T13:13:50Z</time>
      </trkpt>
      <trkpt lat="47.84017" lon="6.41014">
        <ele>313.548767</ele>
        <time>2020-05-12T13:13:51Z</time>
      </trkpt>
      <trkpt lat="47.84018" lon="6.41016">
        <ele>313.651062</ele>
        <time>2020-05-12T13:13:52Z</time>
      </trkpt>
      <trkpt lat="47.84021" lon="6.4102">
        <ele>313.862335</ele>
        <time>2020-05-12T13:13:54Z</time>
      </trkpt>
      <trkpt lat="47.84022" lon="6.41021">
        <ele>313.926361</ele>
        <time>2020-05-12T13:13:55Z</time>
      </trkpt>
      <trkpt lat="47.84023" lon="6.41022">
        <ele>313.989136</ele>
        <time>2020-05-12T13:13:56Z</time>
      </trkpt>
      <trkpt lat="47.84024" lon="6.41024">
        <ele>314.084808</ele>
        <time>2020-05-12T13:13:57Z</time>
      </trkpt>
      <trkpt lat="47.84026" lon="6.41025">
        <ele>314.174469</ele>
        <time>2020-05-12T13:13:59Z</time>
      </trkpt>
      <trkpt lat="47.84028" lon="6.41029">
        <ele>314.368469</ele>
        <time>2020-05-12T13:14:00Z</time>
      </trkpt>
      <trkpt lat="47.84031" lon="6.41033">
        <ele>314.638763</ele>
        <time>2020-05-12T13:14:02Z</time>
      </trkpt>
      <trkpt lat="47.84033" lon="6.41035">
        <ele>314.718903</ele>
        <time>2020-05-12T13:14:03Z</time>
      </trkpt>
      <trkpt lat="47.84034" lon="6.41036">
        <ele>314.803345</ele>
        <time>2020-05-12T13:14:04Z</time>
      </trkpt>
      <trkpt lat="47.84037" lon="6.41038">
        <ele>314.920685</ele>
        <time>2020-05-12T13:14:05Z</time>
      </trkpt>
      <trkpt lat="47.84039" lon="6.4104">
        <ele>315.044006</ele>
        <time>2020-05-12T13:14:07Z</time>
      </trkpt>
      <trkpt lat="47.84043" lon="6.41044">
        <ele>315.216003</ele>
        <time>2020-05-12T13:14:08Z</time>
      </trkpt>
      <trkpt lat="47.84046" lon="6.41047">
        <ele>315.356262</ele>
        <time>2020-05-12T13:14:10Z</time>
      </trkpt>
      <trkpt lat="47.84049" lon="6.41049">
        <ele>315.459595</ele>
        <time>2020-05-12T13:14:11Z</time>
      </trkpt>
      <trkpt lat="47.84053" lon="6.41051">
        <ele>315.548309</ele>
        <time>2020-05-12T13:14:12Z</time>
      </trkpt>
      <trkpt lat="47.84056" lon="6.41053">
        <ele>315.624847</ele>
        <time>2020-05-12T13:14:13Z</time>
      </trkpt>
      <trkpt lat="47.84059" lon="6.41055">
        <ele>315.696106</ele>
        <time>2020-05-12T13:14:14Z</time>
      </trkpt>
      <trkpt lat="47.84061" lon="6.41057">
        <ele>315.763672</ele>
        <time>2020-05-12T13:14:16Z</time>
      </trkpt>
      <trkpt lat="47.84064" lon="6.4106">
        <ele>315.827942</ele>
        <time>2020-05-12T13:14:17Z</time>
      </trkpt>
      <trkpt lat="47.84068" lon="6.41062">
        <ele>315.884491</ele>
        <time>2020-05-12T13:14:18Z</time>
      </trkpt>
      <trkpt lat="47.8407" lon="6.41065">
        <ele>315.919342</ele>
        <time>2020-05-12T13:14:19Z</time>
      </trkpt>
      <trkpt lat="47.84073" lon="6.41067">
        <ele>315.894348</ele>
        <time>2020-05-12T13:14:21Z</time>
      </trkpt>
      <trkpt lat="47.84077" lon="6.41071">
        <ele>315.921844</ele>
        <time>2020-05-12T13:14:22Z</time>
      </trkpt>
      <trkpt lat="47.84083" lon="6.41075">
        <ele>316.132874</ele>
        <time>2020-05-12T13:14:24Z</time>
      </trkpt>
      <trkpt lat="47.84086" lon="6.41078">
        <ele>316.292969</ele>
        <time>2020-05-12T13:14:25Z</time>
      </trkpt>
      <trkpt lat="47.8409" lon="6.41084">
        <ele>316.622162</ele>
        <time>2020-05-12T13:14:27Z</time>
      </trkpt>
      <trkpt lat="47.84094" lon="6.41088">
        <ele>316.82666</ele>
        <time>2020-05-12T13:14:28Z</time>
      </trkpt>
      <trkpt lat="47.84098" lon="6.41091">
        <ele>316.908173</ele>
        <time>2020-05-12T13:14:29Z</time>
      </trkpt>
      <trkpt lat="47.84102" lon="6.41094">
        <ele>317.048523</ele>
        <time>2020-05-12T13:14:31Z</time>
      </trkpt>
      <trkpt lat="47.84105" lon="6.41097">
        <ele>317.143127</ele>
        <time>2020-05-12T13:14:32Z</time>
      </trkpt>
      <trkpt lat="47.84108" lon="6.411">
        <ele>317.224945</ele>
        <time>2020-05-12T13:14:33Z</time>
      </trkpt>
      <trkpt lat="47.84112" lon="6.41103">
        <ele>317.293488</ele>
        <time>2020-05-12T13:14:34Z</time>
      </trkpt>
      <trkpt lat="47.84116" lon="6.41106">
        <ele>317.46875</ele>
        <time>2020-05-12T13:14:35Z</time>
      </trkpt>
      <trkpt lat="47.84119" lon="6.41108">
        <ele>317.637512</ele>
        <time>2020-05-12T13:14:36Z</time>
      </trkpt>
      <trkpt lat="47.84125" lon="6.41112">
        <ele>317.868744</ele>
        <time>2020-05-12T13:14:38Z</time>
      </trkpt>
      <trkpt lat="47.84128" lon="6.41114">
        <ele>317.987488</ele>
        <time>2020-05-12T13:14:39Z</time>
      </trkpt>
      <trkpt lat="47.84132" lon="6.41116">
        <ele>318.112488</ele>
        <time>2020-05-12T13:14:40Z</time>
      </trkpt>
      <trkpt lat="47.84137" lon="6.41119">
        <ele>318.306244</ele>
        <time>2020-05-12T13:14:42Z</time>
      </trkpt>
      <trkpt lat="47.84141" lon="6.41121">
        <ele>318.4375</ele>
        <time>2020-05-12T13:14:43Z</time>
      </trkpt>
      <trkpt lat="47.84153" lon="6.41127">
        <ele>318.818756</ele>
        <time>2020-05-12T13:14:45Z</time>
      </trkpt>
      <trkpt lat="47.84168" lon="6.41134">
        <ele>319.293762</ele>
        <time>2020-05-12T13:14:46Z</time>
      </trkpt>
      <trkpt lat="47.84175" lon="6.41138">
        <ele>319.537506</ele>
        <time>2020-05-12T13:14:47Z</time>
      </trkpt>
      <trkpt lat="47.84181" lon="6.41141">
        <ele>319.75</ele>
        <time>2020-05-12T13:14:48Z</time>
      </trkpt>
      <trkpt lat="47.84186" lon="6.41145">
        <ele>320.033539</ele>
        <time>2020-05-12T13:14:49Z</time>
      </trkpt>
      <trkpt lat="47.8419" lon="6.41149">
        <ele>320.289032</ele>
        <time>2020-05-12T13:14:51Z</time>
      </trkpt>
      <trkpt lat="47.84194" lon="6.41153">
        <ele>320.537415</ele>
        <time>2020-05-12T13:14:52Z</time>
      </trkpt>
      <trkpt lat="47.84197" lon="6.41156">
        <ele>320.784882</ele>
        <time>2020-05-12T13:14:53Z</time>
      </trkpt>
      <trkpt lat="47.84201" lon="6.41161">
        <ele>321.133514</ele>
        <time>2020-05-12T13:14:55Z</time>
      </trkpt>
      <trkpt lat="47.84204" lon="6.41164">
        <ele>321.263</ele>
        <time>2020-05-12T13:14:56Z</time>
      </trkpt>
      <trkpt lat="47.84206" lon="6.41167">
        <ele>321.432892</ele>
        <time>2020-05-12T13:14:57Z</time>
      </trkpt>
      <trkpt lat="47.84208" lon="6.41171">
        <ele>321.681488</ele>
        <time>2020-05-12T13:14:58Z</time>
      </trkpt>
      <trkpt lat="47.8421" lon="6.41173">
        <ele>321.841431</ele>
        <time>2020-05-12T13:14:59Z</time>
      </trkpt>
      <trkpt lat="47.84215" lon="6.41177">
        <ele>322.011353</ele>
        <time>2020-05-12T13:15:01Z</time>
      </trkpt>
      <trkpt lat="47.8422" lon="6.41178">
        <ele>322.052887</ele>
        <time>2020-05-12T13:15:03Z</time>
      </trkpt>
      <trkpt lat="47.84225" lon="6.41178">
        <ele>321.958496</ele>
        <time>2020-05-12T13:15:04Z</time>
      </trkpt>
      <trkpt lat="47.84232" lon="6.41178">
        <ele>321.770935</ele>
        <time>2020-05-12T13:15:06Z</time>
      </trkpt>
      <trkpt lat="47.84236" lon="6.41176">
        <ele>321.557922</ele>
        <time>2020-05-12T13:15:07Z</time>
      </trkpt>
      <trkpt lat="47.8424" lon="6.41176">
        <ele>321.501404</ele>
        <time>2020-05-12T13:15:09Z</time>
      </trkpt>
      <trkpt lat="47.84245" lon="6.41179">
        <ele>321.651215</ele>
        <time>2020-05-12T13:15:10Z</time>
      </trkpt>
      <trkpt lat="47.8426" lon="6.41181">
        <ele>321.752502</ele>
        <time>2020-05-12T13:15:12Z</time>
      </trkpt>
      <trkpt lat="47.84267" lon="6.41181">
        <ele>321.640015</ele>
        <time>2020-05-12T13:15:13Z</time>
      </trkpt>
      <trkpt lat="47.84271" lon="6.41183">
        <ele>321.8125</ele>
        <time>2020-05-12T13:15:15Z</time>
      </trkpt>
      <trkpt lat="47.84273" lon="6.41187">
        <ele>322.13501</ele>
        <time>2020-05-12T13:15:17Z</time>
      </trkpt>
      <trkpt lat="47.84273" lon="6.41189">
        <ele>322.359985</ele>
        <time>2020-05-12T13:15:18Z</time>
      </trkpt>
      <trkpt lat="47.84272" lon="6.41192">
        <ele>322.61499</ele>
        <time>2020-05-12T13:15:20Z</time>
      </trkpt>
      <trkpt lat="47.84271" lon="6.41193">
        <ele>322.674988</ele>
        <time>2020-05-12T13:15:21Z</time>
      </trkpt>
      <trkpt lat="47.8427" lon="6.41192">
        <ele>322.667511</ele>
        <time>2020-05-12T13:15:23Z</time>
      </trkpt>
      <trkpt lat="47.8427" lon="6.41192">
        <ele>322.637512</ele>
        <time>2020-05-12T13:15:24Z</time>
      </trkpt>
      <trkpt lat="47.84271" lon="6.41192">
        <ele>322.607513</ele>
        <time>2020-05-12T13:15:26Z</time>
      </trkpt>
      <trkpt lat="47.84271" lon="6.41192">
        <ele>322.577515</ele>
        <time>2020-05-12T13:15:27Z</time>
      </trkpt>
      <trkpt lat="47.84271" lon="6.41192">
        <ele>322.592499</ele>
        <time>2020-05-12T13:15:29Z</time>
      </trkpt>
      <trkpt lat="47.84271" lon="6.41192">
        <ele>322.61499</ele>
        <time>2020-05-12T13:15:30Z</time>
      </trkpt>
      <trkpt lat="47.84272" lon="6.41192">
        <ele>322.630005</ele>
        <time>2020-05-12T13:15:32Z</time>
      </trkpt>
      <trkpt lat="47.84272" lon="6.41193">
        <ele>322.69751</ele>
        <time>2020-05-12T13:15:34Z</time>
      </trkpt>
      <trkpt lat="47.84272" lon="6.41194">
        <ele>322.757507</ele>
        <time>2020-05-12T13:15:35Z</time>
      </trkpt>
      <trkpt lat="47.84272" lon="6.41194">
        <ele>322.832489</ele>
        <time>2020-05-12T13:15:37Z</time>
      </trkpt>
      <trkpt lat="47.84273" lon="6.41195">
        <ele>322.839996</ele>
        <time>2020-05-12T13:15:38Z</time>
      </trkpt>
      <trkpt lat="47.84273" lon="6.41195">
        <ele>322.862488</ele>
        <time>2020-05-12T13:15:39Z</time>
      </trkpt>
      <trkpt lat="47.84274" lon="6.41195">
        <ele>322.88501</ele>
        <time>2020-05-12T13:15:41Z</time>
      </trkpt>
      <trkpt lat="47.84274" lon="6.41196">
        <ele>322.915009</ele>
        <time>2020-05-12T13:15:43Z</time>
      </trkpt>
      <trkpt lat="47.84274" lon="6.41196">
        <ele>322.952515</ele>
        <time>2020-05-12T13:15:45Z</time>
      </trkpt>
      <trkpt lat="47.84284" lon="6.412">
        <ele>323.26001</ele>
        <time>2020-05-12T13:16:20Z</time>
      </trkpt>
      <trkpt lat="47.84284" lon="6.412">
        <ele>323.214996</ele>
        <time>2020-05-12T13:16:21Z</time>
      </trkpt>
      <trkpt lat="47.84284" lon="6.41199">
        <ele>323.17749</ele>
        <time>2020-05-12T13:16:22Z</time>
      </trkpt>
      <trkpt lat="47.84284" lon="6.41199">
        <ele>323.154999</ele>
        <time>2020-05-12T13:16:24Z</time>
      </trkpt>
      <trkpt lat="47.84284" lon="6.41199">
        <ele>323.154999</ele>
        <time>2020-05-12T13:16:25Z</time>
      </trkpt>
      <trkpt lat="47.84284" lon="6.41199">
        <ele>323.154999</ele>
        <time>2020-05-12T13:16:26Z</time>
      </trkpt>
      <trkpt lat="47.84283" lon="6.41199">
        <ele>323.154999</ele>
        <time>2020-05-12T13:16:28Z</time>
      </trkpt>
      <trkpt lat="47.84283" lon="6.41199">
        <ele>323.147491</ele>
        <time>2020-05-12T13:16:30Z</time>
      </trkpt>
      <trkpt lat="47.84283" lon="6.41199">
        <ele>323.154999</ele>
        <time>2020-05-12T13:16:32Z</time>
      </trkpt>
      <trkpt lat="47.84283" lon="6.41199">
        <ele>323.17749</ele>
        <time>2020-05-12T13:16:33Z</time>
      </trkpt>
      <trkpt lat="47.84283" lon="6.412">
        <ele>323.244995</ele>
        <time>2020-05-12T13:16:34Z</time>
      </trkpt>
      <trkpt lat="47.84282" lon="6.412">
        <ele>323.304993</ele>
        <time>2020-05-12T13:16:35Z</time>
      </trkpt>
      <trkpt lat="47.84281" lon="6.412">
        <ele>323.304993</ele>
        <time>2020-05-12T13:16:36Z</time>
      </trkpt>
      <trkpt lat="47.84279" lon="6.41199">
        <ele>323.222504</ele>
        <time>2020-05-12T13:16:37Z</time>
      </trkpt>
      <trkpt lat="47.84277" lon="6.41198">
        <ele>323.087494</ele>
        <time>2020-05-12T13:16:39Z</time>
      </trkpt>
      <trkpt lat="47.84277" lon="6.41196">
        <ele>322.959991</ele>
        <time>2020-05-12T13:16:41Z</time>
      </trkpt>
      <trkpt lat="47.84277" lon="6.41195">
        <ele>322.847504</ele>
        <time>2020-05-12T13:16:43Z</time>
      </trkpt>
      <trkpt lat="47.84277" lon="6.41194">
        <ele>322.757507</ele>
        <time>2020-05-12T13:16:44Z</time>
      </trkpt>
      <trkpt lat="47.84277" lon="6.41193">
        <ele>322.690002</ele>
        <time>2020-05-12T13:16:45Z</time>
      </trkpt>
      <trkpt lat="47.84278" lon="6.41192">
        <ele>322.577515</ele>
        <time>2020-05-12T13:16:47Z</time>
      </trkpt>
      <trkpt lat="47.84278" lon="6.41191">
        <ele>322.524994</ele>
        <time>2020-05-12T13:16:48Z</time>
      </trkpt>
      <trkpt lat="47.84278" lon="6.41192">
        <ele>322.547485</ele>
        <time>2020-05-12T13:16:49Z</time>
      </trkpt>
      <trkpt lat="47.84278" lon="6.41192">
        <ele>322.577515</ele>
        <time>2020-05-12T13:16:51Z</time>
      </trkpt>
      <trkpt lat="47.84277" lon="6.41193">
        <ele>322.622498</ele>
        <time>2020-05-12T13:16:52Z</time>
      </trkpt>
      <trkpt lat="47.84277" lon="6.41195">
        <ele>322.847504</ele>
        <time>2020-05-12T13:16:54Z</time>
      </trkpt>
      <trkpt lat="47.84275" lon="6.41198">
        <ele>323.102509</ele>
        <time>2020-05-12T13:16:55Z</time>
      </trkpt>
      <trkpt lat="47.84277" lon="6.41204">
        <ele>323.679993</ele>
        <time>2020-05-12T13:16:56Z</time>
      </trkpt>
      <trkpt lat="47.84278" lon="6.41209">
        <ele>324.122498</ele>
        <time>2020-05-12T13:16:58Z</time>
      </trkpt>
      <trkpt lat="47.84278" lon="6.41214">
        <ele>324.579987</ele>
        <time>2020-05-12T13:16:59Z</time>
      </trkpt>
      <trkpt lat="47.84279" lon="6.41218">
        <ele>324.932495</ele>
        <time>2020-05-12T13:17:00Z</time>
      </trkpt>
      <trkpt lat="47.84281" lon="6.41226">
        <ele>325.493744</ele>
        <time>2020-05-12T13:17:02Z</time>
      </trkpt>
      <trkpt lat="47.84283" lon="6.4123">
        <ele>325.806244</ele>
        <time>2020-05-12T13:17:03Z</time>
      </trkpt>
      <trkpt lat="47.84284" lon="6.41233">
        <ele>326.043762</ele>
        <time>2020-05-12T13:17:04Z</time>
      </trkpt>
      <trkpt lat="47.84286" lon="6.41239">
        <ele>326.431244</ele>
        <time>2020-05-12T13:17:06Z</time>
      </trkpt>
      <trkpt lat="47.84287" lon="6.41244">
        <ele>326.8125</ele>
        <time>2020-05-12T13:17:07Z</time>
      </trkpt>
      <trkpt lat="47.84288" lon="6.41246">
        <ele>326.96875</ele>
        <time>2020-05-12T13:17:08Z</time>
      </trkpt>
      <trkpt lat="47.84289" lon="6.4125">
        <ele>327.212494</ele>
        <time>2020-05-12T13:17:09Z</time>
      </trkpt>
      <trkpt lat="47.8429" lon="6.41254">
        <ele>327.518738</ele>
        <time>2020-05-12T13:17:11Z</time>
      </trkpt>
      <trkpt lat="47.8429" lon="6.41259">
        <ele>327.893738</ele>
        <time>2020-05-12T13:17:12Z</time>
      </trkpt>
      <trkpt lat="47.84291" lon="6.41261">
        <ele>328.024994</ele>
        <time>2020-05-12T13:17:13Z</time>
      </trkpt>
      <trkpt lat="47.84291" lon="6.41265">
        <ele>328.362488</ele>
        <time>2020-05-12T13:17:14Z</time>
      </trkpt>
      <trkpt lat="47.84291" lon="6.41266">
        <ele>328.46875</ele>
        <time>2020-05-12T13:17:15Z</time>
      </trkpt>
      <trkpt lat="47.84291" lon="6.41271">
        <ele>328.799988</ele>
        <time>2020-05-12T13:17:17Z</time>
      </trkpt>
      <trkpt lat="47.84292" lon="6.41276">
        <ele>329.162506</ele>
        <time>2020-05-12T13:17:19Z</time>
      </trkpt>
      <trkpt lat="47.84293" lon="6.41284">
        <ele>329.756256</ele>
        <time>2020-05-12T13:17:21Z</time>
      </trkpt>
      <trkpt lat="47.84294" lon="6.41286">
        <ele>329.943756</ele>
        <time>2020-05-12T13:17:22Z</time>
      </trkpt>
      <trkpt lat="47.84295" lon="6.41292">
        <ele>330.464996</ele>
        <time>2020-05-12T13:17:24Z</time>
      </trkpt>
      <trkpt lat="47.84296" lon="6.41298">
        <ele>330.945007</ele>
        <time>2020-05-12T13:17:25Z</time>
      </trkpt>
      <trkpt lat="47.84297" lon="6.413">
        <ele>331.132507</ele>
        <time>2020-05-12T13:17:26Z</time>
      </trkpt>
      <trkpt lat="47.84298" lon="6.41307">
        <ele>331.73999</ele>
        <time>2020-05-12T13:17:28Z</time>
      </trkpt>
      <trkpt lat="47.84299" lon="6.41312">
        <ele>332.220001</ele>
        <time>2020-05-12T13:17:29Z</time>
      </trkpt>
      <trkpt lat="47.843" lon="6.41317">
        <ele>332.625</ele>
        <time>2020-05-12T13:17:30Z</time>
      </trkpt>
      <trkpt lat="47.84302" lon="6.41326">
        <ele>333.457489</ele>
        <time>2020-05-12T13:17:32Z</time>
      </trkpt>
      <trkpt lat="47.84302" lon="6.41329">
        <ele>333.660004</ele>
        <time>2020-05-12T13:17:33Z</time>
      </trkpt>
      <trkpt lat="47.84303" lon="6.41332">
        <ele>333.952515</ele>
        <time>2020-05-12T13:17:35Z</time>
      </trkpt>
      <trkpt lat="47.84304" lon="6.41337">
        <ele>334.372498</ele>
        <time>2020-05-12T13:17:37Z</time>
      </trkpt>
      <trkpt lat="47.84304" lon="6.41338">
        <ele>334.5</ele>
        <time>2020-05-12T13:17:38Z</time>
      </trkpt>
      <trkpt lat="47.84305" lon="6.41343">
        <ele>334.897491</ele>
        <time>2020-05-12T13:17:39Z</time>
      </trkpt>
      <trkpt lat="47.84305" lon="6.41344">
        <ele>335.024994</ele>
        <time>2020-05-12T13:17:40Z</time>
      </trkpt>
      <trkpt lat="47.84306" lon="6.41351">
        <ele>335.647491</ele>
        <time>2020-05-12T13:17:42Z</time>
      </trkpt>
      <trkpt lat="47.84306" lon="6.41356">
        <ele>336.122345</ele>
        <time>2020-05-12T13:17:43Z</time>
      </trkpt>
      <trkpt lat="47.84306" lon="6.41358">
        <ele>336.334412</ele>
        <time>2020-05-12T13:17:44Z</time>
      </trkpt>
      <trkpt lat="47.84306" lon="6.41364">
        <ele>336.838806</ele>
        <time>2020-05-12T13:17:46Z</time>
      </trkpt>
      <trkpt lat="47.84306" lon="6.4137">
        <ele>337.431091</ele>
        <time>2020-05-12T13:17:47Z</time>
      </trkpt>
      <trkpt lat="47.84306" lon="6.41376">
        <ele>337.990631</ele>
        <time>2020-05-12T13:17:48Z</time>
      </trkpt>
      <trkpt lat="47.84306" lon="6.41379">
        <ele>338.323761</ele>
        <time>2020-05-12T13:17:49Z</time>
      </trkpt>
      <trkpt lat="47.84305" lon="6.4139">
        <ele>339.414856</ele>
        <time>2020-05-12T13:17:51Z</time>
      </trkpt>
      <trkpt lat="47.84304" lon="6.41395">
        <ele>339.899475</ele>
        <time>2020-05-12T13:17:53Z</time>
      </trkpt>
      <trkpt lat="47.84303" lon="6.414">
        <ele>340.38031</ele>
        <time>2020-05-12T13:17:54Z</time>
      </trkpt>
      <trkpt lat="47.84303" lon="6.41403">
        <ele>340.698608</ele>
        <time>2020-05-12T13:17:55Z</time>
      </trkpt>
      <trkpt lat="47.84302" lon="6.41408">
        <ele>341.276611</ele>
        <time>2020-05-12T13:17:57Z</time>
      </trkpt>
      <trkpt lat="47.84302" lon="6.41414">
        <ele>341.822662</ele>
        <time>2020-05-12T13:17:58Z</time>
      </trkpt>
      <trkpt lat="47.84302" lon="6.41416">
        <ele>342.019775</ele>
        <time>2020-05-12T13:17:59Z</time>
      </trkpt>
      <trkpt lat="47.84302" lon="6.41422">
        <ele>342.627991</ele>
        <time>2020-05-12T13:18:00Z</time>
      </trkpt>
      <trkpt lat="47.84302" lon="6.41426">
        <ele>342.874908</ele>
        <time>2020-05-12T13:18:01Z</time>
      </trkpt>
      <trkpt lat="47.84303" lon="6.41432">
        <ele>343.365814</ele>
        <time>2020-05-12T13:18:03Z</time>
      </trkpt>
      <trkpt lat="47.84303" lon="6.41441">
        <ele>344.09549</ele>
        <time>2020-05-12T13:18:04Z</time>
      </trkpt>
      <trkpt lat="47.84305" lon="6.41457">
        <ele>345.354919</ele>
        <time>2020-05-12T13:18:05Z</time>
      </trkpt>
      <trkpt lat="47.84305" lon="6.41466">
        <ele>346.137177</ele>
        <time>2020-05-12T13:18:06Z</time>
      </trkpt>
      <trkpt lat="47.84306" lon="6.41474">
        <ele>346.75708</ele>
        <time>2020-05-12T13:18:07Z</time>
      </trkpt>
      <trkpt lat="47.84306" lon="6.41482">
        <ele>347.414093</ele>
        <time>2020-05-12T13:18:08Z</time>
      </trkpt>
      <trkpt lat="47.84307" lon="6.41488">
        <ele>347.923126</ele>
        <time>2020-05-12T13:18:10Z</time>
      </trkpt>
      <trkpt lat="47.84307" lon="6.41492">
        <ele>348.195007</ele>
        <time>2020-05-12T13:18:11Z</time>
      </trkpt>
      <trkpt lat="47.84306" lon="6.41499">
        <ele>348.605011</ele>
        <time>2020-05-12T13:18:12Z</time>
      </trkpt>
      <trkpt lat="47.84306" lon="6.41503">
        <ele>348.880005</ele>
        <time>2020-05-12T13:18:13Z</time>
      </trkpt>
      <trkpt lat="47.84305" lon="6.41505">
        <ele>348.980011</ele>
        <time>2020-05-12T13:18:14Z</time>
      </trkpt>
      <trkpt lat="47.84305" lon="6.4151">
        <ele>349.269989</ele>
        <time>2020-05-12T13:18:16Z</time>
      </trkpt>
      <trkpt lat="47.84305" lon="6.41512">
        <ele>349.394989</ele>
        <time>2020-05-12T13:18:17Z</time>
      </trkpt>
      <trkpt lat="47.84305" lon="6.41516">
        <ele>349.640015</ele>
        <time>2020-05-12T13:18:18Z</time>
      </trkpt>
      <trkpt lat="47.84305" lon="6.41518">
        <ele>349.725006</ele>
        <time>2020-05-12T13:18:19Z</time>
      </trkpt>
      <trkpt lat="47.84305" lon="6.41523">
        <ele>350.024994</ele>
        <time>2020-05-12T13:18:21Z</time>
      </trkpt>
      <trkpt lat="47.84305" lon="6.4153">
        <ele>350.459991</ele>
        <time>2020-05-12T13:18:22Z</time>
      </trkpt>
      <trkpt lat="47.84307" lon="6.41534">
        <ele>350.709991</ele>
        <time>2020-05-12T13:18:23Z</time>
      </trkpt>
      <trkpt lat="47.84308" lon="6.41536">
        <ele>350.815002</ele>
        <time>2020-05-12T13:18:24Z</time>
      </trkpt>
      <trkpt lat="47.8431" lon="6.41542">
        <ele>351.184998</ele>
        <time>2020-05-12T13:18:26Z</time>
      </trkpt>
      <trkpt lat="47.8431" lon="6.41545">
        <ele>351.334991</ele>
        <time>2020-05-12T13:18:27Z</time>
      </trkpt>
      <trkpt lat="47.84311" lon="6.41547">
        <ele>351.480011</ele>
        <time>2020-05-12T13:18:28Z</time>
      </trkpt>
      <trkpt lat="47.84313" lon="6.41553">
        <ele>351.829987</ele>
        <time>2020-05-12T13:18:29Z</time>
      </trkpt>
      <trkpt lat="47.84315" lon="6.41563">
        <ele>352.160736</ele>
        <time>2020-05-12T13:18:31Z</time>
      </trkpt>
      <trkpt lat="47.84316" lon="6.41568">
        <ele>352.284302</ele>
        <time>2020-05-12T13:18:32Z</time>
      </trkpt>
      <trkpt lat="47.84317" lon="6.41572">
        <ele>352.400391</ele>
        <time>2020-05-12T13:18:34Z</time>
      </trkpt>
      <trkpt lat="47.84318" lon="6.41578">
        <ele>352.573303</ele>
        <time>2020-05-12T13:18:35Z</time>
      </trkpt>
      <trkpt lat="47.84319" lon="6.41583">
        <ele>352.743317</ele>
        <time>2020-05-12T13:18:37Z</time>
      </trkpt>
      <trkpt lat="47.8432" lon="6.41591">
        <ele>352.989807</ele>
        <time>2020-05-12T13:18:38Z</time>
      </trkpt>
      <trkpt lat="47.84321" lon="6.41595">
        <ele>353.142487</ele>
        <time>2020-05-12T13:18:39Z</time>
      </trkpt>
      <trkpt lat="47.84322" lon="6.41602">
        <ele>353.370239</ele>
        <time>2020-05-12T13:18:41Z</time>
      </trkpt>
      <trkpt lat="47.84323" lon="6.41613">
        <ele>353.710785</ele>
        <time>2020-05-12T13:18:42Z</time>
      </trkpt>
      <trkpt lat="47.84324" lon="6.41616">
        <ele>353.833771</ele>
        <time>2020-05-12T13:18:43Z</time>
      </trkpt>
      <trkpt lat="47.84326" lon="6.41621">
        <ele>354.037842</ele>
        <time>2020-05-12T13:18:45Z</time>
      </trkpt>
      <trkpt lat="47.84327" lon="6.41626">
        <ele>354.16507</ele>
        <time>2020-05-12T13:18:46Z</time>
      </trkpt>
      <trkpt lat="47.84328" lon="6.41633">
        <ele>354.23172</ele>
        <time>2020-05-12T13:18:47Z</time>
      </trkpt>
      <trkpt lat="47.84329" lon="6.41636">
        <ele>354.267487</ele>
        <time>2020-05-12T13:18:48Z</time>
      </trkpt>
      <trkpt lat="47.8433" lon="6.41641">
        <ele>354.328888</ele>
        <time>2020-05-12T13:18:50Z</time>
      </trkpt>
      <trkpt lat="47.8433" lon="6.41647">
        <ele>354.400208</ele>
        <time>2020-05-12T13:18:51Z</time>
      </trkpt>
      <trkpt lat="47.84332" lon="6.41657">
        <ele>354.550903</ele>
        <time>2020-05-12T13:18:52Z</time>
      </trkpt>
      <trkpt lat="47.84332" lon="6.41663">
        <ele>354.625671</ele>
        <time>2020-05-12T13:18:54Z</time>
      </trkpt>
      <trkpt lat="47.84332" lon="6.41668">
        <ele>354.656219</ele>
        <time>2020-05-12T13:18:55Z</time>
      </trkpt>
      <trkpt lat="47.84331" lon="6.41673">
        <ele>354.683899</ele>
        <time>2020-05-12T13:18:56Z</time>
      </trkpt>
      <trkpt lat="47.84331" lon="6.41678">
        <ele>354.730103</ele>
        <time>2020-05-12T13:18:57Z</time>
      </trkpt>
      <trkpt lat="47.84331" lon="6.41684">
        <ele>354.789459</ele>
        <time>2020-05-12T13:18:58Z</time>
      </trkpt>
      <trkpt lat="47.84331" lon="6.41692">
        <ele>354.853058</ele>
        <time>2020-05-12T13:19:00Z</time>
      </trkpt>
      <trkpt lat="47.84331" lon="6.41696">
        <ele>354.714386</ele>
        <time>2020-05-12T13:19:01Z</time>
      </trkpt>
      <trkpt lat="47.84332" lon="6.41706">
        <ele>354.405945</ele>
        <time>2020-05-12T13:19:03Z</time>
      </trkpt>
      <trkpt lat="47.84333" lon="6.41712">
        <ele>354.218597</ele>
        <time>2020-05-12T13:19:04Z</time>
      </trkpt>
      <trkpt lat="47.84333" lon="6.41715">
        <ele>354.132446</ele>
        <time>2020-05-12T13:19:05Z</time>
      </trkpt>
      <trkpt lat="47.84333" lon="6.41719">
        <ele>354.004761</ele>
        <time>2020-05-12T13:19:06Z</time>
      </trkpt>
      <trkpt lat="47.84334" lon="6.41724">
        <ele>353.873657</ele>
        <time>2020-05-12T13:19:07Z</time>
      </trkpt>
      <trkpt lat="47.84335" lon="6.41729">
        <ele>353.752075</ele>
        <time>2020-05-12T13:19:09Z</time>
      </trkpt>
      <trkpt lat="47.84335" lon="6.41736">
        <ele>353.548584</ele>
        <time>2020-05-12T13:19:10Z</time>
      </trkpt>
      <trkpt lat="47.84335" lon="6.41739">
        <ele>353.409637</ele>
        <time>2020-05-12T13:19:11Z</time>
      </trkpt>
      <trkpt lat="47.84334" lon="6.41753">
        <ele>352.827606</ele>
        <time>2020-05-12T13:19:13Z</time>
      </trkpt>
      <trkpt lat="47.84335" lon="6.41757">
        <ele>352.745056</ele>
        <time>2020-05-12T13:19:14Z</time>
      </trkpt>
      <trkpt lat="47.84337" lon="6.41775">
        <ele>351.806946</ele>
        <time>2020-05-12T13:19:15Z</time>
      </trkpt>
      <trkpt lat="47.8434" lon="6.41799">
        <ele>350.621185</ele>
        <time>2020-05-12T13:19:17Z</time>
      </trkpt>
      <trkpt lat="47.84341" lon="6.41817">
        <ele>349.661499</ele>
        <time>2020-05-12T13:19:18Z</time>
      </trkpt>
      <trkpt lat="47.84341" lon="6.41832">
        <ele>348.629333</ele>
        <time>2020-05-12T13:19:20Z</time>
      </trkpt>
      <trkpt lat="47.8434" lon="6.4184">
        <ele>348.063721</ele>
        <time>2020-05-12T13:19:21Z</time>
      </trkpt>
      <trkpt lat="47.84339" lon="6.41849">
        <ele>347.436005</ele>
        <time>2020-05-12T13:19:22Z</time>
      </trkpt>
      <trkpt lat="47.84339" lon="6.41863">
        <ele>346.508728</ele>
        <time>2020-05-12T13:19:24Z</time>
      </trkpt>
      <trkpt lat="47.84339" lon="6.4187">
        <ele>346.034882</ele>
        <time>2020-05-12T13:19:25Z</time>
      </trkpt>
      <trkpt lat="47.8434" lon="6.41876">
        <ele>345.673584</ele>
        <time>2020-05-12T13:19:26Z</time>
      </trkpt>
      <trkpt lat="47.8434" lon="6.41882">
        <ele>345.27002</ele>
        <time>2020-05-12T13:19:27Z</time>
      </trkpt>
      <trkpt lat="47.8434" lon="6.41889">
        <ele>344.864502</ele>
        <time>2020-05-12T13:19:29Z</time>
      </trkpt>
      <trkpt lat="47.8434" lon="6.41895">
        <ele>344.765259</ele>
        <time>2020-05-12T13:19:30Z</time>
      </trkpt>
      <trkpt lat="47.84341" lon="6.41902">
        <ele>345.169647</ele>
        <time>2020-05-12T13:19:31Z</time>
      </trkpt>
      <trkpt lat="47.84342" lon="6.41915">
        <ele>345.907349</ele>
        <time>2020-05-12T13:19:32Z</time>
      </trkpt>
      <trkpt lat="47.84343" lon="6.41934">
        <ele>347.006866</ele>
        <time>2020-05-12T13:19:34Z</time>
      </trkpt>
      <trkpt lat="47.84342" lon="6.41944">
        <ele>347.429443</ele>
        <time>2020-05-12T13:19:35Z</time>
      </trkpt>
      <trkpt lat="47.84342" lon="6.41953">
        <ele>347.869537</ele>
        <time>2020-05-12T13:19:36Z</time>
      </trkpt>
      <trkpt lat="47.84342" lon="6.4196">
        <ele>348.257385</ele>
        <time>2020-05-12T13:19:37Z</time>
      </trkpt>
      <trkpt lat="47.84342" lon="6.41967">
        <ele>348.696838</ele>
        <time>2020-05-12T13:19:39Z</time>
      </trkpt>
      <trkpt lat="47.84344" lon="6.41975">
        <ele>349.227478</ele>
        <time>2020-05-12T13:19:40Z</time>
      </trkpt>
      <trkpt lat="47.84344" lon="6.4198">
        <ele>349.556488</ele>
        <time>2020-05-12T13:19:41Z</time>
      </trkpt>
      <trkpt lat="47.84345" lon="6.41986">
        <ele>349.961975</ele>
        <time>2020-05-12T13:19:43Z</time>
      </trkpt>
      <trkpt lat="47.84346" lon="6.41999">
        <ele>350.7995</ele>
        <time>2020-05-12T13:19:44Z</time>
      </trkpt>
      <trkpt lat="47.84347" lon="6.42003">
        <ele>351.126831</ele>
        <time>2020-05-12T13:19:45Z</time>
      </trkpt>
      <trkpt lat="47.8435" lon="6.42008">
        <ele>351.720062</ele>
        <time>2020-05-12T13:19:47Z</time>
      </trkpt>
      <trkpt lat="47.84352" lon="6.42011">
        <ele>352.01001</ele>
        <time>2020-05-12T13:19:48Z</time>
      </trkpt>
      <trkpt lat="47.84354" lon="6.42012">
        <ele>352.22998</ele>
        <time>2020-05-12T13:19:50Z</time>
      </trkpt>
      <trkpt lat="47.84356" lon="6.42015">
        <ele>352.540009</ele>
        <time>2020-05-12T13:19:52Z</time>
      </trkpt>
      <trkpt lat="47.84359" lon="6.42017">
        <ele>352.859985</ele>
        <time>2020-05-12T13:19:53Z</time>
      </trkpt>
      <trkpt lat="47.84361" lon="6.4202">
        <ele>353.139984</ele>
        <time>2020-05-12T13:19:55Z</time>
      </trkpt>
      <trkpt lat="47.84362" lon="6.42023">
        <ele>353.424988</ele>
        <time>2020-05-12T13:19:57Z</time>
      </trkpt>
      <trkpt lat="47.84366" lon="6.42025">
        <ele>353.73999</ele>
        <time>2020-05-12T13:19:58Z</time>
      </trkpt>
      <trkpt lat="47.84367" lon="6.42026">
        <ele>353.880005</ele>
        <time>2020-05-12T13:19:59Z</time>
      </trkpt>
      <trkpt lat="47.84371" lon="6.42027">
        <ele>354.174988</ele>
        <time>2020-05-12T13:20:01Z</time>
      </trkpt>
      <trkpt lat="47.84375" lon="6.42029">
        <ele>354.529999</ele>
        <time>2020-05-12T13:20:03Z</time>
      </trkpt>
      <trkpt lat="47.84381" lon="6.42029">
        <ele>354.970001</ele>
        <time>2020-05-12T13:20:04Z</time>
      </trkpt>
      <trkpt lat="47.84385" lon="6.42032">
        <ele>355.343536</ele>
        <time>2020-05-12T13:20:06Z</time>
      </trkpt>
      <trkpt lat="47.84387" lon="6.42032">
        <ele>355.447815</ele>
        <time>2020-05-12T13:20:07Z</time>
      </trkpt>
      <trkpt lat="47.84388" lon="6.42033">
        <ele>355.570068</ele>
        <time>2020-05-12T13:20:08Z</time>
      </trkpt>
      <trkpt lat="47.84391" lon="6.42034">
        <ele>355.743408</ele>
        <time>2020-05-12T13:20:09Z</time>
      </trkpt>
      <trkpt lat="47.84393" lon="6.42035">
        <ele>355.941254</ele>
        <time>2020-05-12T13:20:11Z</time>
      </trkpt>
      <trkpt lat="47.84397" lon="6.42036">
        <ele>356.200012</ele>
        <time>2020-05-12T13:20:12Z</time>
      </trkpt>
      <trkpt lat="47.84398" lon="6.42036">
        <ele>356.277496</ele>
        <time>2020-05-12T13:20:13Z</time>
      </trkpt>
      <trkpt lat="47.84403" lon="6.42036">
        <ele>356.647491</ele>
        <time>2020-05-12T13:20:14Z</time>
      </trkpt>
      <trkpt lat="47.84405" lon="6.42037">
        <ele>356.752502</ele>
        <time>2020-05-12T13:20:15Z</time>
      </trkpt>
      <trkpt lat="47.84408" lon="6.42037">
        <ele>356.959991</ele>
        <time>2020-05-12T13:20:17Z</time>
      </trkpt>
      <trkpt lat="47.8441" lon="6.42037">
        <ele>357.105011</ele>
        <time>2020-05-12T13:20:18Z</time>
      </trkpt>
      <trkpt lat="47.84414" lon="6.42037">
        <ele>357.332489</ele>
        <time>2020-05-12T13:20:20Z</time>
      </trkpt>
      <trkpt lat="47.84417" lon="6.42037">
        <ele>357.540009</ele>
        <time>2020-05-12T13:20:21Z</time>
      </trkpt>
      <trkpt lat="47.84421" lon="6.42036">
        <ele>357.772491</ele>
        <time>2020-05-12T13:20:23Z</time>
      </trkpt>
      <trkpt lat="47.84427" lon="6.42034">
        <ele>358.13501</ele>
        <time>2020-05-12T13:20:24Z</time>
      </trkpt>
      <trkpt lat="47.84431" lon="6.42033">
        <ele>358.306763</ele>
        <time>2020-05-12T13:20:25Z</time>
      </trkpt>
      <trkpt lat="47.84433" lon="6.42031">
        <ele>358.352661</ele>
        <time>2020-05-12T13:20:26Z</time>
      </trkpt>
      <trkpt lat="47.84436" lon="6.4203">
        <ele>358.464203</ele>
        <time>2020-05-12T13:20:28Z</time>
      </trkpt>
      <trkpt lat="47.8444" lon="6.42028">
        <ele>358.602875</ele>
        <time>2020-05-12T13:20:29Z</time>
      </trkpt>
      <trkpt lat="47.84445" lon="6.42025">
        <ele>358.774994</ele>
        <time>2020-05-12T13:20:31Z</time>
      </trkpt>
      <trkpt lat="47.84448" lon="6.42022">
        <ele>358.894989</ele>
        <time>2020-05-12T13:20:33Z</time>
      </trkpt>
      <trkpt lat="47.84455" lon="6.42019">
        <ele>359.179993</ele>
        <time>2020-05-12T13:20:34Z</time>
      </trkpt>
      <trkpt lat="47.84456" lon="6.42018">
        <ele>359.165009</ele>
        <time>2020-05-12T13:20:35Z</time>
      </trkpt>
      <trkpt lat="47.84458" lon="6.42016">
        <ele>359.232513</ele>
        <time>2020-05-12T13:20:36Z</time>
      </trkpt>
      <trkpt lat="47.84462" lon="6.42015">
        <ele>359.423767</ele>
        <time>2020-05-12T13:20:37Z</time>
      </trkpt>
      <trkpt lat="47.84466" lon="6.42009">
        <ele>359.371246</ele>
        <time>2020-05-12T13:20:39Z</time>
      </trkpt>
      <trkpt lat="47.84472" lon="6.41996">
        <ele>359.157501</ele>
        <time>2020-05-12T13:20:40Z</time>
      </trkpt>
      <trkpt lat="47.84478" lon="6.41987">
        <ele>359.13501</ele>
        <time>2020-05-12T13:20:42Z</time>
      </trkpt>
      <trkpt lat="47.84484" lon="6.41987">
        <ele>359.506256</ele>
        <time>2020-05-12T13:20:43Z</time>
      </trkpt>
      <trkpt lat="47.84495" lon="6.41988">
        <ele>360.392914</ele>
        <time>2020-05-12T13:20:45Z</time>
      </trkpt>
      <trkpt lat="47.84497" lon="6.41989">
        <ele>360.669647</ele>
        <time>2020-05-12T13:20:46Z</time>
      </trkpt>
      <trkpt lat="47.845" lon="6.41991">
        <ele>361.039001</ele>
        <time>2020-05-12T13:20:48Z</time>
      </trkpt>
      <trkpt lat="47.84503" lon="6.41994">
        <ele>361.411133</ele>
        <time>2020-05-12T13:20:49Z</time>
      </trkpt>
      <trkpt lat="47.84505" lon="6.41998">
        <ele>361.696594</ele>
        <time>2020-05-12T13:20:50Z</time>
      </trkpt>
      <trkpt lat="47.84507" lon="6.42001">
        <ele>361.930542</ele>
        <time>2020-05-12T13:20:51Z</time>
      </trkpt>
      <trkpt lat="47.8451" lon="6.42006">
        <ele>362.27948</ele>
        <time>2020-05-12T13:20:53Z</time>
      </trkpt>
      <trkpt lat="47.84512" lon="6.42009">
        <ele>362.528076</ele>
        <time>2020-05-12T13:20:54Z</time>
      </trkpt>
      <trkpt lat="47.84518" lon="6.42015">
        <ele>363.012085</ele>
        <time>2020-05-12T13:20:55Z</time>
      </trkpt>
      <trkpt lat="47.84519" lon="6.42017">
        <ele>363.128601</ele>
        <time>2020-05-12T13:20:56Z</time>
      </trkpt>
      <trkpt lat="47.8452" lon="6.42019">
        <ele>363.2146</ele>
        <time>2020-05-12T13:20:57Z</time>
      </trkpt>
      <trkpt lat="47.84523" lon="6.42022">
        <ele>363.444</ele>
        <time>2020-05-12T13:20:58Z</time>
      </trkpt>
      <trkpt lat="47.84524" lon="6.42023">
        <ele>363.510223</ele>
        <time>2020-05-12T13:20:59Z</time>
      </trkpt>
      <trkpt lat="47.84526" lon="6.42025">
        <ele>363.6745</ele>
        <time>2020-05-12T13:21:00Z</time>
      </trkpt>
      <trkpt lat="47.8453" lon="6.42027">
        <ele>363.920868</ele>
        <time>2020-05-12T13:21:02Z</time>
      </trkpt>
      <trkpt lat="47.84534" lon="6.4203">
        <ele>363.981842</ele>
        <time>2020-05-12T13:21:04Z</time>
      </trkpt>
      <trkpt lat="47.8454" lon="6.42032">
        <ele>363.92395</ele>
        <time>2020-05-12T13:21:05Z</time>
      </trkpt>
      <trkpt lat="47.84543" lon="6.42034">
        <ele>363.858215</ele>
        <time>2020-05-12T13:21:06Z</time>
      </trkpt>
      <trkpt lat="47.84544" lon="6.42035">
        <ele>363.836121</ele>
        <time>2020-05-12T13:21:07Z</time>
      </trkpt>
      <trkpt lat="47.84547" lon="6.42039">
        <ele>363.718964</ele>
        <time>2020-05-12T13:21:09Z</time>
      </trkpt>
      <trkpt lat="47.8455" lon="6.42041">
        <ele>363.60849</ele>
        <time>2020-05-12T13:21:10Z</time>
      </trkpt>
      <trkpt lat="47.84556" lon="6.42046">
        <ele>363.184387</ele>
        <time>2020-05-12T13:21:11Z</time>
      </trkpt>
      <trkpt lat="47.84565" lon="6.42055">
        <ele>362.213013</ele>
        <time>2020-05-12T13:21:12Z</time>
      </trkpt>
      <trkpt lat="47.84572" lon="6.4206">
        <ele>361.440399</ele>
        <time>2020-05-12T13:21:14Z</time>
      </trkpt>
      <trkpt lat="47.84577" lon="6.42067">
        <ele>360.614685</ele>
        <time>2020-05-12T13:21:15Z</time>
      </trkpt>
      <trkpt lat="47.84581" lon="6.42074">
        <ele>359.82193</ele>
        <time>2020-05-12T13:21:16Z</time>
      </trkpt>
      <trkpt lat="47.84582" lon="6.42078">
        <ele>359.306244</ele>
        <time>2020-05-12T13:21:17Z</time>
      </trkpt>
      <trkpt lat="47.84584" lon="6.42085">
        <ele>358.563141</ele>
        <time>2020-05-12T13:21:18Z</time>
      </trkpt>
      <trkpt lat="47.84585" lon="6.42091">
        <ele>357.827118</ele>
        <time>2020-05-12T13:21:20Z</time>
      </trkpt>
      <trkpt lat="47.84586" lon="6.42096">
        <ele>357.258698</ele>
        <time>2020-05-12T13:21:21Z</time>
      </trkpt>
      <trkpt lat="47.84586" lon="6.42101">
        <ele>356.732208</ele>
        <time>2020-05-12T13:21:22Z</time>
      </trkpt>
      <trkpt lat="47.84587" lon="6.42105">
        <ele>356.19455</ele>
        <time>2020-05-12T13:21:24Z</time>
      </trkpt>
      <trkpt lat="47.84588" lon="6.42112">
        <ele>355.461426</ele>
        <time>2020-05-12T13:21:25Z</time>
      </trkpt>
      <trkpt lat="47.84589" lon="6.42116">
        <ele>354.977509</ele>
        <time>2020-05-12T13:21:26Z</time>
      </trkpt>
      <trkpt lat="47.84591" lon="6.42125">
        <ele>353.966248</ele>
        <time>2020-05-12T13:21:28Z</time>
      </trkpt>
      <trkpt lat="47.84592" lon="6.42131">
        <ele>353.256256</ele>
        <time>2020-05-12T13:21:29Z</time>
      </trkpt>
      <trkpt lat="47.84595" lon="6.42142">
        <ele>351.929993</ele>
        <time>2020-05-12T13:21:31Z</time>
      </trkpt>
      <trkpt lat="47.84597" lon="6.42149">
        <ele>351.112518</ele>
        <time>2020-05-12T13:21:32Z</time>
      </trkpt>
      <trkpt lat="47.84602" lon="6.42159">
        <ele>349.933746</ele>
        <time>2020-05-12T13:21:34Z</time>
      </trkpt>
      <trkpt lat="47.84607" lon="6.42164">
        <ele>349.181244</ele>
        <time>2020-05-12T13:21:35Z</time>
      </trkpt>
      <trkpt lat="47.8461" lon="6.42168">
        <ele>348.630005</ele>
        <time>2020-05-12T13:21:36Z</time>
      </trkpt>
      <trkpt lat="47.84612" lon="6.42174">
        <ele>347.923737</ele>
        <time>2020-05-12T13:21:38Z</time>
      </trkpt>
      <trkpt lat="47.84615" lon="6.42177">
        <ele>347.540009</ele>
        <time>2020-05-12T13:21:39Z</time>
      </trkpt>
      <trkpt lat="47.84618" lon="6.42181">
        <ele>347.15802</ele>
        <time>2020-05-12T13:21:40Z</time>
      </trkpt>
      <trkpt lat="47.84619" lon="6.42182">
        <ele>347.063293</ele>
        <time>2020-05-12T13:21:41Z</time>
      </trkpt>
      <trkpt lat="47.84622" lon="6.42185">
        <ele>347.062988</ele>
        <time>2020-05-12T13:21:43Z</time>
      </trkpt>
      <trkpt lat="47.84623" lon="6.42189">
        <ele>347.009827</ele>
        <time>2020-05-12T13:21:44Z</time>
      </trkpt>
      <trkpt lat="47.84624" lon="6.4219">
        <ele>347.009796</ele>
        <time>2020-05-12T13:21:45Z</time>
      </trkpt>
      <trkpt lat="47.84626" lon="6.42194">
        <ele>347.014404</ele>
        <time>2020-05-12T13:21:46Z</time>
      </trkpt>
      <trkpt lat="47.84627" lon="6.42196">
        <ele>347.017975</ele>
        <time>2020-05-12T13:21:47Z</time>
      </trkpt>
      <trkpt lat="47.8463" lon="6.422">
        <ele>347.044403</ele>
        <time>2020-05-12T13:21:49Z</time>
      </trkpt>
      <trkpt lat="47.84632" lon="6.42203">
        <ele>347.110321</ele>
        <time>2020-05-12T13:21:50Z</time>
      </trkpt>
      <trkpt lat="47.84636" lon="6.4221">
        <ele>347.234741</ele>
        <time>2020-05-12T13:21:51Z</time>
      </trkpt>
      <trkpt lat="47.84639" lon="6.42213">
        <ele>347.371368</ele>
        <time>2020-05-12T13:21:53Z</time>
      </trkpt>
      <trkpt lat="47.84643" lon="6.42217">
        <ele>347.550354</ele>
        <time>2020-05-12T13:21:54Z</time>
      </trkpt>
      <trkpt lat="47.84646" lon="6.42221">
        <ele>347.742493</ele>
        <time>2020-05-12T13:21:56Z</time>
      </trkpt>
      <trkpt lat="47.84649" lon="6.42225">
        <ele>347.958313</ele>
        <time>2020-05-12T13:21:57Z</time>
      </trkpt>
      <trkpt lat="47.84653" lon="6.42229">
        <ele>348.242065</ele>
        <time>2020-05-12T13:21:59Z</time>
      </trkpt>
      <trkpt lat="47.84656" lon="6.42231">
        <ele>348.457825</ele>
        <time>2020-05-12T13:22:00Z</time>
      </trkpt>
      <trkpt lat="47.84661" lon="6.42235">
        <ele>348.86676</ele>
        <time>2020-05-12T13:22:01Z</time>
      </trkpt>
      <trkpt lat="47.84665" lon="6.42237">
        <ele>349.08905</ele>
        <time>2020-05-12T13:22:02Z</time>
      </trkpt>
      <trkpt lat="47.84666" lon="6.42238">
        <ele>349.167236</ele>
        <time>2020-05-12T13:22:03Z</time>
      </trkpt>
      <trkpt lat="47.84669" lon="6.4224">
        <ele>349.41626</ele>
        <time>2020-05-12T13:22:04Z</time>
      </trkpt>
      <trkpt lat="47.84671" lon="6.42241">
        <ele>349.52533</ele>
        <time>2020-05-12T13:22:05Z</time>
      </trkpt>
      <trkpt lat="47.84674" lon="6.42242">
        <ele>349.75827</ele>
        <time>2020-05-12T13:22:07Z</time>
      </trkpt>
      <trkpt lat="47.84677" lon="6.42243">
        <ele>349.943359</ele>
        <time>2020-05-12T13:22:08Z</time>
      </trkpt>
      <trkpt lat="47.8468" lon="6.42243">
        <ele>350.141113</ele>
        <time>2020-05-12T13:22:09Z</time>
      </trkpt>
      <trkpt lat="47.84683" lon="6.42244">
        <ele>350.33194</ele>
        <time>2020-05-12T13:22:10Z</time>
      </trkpt>
      <trkpt lat="47.84689" lon="6.42247">
        <ele>350.798096</ele>
        <time>2020-05-12T13:22:12Z</time>
      </trkpt>
      <trkpt lat="47.84691" lon="6.42248">
        <ele>350.908081</ele>
        <time>2020-05-12T13:22:13Z</time>
      </trkpt>
      <trkpt lat="47.84692" lon="6.42249">
        <ele>351.03125</ele>
        <time>2020-05-12T13:22:14Z</time>
      </trkpt>
      <trkpt lat="47.84694" lon="6.4225">
        <ele>351.176788</ele>
        <time>2020-05-12T13:22:15Z</time>
      </trkpt>
      <trkpt lat="47.84695" lon="6.42252">
        <ele>351.300812</ele>
        <time>2020-05-12T13:22:16Z</time>
      </trkpt>
      <trkpt lat="47.84696" lon="6.42253">
        <ele>351.418701</ele>
        <time>2020-05-12T13:22:17Z</time>
      </trkpt>
      <trkpt lat="47.84697" lon="6.42255">
        <ele>351.605011</ele>
        <time>2020-05-12T13:22:19Z</time>
      </trkpt>
      <trkpt lat="47.84699" lon="6.42257">
        <ele>351.856262</ele>
        <time>2020-05-12T13:22:20Z</time>
      </trkpt>
      <trkpt lat="47.84702" lon="6.4226">
        <ele>352.244995</ele>
        <time>2020-05-12T13:22:22Z</time>
      </trkpt>
      <trkpt lat="47.84703" lon="6.42261">
        <ele>352.399994</ele>
        <time>2020-05-12T13:22:24Z</time>
      </trkpt>
      <trkpt lat="47.84705" lon="6.42262">
        <ele>352.531403</ele>
        <time>2020-05-12T13:22:25Z</time>
      </trkpt>
      <trkpt lat="47.84706" lon="6.42264">
        <ele>352.741791</ele>
        <time>2020-05-12T13:22:26Z</time>
      </trkpt>
      <trkpt lat="47.84708" lon="6.42268">
        <ele>353.048981</ele>
        <time>2020-05-12T13:22:28Z</time>
      </trkpt>
      <trkpt lat="47.84709" lon="6.42273">
        <ele>353.450531</ele>
        <time>2020-05-12T13:22:29Z</time>
      </trkpt>
      <trkpt lat="47.8471" lon="6.42274">
        <ele>353.559723</ele>
        <time>2020-05-12T13:22:30Z</time>
      </trkpt>
      <trkpt lat="47.84711" lon="6.42279">
        <ele>353.987274</ele>
        <time>2020-05-12T13:22:31Z</time>
      </trkpt>
      <trkpt lat="47.84712" lon="6.42281">
        <ele>354.20282</ele>
        <time>2020-05-12T13:22:32Z</time>
      </trkpt>
      <trkpt lat="47.84713" lon="6.42283">
        <ele>354.348633</ele>
        <time>2020-05-12T13:22:33Z</time>
      </trkpt>
      <trkpt lat="47.84714" lon="6.42285">
        <ele>354.582214</ele>
        <time>2020-05-12T13:22:35Z</time>
      </trkpt>
      <trkpt lat="47.84716" lon="6.42289">
        <ele>354.878723</ele>
        <time>2020-05-12T13:22:36Z</time>
      </trkpt>
      <trkpt lat="47.84718" lon="6.42291">
        <ele>355.096771</ele>
        <time>2020-05-12T13:22:38Z</time>
      </trkpt>
      <trkpt lat="47.8472" lon="6.42295">
        <ele>355.475769</ele>
        <time>2020-05-12T13:22:39Z</time>
      </trkpt>
      <trkpt lat="47.8472" lon="6.42296">
        <ele>355.614227</ele>
        <time>2020-05-12T13:22:40Z</time>
      </trkpt>
      <trkpt lat="47.84723" lon="6.42303">
        <ele>356.247498</ele>
        <time>2020-05-12T13:22:42Z</time>
      </trkpt>
      <trkpt lat="47.84724" lon="6.42304">
        <ele>356.413544</ele>
        <time>2020-05-12T13:22:43Z</time>
      </trkpt>
      <trkpt lat="47.84726" lon="6.42306">
        <ele>356.63443</ele>
        <time>2020-05-12T13:22:45Z</time>
      </trkpt>
      <trkpt lat="47.84728" lon="6.42309">
        <ele>356.903137</ele>
        <time>2020-05-12T13:22:46Z</time>
      </trkpt>
      <trkpt lat="47.84731" lon="6.42312">
        <ele>357.258759</ele>
        <time>2020-05-12T13:22:48Z</time>
      </trkpt>
      <trkpt lat="47.84734" lon="6.42315">
        <ele>357.657806</ele>
        <time>2020-05-12T13:22:50Z</time>
      </trkpt>
      <trkpt lat="47.84736" lon="6.42318">
        <ele>357.96756</ele>
        <time>2020-05-12T13:22:51Z</time>
      </trkpt>
      <trkpt lat="47.8474" lon="6.42322">
        <ele>358.468506</ele>
        <time>2020-05-12T13:22:52Z</time>
      </trkpt>
      <trkpt lat="47.84743" lon="6.42325">
        <ele>358.874634</ele>
        <time>2020-05-12T13:22:54Z</time>
      </trkpt>
      <trkpt lat="47.84744" lon="6.42328">
        <ele>359.155609</ele>
        <time>2020-05-12T13:22:55Z</time>
      </trkpt>
      <trkpt lat="47.84746" lon="6.42332">
        <ele>359.475006</ele>
        <time>2020-05-12T13:22:57Z</time>
      </trkpt>
      <trkpt lat="47.84748" lon="6.42336">
        <ele>359.783508</ele>
        <time>2020-05-12T13:22:58Z</time>
      </trkpt>
      <trkpt lat="47.8475" lon="6.42339">
        <ele>360.031738</ele>
        <time>2020-05-12T13:22:59Z</time>
      </trkpt>
      <trkpt lat="47.84752" lon="6.42344">
        <ele>360.384064</ele>
        <time>2020-05-12T13:23:00Z</time>
      </trkpt>
      <trkpt lat="47.84753" lon="6.42345">
        <ele>360.492828</ele>
        <time>2020-05-12T13:23:01Z</time>
      </trkpt>
      <trkpt lat="47.84756" lon="6.42351">
        <ele>360.953766</ele>
        <time>2020-05-12T13:23:02Z</time>
      </trkpt>
      <trkpt lat="47.84759" lon="6.42355">
        <ele>361.303223</ele>
        <time>2020-05-12T13:23:04Z</time>
      </trkpt>
      <trkpt lat="47.8476" lon="6.42357">
        <ele>361.427429</ele>
        <time>2020-05-12T13:23:05Z</time>
      </trkpt>
      <trkpt lat="47.84762" lon="6.4236">
        <ele>361.66983</ele>
        <time>2020-05-12T13:23:06Z</time>
      </trkpt>
      <trkpt lat="47.84764" lon="6.42363">
        <ele>361.955292</ele>
        <time>2020-05-12T13:23:07Z</time>
      </trkpt>
      <trkpt lat="47.84766" lon="6.42366">
        <ele>362.165771</ele>
        <time>2020-05-12T13:23:08Z</time>
      </trkpt>
      <trkpt lat="47.84769" lon="6.4237">
        <ele>362.576996</ele>
        <time>2020-05-12T13:23:10Z</time>
      </trkpt>
      <trkpt lat="47.84772" lon="6.42375">
        <ele>362.990112</ele>
        <time>2020-05-12T13:23:11Z</time>
      </trkpt>
      <trkpt lat="47.84776" lon="6.42382">
        <ele>363.628174</ele>
        <time>2020-05-12T13:23:13Z</time>
      </trkpt>
      <trkpt lat="47.84778" lon="6.42385">
        <ele>363.887512</ele>
        <time>2020-05-12T13:23:14Z</time>
      </trkpt>
      <trkpt lat="47.8478" lon="6.42388">
        <ele>364.221741</ele>
        <time>2020-05-12T13:23:15Z</time>
      </trkpt>
      <trkpt lat="47.84782" lon="6.42393">
        <ele>364.67688</ele>
        <time>2020-05-12T13:23:17Z</time>
      </trkpt>
      <trkpt lat="47.84784" lon="6.42398">
        <ele>364.925598</ele>
        <time>2020-05-12T13:23:18Z</time>
      </trkpt>
      <trkpt lat="47.84785" lon="6.42402">
        <ele>365.003082</ele>
        <time>2020-05-12T13:23:19Z</time>
      </trkpt>
      <trkpt lat="47.84787" lon="6.42407">
        <ele>365.136108</ele>
        <time>2020-05-12T13:23:21Z</time>
      </trkpt>
      <trkpt lat="47.84789" lon="6.42411">
        <ele>365.178497</ele>
        <time>2020-05-12T13:23:22Z</time>
      </trkpt>
      <trkpt lat="47.84793" lon="6.42418">
        <ele>365.095581</ele>
        <time>2020-05-12T13:23:23Z</time>
      </trkpt>
      <trkpt lat="47.84796" lon="6.42423">
        <ele>365.090729</ele>
        <time>2020-05-12T13:23:24Z</time>
      </trkpt>
      <trkpt lat="47.84796" lon="6.42425">
        <ele>365.089996</ele>
        <time>2020-05-12T13:23:25Z</time>
      </trkpt>
      <trkpt lat="47.84799" lon="6.4243">
        <ele>365.135925</ele>
        <time>2020-05-12T13:23:27Z</time>
      </trkpt>
      <trkpt lat="47.848" lon="6.42434">
        <ele>365.181488</ele>
        <time>2020-05-12T13:23:28Z</time>
      </trkpt>
      <trkpt lat="47.84802" lon="6.42439">
        <ele>365.258728</ele>
        <time>2020-05-12T13:23:29Z</time>
      </trkpt>
      <trkpt lat="47.84803" lon="6.42442">
        <ele>365.334839</ele>
        <time>2020-05-12T13:23:30Z</time>
      </trkpt>
      <trkpt lat="47.84806" lon="6.42449">
        <ele>365.504791</ele>
        <time>2020-05-12T13:23:32Z</time>
      </trkpt>
      <trkpt lat="47.84808" lon="6.42458">
        <ele>365.774292</ele>
        <time>2020-05-12T13:23:34Z</time>
      </trkpt>
      <trkpt lat="47.8481" lon="6.42462">
        <ele>365.936005</ele>
        <time>2020-05-12T13:23:35Z</time>
      </trkpt>
      <trkpt lat="47.8481" lon="6.42464">
        <ele>365.98056</ele>
        <time>2020-05-12T13:23:36Z</time>
      </trkpt>
      <trkpt lat="47.84812" lon="6.42468">
        <ele>365.820007</ele>
        <time>2020-05-12T13:23:38Z</time>
      </trkpt>
      <trkpt lat="47.84814" lon="6.42472">
        <ele>365.67749</ele>
        <time>2020-05-12T13:23:39Z</time>
      </trkpt>
      <trkpt lat="47.84817" lon="6.42475">
        <ele>365.535004</ele>
        <time>2020-05-12T13:23:40Z</time>
      </trkpt>
      <trkpt lat="47.84821" lon="6.42481">
        <ele>365.298737</ele>
        <time>2020-05-12T13:23:42Z</time>
      </trkpt>
      <trkpt lat="47.84826" lon="6.42487">
        <ele>365.017487</ele>
        <time>2020-05-12T13:23:43Z</time>
      </trkpt>
      <trkpt lat="47.84827" lon="6.42491">
        <ele>364.837494</ele>
        <time>2020-05-12T13:23:44Z</time>
      </trkpt>
      <trkpt lat="47.84829" lon="6.42496">
        <ele>364.64624</ele>
        <time>2020-05-12T13:23:45Z</time>
      </trkpt>
      <trkpt lat="47.84831" lon="6.425">
        <ele>364.427948</ele>
        <time>2020-05-12T13:23:46Z</time>
      </trkpt>
      <trkpt lat="47.84833" lon="6.42505">
        <ele>364.066223</ele>
        <time>2020-05-12T13:23:48Z</time>
      </trkpt>
      <trkpt lat="47.84835" lon="6.42511">
        <ele>363.728027</ele>
        <time>2020-05-12T13:23:49Z</time>
      </trkpt>
      <trkpt lat="47.84838" lon="6.42518">
        <ele>363.35675</ele>
        <time>2020-05-12T13:23:51Z</time>
      </trkpt>
      <trkpt lat="47.84841" lon="6.42526">
        <ele>362.993652</ele>
        <time>2020-05-12T13:23:52Z</time>
      </trkpt>
      <trkpt lat="47.84843" lon="6.42532">
        <ele>362.720947</ele>
        <time>2020-05-12T13:23:54Z</time>
      </trkpt>
      <trkpt lat="47.84845" lon="6.42538">
        <ele>362.532959</ele>
        <time>2020-05-12T13:23:55Z</time>
      </trkpt>
      <trkpt lat="47.84847" lon="6.42544">
        <ele>362.378387</ele>
        <time>2020-05-12T13:23:57Z</time>
      </trkpt>
      <trkpt lat="47.84849" lon="6.42548">
        <ele>362.289215</ele>
        <time>2020-05-12T13:23:58Z</time>
      </trkpt>
      <trkpt lat="47.84852" lon="6.42556">
        <ele>362.193298</ele>
        <time>2020-05-12T13:24:00Z</time>
      </trkpt>
      <trkpt lat="47.84854" lon="6.4256">
        <ele>362.165009</ele>
        <time>2020-05-12T13:24:01Z</time>
      </trkpt>
      <trkpt lat="47.84856" lon="6.42569">
        <ele>362.137665</ele>
        <time>2020-05-12T13:24:02Z</time>
      </trkpt>
      <trkpt lat="47.8486" lon="6.42582">
        <ele>362.231934</ele>
        <time>2020-05-12T13:24:04Z</time>
      </trkpt>
      <trkpt lat="47.84862" lon="6.42594">
        <ele>362.362488</ele>
        <time>2020-05-12T13:24:05Z</time>
      </trkpt>
      <trkpt lat="47.84866" lon="6.42606">
        <ele>363.001312</ele>
        <time>2020-05-12T13:24:07Z</time>
      </trkpt>
      <trkpt lat="47.84868" lon="6.42614">
        <ele>363.806519</ele>
        <time>2020-05-12T13:24:08Z</time>
      </trkpt>
      <trkpt lat="47.84871" lon="6.42622">
        <ele>364.757507</ele>
        <time>2020-05-12T13:24:10Z</time>
      </trkpt>
      <trkpt lat="47.84872" lon="6.42627">
        <ele>365.294983</ele>
        <time>2020-05-12T13:24:11Z</time>
      </trkpt>
      <trkpt lat="47.84874" lon="6.42632">
        <ele>365.779999</ele>
        <time>2020-05-12T13:24:12Z</time>
      </trkpt>
      <trkpt lat="47.84876" lon="6.42636">
        <ele>366.242493</ele>
        <time>2020-05-12T13:24:13Z</time>
      </trkpt>
      <trkpt lat="47.84877" lon="6.42641">
        <ele>366.720001</ele>
        <time>2020-05-12T13:24:15Z</time>
      </trkpt>
      <trkpt lat="47.84878" lon="6.42642">
        <ele>366.860016</ele>
        <time>2020-05-12T13:24:16Z</time>
      </trkpt>
      <trkpt lat="47.8488" lon="6.42646">
        <ele>367.317505</ele>
        <time>2020-05-12T13:24:18Z</time>
      </trkpt>
      <trkpt lat="47.84881" lon="6.42647">
        <ele>367.4375</ele>
        <time>2020-05-12T13:24:19Z</time>
      </trkpt>
      <trkpt lat="47.84884" lon="6.4265">
        <ele>367.8125</ele>
        <time>2020-05-12T13:24:20Z</time>
      </trkpt>
      <trkpt lat="47.84885" lon="6.42652">
        <ele>368.002502</ele>
        <time>2020-05-12T13:24:21Z</time>
      </trkpt>
      <trkpt lat="47.84889" lon="6.42654">
        <ele>368.359985</ele>
        <time>2020-05-12T13:24:23Z</time>
      </trkpt>
      <trkpt lat="47.8489" lon="6.42656">
        <ele>368.542511</ele>
        <time>2020-05-12T13:24:24Z</time>
      </trkpt>
      <trkpt lat="47.84893" lon="6.42657">
        <ele>368.772491</ele>
        <time>2020-05-12T13:24:26Z</time>
      </trkpt>
      <trkpt lat="47.84895" lon="6.42659">
        <ele>368.987488</ele>
        <time>2020-05-12T13:24:27Z</time>
      </trkpt>
      <trkpt lat="47.84897" lon="6.42661">
        <ele>369.317505</ele>
        <time>2020-05-12T13:24:29Z</time>
      </trkpt>
      <trkpt lat="47.84899" lon="6.42665">
        <ele>369.714996</ele>
        <time>2020-05-12T13:24:30Z</time>
      </trkpt>
      <trkpt lat="47.84901" lon="6.42668">
        <ele>370.0625</ele>
        <time>2020-05-12T13:24:31Z</time>
      </trkpt>
      <trkpt lat="47.84902" lon="6.4267">
        <ele>370.317505</ele>
        <time>2020-05-12T13:24:33Z</time>
      </trkpt>
      <trkpt lat="47.84904" lon="6.42673">
        <ele>370.621246</ele>
        <time>2020-05-12T13:24:34Z</time>
      </trkpt>
      <trkpt lat="47.84907" lon="6.42676">
        <ele>371.038757</ele>
        <time>2020-05-12T13:24:36Z</time>
      </trkpt>
      <trkpt lat="47.84908" lon="6.42677">
        <ele>371.266235</ele>
        <time>2020-05-12T13:24:37Z</time>
      </trkpt>
      <trkpt lat="47.8491" lon="6.4268">
        <ele>371.584991</ele>
        <time>2020-05-12T13:24:39Z</time>
      </trkpt>
      <trkpt lat="47.84913" lon="6.42683">
        <ele>372.040009</ele>
        <time>2020-05-12T13:24:41Z</time>
      </trkpt>
      <trkpt lat="47.84915" lon="6.42685">
        <ele>372.255005</ele>
        <time>2020-05-12T13:24:42Z</time>
      </trkpt>
      <trkpt lat="47.84916" lon="6.42686">
        <ele>372.442505</ele>
        <time>2020-05-12T13:24:43Z</time>
      </trkpt>
      <trkpt lat="47.84918" lon="6.42689">
        <ele>372.748749</ele>
        <time>2020-05-12T13:24:45Z</time>
      </trkpt>
      <trkpt lat="47.84918" lon="6.4269">
        <ele>372.877502</ele>
        <time>2020-05-12T13:24:46Z</time>
      </trkpt>
      <trkpt lat="47.8492" lon="6.42692">
        <ele>373.091248</ele>
        <time>2020-05-12T13:24:47Z</time>
      </trkpt>
      <trkpt lat="47.8492" lon="6.42693">
        <ele>373.242493</ele>
        <time>2020-05-12T13:24:48Z</time>
      </trkpt>
      <trkpt lat="47.84922" lon="6.42696">
        <ele>373.527496</ele>
        <time>2020-05-12T13:24:50Z</time>
      </trkpt>
      <trkpt lat="47.84923" lon="6.42697">
        <ele>373.673737</ele>
        <time>2020-05-12T13:24:51Z</time>
      </trkpt>
      <trkpt lat="47.84924" lon="6.42698">
        <ele>373.825012</ele>
        <time>2020-05-12T13:24:52Z</time>
      </trkpt>
      <trkpt lat="47.84927" lon="6.42704">
        <ele>374.491241</ele>
        <time>2020-05-12T13:24:54Z</time>
      </trkpt>
      <trkpt lat="47.84929" lon="6.42708">
        <ele>374.868744</ele>
        <time>2020-05-12T13:24:56Z</time>
      </trkpt>
      <trkpt lat="47.8493" lon="6.42709">
        <ele>374.988739</ele>
        <time>2020-05-12T13:24:57Z</time>
      </trkpt>
      <trkpt lat="47.8493" lon="6.4271">
        <ele>375.192505</ele>
        <time>2020-05-12T13:24:58Z</time>
      </trkpt>
      <trkpt lat="47.84932" lon="6.42713">
        <ele>375.511261</ele>
        <time>2020-05-12T13:25:00Z</time>
      </trkpt>
      <trkpt lat="47.84932" lon="6.42715">
        <ele>375.723755</ele>
        <time>2020-05-12T13:25:01Z</time>
      </trkpt>
      <trkpt lat="47.84933" lon="6.42717">
        <ele>375.976257</ele>
        <time>2020-05-12T13:25:02Z</time>
      </trkpt>
      <trkpt lat="47.84935" lon="6.42721">
        <ele>376.418762</ele>
        <time>2020-05-12T13:25:03Z</time>
      </trkpt>
      <trkpt lat="47.84936" lon="6.42723">
        <ele>376.617493</ele>
        <time>2020-05-12T13:25:04Z</time>
      </trkpt>
      <trkpt lat="47.84936" lon="6.42725">
        <ele>376.772491</ele>
        <time>2020-05-12T13:25:05Z</time>
      </trkpt>
      <trkpt lat="47.84938" lon="6.42728">
        <ele>377.10376</ele>
        <time>2020-05-12T13:25:07Z</time>
      </trkpt>
      <trkpt lat="47.84939" lon="6.42731">
        <ele>377.497498</ele>
        <time>2020-05-12T13:25:08Z</time>
      </trkpt>
      <trkpt lat="47.84941" lon="6.42735">
        <ele>377.945007</ele>
        <time>2020-05-12T13:25:09Z</time>
      </trkpt>
      <trkpt lat="47.84941" lon="6.42736">
        <ele>378.091248</ele>
        <time>2020-05-12T13:25:10Z</time>
      </trkpt>
      <trkpt lat="47.84943" lon="6.4274">
        <ele>378.494995</ele>
        <time>2020-05-12T13:25:12Z</time>
      </trkpt>
      <trkpt lat="47.84944" lon="6.42741">
        <ele>378.609985</ele>
        <time>2020-05-12T13:25:13Z</time>
      </trkpt>
      <trkpt lat="47.84946" lon="6.42745">
        <ele>379.099487</ele>
        <time>2020-05-12T13:25:14Z</time>
      </trkpt>
      <trkpt lat="47.84947" lon="6.42748">
        <ele>379.398071</ele>
        <time>2020-05-12T13:25:15Z</time>
      </trkpt>
      <trkpt lat="47.84948" lon="6.4275">
        <ele>379.678864</ele>
        <time>2020-05-12T13:25:17Z</time>
      </trkpt>
      <trkpt lat="47.84949" lon="6.42752">
        <ele>379.94577</ele>
        <time>2020-05-12T13:25:18Z</time>
      </trkpt>
      <trkpt lat="47.8495" lon="6.42755">
        <ele>380.284637</ele>
        <time>2020-05-12T13:25:20Z</time>
      </trkpt>
      <trkpt lat="47.84951" lon="6.42757">
        <ele>380.560547</ele>
        <time>2020-05-12T13:25:22Z</time>
      </trkpt>
      <trkpt lat="47.84953" lon="6.42762">
        <ele>381.219788</ele>
        <time>2020-05-12T13:25:23Z</time>
      </trkpt>
      <trkpt lat="47.84954" lon="6.42765">
        <ele>381.546997</ele>
        <time>2020-05-12T13:25:24Z</time>
      </trkpt>
      <trkpt lat="47.84955" lon="6.42768">
        <ele>382.026215</ele>
        <time>2020-05-12T13:25:26Z</time>
      </trkpt>
      <trkpt lat="47.84956" lon="6.4277">
        <ele>382.209991</ele>
        <time>2020-05-12T13:25:27Z</time>
      </trkpt>
      <trkpt lat="47.84957" lon="6.42773">
        <ele>382.625</ele>
        <time>2020-05-12T13:25:28Z</time>
      </trkpt>
      <trkpt lat="47.84958" lon="6.42778">
        <ele>383.195007</ele>
        <time>2020-05-12T13:25:30Z</time>
      </trkpt>
      <trkpt lat="47.8496" lon="6.42784">
        <ele>383.924988</ele>
        <time>2020-05-12T13:25:32Z</time>
      </trkpt>
      <trkpt lat="47.84961" lon="6.42786">
        <ele>384.184998</ele>
        <time>2020-05-12T13:25:33Z</time>
      </trkpt>
      <trkpt lat="47.84962" lon="6.42788">
        <ele>384.464996</ele>
        <time>2020-05-12T13:25:34Z</time>
      </trkpt>
      <trkpt lat="47.84964" lon="6.42792">
        <ele>385.049988</ele>
        <time>2020-05-12T13:25:35Z</time>
      </trkpt>
      <trkpt lat="47.84965" lon="6.42795">
        <ele>385.345001</ele>
        <time>2020-05-12T13:25:36Z</time>
      </trkpt>
      <trkpt lat="47.84968" lon="6.42799">
        <ele>385.899994</ele>
        <time>2020-05-12T13:25:38Z</time>
      </trkpt>
      <trkpt lat="47.84969" lon="6.42803">
        <ele>386.339996</ele>
        <time>2020-05-12T13:25:40Z</time>
      </trkpt>
      <trkpt lat="47.8497" lon="6.42804">
        <ele>386.494995</ele>
        <time>2020-05-12T13:25:41Z</time>
      </trkpt>
      <trkpt lat="47.84972" lon="6.42808">
        <ele>387.005005</ele>
        <time>2020-05-12T13:25:42Z</time>
      </trkpt>
      <trkpt lat="47.84973" lon="6.4281">
        <ele>387.285004</ele>
        <time>2020-05-12T13:25:43Z</time>
      </trkpt>
      <trkpt lat="47.84976" lon="6.42814">
        <ele>387.809998</ele>
        <time>2020-05-12T13:25:45Z</time>
      </trkpt>
      <trkpt lat="47.84976" lon="6.42816">
        <ele>388.019989</ele>
        <time>2020-05-12T13:25:46Z</time>
      </trkpt>
      <trkpt lat="47.84977" lon="6.42818">
        <ele>388.294983</ele>
        <time>2020-05-12T13:25:47Z</time>
      </trkpt>
      <trkpt lat="47.8498" lon="6.42822">
        <ele>388.855011</ele>
        <time>2020-05-12T13:25:48Z</time>
      </trkpt>
      <trkpt lat="47.8498" lon="6.42824">
        <ele>389.105011</ele>
        <time>2020-05-12T13:25:50Z</time>
      </trkpt>
      <trkpt lat="47.84981" lon="6.42826">
        <ele>389.345001</ele>
        <time>2020-05-12T13:25:51Z</time>
      </trkpt>
      <trkpt lat="47.84982" lon="6.42828">
        <ele>389.600006</ele>
        <time>2020-05-12T13:25:53Z</time>
      </trkpt>
      <trkpt lat="47.84983" lon="6.4283">
        <ele>389.839996</ele>
        <time>2020-05-12T13:25:54Z</time>
      </trkpt>
      <trkpt lat="47.84984" lon="6.42832">
        <ele>390.089996</ele>
        <time>2020-05-12T13:25:55Z</time>
      </trkpt>
      <trkpt lat="47.84985" lon="6.42834">
        <ele>390.369995</ele>
        <time>2020-05-12T13:25:56Z</time>
      </trkpt>
      <trkpt lat="47.84987" lon="6.42838">
        <ele>390.769989</ele>
        <time>2020-05-12T13:25:58Z</time>
      </trkpt>
      <trkpt lat="47.84987" lon="6.4284">
        <ele>391.089996</ele>
        <time>2020-05-12T13:25:59Z</time>
      </trkpt>
      <trkpt lat="47.84988" lon="6.42842">
        <ele>391.375</ele>
        <time>2020-05-12T13:26:00Z</time>
      </trkpt>
      <trkpt lat="47.84989" lon="6.42847">
        <ele>391.904999</ele>
        <time>2020-05-12T13:26:02Z</time>
      </trkpt>
      <trkpt lat="47.84989" lon="6.42848">
        <ele>392.054993</ele>
        <time>2020-05-12T13:26:03Z</time>
      </trkpt>
      <trkpt lat="47.84991" lon="6.42854">
        <ele>392.744995</ele>
        <time>2020-05-12T13:26:04Z</time>
      </trkpt>
      <trkpt lat="47.84991" lon="6.42856">
        <ele>393.049988</ele>
        <time>2020-05-12T13:26:05Z</time>
      </trkpt>
      <trkpt lat="47.84992" lon="6.4286">
        <ele>393.565002</ele>
        <time>2020-05-12T13:26:07Z</time>
      </trkpt>
      <trkpt lat="47.84993" lon="6.42862">
        <ele>393.825012</ele>
        <time>2020-05-12T13:26:08Z</time>
      </trkpt>
      <trkpt lat="47.84994" lon="6.42867">
        <ele>394.359985</ele>
        <time>2020-05-12T13:26:10Z</time>
      </trkpt>
      <trkpt lat="47.84994" lon="6.42868">
        <ele>394.5</ele>
        <time>2020-05-12T13:26:11Z</time>
      </trkpt>
      <trkpt lat="47.84995" lon="6.42874">
        <ele>395.195007</ele>
        <time>2020-05-12T13:26:12Z</time>
      </trkpt>
      <trkpt lat="47.84995" lon="6.42876">
        <ele>395.515015</ele>
        <time>2020-05-12T13:26:13Z</time>
      </trkpt>
      <trkpt lat="47.84995" lon="6.4288">
        <ele>395.959991</ele>
        <time>2020-05-12T13:26:14Z</time>
      </trkpt>
      <trkpt lat="47.84996" lon="6.42886">
        <ele>396.5625</ele>
        <time>2020-05-12T13:26:16Z</time>
      </trkpt>
      <trkpt lat="47.84997" lon="6.42891">
        <ele>396.959991</ele>
        <time>2020-05-12T13:26:17Z</time>
      </trkpt>
      <trkpt lat="47.84997" lon="6.42892">
        <ele>397.079987</ele>
        <time>2020-05-12T13:26:18Z</time>
      </trkpt>
      <trkpt lat="47.84998" lon="6.42898">
        <ele>397.582489</ele>
        <time>2020-05-12T13:26:20Z</time>
      </trkpt>
      <trkpt lat="47.84998" lon="6.429">
        <ele>397.777496</ele>
        <time>2020-05-12T13:26:21Z</time>
      </trkpt>
      <trkpt lat="47.84999" lon="6.42904">
        <ele>398.167511</ele>
        <time>2020-05-12T13:26:23Z</time>
      </trkpt>
      <trkpt lat="47.84999" lon="6.42909">
        <ele>398.557495</ele>
        <time>2020-05-12T13:26:24Z</time>
      </trkpt>
      <trkpt lat="47.85" lon="6.42914">
        <ele>399.045013</ele>
        <time>2020-05-12T13:26:25Z</time>
      </trkpt>
      <trkpt lat="47.85" lon="6.42916">
        <ele>399.225006</ele>
        <time>2020-05-12T13:26:26Z</time>
      </trkpt>
      <trkpt lat="47.85" lon="6.42919">
        <ele>399.457489</ele>
        <time>2020-05-12T13:26:28Z</time>
      </trkpt>
      <trkpt lat="47.85" lon="6.42924">
        <ele>399.907501</ele>
        <time>2020-05-12T13:26:29Z</time>
      </trkpt>
      <trkpt lat="47.84999" lon="6.42929">
        <ele>400.410004</ele>
        <time>2020-05-12T13:26:31Z</time>
      </trkpt>
      <trkpt lat="47.84999" lon="6.42932">
        <ele>400.63501</ele>
        <time>2020-05-12T13:26:32Z</time>
      </trkpt>
      <trkpt lat="47.85" lon="6.42936">
        <ele>401.01001</ele>
        <time>2020-05-12T13:26:34Z</time>
      </trkpt>
      <trkpt lat="47.85001" lon="6.42943">
        <ele>401.602509</ele>
        <time>2020-05-12T13:26:35Z</time>
      </trkpt>
      <trkpt lat="47.85002" lon="6.42945">
        <ele>401.804993</ele>
        <time>2020-05-12T13:26:36Z</time>
      </trkpt>
      <trkpt lat="47.85002" lon="6.42947">
        <ele>401.977509</ele>
        <time>2020-05-12T13:26:37Z</time>
      </trkpt>
      <trkpt lat="47.85003" lon="6.4295">
        <ele>402.144989</ele>
        <time>2020-05-12T13:26:38Z</time>
      </trkpt>
      <trkpt lat="47.85003" lon="6.42952">
        <ele>402.274994</ele>
        <time>2020-05-12T13:26:39Z</time>
      </trkpt>
      <trkpt lat="47.85004" lon="6.42955">
        <ele>402.424988</ele>
        <time>2020-05-12T13:26:41Z</time>
      </trkpt>
      <trkpt lat="47.85004" lon="6.42957">
        <ele>402.575012</ele>
        <time>2020-05-12T13:26:42Z</time>
      </trkpt>
      <trkpt lat="47.85006" lon="6.42962">
        <ele>402.845001</ele>
        <time>2020-05-12T13:26:43Z</time>
      </trkpt>
      <trkpt lat="47.85006" lon="6.42964">
        <ele>402.975006</ele>
        <time>2020-05-12T13:26:44Z</time>
      </trkpt>
      <trkpt lat="47.85007" lon="6.42972">
        <ele>403.440002</ele>
        <time>2020-05-12T13:26:46Z</time>
      </trkpt>
      <trkpt lat="47.85007" lon="6.42974">
        <ele>403.605011</ele>
        <time>2020-05-12T13:26:47Z</time>
      </trkpt>
      <trkpt lat="47.85007" lon="6.42977">
        <ele>403.769989</ele>
        <time>2020-05-12T13:26:48Z</time>
      </trkpt>
      <trkpt lat="47.85006" lon="6.42981">
        <ele>403.970001</ele>
        <time>2020-05-12T13:26:49Z</time>
      </trkpt>
      <trkpt lat="47.85006" lon="6.42984">
        <ele>404.170013</ele>
        <time>2020-05-12T13:26:51Z</time>
      </trkpt>
      <trkpt lat="47.85005" lon="6.4299">
        <ele>404.515015</ele>
        <time>2020-05-12T13:26:52Z</time>
      </trkpt>
      <trkpt lat="47.85004" lon="6.42991">
        <ele>404.630005</ele>
        <time>2020-05-12T13:26:53Z</time>
      </trkpt>
      <trkpt lat="47.85004" lon="6.42995">
        <ele>404.850006</ele>
        <time>2020-05-12T13:26:54Z</time>
      </trkpt>
      <trkpt lat="47.85004" lon="6.43004">
        <ele>405.369995</ele>
        <time>2020-05-12T13:26:56Z</time>
      </trkpt>
      <trkpt lat="47.85004" lon="6.43009">
        <ele>405.660004</ele>
        <time>2020-05-12T13:26:57Z</time>
      </trkpt>
      <trkpt lat="47.85005" lon="6.43015">
        <ele>406.049988</ele>
        <time>2020-05-12T13:26:59Z</time>
      </trkpt>
      <trkpt lat="47.85005" lon="6.43018">
        <ele>406.190002</ele>
        <time>2020-05-12T13:27:00Z</time>
      </trkpt>
      <trkpt lat="47.85005" lon="6.4302">
        <ele>406.325012</ele>
        <time>2020-05-12T13:27:01Z</time>
      </trkpt>
      <trkpt lat="47.85005" lon="6.43025">
        <ele>406.649994</ele>
        <time>2020-05-12T13:27:03Z</time>
      </trkpt>
      <trkpt lat="47.85006" lon="6.43033">
        <ele>407.095001</ele>
        <time>2020-05-12T13:27:04Z</time>
      </trkpt>
      <trkpt lat="47.85006" lon="6.43037">
        <ele>407.320007</ele>
        <time>2020-05-12T13:27:05Z</time>
      </trkpt>
      <trkpt lat="47.85006" lon="6.43041">
        <ele>407.584991</ele>
        <time>2020-05-12T13:27:07Z</time>
      </trkpt>
      <trkpt lat="47.85006" lon="6.43047">
        <ele>407.975006</ele>
        <time>2020-05-12T13:27:08Z</time>
      </trkpt>
      <trkpt lat="47.85006" lon="6.43051">
        <ele>408.204987</ele>
        <time>2020-05-12T13:27:09Z</time>
      </trkpt>
      <trkpt lat="47.85006" lon="6.43056">
        <ele>408.480011</ele>
        <time>2020-05-12T13:27:11Z</time>
      </trkpt>
      <trkpt lat="47.85006" lon="6.43061">
        <ele>408.809998</ele>
        <time>2020-05-12T13:27:12Z</time>
      </trkpt>
      <trkpt lat="47.85006" lon="6.43066">
        <ele>409.059998</ele>
        <time>2020-05-12T13:27:13Z</time>
      </trkpt>
      <trkpt lat="47.85006" lon="6.43071">
        <ele>409.375</ele>
        <time>2020-05-12T13:27:14Z</time>
      </trkpt>
      <trkpt lat="47.85006" lon="6.43072">
        <ele>409.470001</ele>
        <time>2020-05-12T13:27:15Z</time>
      </trkpt>
      <trkpt lat="47.85006" lon="6.43079">
        <ele>409.850006</ele>
        <time>2020-05-12T13:27:17Z</time>
      </trkpt>
      <trkpt lat="47.85006" lon="6.43084">
        <ele>410.144989</ele>
        <time>2020-05-12T13:27:18Z</time>
      </trkpt>
      <trkpt lat="47.85006" lon="6.43087">
        <ele>410.315002</ele>
        <time>2020-05-12T13:27:19Z</time>
      </trkpt>
      <trkpt lat="47.85006" lon="6.43092">
        <ele>410.61499</ele>
        <time>2020-05-12T13:27:21Z</time>
      </trkpt>
      <trkpt lat="47.85005" lon="6.43098">
        <ele>410.970001</ele>
        <time>2020-05-12T13:27:22Z</time>
      </trkpt>
      <trkpt lat="47.85005" lon="6.43099">
        <ele>411.084991</ele>
        <time>2020-05-12T13:27:23Z</time>
      </trkpt>
      <trkpt lat="47.85005" lon="6.43103">
        <ele>411.274994</ele>
        <time>2020-05-12T13:27:24Z</time>
      </trkpt>
      <trkpt lat="47.85005" lon="6.43111">
        <ele>411.765015</ele>
        <time>2020-05-12T13:27:26Z</time>
      </trkpt>
      <trkpt lat="47.85005" lon="6.43116">
        <ele>412.065002</ele>
        <time>2020-05-12T13:27:28Z</time>
      </trkpt>
      <trkpt lat="47.85005" lon="6.43121">
        <ele>412.345001</ele>
        <time>2020-05-12T13:27:29Z</time>
      </trkpt>
      <trkpt lat="47.85005" lon="6.43125">
        <ele>412.630005</ele>
        <time>2020-05-12T13:27:30Z</time>
      </trkpt>
      <trkpt lat="47.85005" lon="6.43132">
        <ele>413.019989</ele>
        <time>2020-05-12T13:27:32Z</time>
      </trkpt>
      <trkpt lat="47.85005" lon="6.43136">
        <ele>413.295013</ele>
        <time>2020-05-12T13:27:33Z</time>
      </trkpt>
      <trkpt lat="47.85004" lon="6.43142">
        <ele>413.63501</ele>
        <time>2020-05-12T13:27:34Z</time>
      </trkpt>
      <trkpt lat="47.85004" lon="6.43147">
        <ele>413.954987</ele>
        <time>2020-05-12T13:27:36Z</time>
      </trkpt>
      <trkpt lat="47.85003" lon="6.43159">
        <ele>414.472504</ele>
        <time>2020-05-12T13:27:38Z</time>
      </trkpt>
      <trkpt lat="47.85003" lon="6.43164">
        <ele>414.701263</ele>
        <time>2020-05-12T13:27:39Z</time>
      </trkpt>
      <trkpt lat="47.85003" lon="6.43168">
        <ele>414.888763</ele>
        <time>2020-05-12T13:27:41Z</time>
      </trkpt>
      <trkpt lat="47.85002" lon="6.43172">
        <ele>415.098755</ele>
        <time>2020-05-12T13:27:42Z</time>
      </trkpt>
      <trkpt lat="47.85002" lon="6.43178">
        <ele>415.334991</ele>
        <time>2020-05-12T13:27:43Z</time>
      </trkpt>
      <trkpt lat="47.85001" lon="6.4318">
        <ele>415.421265</ele>
        <time>2020-05-12T13:27:44Z</time>
      </trkpt>
      <trkpt lat="47.85" lon="6.43184">
        <ele>415.623749</ele>
        <time>2020-05-12T13:27:46Z</time>
      </trkpt>
      <trkpt lat="47.84999" lon="6.4319">
        <ele>415.908752</ele>
        <time>2020-05-12T13:27:47Z</time>
      </trkpt>
      <trkpt lat="47.84998" lon="6.43194">
        <ele>416.0625</ele>
        <time>2020-05-12T13:27:48Z</time>
      </trkpt>
      <trkpt lat="47.84997" lon="6.43198">
        <ele>416.268738</ele>
        <time>2020-05-12T13:27:50Z</time>
      </trkpt>
      <trkpt lat="47.84996" lon="6.43203">
        <ele>416.47876</ele>
        <time>2020-05-12T13:27:51Z</time>
      </trkpt>
      <trkpt lat="47.84996" lon="6.43204">
        <ele>416.553741</ele>
        <time>2020-05-12T13:27:52Z</time>
      </trkpt>
      <trkpt lat="47.84994" lon="6.43209">
        <ele>416.752502</ele>
        <time>2020-05-12T13:27:53Z</time>
      </trkpt>
      <trkpt lat="47.84993" lon="6.43213">
        <ele>416.954987</ele>
        <time>2020-05-12T13:27:54Z</time>
      </trkpt>
      <trkpt lat="47.84991" lon="6.43219">
        <ele>417.22876</ele>
        <time>2020-05-12T13:27:56Z</time>
      </trkpt>
      <trkpt lat="47.8499" lon="6.43224">
        <ele>417.442505</ele>
        <time>2020-05-12T13:27:57Z</time>
      </trkpt>
      <trkpt lat="47.84989" lon="6.43229">
        <ele>417.682495</ele>
        <time>2020-05-12T13:27:58Z</time>
      </trkpt>
      <trkpt lat="47.84987" lon="6.43234">
        <ele>417.911255</ele>
        <time>2020-05-12T13:27:59Z</time>
      </trkpt>
      <trkpt lat="47.84985" lon="6.43237">
        <ele>418.07251</ele>
        <time>2020-05-12T13:28:00Z</time>
      </trkpt>
      <trkpt lat="47.84983" lon="6.43242">
        <ele>418.277496</ele>
        <time>2020-05-12T13:28:01Z</time>
      </trkpt>
      <trkpt lat="47.84981" lon="6.43247">
        <ele>418.461243</ele>
        <time>2020-05-12T13:28:03Z</time>
      </trkpt>
      <trkpt lat="47.84979" lon="6.43251">
        <ele>418.601257</ele>
        <time>2020-05-12T13:28:04Z</time>
      </trkpt>
      <trkpt lat="47.84977" lon="6.43255">
        <ele>418.751251</ele>
        <time>2020-05-12T13:28:05Z</time>
      </trkpt>
      <trkpt lat="47.84975" lon="6.43259">
        <ele>418.878754</ele>
        <time>2020-05-12T13:28:06Z</time>
      </trkpt>
      <trkpt lat="47.84972" lon="6.43263">
        <ele>419.001251</ele>
        <time>2020-05-12T13:28:07Z</time>
      </trkpt>
      <trkpt lat="47.84969" lon="6.43269">
        <ele>419.226257</ele>
        <time>2020-05-12T13:28:09Z</time>
      </trkpt>
      <trkpt lat="47.84966" lon="6.43274">
        <ele>419.402496</ele>
        <time>2020-05-12T13:28:10Z</time>
      </trkpt>
      <trkpt lat="47.84964" lon="6.43279">
        <ele>419.568756</ele>
        <time>2020-05-12T13:28:11Z</time>
      </trkpt>
      <trkpt lat="47.84961" lon="6.43285">
        <ele>419.700012</ele>
        <time>2020-05-12T13:28:13Z</time>
      </trkpt>
      <trkpt lat="47.84959" lon="6.43289">
        <ele>419.797516</ele>
        <time>2020-05-12T13:28:14Z</time>
      </trkpt>
      <trkpt lat="47.84956" lon="6.43296">
        <ele>419.957489</ele>
        <time>2020-05-12T13:28:15Z</time>
      </trkpt>
      <trkpt lat="47.84953" lon="6.43305">
        <ele>420.165009</ele>
        <time>2020-05-12T13:28:17Z</time>
      </trkpt>
      <trkpt lat="47.84951" lon="6.43309">
        <ele>420.269989</ele>
        <time>2020-05-12T13:28:18Z</time>
      </trkpt>
      <trkpt lat="47.8495" lon="6.43313">
        <ele>420.350006</ele>
        <time>2020-05-12T13:28:19Z</time>
      </trkpt>
      <trkpt lat="47.84949" lon="6.43317">
        <ele>420.442505</ele>
        <time>2020-05-12T13:28:20Z</time>
      </trkpt>
      <trkpt lat="47.84947" lon="6.43321">
        <ele>420.547485</ele>
        <time>2020-05-12T13:28:22Z</time>
      </trkpt>
      <trkpt lat="47.84946" lon="6.43326">
        <ele>420.667511</ele>
        <time>2020-05-12T13:28:23Z</time>
      </trkpt>
      <trkpt lat="47.84944" lon="6.43331">
        <ele>420.790009</ele>
        <time>2020-05-12T13:28:24Z</time>
      </trkpt>
      <trkpt lat="47.84943" lon="6.43333">
        <ele>420.837494</ele>
        <time>2020-05-12T13:28:25Z</time>
      </trkpt>
      <trkpt lat="47.84942" lon="6.43337">
        <ele>420.942505</ele>
        <time>2020-05-12T13:28:27Z</time>
      </trkpt>
      <trkpt lat="47.84941" lon="6.43342">
        <ele>421.057495</ele>
        <time>2020-05-12T13:28:28Z</time>
      </trkpt>
      <trkpt lat="47.84939" lon="6.43352">
        <ele>421.307983</ele>
        <time>2020-05-12T13:28:30Z</time>
      </trkpt>
      <trkpt lat="47.84937" lon="6.43357">
        <ele>421.434296</ele>
        <time>2020-05-12T13:28:32Z</time>
      </trkpt>
      <trkpt lat="47.84936" lon="6.43362">
        <ele>421.55957</ele>
        <time>2020-05-12T13:28:33Z</time>
      </trkpt>
      <trkpt lat="47.84934" lon="6.43367">
        <ele>421.679993</ele>
        <time>2020-05-12T13:28:35Z</time>
      </trkpt>
      <trkpt lat="47.84931" lon="6.43373">
        <ele>421.82251</ele>
        <time>2020-05-12T13:28:36Z</time>
      </trkpt>
      <trkpt lat="47.84929" lon="6.43377">
        <ele>421.904999</ele>
        <time>2020-05-12T13:28:37Z</time>
      </trkpt>
      <trkpt lat="47.84927" lon="6.43381">
        <ele>421.992493</ele>
        <time>2020-05-12T13:28:39Z</time>
      </trkpt>
      <trkpt lat="47.84925" lon="6.43386">
        <ele>422.087494</ele>
        <time>2020-05-12T13:28:40Z</time>
      </trkpt>
      <trkpt lat="47.84923" lon="6.4339">
        <ele>422.170013</ele>
        <time>2020-05-12T13:28:41Z</time>
      </trkpt>
      <trkpt lat="47.84921" lon="6.43394">
        <ele>422.26001</ele>
        <time>2020-05-12T13:28:42Z</time>
      </trkpt>
      <trkpt lat="47.84919" lon="6.43401">
        <ele>422.422485</ele>
        <time>2020-05-12T13:28:44Z</time>
      </trkpt>
      <trkpt lat="47.84918" lon="6.43404">
        <ele>422.507507</ele>
        <time>2020-05-12T13:28:45Z</time>
      </trkpt>
      <trkpt lat="47.84916" lon="6.4341">
        <ele>422.665009</ele>
        <time>2020-05-12T13:28:47Z</time>
      </trkpt>
      <trkpt lat="47.84915" lon="6.43416">
        <ele>422.804993</ele>
        <time>2020-05-12T13:28:48Z</time>
      </trkpt>
      <trkpt lat="47.84913" lon="6.43421">
        <ele>422.929993</ele>
        <time>2020-05-12T13:28:49Z</time>
      </trkpt>
      <trkpt lat="47.84911" lon="6.43427">
        <ele>423.082489</ele>
        <time>2020-05-12T13:28:51Z</time>
      </trkpt>
      <trkpt lat="47.84909" lon="6.43431">
        <ele>423.174988</ele>
        <time>2020-05-12T13:28:52Z</time>
      </trkpt>
      <trkpt lat="47.84907" lon="6.43435">
        <ele>423.237488</ele>
        <time>2020-05-12T13:28:53Z</time>
      </trkpt>
      <trkpt lat="47.84905" lon="6.43437">
        <ele>423.267487</ele>
        <time>2020-05-12T13:28:54Z</time>
      </trkpt>
      <trkpt lat="47.84902" lon="6.43443">
        <ele>423.387482</ele>
        <time>2020-05-12T13:28:56Z</time>
      </trkpt>
      <trkpt lat="47.849" lon="6.43449">
        <ele>423.527496</ele>
        <time>2020-05-12T13:28:58Z</time>
      </trkpt>
      <trkpt lat="47.849" lon="6.43454">
        <ele>423.695007</ele>
        <time>2020-05-12T13:29:00Z</time>
      </trkpt>
      <trkpt lat="47.849" lon="6.43459">
        <ele>423.82251</ele>
        <time>2020-05-12T13:29:02Z</time>
      </trkpt>
      <trkpt lat="47.849" lon="6.43459">
        <ele>423.829987</ele>
        <time>2020-05-12T13:29:04Z</time>
      </trkpt>
      <trkpt lat="47.849" lon="6.43459">
        <ele>423.829987</ele>
        <time>2020-05-12T13:29:05Z</time>
      </trkpt>
      <trkpt lat="47.849" lon="6.43459">
        <ele>423.834991</ele>
        <time>2020-05-12T13:29:06Z</time>
      </trkpt>
      <trkpt lat="47.849" lon="6.4346">
        <ele>423.875</ele>
        <time>2020-05-12T13:29:08Z</time>
      </trkpt>
      <trkpt lat="47.849" lon="6.4346">
        <ele>423.889984</ele>
        <time>2020-05-12T13:29:09Z</time>
      </trkpt>
      <trkpt lat="47.849" lon="6.43461">
        <ele>423.899994</ele>
        <time>2020-05-12T13:29:10Z</time>
      </trkpt>
      <trkpt lat="47.849" lon="6.43462">
        <ele>423.940002</ele>
        <time>2020-05-12T13:29:12Z</time>
      </trkpt>
      <trkpt lat="47.849" lon="6.43463">
        <ele>423.970001</ele>
        <time>2020-05-12T13:29:13Z</time>
      </trkpt>
      <trkpt lat="47.84899" lon="6.43477">
        <ele>424.347717</ele>
        <time>2020-05-12T13:29:14Z</time>
      </trkpt>
      <trkpt lat="47.84898" lon="6.43488">
        <ele>424.643005</ele>
        <time>2020-05-12T13:29:16Z</time>
      </trkpt>
      <trkpt lat="47.84898" lon="6.43492">
        <ele>424.72934</ele>
        <time>2020-05-12T13:29:17Z</time>
      </trkpt>
      <trkpt lat="47.84898" lon="6.43493">
        <ele>424.763763</ele>
        <time>2020-05-12T13:29:19Z</time>
      </trkpt>
      <trkpt lat="47.84898" lon="6.43493">
        <ele>424.757996</ele>
        <time>2020-05-12T13:29:20Z</time>
      </trkpt>
      <trkpt lat="47.84897" lon="6.43498">
        <ele>424.866821</ele>
        <time>2020-05-12T13:29:44Z</time>
      </trkpt>
      <trkpt lat="47.84896" lon="6.43499">
        <ele>424.91156</ele>
        <time>2020-05-12T13:29:46Z</time>
      </trkpt>
      <trkpt lat="47.84894" lon="6.43502">
        <ele>424.945435</ele>
        <time>2020-05-12T13:29:48Z</time>
      </trkpt>
      <trkpt lat="47.84892" lon="6.43505">
        <ele>425.012909</ele>
        <time>2020-05-12T13:29:49Z</time>
      </trkpt>
      <trkpt lat="47.84887" lon="6.43513">
        <ele>425.198059</ele>
        <time>2020-05-12T13:29:50Z</time>
      </trkpt>
      <trkpt lat="47.84883" lon="6.43515">
        <ele>425.219238</ele>
        <time>2020-05-12T13:29:52Z</time>
      </trkpt>
      <trkpt lat="47.84882" lon="6.43517">
        <ele>425.215546</ele>
        <time>2020-05-12T13:29:53Z</time>
      </trkpt>
      <trkpt lat="47.84879" lon="6.43524">
        <ele>425.312897</ele>
        <time>2020-05-12T13:29:54Z</time>
      </trkpt>
      <trkpt lat="47.84877" lon="6.43529">
        <ele>425.390198</ele>
        <time>2020-05-12T13:29:56Z</time>
      </trkpt>
      <trkpt lat="47.84874" lon="6.43537">
        <ele>425.474548</ele>
        <time>2020-05-12T13:29:57Z</time>
      </trkpt>
      <trkpt lat="47.84871" lon="6.43542">
        <ele>425.505005</ele>
        <time>2020-05-12T13:29:58Z</time>
      </trkpt>
      <trkpt lat="47.84869" lon="6.43547">
        <ele>425.480011</ele>
        <time>2020-05-12T13:29:59Z</time>
      </trkpt>
      <trkpt lat="47.84864" lon="6.43555">
        <ele>425.418762</ele>
        <time>2020-05-12T13:30:02Z</time>
      </trkpt>
      <trkpt lat="47.84862" lon="6.43561">
        <ele>425.401245</ele>
        <time>2020-05-12T13:30:03Z</time>
      </trkpt>
      <trkpt lat="47.84859" lon="6.43566">
        <ele>425.368744</ele>
        <time>2020-05-12T13:30:04Z</time>
      </trkpt>
      <trkpt lat="47.84858" lon="6.43569">
        <ele>425.350006</ele>
        <time>2020-05-12T13:30:06Z</time>
      </trkpt>
      <trkpt lat="47.84856" lon="6.43571">
        <ele>425.329987</ele>
        <time>2020-05-12T13:30:07Z</time>
      </trkpt>
      <trkpt lat="47.84855" lon="6.43574">
        <ele>425.316254</ele>
        <time>2020-05-12T13:30:09Z</time>
      </trkpt>
      <trkpt lat="47.84852" lon="6.43579">
        <ele>425.297485</ele>
        <time>2020-05-12T13:30:10Z</time>
      </trkpt>
      <trkpt lat="47.8485" lon="6.43582">
        <ele>425.27124</ele>
        <time>2020-05-12T13:30:11Z</time>
      </trkpt>
      <trkpt lat="47.84847" lon="6.43586">
        <ele>425.173767</ele>
        <time>2020-05-12T13:30:13Z</time>
      </trkpt>
      <trkpt lat="47.84843" lon="6.4359">
        <ele>425.077484</ele>
        <time>2020-05-12T13:30:14Z</time>
      </trkpt>
      <trkpt lat="47.8484" lon="6.43594">
        <ele>425.01001</ele>
        <time>2020-05-12T13:30:15Z</time>
      </trkpt>
      <trkpt lat="47.84837" lon="6.43597">
        <ele>424.950012</ele>
        <time>2020-05-12T13:30:16Z</time>
      </trkpt>
      <trkpt lat="47.84832" lon="6.43604">
        <ele>424.582001</ele>
        <time>2020-05-12T13:30:18Z</time>
      </trkpt>
      <trkpt lat="47.84813" lon="6.43618">
        <ele>422.858734</ele>
        <time>2020-05-12T13:30:20Z</time>
      </trkpt>
      <trkpt lat="47.84808" lon="6.43625">
        <ele>422.420563</ele>
        <time>2020-05-12T13:30:21Z</time>
      </trkpt>
      <trkpt lat="47.84795" lon="6.43646">
        <ele>421.39856</ele>
        <time>2020-05-12T13:30:22Z</time>
      </trkpt>
      <trkpt lat="47.84782" lon="6.43671">
        <ele>420.519806</ele>
        <time>2020-05-12T13:30:24Z</time>
      </trkpt>
      <trkpt lat="47.84777" lon="6.43681">
        <ele>420.306335</ele>
        <time>2020-05-12T13:30:25Z</time>
      </trkpt>
      <trkpt lat="47.84769" lon="6.43697">
        <ele>420.036804</ele>
        <time>2020-05-12T13:30:27Z</time>
      </trkpt>
      <trkpt lat="47.84761" lon="6.43712">
        <ele>419.809692</ele>
        <time>2020-05-12T13:30:29Z</time>
      </trkpt>
      <trkpt lat="47.84758" lon="6.4372">
        <ele>419.757782</ele>
        <time>2020-05-12T13:30:30Z</time>
      </trkpt>
      <trkpt lat="47.84752" lon="6.43735">
        <ele>419.884735</ele>
        <time>2020-05-12T13:30:32Z</time>
      </trkpt>
      <trkpt lat="47.84742" lon="6.43751">
        <ele>420.023285</ele>
        <time>2020-05-12T13:30:35Z</time>
      </trkpt>
      <trkpt lat="47.84736" lon="6.4376">
        <ele>420.154999</ele>
        <time>2020-05-12T13:30:37Z</time>
      </trkpt>
      <trkpt lat="47.8473" lon="6.4377">
        <ele>420.404999</ele>
        <time>2020-05-12T13:30:39Z</time>
      </trkpt>
      <trkpt lat="47.84728" lon="6.43774">
        <ele>420.486237</ele>
        <time>2020-05-12T13:30:41Z</time>
      </trkpt>
      <trkpt lat="47.84731" lon="6.43777">
        <ele>420.733765</ele>
        <time>2020-05-12T13:30:42Z</time>
      </trkpt>
      <trkpt lat="47.84726" lon="6.4378">
        <ele>420.673737</ele>
        <time>2020-05-12T13:30:43Z</time>
      </trkpt>
      <trkpt lat="47.84721" lon="6.43782">
        <ele>420.592499</ele>
        <time>2020-05-12T13:30:44Z</time>
      </trkpt>
      <trkpt lat="47.84716" lon="6.43786">
        <ele>420.551239</ele>
        <time>2020-05-12T13:30:46Z</time>
      </trkpt>
      <trkpt lat="47.84713" lon="6.4379">
        <ele>420.636261</ele>
        <time>2020-05-12T13:30:47Z</time>
      </trkpt>
      <trkpt lat="47.8471" lon="6.43794">
        <ele>420.672485</ele>
        <time>2020-05-12T13:30:48Z</time>
      </trkpt>
      <trkpt lat="47.84708" lon="6.43795">
        <ele>420.66391</ele>
        <time>2020-05-12T13:30:49Z</time>
      </trkpt>
      <trkpt lat="47.84708" lon="6.43796">
        <ele>420.657623</ele>
        <time>2020-05-12T13:30:50Z</time>
      </trkpt>
      <trkpt lat="47.84707" lon="6.43797">
        <ele>420.68161</ele>
        <time>2020-05-12T13:30:52Z</time>
      </trkpt>
      <trkpt lat="47.84708" lon="6.43801">
        <ele>420.890259</ele>
        <time>2020-05-12T13:30:53Z</time>
      </trkpt>
      <trkpt lat="47.84708" lon="6.43805">
        <ele>421.052246</ele>
        <time>2020-05-12T13:30:54Z</time>
      </trkpt>
      <trkpt lat="47.84708" lon="6.43807">
        <ele>421.13324</ele>
        <time>2020-05-12T13:30:56Z</time>
      </trkpt>
      <trkpt lat="47.84708" lon="6.43809">
        <ele>421.226471</ele>
        <time>2020-05-12T13:30:57Z</time>
      </trkpt>
      <trkpt lat="47.84708" lon="6.43811">
        <ele>421.307343</ele>
        <time>2020-05-12T13:30:58Z</time>
      </trkpt>
      <trkpt lat="47.84708" lon="6.43816">
        <ele>421.526062</ele>
        <time>2020-05-12T13:30:59Z</time>
      </trkpt>
      <trkpt lat="47.84709" lon="6.43818">
        <ele>421.607849</ele>
        <time>2020-05-12T13:31:00Z</time>
      </trkpt>
      <trkpt lat="47.84709" lon="6.43821">
        <ele>421.753387</ele>
        <time>2020-05-12T13:31:01Z</time>
      </trkpt>
      <trkpt lat="47.84711" lon="6.43827">
        <ele>422.06424</ele>
        <time>2020-05-12T13:31:03Z</time>
      </trkpt>
      <trkpt lat="47.84713" lon="6.4383">
        <ele>422.228516</ele>
        <time>2020-05-12T13:31:04Z</time>
      </trkpt>
      <trkpt lat="47.84713" lon="6.43832">
        <ele>422.308014</ele>
        <time>2020-05-12T13:31:05Z</time>
      </trkpt>
      <trkpt lat="47.84714" lon="6.43834">
        <ele>422.448517</ele>
        <time>2020-05-12T13:31:06Z</time>
      </trkpt>
      <trkpt lat="47.84715" lon="6.43838">
        <ele>422.637512</ele>
        <time>2020-05-12T13:31:08Z</time>
      </trkpt>
      <trkpt lat="47.84716" lon="6.43843">
        <ele>422.835083</ele>
        <time>2020-05-12T13:31:09Z</time>
      </trkpt>
      <trkpt lat="47.84717" lon="6.43846">
        <ele>422.977264</ele>
        <time>2020-05-12T13:31:10Z</time>
      </trkpt>
      <trkpt lat="47.84718" lon="6.43852">
        <ele>423.205841</ele>
        <time>2020-05-12T13:31:12Z</time>
      </trkpt>
      <trkpt lat="47.8472" lon="6.43859">
        <ele>423.520386</ele>
        <time>2020-05-12T13:31:13Z</time>
      </trkpt>
      <trkpt lat="47.8472" lon="6.43862">
        <ele>423.63501</ele>
        <time>2020-05-12T13:31:14Z</time>
      </trkpt>
      <trkpt lat="47.84721" lon="6.43867">
        <ele>423.777496</ele>
        <time>2020-05-12T13:31:16Z</time>
      </trkpt>
      <trkpt lat="47.84722" lon="6.43873">
        <ele>423.98999</ele>
        <time>2020-05-12T13:31:17Z</time>
      </trkpt>
      <trkpt lat="47.84722" lon="6.43878">
        <ele>424.174988</ele>
        <time>2020-05-12T13:31:18Z</time>
      </trkpt>
      <trkpt lat="47.84723" lon="6.4388">
        <ele>424.237488</ele>
        <time>2020-05-12T13:31:19Z</time>
      </trkpt>
      <trkpt lat="47.84723" lon="6.43885">
        <ele>424.389984</ele>
        <time>2020-05-12T13:31:21Z</time>
      </trkpt>
      <trkpt lat="47.84724" lon="6.43889">
        <ele>424.532501</ele>
        <time>2020-05-12T13:31:22Z</time>
      </trkpt>
      <trkpt lat="47.84725" lon="6.43895">
        <ele>424.747498</ele>
        <time>2020-05-12T13:31:23Z</time>
      </trkpt>
      <trkpt lat="47.84727" lon="6.43899">
        <ele>424.894989</ele>
        <time>2020-05-12T13:31:24Z</time>
      </trkpt>
      <trkpt lat="47.84728" lon="6.43902">
        <ele>425.024994</ele>
        <time>2020-05-12T13:31:25Z</time>
      </trkpt>
      <trkpt lat="47.8473" lon="6.4391">
        <ele>425.297485</ele>
        <time>2020-05-12T13:31:27Z</time>
      </trkpt>
      <trkpt lat="47.84731" lon="6.43915">
        <ele>425.467499</ele>
        <time>2020-05-12T13:31:29Z</time>
      </trkpt>
      <trkpt lat="47.84732" lon="6.43919">
        <ele>425.607513</ele>
        <time>2020-05-12T13:31:30Z</time>
      </trkpt>
      <trkpt lat="47.8473" lon="6.43924">
        <ele>425.722504</ele>
        <time>2020-05-12T13:31:31Z</time>
      </trkpt>
      <trkpt lat="47.84728" lon="6.43926">
        <ele>425.75</ele>
        <time>2020-05-12T13:31:32Z</time>
      </trkpt>
      <trkpt lat="47.84725" lon="6.43932">
        <ele>425.789063</ele>
        <time>2020-05-12T13:31:34Z</time>
      </trkpt>
      <trkpt lat="47.84724" lon="6.43937">
        <ele>425.791138</ele>
        <time>2020-05-12T13:31:35Z</time>
      </trkpt>
      <trkpt lat="47.84723" lon="6.4394">
        <ele>425.792511</ele>
        <time>2020-05-12T13:31:37Z</time>
      </trkpt>
      <trkpt lat="47.84722" lon="6.43945">
        <ele>425.793457</ele>
        <time>2020-05-12T13:31:38Z</time>
      </trkpt>
      <trkpt lat="47.84721" lon="6.43949">
        <ele>425.791656</ele>
        <time>2020-05-12T13:31:39Z</time>
      </trkpt>
      <trkpt lat="47.84719" lon="6.43953">
        <ele>425.787567</ele>
        <time>2020-05-12T13:31:41Z</time>
      </trkpt>
      <trkpt lat="47.84718" lon="6.43954">
        <ele>425.787384</ele>
        <time>2020-05-12T13:31:42Z</time>
      </trkpt>
      <trkpt lat="47.84716" lon="6.43959">
        <ele>425.790161</ele>
        <time>2020-05-12T13:31:44Z</time>
      </trkpt>
      <trkpt lat="47.84715" lon="6.43962">
        <ele>425.791565</ele>
        <time>2020-05-12T13:31:45Z</time>
      </trkpt>
      <trkpt lat="47.84712" lon="6.43967">
        <ele>425.798401</ele>
        <time>2020-05-12T13:31:47Z</time>
      </trkpt>
      <trkpt lat="47.8471" lon="6.43972">
        <ele>425.818207</ele>
        <time>2020-05-12T13:31:49Z</time>
      </trkpt>
      <trkpt lat="47.84708" lon="6.43975">
        <ele>425.831207</ele>
        <time>2020-05-12T13:31:50Z</time>
      </trkpt>
      <trkpt lat="47.84706" lon="6.43978">
        <ele>425.848267</ele>
        <time>2020-05-12T13:31:51Z</time>
      </trkpt>
      <trkpt lat="47.84704" lon="6.43982">
        <ele>425.875671</ele>
        <time>2020-05-12T13:31:52Z</time>
      </trkpt>
      <trkpt lat="47.84701" lon="6.43988">
        <ele>425.929993</ele>
        <time>2020-05-12T13:31:54Z</time>
      </trkpt>
      <trkpt lat="47.84699" lon="6.43992">
        <ele>425.973358</ele>
        <time>2020-05-12T13:31:55Z</time>
      </trkpt>
      <trkpt lat="47.84698" lon="6.43993">
        <ele>425.992432</ele>
        <time>2020-05-12T13:31:56Z</time>
      </trkpt>
      <trkpt lat="47.84697" lon="6.43998">
        <ele>425.987915</ele>
        <time>2020-05-12T13:31:58Z</time>
      </trkpt>
      <trkpt lat="47.84697" lon="6.44001">
        <ele>425.976715</ele>
        <time>2020-05-12T13:31:59Z</time>
      </trkpt>
      <trkpt lat="47.84697" lon="6.44005">
        <ele>425.961182</ele>
        <time>2020-05-12T13:32:01Z</time>
      </trkpt>
      <trkpt lat="47.84697" lon="6.44009">
        <ele>425.950012</ele>
        <time>2020-05-12T13:32:02Z</time>
      </trkpt>
      <trkpt lat="47.84695" lon="6.44017">
        <ele>425.936646</ele>
        <time>2020-05-12T13:32:03Z</time>
      </trkpt>
      <trkpt lat="47.84694" lon="6.44023">
        <ele>425.922363</ele>
        <time>2020-05-12T13:32:05Z</time>
      </trkpt>
      <trkpt lat="47.84694" lon="6.44025">
        <ele>425.915863</ele>
        <time>2020-05-12T13:32:06Z</time>
      </trkpt>
      <trkpt lat="47.84693" lon="6.44032">
        <ele>425.908386</ele>
        <time>2020-05-12T13:32:08Z</time>
      </trkpt>
      <trkpt lat="47.84693" lon="6.44034">
        <ele>425.908325</ele>
        <time>2020-05-12T13:32:09Z</time>
      </trkpt>
      <trkpt lat="47.84692" lon="6.44037">
        <ele>425.912598</ele>
        <time>2020-05-12T13:32:10Z</time>
      </trkpt>
      <trkpt lat="47.84691" lon="6.44041">
        <ele>425.91391</ele>
        <time>2020-05-12T13:32:11Z</time>
      </trkpt>
      <trkpt lat="47.84691" lon="6.44043">
        <ele>425.918732</ele>
        <time>2020-05-12T13:32:12Z</time>
      </trkpt>
      <trkpt lat="47.84689" lon="6.44048">
        <ele>425.930939</ele>
        <time>2020-05-12T13:32:14Z</time>
      </trkpt>
      <trkpt lat="47.84688" lon="6.44051">
        <ele>425.947937</ele>
        <time>2020-05-12T13:32:15Z</time>
      </trkpt>
      <trkpt lat="47.84686" lon="6.44056">
        <ele>425.981171</ele>
        <time>2020-05-12T13:32:17Z</time>
      </trkpt>
      <trkpt lat="47.84684" lon="6.44062">
        <ele>425.971252</ele>
        <time>2020-05-12T13:32:18Z</time>
      </trkpt>
      <trkpt lat="47.84683" lon="6.44064">
        <ele>425.932495</ele>
        <time>2020-05-12T13:32:19Z</time>
      </trkpt>
      <trkpt lat="47.84682" lon="6.4407">
        <ele>425.852509</ele>
        <time>2020-05-12T13:32:21Z</time>
      </trkpt>
      <trkpt lat="47.84681" lon="6.44074">
        <ele>425.785004</ele>
        <time>2020-05-12T13:32:22Z</time>
      </trkpt>
      <trkpt lat="47.8468" lon="6.44077">
        <ele>425.732513</ele>
        <time>2020-05-12T13:32:23Z</time>
      </trkpt>
      <trkpt lat="47.8468" lon="6.44083">
        <ele>425.651245</ele>
        <time>2020-05-12T13:32:25Z</time>
      </trkpt>
      <trkpt lat="47.84679" lon="6.44087">
        <ele>425.591248</ele>
        <time>2020-05-12T13:32:26Z</time>
      </trkpt>
      <trkpt lat="47.84678" lon="6.44092">
        <ele>425.518738</ele>
        <time>2020-05-12T13:32:28Z</time>
      </trkpt>
      <trkpt lat="47.84677" lon="6.44096">
        <ele>425.446259</ele>
        <time>2020-05-12T13:32:29Z</time>
      </trkpt>
      <trkpt lat="47.84675" lon="6.44102">
        <ele>425.352509</ele>
        <time>2020-05-12T13:32:31Z</time>
      </trkpt>
      <trkpt lat="47.84674" lon="6.44107">
        <ele>425.283752</ele>
        <time>2020-05-12T13:32:32Z</time>
      </trkpt>
      <trkpt lat="47.84672" lon="6.44113">
        <ele>425.192505</ele>
        <time>2020-05-12T13:32:33Z</time>
      </trkpt>
      <trkpt lat="47.84671" lon="6.44117">
        <ele>425.127502</ele>
        <time>2020-05-12T13:32:34Z</time>
      </trkpt>
      <trkpt lat="47.84669" lon="6.44122">
        <ele>425.048737</ele>
        <time>2020-05-12T13:32:35Z</time>
      </trkpt>
      <trkpt lat="47.84668" lon="6.44128">
        <ele>424.875</ele>
        <time>2020-05-12T13:32:36Z</time>
      </trkpt>
      <trkpt lat="47.84667" lon="6.44132">
        <ele>424.575012</ele>
        <time>2020-05-12T13:32:38Z</time>
      </trkpt>
      <trkpt lat="47.84665" lon="6.44139">
        <ele>424.170013</ele>
        <time>2020-05-12T13:32:39Z</time>
      </trkpt>
      <trkpt lat="47.84664" lon="6.44145">
        <ele>423.839996</ele>
        <time>2020-05-12T13:32:40Z</time>
      </trkpt>
      <trkpt lat="47.84664" lon="6.44149">
        <ele>423.554993</ele>
        <time>2020-05-12T13:32:41Z</time>
      </trkpt>
      <trkpt lat="47.84664" lon="6.44155">
        <ele>423.23999</ele>
        <time>2020-05-12T13:32:42Z</time>
      </trkpt>
      <trkpt lat="47.84663" lon="6.44162">
        <ele>422.774994</ele>
        <time>2020-05-12T13:32:44Z</time>
      </trkpt>
      <trkpt lat="47.84661" lon="6.44168">
        <ele>422.424988</ele>
        <time>2020-05-12T13:32:46Z</time>
      </trkpt>
      <trkpt lat="47.8466" lon="6.44172">
        <ele>422.184998</ele>
        <time>2020-05-12T13:32:47Z</time>
      </trkpt>
      <trkpt lat="47.84657" lon="6.44178">
        <ele>421.820007</ele>
        <time>2020-05-12T13:32:49Z</time>
      </trkpt>
      <trkpt lat="47.84656" lon="6.44182">
        <ele>421.570007</ele>
        <time>2020-05-12T13:32:50Z</time>
      </trkpt>
      <trkpt lat="47.84654" lon="6.44185">
        <ele>421.36499</ele>
        <time>2020-05-12T13:32:51Z</time>
      </trkpt>
      <trkpt lat="47.84652" lon="6.4419">
        <ele>421.070007</ele>
        <time>2020-05-12T13:32:53Z</time>
      </trkpt>
      <trkpt lat="47.8465" lon="6.44196">
        <ele>420.367218</ele>
        <time>2020-05-12T13:32:54Z</time>
      </trkpt>
      <trkpt lat="47.84649" lon="6.44202">
        <ele>419.768799</ele>
        <time>2020-05-12T13:32:56Z</time>
      </trkpt>
      <trkpt lat="47.84647" lon="6.44205">
        <ele>419.328369</ele>
        <time>2020-05-12T13:32:57Z</time>
      </trkpt>
      <trkpt lat="47.84644" lon="6.44208">
        <ele>418.927246</ele>
        <time>2020-05-12T13:32:58Z</time>
      </trkpt>
      <trkpt lat="47.84641" lon="6.44213">
        <ele>418.358765</ele>
        <time>2020-05-12T13:33:00Z</time>
      </trkpt>
      <trkpt lat="47.84639" lon="6.44218">
        <ele>417.760986</ele>
        <time>2020-05-12T13:33:02Z</time>
      </trkpt>
      <trkpt lat="47.84638" lon="6.44219">
        <ele>417.522888</ele>
        <time>2020-05-12T13:33:03Z</time>
      </trkpt>
      <trkpt lat="47.84637" lon="6.44221">
        <ele>417.305573</ele>
        <time>2020-05-12T13:33:05Z</time>
      </trkpt>
      <trkpt lat="47.84637" lon="6.44222">
        <ele>417.18399</ele>
        <time>2020-05-12T13:33:06Z</time>
      </trkpt>
      <trkpt lat="47.84637" lon="6.44223">
        <ele>417.015045</ele>
        <time>2020-05-12T13:33:08Z</time>
      </trkpt>
      <trkpt lat="47.84637" lon="6.44224">
        <ele>416.925629</ele>
        <time>2020-05-12T13:33:09Z</time>
      </trkpt>
      <trkpt lat="47.84637" lon="6.44225">
        <ele>416.848755</ele>
        <time>2020-05-12T13:33:10Z</time>
      </trkpt>
      <trkpt lat="47.84637" lon="6.44226">
        <ele>416.702484</ele>
        <time>2020-05-12T13:33:12Z</time>
      </trkpt>
      <trkpt lat="47.84637" lon="6.44227">
        <ele>416.613129</ele>
        <time>2020-05-12T13:33:13Z</time>
      </trkpt>
      <trkpt lat="47.84637" lon="6.44227">
        <ele>416.561981</ele>
        <time>2020-05-12T13:33:14Z</time>
      </trkpt>
      <trkpt lat="47.84638" lon="6.44228">
        <ele>416.50824</ele>
        <time>2020-05-12T13:33:15Z</time>
      </trkpt>
      <trkpt lat="47.84639" lon="6.44229">
        <ele>416.374481</ele>
        <time>2020-05-12T13:33:17Z</time>
      </trkpt>
      <trkpt lat="47.8464" lon="6.4423">
        <ele>416.283997</ele>
        <time>2020-05-12T13:33:18Z</time>
      </trkpt>
      <trkpt lat="47.84642" lon="6.44231">
        <ele>416.20047</ele>
        <time>2020-05-12T13:33:19Z</time>
      </trkpt>
      <trkpt lat="47.84644" lon="6.44233">
        <ele>416.043427</ele>
        <time>2020-05-12T13:33:20Z</time>
      </trkpt>
      <trkpt lat="47.84645" lon="6.44235">
        <ele>415.820526</ele>
        <time>2020-05-12T13:33:22Z</time>
      </trkpt>
      <trkpt lat="47.84648" lon="6.44239">
        <ele>415.415131</ele>
        <time>2020-05-12T13:33:23Z</time>
      </trkpt>
      <trkpt lat="47.84648" lon="6.44241">
        <ele>415.220795</ele>
        <time>2020-05-12T13:33:24Z</time>
      </trkpt>
      <trkpt lat="47.84649" lon="6.44245">
        <ele>414.788452</ele>
        <time>2020-05-12T13:33:26Z</time>
      </trkpt>
      <trkpt lat="47.8465" lon="6.44247">
        <ele>414.624786</ele>
        <time>2020-05-12T13:33:27Z</time>
      </trkpt>
      <trkpt lat="47.84651" lon="6.44251">
        <ele>414.227112</ele>
        <time>2020-05-12T13:33:28Z</time>
      </trkpt>
      <trkpt lat="47.84651" lon="6.44258">
        <ele>413.38501</ele>
        <time>2020-05-12T13:33:30Z</time>
      </trkpt>
      <trkpt lat="47.84652" lon="6.44263">
        <ele>412.964996</ele>
        <time>2020-05-12T13:33:31Z</time>
      </trkpt>
      <trkpt lat="47.84652" lon="6.4427">
        <ele>412.399994</ele>
        <time>2020-05-12T13:33:33Z</time>
      </trkpt>
      <trkpt lat="47.84653" lon="6.44273">
        <ele>412.109985</ele>
        <time>2020-05-12T13:33:34Z</time>
      </trkpt>
      <trkpt lat="47.84654" lon="6.44277">
        <ele>411.797485</ele>
        <time>2020-05-12T13:33:36Z</time>
      </trkpt>
      <trkpt lat="47.84657" lon="6.44281">
        <ele>411.477509</ele>
        <time>2020-05-12T13:33:37Z</time>
      </trkpt>
      <trkpt lat="47.84658" lon="6.44282">
        <ele>411.407501</ele>
        <time>2020-05-12T13:33:38Z</time>
      </trkpt>
      <trkpt lat="47.8466" lon="6.44285">
        <ele>411.292511</ele>
        <time>2020-05-12T13:33:40Z</time>
      </trkpt>
      <trkpt lat="47.84663" lon="6.44287">
        <ele>411.127502</ele>
        <time>2020-05-12T13:33:41Z</time>
      </trkpt>
      <trkpt lat="47.84666" lon="6.44289">
        <ele>411.014984</ele>
        <time>2020-05-12T13:33:42Z</time>
      </trkpt>
      <trkpt lat="47.84669" lon="6.44291">
        <ele>411.032501</ele>
        <time>2020-05-12T13:33:43Z</time>
      </trkpt>
      <trkpt lat="47.84675" lon="6.44291">
        <ele>411.127502</ele>
        <time>2020-05-12T13:33:44Z</time>
      </trkpt>
      <trkpt lat="47.84677" lon="6.44293">
        <ele>411.012512</ele>
        <time>2020-05-12T13:33:45Z</time>
      </trkpt>
      <trkpt lat="47.84679" lon="6.44295">
        <ele>410.879272</ele>
        <time>2020-05-12T13:33:47Z</time>
      </trkpt>
      <trkpt lat="47.84682" lon="6.44296">
        <ele>410.713196</ele>
        <time>2020-05-12T13:33:48Z</time>
      </trkpt>
      <trkpt lat="47.84684" lon="6.44297">
        <ele>410.609253</ele>
        <time>2020-05-12T13:33:49Z</time>
      </trkpt>
      <trkpt lat="47.84687" lon="6.44298">
        <ele>410.532349</ele>
        <time>2020-05-12T13:33:51Z</time>
      </trkpt>
      <trkpt lat="47.8469" lon="6.44298">
        <ele>410.53775</ele>
        <time>2020-05-12T13:33:52Z</time>
      </trkpt>
      <trkpt lat="47.84691" lon="6.44298">
        <ele>410.544983</ele>
        <time>2020-05-12T13:33:53Z</time>
      </trkpt>
      <trkpt lat="47.84696" lon="6.44297">
        <ele>410.584076</ele>
        <time>2020-05-12T13:33:55Z</time>
      </trkpt>
      <trkpt lat="47.84698" lon="6.44297">
        <ele>410.589722</ele>
        <time>2020-05-12T13:33:56Z</time>
      </trkpt>
      <trkpt lat="47.847" lon="6.44297">
        <ele>410.593292</ele>
        <time>2020-05-12T13:33:58Z</time>
      </trkpt>
      <trkpt lat="47.84703" lon="6.44297">
        <ele>410.581451</ele>
        <time>2020-05-12T13:33:59Z</time>
      </trkpt>
      <trkpt lat="47.84704" lon="6.44297">
        <ele>410.579315</ele>
        <time>2020-05-12T13:34:00Z</time>
      </trkpt>
      <trkpt lat="47.84707" lon="6.44297">
        <ele>410.551453</ele>
        <time>2020-05-12T13:34:02Z</time>
      </trkpt>
      <trkpt lat="47.84711" lon="6.44297">
        <ele>410.549072</ele>
        <time>2020-05-12T13:34:03Z</time>
      </trkpt>
      <trkpt lat="47.84716" lon="6.44296">
        <ele>410.558929</ele>
        <time>2020-05-12T13:34:04Z</time>
      </trkpt>
      <trkpt lat="47.84719" lon="6.44296">
        <ele>410.572113</ele>
        <time>2020-05-12T13:34:05Z</time>
      </trkpt>
      <trkpt lat="47.84722" lon="6.44296">
        <ele>410.553802</ele>
        <time>2020-05-12T13:34:06Z</time>
      </trkpt>
      <trkpt lat="47.84723" lon="6.44296">
        <ele>410.567871</ele>
        <time>2020-05-12T13:34:07Z</time>
      </trkpt>
      <trkpt lat="47.84727" lon="6.44295">
        <ele>410.524719</ele>
        <time>2020-05-12T13:34:09Z</time>
      </trkpt>
      <trkpt lat="47.84729" lon="6.44295">
        <ele>410.525238</ele>
        <time>2020-05-12T13:34:10Z</time>
      </trkpt>
      <trkpt lat="47.84732" lon="6.44294">
        <ele>410.565308</ele>
        <time>2020-05-12T13:34:11Z</time>
      </trkpt>
      <trkpt lat="47.84732" lon="6.44294">
        <ele>410.579773</ele>
        <time>2020-05-12T13:34:12Z</time>
      </trkpt>
      <trkpt lat="47.84737" lon="6.44292">
        <ele>410.683014</ele>
        <time>2020-05-12T13:34:14Z</time>
      </trkpt>
      <trkpt lat="47.84739" lon="6.44291">
        <ele>410.776398</ele>
        <time>2020-05-12T13:34:15Z</time>
      </trkpt>
      <trkpt lat="47.84742" lon="6.44289">
        <ele>410.930634</ele>
        <time>2020-05-12T13:34:16Z</time>
      </trkpt>
      <trkpt lat="47.84743" lon="6.44288">
        <ele>410.999542</ele>
        <time>2020-05-12T13:34:17Z</time>
      </trkpt>
      <trkpt lat="47.84747" lon="6.44285">
        <ele>411.276398</ele>
        <time>2020-05-12T13:34:19Z</time>
      </trkpt>
      <trkpt lat="47.8475" lon="6.44281">
        <ele>411.652588</ele>
        <time>2020-05-12T13:34:20Z</time>
      </trkpt>
      <trkpt lat="47.84755" lon="6.44274">
        <ele>412.401855</ele>
        <time>2020-05-12T13:34:21Z</time>
      </trkpt>
      <trkpt lat="47.84759" lon="6.44268">
        <ele>412.980896</ele>
        <time>2020-05-12T13:34:22Z</time>
      </trkpt>
      <trkpt lat="47.84765" lon="6.44259">
        <ele>413.559387</ele>
        <time>2020-05-12T13:34:24Z</time>
      </trkpt>
      <trkpt lat="47.84771" lon="6.4425">
        <ele>413.852325</ele>
        <time>2020-05-12T13:34:26Z</time>
      </trkpt>
      <trkpt lat="47.84776" lon="6.44245">
        <ele>413.842285</ele>
        <time>2020-05-12T13:34:27Z</time>
      </trkpt>
      <trkpt lat="47.84781" lon="6.4424">
        <ele>413.739502</ele>
        <time>2020-05-12T13:34:28Z</time>
      </trkpt>
      <trkpt lat="47.84786" lon="6.44235">
        <ele>413.691376</ele>
        <time>2020-05-12T13:34:29Z</time>
      </trkpt>
      <trkpt lat="47.84797" lon="6.44225">
        <ele>413.410248</ele>
        <time>2020-05-12T13:34:31Z</time>
      </trkpt>
      <trkpt lat="47.84806" lon="6.4422">
        <ele>412.962494</ele>
        <time>2020-05-12T13:34:32Z</time>
      </trkpt>
      <trkpt lat="47.84821" lon="6.44212">
        <ele>411.676819</ele>
        <time>2020-05-12T13:34:34Z</time>
      </trkpt>
      <trkpt lat="47.8483" lon="6.44209">
        <ele>410.49176</ele>
        <time>2020-05-12T13:34:35Z</time>
      </trkpt>
      <trkpt lat="47.84851" lon="6.44205">
        <ele>407.472504</ele>
        <time>2020-05-12T13:34:37Z</time>
      </trkpt>
      <trkpt lat="47.84861" lon="6.44202">
        <ele>406.05423</ele>
        <time>2020-05-12T13:34:38Z</time>
      </trkpt>
      <trkpt lat="47.8487" lon="6.44202">
        <ele>404.960175</ele>
        <time>2020-05-12T13:34:39Z</time>
      </trkpt>
      <trkpt lat="47.8488" lon="6.44205">
        <ele>403.529999</ele>
        <time>2020-05-12T13:34:41Z</time>
      </trkpt>
      <trkpt lat="47.84886" lon="6.44208">
        <ele>402.611145</ele>
        <time>2020-05-12T13:34:42Z</time>
      </trkpt>
      <trkpt lat="47.84893" lon="6.44218">
        <ele>401.210663</ele>
        <time>2020-05-12T13:34:44Z</time>
      </trkpt>
      <trkpt lat="47.84896" lon="6.44227">
        <ele>400.350311</ele>
        <time>2020-05-12T13:34:46Z</time>
      </trkpt>
      <trkpt lat="47.84898" lon="6.44236">
        <ele>399.770813</ele>
        <time>2020-05-12T13:34:47Z</time>
      </trkpt>
      <trkpt lat="47.84898" lon="6.44246">
        <ele>399.168152</ele>
        <time>2020-05-12T13:34:48Z</time>
      </trkpt>
      <trkpt lat="47.84901" lon="6.44253">
        <ele>398.411987</ele>
        <time>2020-05-12T13:34:49Z</time>
      </trkpt>
      <trkpt lat="47.84905" lon="6.44258">
        <ele>398.284424</ele>
        <time>2020-05-12T13:34:50Z</time>
      </trkpt>
      <trkpt lat="47.84911" lon="6.44264">
        <ele>399.369568</ele>
        <time>2020-05-12T13:34:52Z</time>
      </trkpt>
      <trkpt lat="47.84916" lon="6.44269">
        <ele>400.118591</ele>
        <time>2020-05-12T13:34:53Z</time>
      </trkpt>
      <trkpt lat="47.84919" lon="6.44273">
        <ele>400.702362</ele>
        <time>2020-05-12T13:34:54Z</time>
      </trkpt>
      <trkpt lat="47.84921" lon="6.4428">
        <ele>401.051514</ele>
        <time>2020-05-12T13:34:55Z</time>
      </trkpt>
      <trkpt lat="47.84921" lon="6.44284">
        <ele>401.025177</ele>
        <time>2020-05-12T13:34:57Z</time>
      </trkpt>
      <trkpt lat="47.84921" lon="6.4429">
        <ele>400.803772</ele>
        <time>2020-05-12T13:34:58Z</time>
      </trkpt>
      <trkpt lat="47.84921" lon="6.44294">
        <ele>400.647095</ele>
        <time>2020-05-12T13:34:59Z</time>
      </trkpt>
      <trkpt lat="47.84921" lon="6.443">
        <ele>400.371185</ele>
        <time>2020-05-12T13:35:01Z</time>
      </trkpt>
      <trkpt lat="47.84921" lon="6.44306">
        <ele>400.216003</ele>
        <time>2020-05-12T13:35:02Z</time>
      </trkpt>
      <trkpt lat="47.84921" lon="6.44313">
        <ele>399.985657</ele>
        <time>2020-05-12T13:35:03Z</time>
      </trkpt>
      <trkpt lat="47.84921" lon="6.44317">
        <ele>399.820587</ele>
        <time>2020-05-12T13:35:04Z</time>
      </trkpt>
      <trkpt lat="47.84921" lon="6.44328">
        <ele>399.423492</ele>
        <time>2020-05-12T13:35:06Z</time>
      </trkpt>
      <trkpt lat="47.8492" lon="6.44335">
        <ele>399.096313</ele>
        <time>2020-05-12T13:35:07Z</time>
      </trkpt>
      <trkpt lat="47.84921" lon="6.44336">
        <ele>399.171417</ele>
        <time>2020-05-12T13:35:08Z</time>
      </trkpt>
      <trkpt lat="47.84921" lon="6.44341">
        <ele>399.179779</ele>
        <time>2020-05-12T13:35:10Z</time>
      </trkpt>
      <trkpt lat="47.84922" lon="6.44348">
        <ele>399.109009</ele>
        <time>2020-05-12T13:35:11Z</time>
      </trkpt>
      <trkpt lat="47.84925" lon="6.44367">
        <ele>398.693115</ele>
        <time>2020-05-12T13:35:12Z</time>
      </trkpt>
      <trkpt lat="47.84928" lon="6.44385">
        <ele>398.023865</ele>
        <time>2020-05-12T13:35:14Z</time>
      </trkpt>
      <trkpt lat="47.84929" lon="6.44396">
        <ele>397.804169</ele>
        <time>2020-05-12T13:35:16Z</time>
      </trkpt>
      <trkpt lat="47.84932" lon="6.44405">
        <ele>398.10556</ele>
        <time>2020-05-12T13:35:17Z</time>
      </trkpt>
      <trkpt lat="47.84936" lon="6.44415">
        <ele>398.445313</ele>
        <time>2020-05-12T13:35:19Z</time>
      </trkpt>
      <trkpt lat="47.84938" lon="6.44421">
        <ele>398.444397</ele>
        <time>2020-05-12T13:35:20Z</time>
      </trkpt>
      <trkpt lat="47.84941" lon="6.44428">
        <ele>398.699585</ele>
        <time>2020-05-12T13:35:22Z</time>
      </trkpt>
      <trkpt lat="47.84944" lon="6.44433">
        <ele>398.707703</ele>
        <time>2020-05-12T13:35:23Z</time>
      </trkpt>
      <trkpt lat="47.84947" lon="6.44437">
        <ele>398.884705</ele>
        <time>2020-05-12T13:35:24Z</time>
      </trkpt>
      <trkpt lat="47.8495" lon="6.4444">
        <ele>399.196869</ele>
        <time>2020-05-12T13:35:25Z</time>
      </trkpt>
      <trkpt lat="47.84952" lon="6.44442">
        <ele>399.475677</ele>
        <time>2020-05-12T13:35:26Z</time>
      </trkpt>
      <trkpt lat="47.84955" lon="6.44444">
        <ele>399.974091</ele>
        <time>2020-05-12T13:35:28Z</time>
      </trkpt>
      <trkpt lat="47.84958" lon="6.44446">
        <ele>400.439911</ele>
        <time>2020-05-12T13:35:29Z</time>
      </trkpt>
      <trkpt lat="47.84961" lon="6.44449">
        <ele>400.988556</ele>
        <time>2020-05-12T13:35:30Z</time>
      </trkpt>
      <trkpt lat="47.84962" lon="6.4445">
        <ele>401.146149</ele>
        <time>2020-05-12T13:35:31Z</time>
      </trkpt>
      <trkpt lat="47.84965" lon="6.44453">
        <ele>401.632446</ele>
        <time>2020-05-12T13:35:33Z</time>
      </trkpt>
      <trkpt lat="47.84968" lon="6.44456">
        <ele>402.172241</ele>
        <time>2020-05-12T13:35:34Z</time>
      </trkpt>
      <trkpt lat="47.84971" lon="6.44458">
        <ele>402.538177</ele>
        <time>2020-05-12T13:35:35Z</time>
      </trkpt>
      <trkpt lat="47.84975" lon="6.44462">
        <ele>403.280518</ele>
        <time>2020-05-12T13:35:37Z</time>
      </trkpt>
      <trkpt lat="47.84978" lon="6.44465">
        <ele>403.832001</ele>
        <time>2020-05-12T13:35:38Z</time>
      </trkpt>
      <trkpt lat="47.84982" lon="6.44469">
        <ele>404.538452</ele>
        <time>2020-05-12T13:35:40Z</time>
      </trkpt>
      <trkpt lat="47.84985" lon="6.44471">
        <ele>405.143188</ele>
        <time>2020-05-12T13:35:41Z</time>
      </trkpt>
      <trkpt lat="47.84989" lon="6.44475">
        <ele>405.443756</ele>
        <time>2020-05-12T13:35:42Z</time>
      </trkpt>
      <trkpt lat="47.84991" lon="6.44479">
        <ele>405.566254</ele>
        <time>2020-05-12T13:35:44Z</time>
      </trkpt>
      <trkpt lat="47.84995" lon="6.44482">
        <ele>405.758759</ele>
        <time>2020-05-12T13:35:45Z</time>
      </trkpt>
      <trkpt lat="47.84997" lon="6.44485">
        <ele>405.959991</ele>
        <time>2020-05-12T13:35:46Z</time>
      </trkpt>
      <trkpt lat="47.85008" lon="6.445">
        <ele>405.203217</ele>
        <time>2020-05-12T13:35:47Z</time>
      </trkpt>
      <trkpt lat="47.85015" lon="6.44509">
        <ele>404.756744</ele>
        <time>2020-05-12T13:35:49Z</time>
      </trkpt>
      <trkpt lat="47.85023" lon="6.44514">
        <ele>404.956543</ele>
        <time>2020-05-12T13:35:50Z</time>
      </trkpt>
      <trkpt lat="47.85028" lon="6.44516">
        <ele>405.213806</ele>
        <time>2020-05-12T13:35:51Z</time>
      </trkpt>
      <trkpt lat="47.85033" lon="6.4452">
        <ele>404.808746</ele>
        <time>2020-05-12T13:35:53Z</time>
      </trkpt>
      <trkpt lat="47.85038" lon="6.44522">
        <ele>404.467499</ele>
        <time>2020-05-12T13:35:54Z</time>
      </trkpt>
      <trkpt lat="47.85042" lon="6.44523">
        <ele>404.369995</ele>
        <time>2020-05-12T13:35:55Z</time>
      </trkpt>
      <trkpt lat="47.85045" lon="6.44524">
        <ele>404.272491</ele>
        <time>2020-05-12T13:35:56Z</time>
      </trkpt>
      <trkpt lat="47.85048" lon="6.44527">
        <ele>403.606262</ele>
        <time>2020-05-12T13:35:57Z</time>
      </trkpt>
      <trkpt lat="47.85051" lon="6.44531">
        <ele>402.988739</ele>
        <time>2020-05-12T13:35:58Z</time>
      </trkpt>
      <trkpt lat="47.85053" lon="6.44533">
        <ele>402.533752</ele>
        <time>2020-05-12T13:36:00Z</time>
      </trkpt>
      <trkpt lat="47.85055" lon="6.44536">
        <ele>402.046265</ele>
        <time>2020-05-12T13:36:01Z</time>
      </trkpt>
      <trkpt lat="47.85057" lon="6.44538">
        <ele>401.737488</ele>
        <time>2020-05-12T13:36:02Z</time>
      </trkpt>
      <trkpt lat="47.85059" lon="6.4454">
        <ele>401.39624</ele>
        <time>2020-05-12T13:36:04Z</time>
      </trkpt>
      <trkpt lat="47.85061" lon="6.44541">
        <ele>401.168762</ele>
        <time>2020-05-12T13:36:05Z</time>
      </trkpt>
      <trkpt lat="47.85063" lon="6.44543">
        <ele>400.876251</ele>
        <time>2020-05-12T13:36:07Z</time>
      </trkpt>
      <trkpt lat="47.85065" lon="6.44544">
        <ele>400.600006</ele>
        <time>2020-05-12T13:36:08Z</time>
      </trkpt>
      <trkpt lat="47.85067" lon="6.44546">
        <ele>400.323761</ele>
        <time>2020-05-12T13:36:10Z</time>
      </trkpt>
      <trkpt lat="47.85068" lon="6.44547">
        <ele>400.079987</ele>
        <time>2020-05-12T13:36:11Z</time>
      </trkpt>
      <trkpt lat="47.85071" lon="6.4455">
        <ele>399.608765</ele>
        <time>2020-05-12T13:36:13Z</time>
      </trkpt>
      <trkpt lat="47.85073" lon="6.44553">
        <ele>399.105011</ele>
        <time>2020-05-12T13:36:15Z</time>
      </trkpt>
      <trkpt lat="47.85074" lon="6.44553">
        <ele>398.981232</ele>
        <time>2020-05-12T13:36:16Z</time>
      </trkpt>
      <trkpt lat="47.85075" lon="6.44555">
        <ele>398.670013</ele>
        <time>2020-05-12T13:36:17Z</time>
      </trkpt>
      <trkpt lat="47.85076" lon="6.44556">
        <ele>398.471252</ele>
        <time>2020-05-12T13:36:18Z</time>
      </trkpt>
      <trkpt lat="47.85077" lon="6.44557">
        <ele>398.20874</ele>
        <time>2020-05-12T13:36:20Z</time>
      </trkpt>
      <trkpt lat="47.85079" lon="6.44558">
        <ele>397.97876</ele>
        <time>2020-05-12T13:36:21Z</time>
      </trkpt>
      <trkpt lat="47.8508" lon="6.44559">
        <ele>397.751953</ele>
        <time>2020-05-12T13:36:22Z</time>
      </trkpt>
      <trkpt lat="47.85082" lon="6.4456">
        <ele>397.583008</ele>
        <time>2020-05-12T13:36:23Z</time>
      </trkpt>
      <trkpt lat="47.85085" lon="6.44562">
        <ele>397.298889</ele>
        <time>2020-05-12T13:36:25Z</time>
      </trkpt>
      <trkpt lat="47.85086" lon="6.44562">
        <ele>397.220398</ele>
        <time>2020-05-12T13:36:26Z</time>
      </trkpt>
      <trkpt lat="47.85089" lon="6.44563">
        <ele>397.016418</ele>
        <time>2020-05-12T13:36:28Z</time>
      </trkpt>
      <trkpt lat="47.8509" lon="6.44563">
        <ele>396.96994</ele>
        <time>2020-05-12T13:36:29Z</time>
      </trkpt>
      <trkpt lat="47.85093" lon="6.44564">
        <ele>396.813751</ele>
        <time>2020-05-12T13:36:30Z</time>
      </trkpt>
      <trkpt lat="47.85094" lon="6.44564">
        <ele>396.750153</ele>
        <time>2020-05-12T13:36:31Z</time>
      </trkpt>
      <trkpt lat="47.85097" lon="6.44565">
        <ele>396.659454</ele>
        <time>2020-05-12T13:36:32Z</time>
      </trkpt>
      <trkpt lat="47.851" lon="6.44565">
        <ele>396.598083</ele>
        <time>2020-05-12T13:36:33Z</time>
      </trkpt>
      <trkpt lat="47.85104" lon="6.44566">
        <ele>396.490234</ele>
        <time>2020-05-12T13:36:34Z</time>
      </trkpt>
      <trkpt lat="47.85105" lon="6.44566">
        <ele>396.470886</ele>
        <time>2020-05-12T13:36:35Z</time>
      </trkpt>
      <trkpt lat="47.85109" lon="6.44566">
        <ele>396.458008</ele>
        <time>2020-05-12T13:36:36Z</time>
      </trkpt>
      <trkpt lat="47.85112" lon="6.44565">
        <ele>396.524292</ele>
        <time>2020-05-12T13:36:37Z</time>
      </trkpt>
      <trkpt lat="47.85117" lon="6.44564">
        <ele>396.630188</ele>
        <time>2020-05-12T13:36:39Z</time>
      </trkpt>
      <trkpt lat="47.85121" lon="6.44564">
        <ele>396.558441</ele>
        <time>2020-05-12T13:36:40Z</time>
      </trkpt>
      <trkpt lat="47.85126" lon="6.44562">
        <ele>396.445007</ele>
        <time>2020-05-12T13:36:41Z</time>
      </trkpt>
      <trkpt lat="47.85132" lon="6.4456">
        <ele>396.53067</ele>
        <time>2020-05-12T13:36:43Z</time>
      </trkpt>
      <trkpt lat="47.85136" lon="6.44559">
        <ele>396.572174</ele>
        <time>2020-05-12T13:36:44Z</time>
      </trkpt>
      <trkpt lat="47.85142" lon="6.44557">
        <ele>396.703674</ele>
        <time>2020-05-12T13:36:46Z</time>
      </trkpt>
      <trkpt lat="47.85145" lon="6.44557">
        <ele>396.548523</ele>
        <time>2020-05-12T13:36:47Z</time>
      </trkpt>
      <trkpt lat="47.85149" lon="6.44557">
        <ele>396.191895</ele>
        <time>2020-05-12T13:36:48Z</time>
      </trkpt>
      <trkpt lat="47.8515" lon="6.44557">
        <ele>396.114349</ele>
        <time>2020-05-12T13:36:49Z</time>
      </trkpt>
      <trkpt lat="47.85152" lon="6.44556">
        <ele>396.234375</ele>
        <time>2020-05-12T13:36:50Z</time>
      </trkpt>
      <trkpt lat="47.85154" lon="6.44555">
        <ele>396.261353</ele>
        <time>2020-05-12T13:36:52Z</time>
      </trkpt>
      <trkpt lat="47.85157" lon="6.44554">
        <ele>396.361115</ele>
        <time>2020-05-12T13:36:53Z</time>
      </trkpt>
      <trkpt lat="47.8516" lon="6.44553">
        <ele>396.458862</ele>
        <time>2020-05-12T13:36:54Z</time>
      </trkpt>
      <trkpt lat="47.85166" lon="6.44548">
        <ele>397.330902</ele>
        <time>2020-05-12T13:36:55Z</time>
      </trkpt>
      <trkpt lat="47.85175" lon="6.44539">
        <ele>399.0289</ele>
        <time>2020-05-12T13:36:57Z</time>
      </trkpt>
      <trkpt lat="47.85184" lon="6.4453">
        <ele>400.398987</ele>
        <time>2020-05-12T13:36:58Z</time>
      </trkpt>
      <trkpt lat="47.85193" lon="6.44522">
        <ele>401.232483</ele>
        <time>2020-05-12T13:36:59Z</time>
      </trkpt>
      <trkpt lat="47.85204" lon="6.44514">
        <ele>401.5625</ele>
        <time>2020-05-12T13:37:01Z</time>
      </trkpt>
      <trkpt lat="47.85212" lon="6.44508">
        <ele>401.71701</ele>
        <time>2020-05-12T13:37:03Z</time>
      </trkpt>
      <trkpt lat="47.85217" lon="6.44505">
        <ele>402.041504</ele>
        <time>2020-05-12T13:37:04Z</time>
      </trkpt>
      <trkpt lat="47.85221" lon="6.44502">
        <ele>402.420929</ele>
        <time>2020-05-12T13:37:05Z</time>
      </trkpt>
      <trkpt lat="47.85224" lon="6.445">
        <ele>402.971436</ele>
        <time>2020-05-12T13:37:06Z</time>
      </trkpt>
      <trkpt lat="47.85228" lon="6.44497">
        <ele>403.483734</ele>
        <time>2020-05-12T13:37:08Z</time>
      </trkpt>
      <trkpt lat="47.85231" lon="6.44495">
        <ele>403.896057</ele>
        <time>2020-05-12T13:37:09Z</time>
      </trkpt>
      <trkpt lat="47.85234" lon="6.44494">
        <ele>404.106689</ele>
        <time>2020-05-12T13:37:10Z</time>
      </trkpt>
      <trkpt lat="47.85235" lon="6.44493">
        <ele>404.253204</ele>
        <time>2020-05-12T13:37:12Z</time>
      </trkpt>
      <trkpt lat="47.85237" lon="6.44491">
        <ele>404.427551</ele>
        <time>2020-05-12T13:37:13Z</time>
      </trkpt>
      <trkpt lat="47.85239" lon="6.4449">
        <ele>404.548615</ele>
        <time>2020-05-12T13:37:15Z</time>
      </trkpt>
      <trkpt lat="47.8524" lon="6.4449">
        <ele>404.539948</ele>
        <time>2020-05-12T13:37:16Z</time>
      </trkpt>
      <trkpt lat="47.85241" lon="6.4449">
        <ele>404.540344</ele>
        <time>2020-05-12T13:37:17Z</time>
      </trkpt>
      <trkpt lat="47.85244" lon="6.44489">
        <ele>404.715973</ele>
        <time>2020-05-12T13:37:19Z</time>
      </trkpt>
      <trkpt lat="47.85245" lon="6.44489">
        <ele>404.670898</ele>
        <time>2020-05-12T13:37:21Z</time>
      </trkpt>
      <trkpt lat="47.85246" lon="6.44488">
        <ele>404.73291</ele>
        <time>2020-05-12T13:37:22Z</time>
      </trkpt>
      <trkpt lat="47.85246" lon="6.44488">
        <ele>404.792084</ele>
        <time>2020-05-12T13:37:24Z</time>
      </trkpt>
      <trkpt lat="47.85247" lon="6.44488">
        <ele>404.782532</ele>
        <time>2020-05-12T13:37:25Z</time>
      </trkpt>
      <trkpt lat="47.85248" lon="6.44488">
        <ele>404.721924</ele>
        <time>2020-05-12T13:37:26Z</time>
      </trkpt>
      <trkpt lat="47.85249" lon="6.44488">
        <ele>404.681244</ele>
        <time>2020-05-12T13:37:27Z</time>
      </trkpt>
      <trkpt lat="47.8525" lon="6.44488">
        <ele>404.647339</ele>
        <time>2020-05-12T13:37:28Z</time>
      </trkpt>
      <trkpt lat="47.85251" lon="6.44488">
        <ele>404.676758</ele>
        <time>2020-05-12T13:37:30Z</time>
      </trkpt>
      <trkpt lat="47.85251" lon="6.44488">
        <ele>404.697632</ele>
        <time>2020-05-12T13:37:31Z</time>
      </trkpt>
      <trkpt lat="47.85252" lon="6.44487">
        <ele>404.702209</ele>
        <time>2020-05-12T13:37:33Z</time>
      </trkpt>
      <trkpt lat="47.85252" lon="6.44487">
        <ele>404.704712</ele>
        <time>2020-05-12T13:37:34Z</time>
      </trkpt>
      <trkpt lat="47.85253" lon="6.44488">
        <ele>404.635071</ele>
        <time>2020-05-12T13:37:35Z</time>
      </trkpt>
      <trkpt lat="47.85253" lon="6.44488">
        <ele>404.596283</ele>
        <time>2020-05-12T13:37:37Z</time>
      </trkpt>
      <trkpt lat="47.85254" lon="6.44489">
        <ele>404.535858</ele>
        <time>2020-05-12T13:37:39Z</time>
      </trkpt>
      <trkpt lat="47.85254" lon="6.44489">
        <ele>404.484558</ele>
        <time>2020-05-12T13:38:01Z</time>
      </trkpt>
      <trkpt lat="47.85255" lon="6.4449">
        <ele>404.432312</ele>
        <time>2020-05-12T13:38:02Z</time>
      </trkpt>
      <trkpt lat="47.85255" lon="6.4449">
        <ele>404.390686</ele>
        <time>2020-05-12T13:38:04Z</time>
      </trkpt>
      <trkpt lat="47.85255" lon="6.44491">
        <ele>404.334991</ele>
        <time>2020-05-12T13:38:06Z</time>
      </trkpt>
      <trkpt lat="47.85256" lon="6.44491">
        <ele>404.348022</ele>
        <time>2020-05-12T13:38:07Z</time>
      </trkpt>
      <trkpt lat="47.85256" lon="6.44492">
        <ele>404.362213</ele>
        <time>2020-05-12T13:38:08Z</time>
      </trkpt>
      <trkpt lat="47.85257" lon="6.44492">
        <ele>404.370331</ele>
        <time>2020-05-12T13:38:09Z</time>
      </trkpt>
      <trkpt lat="47.85257" lon="6.44493">
        <ele>404.386841</ele>
        <time>2020-05-12T13:38:11Z</time>
      </trkpt>
      <trkpt lat="47.85257" lon="6.44493">
        <ele>404.371063</ele>
        <time>2020-05-12T13:38:12Z</time>
      </trkpt>
      <trkpt lat="47.85258" lon="6.44493">
        <ele>404.396545</ele>
        <time>2020-05-12T13:38:14Z</time>
      </trkpt>
      <trkpt lat="47.85258" lon="6.44494">
        <ele>404.409393</ele>
        <time>2020-05-12T13:38:16Z</time>
      </trkpt>
      <trkpt lat="47.85258" lon="6.44494">
        <ele>404.430237</ele>
        <time>2020-05-12T13:38:17Z</time>
      </trkpt>
      <trkpt lat="47.85259" lon="6.44495">
        <ele>404.417999</ele>
        <time>2020-05-12T13:38:19Z</time>
      </trkpt>
      <trkpt lat="47.85259" lon="6.44495">
        <ele>404.447418</ele>
        <time>2020-05-12T13:38:22Z</time>
      </trkpt>
      <trkpt lat="47.8526" lon="6.44496">
        <ele>404.464996</ele>
        <time>2020-05-12T13:38:23Z</time>
      </trkpt>
      <trkpt lat="47.85261" lon="6.44501">
        <ele>404.302429</ele>
        <time>2020-05-12T13:38:25Z</time>
      </trkpt>
      <trkpt lat="47.85261" lon="6.44502">
        <ele>404.279083</ele>
        <time>2020-05-12T13:38:26Z</time>
      </trkpt>
      <trkpt lat="47.85262" lon="6.44503">
        <ele>404.269196</ele>
        <time>2020-05-12T13:38:28Z</time>
      </trkpt>
      <trkpt lat="47.85262" lon="6.44503">
        <ele>404.241821</ele>
        <time>2020-05-12T13:38:30Z</time>
      </trkpt>
      <trkpt lat="47.85262" lon="6.44503">
        <ele>404.259247</ele>
        <time>2020-05-12T13:38:31Z</time>
      </trkpt>
      <trkpt lat="47.85261" lon="6.44503">
        <ele>404.21698</ele>
        <time>2020-05-12T13:38:32Z</time>
      </trkpt>
      <trkpt lat="47.85261" lon="6.44502">
        <ele>404.273224</ele>
        <time>2020-05-12T13:38:33Z</time>
      </trkpt>
      <trkpt lat="47.85261" lon="6.44502">
        <ele>404.284973</ele>
        <time>2020-05-12T13:38:34Z</time>
      </trkpt>
      <trkpt lat="47.85262" lon="6.44502">
        <ele>404.314301</ele>
        <time>2020-05-12T13:38:36Z</time>
      </trkpt>
      <trkpt lat="47.85262" lon="6.44502">
        <ele>404.346436</ele>
        <time>2020-05-12T13:38:39Z</time>
      </trkpt>
      <trkpt lat="47.85261" lon="6.445">
        <ele>404.400665</ele>
        <time>2020-05-12T13:38:41Z</time>
      </trkpt>
      <trkpt lat="47.8526" lon="6.44494">
        <ele>404.632263</ele>
        <time>2020-05-12T13:39:16Z</time>
      </trkpt>
      <trkpt lat="47.8526" lon="6.44494">
        <ele>404.651215</ele>
        <time>2020-05-12T13:39:17Z</time>
      </trkpt>
      <trkpt lat="47.8526" lon="6.44494">
        <ele>404.670166</ele>
        <time>2020-05-12T13:39:18Z</time>
      </trkpt>
      <trkpt lat="47.85261" lon="6.44493">
        <ele>404.787109</ele>
        <time>2020-05-12T13:39:20Z</time>
      </trkpt>
      <trkpt lat="47.85261" lon="6.44492">
        <ele>404.888062</ele>
        <time>2020-05-12T13:39:22Z</time>
      </trkpt>
      <trkpt lat="47.85262" lon="6.44492">
        <ele>405.071899</ele>
        <time>2020-05-12T13:39:24Z</time>
      </trkpt>
      <trkpt lat="47.85264" lon="6.44493">
        <ele>405.204102</ele>
        <time>2020-05-12T13:39:25Z</time>
      </trkpt>
      <trkpt lat="47.85266" lon="6.44494">
        <ele>405.376007</ele>
        <time>2020-05-12T13:39:27Z</time>
      </trkpt>
      <trkpt lat="47.85266" lon="6.44499">
        <ele>405.190613</ele>
        <time>2020-05-12T13:39:29Z</time>
      </trkpt>
      <trkpt lat="47.85266" lon="6.445">
        <ele>405.113831</ele>
        <time>2020-05-12T13:39:30Z</time>
      </trkpt>
      <trkpt lat="47.85265" lon="6.44503">
        <ele>404.763824</ele>
        <time>2020-05-12T13:39:31Z</time>
      </trkpt>
      <trkpt lat="47.85263" lon="6.44505">
        <ele>404.383636</ele>
        <time>2020-05-12T13:39:33Z</time>
      </trkpt>
      <trkpt lat="47.8526" lon="6.44509">
        <ele>403.96524</ele>
        <time>2020-05-12T13:39:34Z</time>
      </trkpt>
      <trkpt lat="47.85256" lon="6.44513">
        <ele>403.699158</ele>
        <time>2020-05-12T13:39:35Z</time>
      </trkpt>
      <trkpt lat="47.85253" lon="6.44518">
        <ele>403.654602</ele>
        <time>2020-05-12T13:39:37Z</time>
      </trkpt>
      <trkpt lat="47.85251" lon="6.4452">
        <ele>403.704956</ele>
        <time>2020-05-12T13:39:38Z</time>
      </trkpt>
      <trkpt lat="47.8525" lon="6.44522">
        <ele>403.73819</ele>
        <time>2020-05-12T13:39:39Z</time>
      </trkpt>
      <trkpt lat="47.85248" lon="6.44526">
        <ele>403.820892</ele>
        <time>2020-05-12T13:39:40Z</time>
      </trkpt>
      <trkpt lat="47.85246" lon="6.44533">
        <ele>403.958588</ele>
        <time>2020-05-12T13:39:42Z</time>
      </trkpt>
      <trkpt lat="47.85246" lon="6.44538">
        <ele>404.109589</ele>
        <time>2020-05-12T13:39:43Z</time>
      </trkpt>
      <trkpt lat="47.85245" lon="6.44547">
        <ele>404.469513</ele>
        <time>2020-05-12T13:39:45Z</time>
      </trkpt>
      <trkpt lat="47.85246" lon="6.44556">
        <ele>405.031158</ele>
        <time>2020-05-12T13:39:47Z</time>
      </trkpt>
      <trkpt lat="47.85248" lon="6.44564">
        <ele>405.716003</ele>
        <time>2020-05-12T13:39:48Z</time>
      </trkpt>
      <trkpt lat="47.8525" lon="6.4457">
        <ele>406.288849</ele>
        <time>2020-05-12T13:39:50Z</time>
      </trkpt>
      <trkpt lat="47.85251" lon="6.44575">
        <ele>406.72876</ele>
        <time>2020-05-12T13:39:51Z</time>
      </trkpt>
      <trkpt lat="47.85253" lon="6.44581">
        <ele>407.119995</ele>
        <time>2020-05-12T13:39:52Z</time>
      </trkpt>
      <trkpt lat="47.85254" lon="6.44587">
        <ele>407.399994</ele>
        <time>2020-05-12T13:39:53Z</time>
      </trkpt>
      <trkpt lat="47.85257" lon="6.44595">
        <ele>407.920013</ele>
        <time>2020-05-12T13:39:55Z</time>
      </trkpt>
      <trkpt lat="47.85259" lon="6.44601">
        <ele>408.320007</ele>
        <time>2020-05-12T13:39:56Z</time>
      </trkpt>
      <trkpt lat="47.85261" lon="6.44607">
        <ele>408.799988</ele>
        <time>2020-05-12T13:39:57Z</time>
      </trkpt>
      <trkpt lat="47.85263" lon="6.44612">
        <ele>409.119995</ele>
        <time>2020-05-12T13:39:58Z</time>
      </trkpt>
      <trkpt lat="47.85267" lon="6.44623">
        <ele>409.880005</ele>
        <time>2020-05-12T13:40:00Z</time>
      </trkpt>
      <trkpt lat="47.8527" lon="6.44635">
        <ele>410.559998</ele>
        <time>2020-05-12T13:40:02Z</time>
      </trkpt>
      <trkpt lat="47.85273" lon="6.44649">
        <ele>410.279999</ele>
        <time>2020-05-12T13:40:04Z</time>
      </trkpt>
      <trkpt lat="47.85274" lon="6.44661">
        <ele>409.278748</ele>
        <time>2020-05-12T13:40:05Z</time>
      </trkpt>
      <trkpt lat="47.8528" lon="6.44685">
        <ele>408.15625</ele>
        <time>2020-05-12T13:40:06Z</time>
      </trkpt>
      <trkpt lat="47.85284" lon="6.44695">
        <ele>407.803741</ele>
        <time>2020-05-12T13:40:07Z</time>
      </trkpt>
      <trkpt lat="47.85288" lon="6.44704">
        <ele>407.613739</ele>
        <time>2020-05-12T13:40:09Z</time>
      </trkpt>
      <trkpt lat="47.85289" lon="6.4471">
        <ele>407.40918</ele>
        <time>2020-05-12T13:40:10Z</time>
      </trkpt>
      <trkpt lat="47.85291" lon="6.44715">
        <ele>407.534454</ele>
        <time>2020-05-12T13:40:12Z</time>
      </trkpt>
      <trkpt lat="47.85292" lon="6.4472">
        <ele>407.621552</ele>
        <time>2020-05-12T13:40:13Z</time>
      </trkpt>
      <trkpt lat="47.85294" lon="6.44724">
        <ele>407.810883</ele>
        <time>2020-05-12T13:40:14Z</time>
      </trkpt>
      <trkpt lat="47.85296" lon="6.44731">
        <ele>408.125183</ele>
        <time>2020-05-12T13:40:15Z</time>
      </trkpt>
      <trkpt lat="47.853" lon="6.44738">
        <ele>408.664703</ele>
        <time>2020-05-12T13:40:17Z</time>
      </trkpt>
      <trkpt lat="47.85303" lon="6.44742">
        <ele>409.078949</ele>
        <time>2020-05-12T13:40:18Z</time>
      </trkpt>
      <trkpt lat="47.85307" lon="6.44745">
        <ele>409.563416</ele>
        <time>2020-05-12T13:40:20Z</time>
      </trkpt>
      <trkpt lat="47.85311" lon="6.44748">
        <ele>409.986389</ele>
        <time>2020-05-12T13:40:21Z</time>
      </trkpt>
      <trkpt lat="47.85315" lon="6.4475">
        <ele>410.555939</ele>
        <time>2020-05-12T13:40:23Z</time>
      </trkpt>
      <trkpt lat="47.85318" lon="6.44751">
        <ele>411</ele>
        <time>2020-05-12T13:40:24Z</time>
      </trkpt>
      <trkpt lat="47.85321" lon="6.44752">
        <ele>411.340485</ele>
        <time>2020-05-12T13:40:25Z</time>
      </trkpt>
      <trkpt lat="47.85323" lon="6.44754">
        <ele>411.630768</ele>
        <time>2020-05-12T13:40:26Z</time>
      </trkpt>
      <trkpt lat="47.85328" lon="6.44756">
        <ele>412.207489</ele>
        <time>2020-05-12T13:40:28Z</time>
      </trkpt>
      <trkpt lat="47.85331" lon="6.44757">
        <ele>412.620636</ele>
        <time>2020-05-12T13:40:29Z</time>
      </trkpt>
      <trkpt lat="47.85333" lon="6.44758">
        <ele>412.786316</ele>
        <time>2020-05-12T13:40:30Z</time>
      </trkpt>
      <trkpt lat="47.85336" lon="6.44759">
        <ele>413.198639</ele>
        <time>2020-05-12T13:40:32Z</time>
      </trkpt>
      <trkpt lat="47.85339" lon="6.4476">
        <ele>413.409241</ele>
        <time>2020-05-12T13:40:33Z</time>
      </trkpt>
      <trkpt lat="47.85342" lon="6.44761">
        <ele>413.648529</ele>
        <time>2020-05-12T13:40:34Z</time>
      </trkpt>
      <trkpt lat="47.85345" lon="6.44762">
        <ele>413.798004</ele>
        <time>2020-05-12T13:40:35Z</time>
      </trkpt>
      <trkpt lat="47.85348" lon="6.44763">
        <ele>414.044128</ele>
        <time>2020-05-12T13:40:37Z</time>
      </trkpt>
      <trkpt lat="47.85351" lon="6.44764">
        <ele>414.222412</ele>
        <time>2020-05-12T13:40:38Z</time>
      </trkpt>
      <trkpt lat="47.85356" lon="6.44767">
        <ele>414.409607</ele>
        <time>2020-05-12T13:40:39Z</time>
      </trkpt>
      <trkpt lat="47.85358" lon="6.44768">
        <ele>414.591949</ele>
        <time>2020-05-12T13:40:40Z</time>
      </trkpt>
      <trkpt lat="47.85361" lon="6.44769">
        <ele>414.784363</ele>
        <time>2020-05-12T13:40:42Z</time>
      </trkpt>
      <trkpt lat="47.85364" lon="6.4477">
        <ele>414.974701</ele>
        <time>2020-05-12T13:40:44Z</time>
      </trkpt>
      <trkpt lat="47.85367" lon="6.4477">
        <ele>415.248993</ele>
        <time>2020-05-12T13:40:45Z</time>
      </trkpt>
      <trkpt lat="47.85371" lon="6.4477">
        <ele>415.63974</ele>
        <time>2020-05-12T13:40:46Z</time>
      </trkpt>
      <trkpt lat="47.85372" lon="6.44771">
        <ele>415.770264</ele>
        <time>2020-05-12T13:40:47Z</time>
      </trkpt>
      <trkpt lat="47.85378" lon="6.44772">
        <ele>416.148102</ele>
        <time>2020-05-12T13:40:49Z</time>
      </trkpt>
      <trkpt lat="47.85382" lon="6.44772">
        <ele>416.432709</ele>
        <time>2020-05-12T13:40:50Z</time>
      </trkpt>
      <trkpt lat="47.85383" lon="6.44772">
        <ele>416.439056</ele>
        <time>2020-05-12T13:40:51Z</time>
      </trkpt>
      <trkpt lat="47.85387" lon="6.44772">
        <ele>416.578369</ele>
        <time>2020-05-12T13:40:52Z</time>
      </trkpt>
      <trkpt lat="47.85391" lon="6.44772">
        <ele>416.68631</ele>
        <time>2020-05-12T13:40:54Z</time>
      </trkpt>
      <trkpt lat="47.85396" lon="6.44771">
        <ele>416.833954</ele>
        <time>2020-05-12T13:40:55Z</time>
      </trkpt>
      <trkpt lat="47.85408" lon="6.44771">
        <ele>416.971069</ele>
        <time>2020-05-12T13:40:58Z</time>
      </trkpt>
      <trkpt lat="47.85417" lon="6.44771">
        <ele>417.192749</ele>
        <time>2020-05-12T13:40:59Z</time>
      </trkpt>
      <trkpt lat="47.85421" lon="6.4477">
        <ele>417.302917</ele>
        <time>2020-05-12T13:41:00Z</time>
      </trkpt>
      <trkpt lat="47.85426" lon="6.4477">
        <ele>417.4375</ele>
        <time>2020-05-12T13:41:01Z</time>
      </trkpt>
      <trkpt lat="47.85431" lon="6.44769">
        <ele>417.847107</ele>
        <time>2020-05-12T13:41:02Z</time>
      </trkpt>
      <trkpt lat="47.85435" lon="6.44769">
        <ele>418.059174</ele>
        <time>2020-05-12T13:41:03Z</time>
      </trkpt>
      <trkpt lat="47.8544" lon="6.44769">
        <ele>418.328033</ele>
        <time>2020-05-12T13:41:04Z</time>
      </trkpt>
      <trkpt lat="47.85445" lon="6.4477">
        <ele>418.525604</ele>
        <time>2020-05-12T13:41:06Z</time>
      </trkpt>
      <trkpt lat="47.85448" lon="6.4477">
        <ele>418.659637</ele>
        <time>2020-05-12T13:41:07Z</time>
      </trkpt>
      <trkpt lat="47.85451" lon="6.4477">
        <ele>418.804016</ele>
        <time>2020-05-12T13:41:08Z</time>
      </trkpt>
      <trkpt lat="47.85455" lon="6.44771">
        <ele>418.921204</ele>
        <time>2020-05-12T13:41:10Z</time>
      </trkpt>
      <trkpt lat="47.85458" lon="6.44771">
        <ele>419.038757</ele>
        <time>2020-05-12T13:41:11Z</time>
      </trkpt>
      <trkpt lat="47.85461" lon="6.44772">
        <ele>419.176514</ele>
        <time>2020-05-12T13:41:13Z</time>
      </trkpt>
      <trkpt lat="47.85462" lon="6.44772">
        <ele>419.205811</ele>
        <time>2020-05-12T13:41:14Z</time>
      </trkpt>
      <trkpt lat="47.85464" lon="6.44771">
        <ele>419.334808</ele>
        <time>2020-05-12T13:41:15Z</time>
      </trkpt>
      <trkpt lat="47.85466" lon="6.44771">
        <ele>419.418396</ele>
        <time>2020-05-12T13:41:16Z</time>
      </trkpt>
      <trkpt lat="47.85467" lon="6.44772">
        <ele>419.44635</ele>
        <time>2020-05-12T13:41:17Z</time>
      </trkpt>
      <trkpt lat="47.85469" lon="6.44772">
        <ele>419.526245</ele>
        <time>2020-05-12T13:41:18Z</time>
      </trkpt>
      <trkpt lat="47.85473" lon="6.44772">
        <ele>419.802795</ele>
        <time>2020-05-12T13:41:20Z</time>
      </trkpt>
      <trkpt lat="47.85473" lon="6.44772">
        <ele>419.883667</ele>
        <time>2020-05-12T13:41:21Z</time>
      </trkpt>
      <trkpt lat="47.85476" lon="6.44773">
        <ele>420.137207</ele>
        <time>2020-05-12T13:41:22Z</time>
      </trkpt>
      <trkpt lat="47.85477" lon="6.44773">
        <ele>420.213257</ele>
        <time>2020-05-12T13:41:23Z</time>
      </trkpt>
      <trkpt lat="47.85479" lon="6.44774">
        <ele>420.367157</ele>
        <time>2020-05-12T13:41:24Z</time>
      </trkpt>
      <trkpt lat="47.85481" lon="6.44774">
        <ele>420.557495</ele>
        <time>2020-05-12T13:41:26Z</time>
      </trkpt>
      <trkpt lat="47.85483" lon="6.44774">
        <ele>420.737488</ele>
        <time>2020-05-12T13:41:27Z</time>
      </trkpt>
      <trkpt lat="47.85485" lon="6.44774">
        <ele>420.917511</ele>
        <time>2020-05-12T13:41:28Z</time>
      </trkpt>
      <trkpt lat="47.85488" lon="6.44774">
        <ele>421.291107</ele>
        <time>2020-05-12T13:41:30Z</time>
      </trkpt>
      <trkpt lat="47.85492" lon="6.44773">
        <ele>421.708374</ele>
        <time>2020-05-12T13:41:31Z</time>
      </trkpt>
      <trkpt lat="47.85493" lon="6.44773">
        <ele>421.85788</ele>
        <time>2020-05-12T13:41:32Z</time>
      </trkpt>
      <trkpt lat="47.85499" lon="6.44771">
        <ele>422.441864</ele>
        <time>2020-05-12T13:41:34Z</time>
      </trkpt>
      <trkpt lat="47.85502" lon="6.4477">
        <ele>422.82074</ele>
        <time>2020-05-12T13:41:35Z</time>
      </trkpt>
      <trkpt lat="47.85504" lon="6.4477">
        <ele>422.954559</ele>
        <time>2020-05-12T13:41:36Z</time>
      </trkpt>
      <trkpt lat="47.85506" lon="6.44769">
        <ele>423.193604</ele>
        <time>2020-05-12T13:41:37Z</time>
      </trkpt>
      <trkpt lat="47.8551" lon="6.44767">
        <ele>423.504883</ele>
        <time>2020-05-12T13:41:39Z</time>
      </trkpt>
      <trkpt lat="47.85514" lon="6.44765">
        <ele>423.826385</ele>
        <time>2020-05-12T13:41:40Z</time>
      </trkpt>
      <trkpt lat="47.85515" lon="6.44764">
        <ele>423.949158</ele>
        <time>2020-05-12T13:41:41Z</time>
      </trkpt>
      <trkpt lat="47.8552" lon="6.44762">
        <ele>424.18338</ele>
        <time>2020-05-12T13:41:42Z</time>
      </trkpt>
      <trkpt lat="47.85522" lon="6.44761">
        <ele>424.267792</ele>
        <time>2020-05-12T13:41:43Z</time>
      </trkpt>
      <trkpt lat="47.85525" lon="6.4476">
        <ele>424.381989</ele>
        <time>2020-05-12T13:41:45Z</time>
      </trkpt>
      <trkpt lat="47.85526" lon="6.44759">
        <ele>424.417938</ele>
        <time>2020-05-12T13:41:46Z</time>
      </trkpt>
      <trkpt lat="47.8553" lon="6.44757">
        <ele>424.503235</ele>
        <time>2020-05-12T13:41:47Z</time>
      </trkpt>
      <trkpt lat="47.85531" lon="6.44757">
        <ele>424.536255</ele>
        <time>2020-05-12T13:41:48Z</time>
      </trkpt>
      <trkpt lat="47.85534" lon="6.44756">
        <ele>424.584015</ele>
        <time>2020-05-12T13:41:49Z</time>
      </trkpt>
      <trkpt lat="47.85537" lon="6.44755">
        <ele>424.62677</ele>
        <time>2020-05-12T13:41:50Z</time>
      </trkpt>
      <trkpt lat="47.85539" lon="6.44754">
        <ele>424.651489</ele>
        <time>2020-05-12T13:41:51Z</time>
      </trkpt>
      <trkpt lat="47.85543" lon="6.44752">
        <ele>424.650024</ele>
        <time>2020-05-12T13:41:53Z</time>
      </trkpt>
      <trkpt lat="47.85548" lon="6.44749">
        <ele>424.586243</ele>
        <time>2020-05-12T13:41:54Z</time>
      </trkpt>
      <trkpt lat="47.8555" lon="6.44748">
        <ele>424.545715</ele>
        <time>2020-05-12T13:41:55Z</time>
      </trkpt>
      <trkpt lat="47.85552" lon="6.44747">
        <ele>424.489807</ele>
        <time>2020-05-12T13:41:57Z</time>
      </trkpt>
      <trkpt lat="47.85556" lon="6.44746">
        <ele>424.389313</ele>
        <time>2020-05-12T13:41:58Z</time>
      </trkpt>
      <trkpt lat="47.85559" lon="6.44744">
        <ele>424.268372</ele>
        <time>2020-05-12T13:41:59Z</time>
      </trkpt>
      <trkpt lat="47.85564" lon="6.44742">
        <ele>424.23822</ele>
        <time>2020-05-12T13:42:01Z</time>
      </trkpt>
      <trkpt lat="47.85567" lon="6.44741">
        <ele>424.338135</ele>
        <time>2020-05-12T13:42:02Z</time>
      </trkpt>
      <trkpt lat="47.85575" lon="6.4474">
        <ele>424.679749</ele>
        <time>2020-05-12T13:42:03Z</time>
      </trkpt>
      <trkpt lat="47.85579" lon="6.44739">
        <ele>424.841797</ele>
        <time>2020-05-12T13:42:05Z</time>
      </trkpt>
      <trkpt lat="47.85582" lon="6.44738">
        <ele>424.939209</ele>
        <time>2020-05-12T13:42:07Z</time>
      </trkpt>
      <trkpt lat="47.85587" lon="6.44737">
        <ele>425.13205</ele>
        <time>2020-05-12T13:42:08Z</time>
      </trkpt>
      <trkpt lat="47.8559" lon="6.44736">
        <ele>425.264221</ele>
        <time>2020-05-12T13:42:09Z</time>
      </trkpt>
      <trkpt lat="47.85593" lon="6.44736">
        <ele>425.379425</ele>
        <time>2020-05-12T13:42:10Z</time>
      </trkpt>
      <trkpt lat="47.85596" lon="6.44735">
        <ele>425.474335</ele>
        <time>2020-05-12T13:42:12Z</time>
      </trkpt>
      <trkpt lat="47.85605" lon="6.44733">
        <ele>425.882507</ele>
        <time>2020-05-12T13:42:14Z</time>
      </trkpt>
      <trkpt lat="47.85608" lon="6.44732">
        <ele>426.187012</ele>
        <time>2020-05-12T13:42:15Z</time>
      </trkpt>
      <trkpt lat="47.85611" lon="6.44731">
        <ele>426.453064</ele>
        <time>2020-05-12T13:42:16Z</time>
      </trkpt>
      <trkpt lat="47.85615" lon="6.4473">
        <ele>426.853943</ele>
        <time>2020-05-12T13:42:18Z</time>
      </trkpt>
      <trkpt lat="47.85618" lon="6.44729">
        <ele>427.113007</ele>
        <time>2020-05-12T13:42:19Z</time>
      </trkpt>
      <trkpt lat="47.85621" lon="6.44728">
        <ele>427.423126</ele>
        <time>2020-05-12T13:42:20Z</time>
      </trkpt>
      <trkpt lat="47.85624" lon="6.44728">
        <ele>427.671692</ele>
        <time>2020-05-12T13:42:22Z</time>
      </trkpt>
      <trkpt lat="47.85629" lon="6.44728">
        <ele>428.01825</ele>
        <time>2020-05-12T13:42:23Z</time>
      </trkpt>
      <trkpt lat="47.85634" lon="6.44731">
        <ele>428.401611</ele>
        <time>2020-05-12T13:42:25Z</time>
      </trkpt>
      <trkpt lat="47.85634" lon="6.44733">
        <ele>428.40094</ele>
        <time>2020-05-12T13:42:26Z</time>
      </trkpt>
      <trkpt lat="47.85633" lon="6.44736">
        <ele>428.348755</ele>
        <time>2020-05-12T13:42:27Z</time>
      </trkpt>
      <trkpt lat="47.85632" lon="6.44737">
        <ele>428.446259</ele>
        <time>2020-05-12T13:42:28Z</time>
      </trkpt>
      <trkpt lat="47.85631" lon="6.44739">
        <ele>428.565002</ele>
        <time>2020-05-12T13:42:30Z</time>
      </trkpt>
      <trkpt lat="47.85631" lon="6.44741">
        <ele>428.726257</ele>
        <time>2020-05-12T13:42:32Z</time>
      </trkpt>
      <trkpt lat="47.8563" lon="6.44743">
        <ele>428.850006</ele>
        <time>2020-05-12T13:42:33Z</time>
      </trkpt>
      <trkpt lat="47.85628" lon="6.44747">
        <ele>429.179993</ele>
        <time>2020-05-12T13:42:34Z</time>
      </trkpt>
      <trkpt lat="47.85628" lon="6.44747">
        <ele>429.173767</ele>
        <time>2020-05-12T13:42:36Z</time>
      </trkpt>
      <trkpt lat="47.85627" lon="6.44749">
        <ele>429.301239</ele>
        <time>2020-05-12T13:42:37Z</time>
      </trkpt>
      <trkpt lat="47.85625" lon="6.44753">
        <ele>429.529999</ele>
        <time>2020-05-12T13:42:39Z</time>
      </trkpt>
      <trkpt lat="47.85622" lon="6.44757">
        <ele>429.751251</ele>
        <time>2020-05-12T13:42:40Z</time>
      </trkpt>
      <trkpt lat="47.85619" lon="6.4476">
        <ele>429.863739</ele>
        <time>2020-05-12T13:42:41Z</time>
      </trkpt>
      <trkpt lat="47.85615" lon="6.44765">
        <ele>430.057495</ele>
        <time>2020-05-12T13:42:43Z</time>
      </trkpt>
      <trkpt lat="47.85612" lon="6.4477">
        <ele>430.336243</ele>
        <time>2020-05-12T13:42:44Z</time>
      </trkpt>
      <trkpt lat="47.85612" lon="6.44771">
        <ele>430.422485</ele>
        <time>2020-05-12T13:42:45Z</time>
      </trkpt>
      <trkpt lat="47.85609" lon="6.44776">
        <ele>430.741241</ele>
        <time>2020-05-12T13:42:47Z</time>
      </trkpt>
      <trkpt lat="47.85607" lon="6.44781">
        <ele>431.066254</ele>
        <time>2020-05-12T13:42:48Z</time>
      </trkpt>
      <trkpt lat="47.85606" lon="6.44782">
        <ele>431.181244</ele>
        <time>2020-05-12T13:42:49Z</time>
      </trkpt>
      <trkpt lat="47.85604" lon="6.44785">
        <ele>431.285614</ele>
        <time>2020-05-12T13:42:51Z</time>
      </trkpt>
      <trkpt lat="47.85601" lon="6.44787">
        <ele>431.292542</ele>
        <time>2020-05-12T13:42:52Z</time>
      </trkpt>
      <trkpt lat="47.85598" lon="6.44791">
        <ele>431.500946</ele>
        <time>2020-05-12T13:42:53Z</time>
      </trkpt>
      <trkpt lat="47.85594" lon="6.44797">
        <ele>431.857056</ele>
        <time>2020-05-12T13:42:55Z</time>
      </trkpt>
      <trkpt lat="47.8559" lon="6.44802">
        <ele>431.918915</ele>
        <time>2020-05-12T13:42:56Z</time>
      </trkpt>
      <trkpt lat="47.85586" lon="6.44807">
        <ele>431.942871</ele>
        <time>2020-05-12T13:42:57Z</time>
      </trkpt>
      <trkpt lat="47.85581" lon="6.44813">
        <ele>431.959015</ele>
        <time>2020-05-12T13:42:59Z</time>
      </trkpt>
      <trkpt lat="47.85578" lon="6.44817">
        <ele>431.902374</ele>
        <time>2020-05-12T13:43:00Z</time>
      </trkpt>
      <trkpt lat="47.85575" lon="6.44821">
        <ele>431.895325</ele>
        <time>2020-05-12T13:43:01Z</time>
      </trkpt>
      <trkpt lat="47.85571" lon="6.44826">
        <ele>431.934326</ele>
        <time>2020-05-12T13:43:02Z</time>
      </trkpt>
      <trkpt lat="47.85568" lon="6.44834">
        <ele>432.202637</ele>
        <time>2020-05-12T13:43:03Z</time>
      </trkpt>
      <trkpt lat="47.85565" lon="6.4484">
        <ele>432.274017</ele>
        <time>2020-05-12T13:43:05Z</time>
      </trkpt>
      <trkpt lat="47.85562" lon="6.44845">
        <ele>432.301636</ele>
        <time>2020-05-12T13:43:06Z</time>
      </trkpt>
      <trkpt lat="47.85558" lon="6.44852">
        <ele>432.383331</ele>
        <time>2020-05-12T13:43:08Z</time>
      </trkpt>
      <trkpt lat="47.85556" lon="6.44857">
        <ele>432.445007</ele>
        <time>2020-05-12T13:43:10Z</time>
      </trkpt>
      <trkpt lat="47.85554" lon="6.44862">
        <ele>432.48999</ele>
        <time>2020-05-12T13:43:11Z</time>
      </trkpt>
      <trkpt lat="47.85553" lon="6.44863">
        <ele>432.477509</ele>
        <time>2020-05-12T13:43:12Z</time>
      </trkpt>
      <trkpt lat="47.85548" lon="6.4487">
        <ele>432.106262</ele>
        <time>2020-05-12T13:43:13Z</time>
      </trkpt>
      <trkpt lat="47.85546" lon="6.44874">
        <ele>431.992493</ele>
        <time>2020-05-12T13:43:15Z</time>
      </trkpt>
      <trkpt lat="47.85545" lon="6.44878">
        <ele>431.907501</ele>
        <time>2020-05-12T13:43:16Z</time>
      </trkpt>
      <trkpt lat="47.85543" lon="6.44883">
        <ele>431.834991</ele>
        <time>2020-05-12T13:43:17Z</time>
      </trkpt>
      <trkpt lat="47.85541" lon="6.44893">
        <ele>431.813751</ele>
        <time>2020-05-12T13:43:19Z</time>
      </trkpt>
      <trkpt lat="47.85541" lon="6.44899">
        <ele>431.89624</ele>
        <time>2020-05-12T13:43:20Z</time>
      </trkpt>
      <trkpt lat="47.85542" lon="6.44903">
        <ele>432.036255</ele>
        <time>2020-05-12T13:43:21Z</time>
      </trkpt>
      <trkpt lat="47.85546" lon="6.44914">
        <ele>432.721252</ele>
        <time>2020-05-12T13:43:22Z</time>
      </trkpt>
      <trkpt lat="47.85544" lon="6.44929">
        <ele>432.744995</ele>
        <time>2020-05-12T13:43:24Z</time>
      </trkpt>
      <trkpt lat="47.85543" lon="6.4494">
        <ele>432.36499</ele>
        <time>2020-05-12T13:43:25Z</time>
      </trkpt>
      <trkpt lat="47.85547" lon="6.44966">
        <ele>432.149994</ele>
        <time>2020-05-12T13:43:27Z</time>
      </trkpt>
      <trkpt lat="47.85548" lon="6.4498">
        <ele>431.942505</ele>
        <time>2020-05-12T13:43:28Z</time>
      </trkpt>
      <trkpt lat="47.85547" lon="6.44998">
        <ele>431.28479</ele>
        <time>2020-05-12T13:43:29Z</time>
      </trkpt>
      <trkpt lat="47.85547" lon="6.45011">
        <ele>430.237396</ele>
        <time>2020-05-12T13:43:31Z</time>
      </trkpt>
      <trkpt lat="47.85544" lon="6.45017">
        <ele>429.408813</ele>
        <time>2020-05-12T13:43:32Z</time>
      </trkpt>
      <trkpt lat="47.8554" lon="6.45016">
        <ele>429.005188</ele>
        <time>2020-05-12T13:43:33Z</time>
      </trkpt>
      <trkpt lat="47.85537" lon="6.45016">
        <ele>428.717285</ele>
        <time>2020-05-12T13:43:34Z</time>
      </trkpt>
      <trkpt lat="47.85533" lon="6.45016">
        <ele>428.272064</ele>
        <time>2020-05-12T13:43:36Z</time>
      </trkpt>
      <trkpt lat="47.85525" lon="6.45022">
        <ele>427.035065</ele>
        <time>2020-05-12T13:43:37Z</time>
      </trkpt>
      <trkpt lat="47.85518" lon="6.45031">
        <ele>425.808746</ele>
        <time>2020-05-12T13:43:38Z</time>
      </trkpt>
      <trkpt lat="47.85515" lon="6.45032">
        <ele>425.442444</ele>
        <time>2020-05-12T13:43:39Z</time>
      </trkpt>
      <trkpt lat="47.85513" lon="6.45037">
        <ele>424.931122</ele>
        <time>2020-05-12T13:43:41Z</time>
      </trkpt>
      <trkpt lat="47.85511" lon="6.45041">
        <ele>424.592834</ele>
        <time>2020-05-12T13:43:42Z</time>
      </trkpt>
      <trkpt lat="47.85502" lon="6.45047">
        <ele>423.623688</ele>
        <time>2020-05-12T13:43:44Z</time>
      </trkpt>
      <trkpt lat="47.85508" lon="6.4504">
        <ele>424.410767</ele>
        <time>2020-05-12T13:43:45Z</time>
      </trkpt>
      <trkpt lat="47.85509" lon="6.45034">
        <ele>424.826355</ele>
        <time>2020-05-12T13:43:47Z</time>
      </trkpt>
      <trkpt lat="47.85501" lon="6.45042">
        <ele>423.837402</ele>
        <time>2020-05-12T13:43:49Z</time>
      </trkpt>
      <trkpt lat="47.85487" lon="6.45057">
        <ele>423.019012</ele>
        <time>2020-05-12T13:43:51Z</time>
      </trkpt>
      <trkpt lat="47.85477" lon="6.45061">
        <ele>423.331238</ele>
        <time>2020-05-12T13:43:52Z</time>
      </trkpt>
      <trkpt lat="47.8547" lon="6.45062">
        <ele>423.483429</ele>
        <time>2020-05-12T13:43:53Z</time>
      </trkpt>
      <trkpt lat="47.85465" lon="6.45063">
        <ele>423.603302</ele>
        <time>2020-05-12T13:43:54Z</time>
      </trkpt>
      <trkpt lat="47.85459" lon="6.45064">
        <ele>423.809265</ele>
        <time>2020-05-12T13:43:56Z</time>
      </trkpt>
      <trkpt lat="47.85449" lon="6.45063">
        <ele>424.19928</ele>
        <time>2020-05-12T13:43:57Z</time>
      </trkpt>
      <trkpt lat="47.85439" lon="6.45063">
        <ele>424.699127</ele>
        <time>2020-05-12T13:43:58Z</time>
      </trkpt>
      <trkpt lat="47.85426" lon="6.45064">
        <ele>425.470154</ele>
        <time>2020-05-12T13:44:00Z</time>
      </trkpt>
      <trkpt lat="47.85419" lon="6.45066">
        <ele>425.961884</ele>
        <time>2020-05-12T13:44:01Z</time>
      </trkpt>
      <trkpt lat="47.85414" lon="6.45068">
        <ele>426.415009</ele>
        <time>2020-05-12T13:44:03Z</time>
      </trkpt>
      <trkpt lat="47.8541" lon="6.4507">
        <ele>426.670013</ele>
        <time>2020-05-12T13:44:04Z</time>
      </trkpt>
      <trkpt lat="47.85407" lon="6.45073">
        <ele>426.980011</ele>
        <time>2020-05-12T13:44:05Z</time>
      </trkpt>
      <trkpt lat="47.85404" lon="6.45075">
        <ele>427.264984</ele>
        <time>2020-05-12T13:44:06Z</time>
      </trkpt>
      <trkpt lat="47.854" lon="6.45078">
        <ele>427.640015</ele>
        <time>2020-05-12T13:44:08Z</time>
      </trkpt>
      <trkpt lat="47.85397" lon="6.45081">
        <ele>428.005005</ele>
        <time>2020-05-12T13:44:09Z</time>
      </trkpt>
      <trkpt lat="47.8537" lon="6.45104">
        <ele>430.880005</ele>
        <time>2020-05-12T13:44:10Z</time>
      </trkpt>
      <trkpt lat="47.85365" lon="6.45109">
        <ele>431.340851</ele>
        <time>2020-05-12T13:44:11Z</time>
      </trkpt>
      <trkpt lat="47.85359" lon="6.45116">
        <ele>432.028473</ele>
        <time>2020-05-12T13:44:12Z</time>
      </trkpt>
      <trkpt lat="47.85358" lon="6.45117">
        <ele>432.075287</ele>
        <time>2020-05-12T13:44:13Z</time>
      </trkpt>
      <trkpt lat="47.85355" lon="6.4511">
        <ele>431.571747</ele>
        <time>2020-05-12T13:44:15Z</time>
      </trkpt>
      <trkpt lat="47.85351" lon="6.45111">
        <ele>431.627686</ele>
        <time>2020-05-12T13:44:16Z</time>
      </trkpt>
      <trkpt lat="47.8535" lon="6.45112">
        <ele>431.755646</ele>
        <time>2020-05-12T13:44:17Z</time>
      </trkpt>
      <trkpt lat="47.85347" lon="6.45119">
        <ele>432.220612</ele>
        <time>2020-05-12T13:44:18Z</time>
      </trkpt>
      <trkpt lat="47.85345" lon="6.45125">
        <ele>432.543762</ele>
        <time>2020-05-12T13:44:20Z</time>
      </trkpt>
      <trkpt lat="47.85341" lon="6.45131">
        <ele>432.825714</ele>
        <time>2020-05-12T13:44:21Z</time>
      </trkpt>
      <trkpt lat="47.85338" lon="6.45136">
        <ele>433.074585</ele>
        <time>2020-05-12T13:44:23Z</time>
      </trkpt>
      <trkpt lat="47.85336" lon="6.45139">
        <ele>433.260345</ele>
        <time>2020-05-12T13:44:24Z</time>
      </trkpt>
      <trkpt lat="47.85334" lon="6.45143">
        <ele>433.415924</ele>
        <time>2020-05-12T13:44:25Z</time>
      </trkpt>
      <trkpt lat="47.8533" lon="6.45149">
        <ele>433.688049</ele>
        <time>2020-05-12T13:44:27Z</time>
      </trkpt>
      <trkpt lat="47.85327" lon="6.45153">
        <ele>433.865997</ele>
        <time>2020-05-12T13:44:28Z</time>
      </trkpt>
      <trkpt lat="47.85321" lon="6.4516">
        <ele>434.089722</ele>
        <time>2020-05-12T13:44:30Z</time>
      </trkpt>
      <trkpt lat="47.85317" lon="6.45163">
        <ele>434.196198</ele>
        <time>2020-05-12T13:44:31Z</time>
      </trkpt>
      <trkpt lat="47.85312" lon="6.45167">
        <ele>434.280212</ele>
        <time>2020-05-12T13:44:32Z</time>
      </trkpt>
      <trkpt lat="47.85307" lon="6.4517">
        <ele>434.355042</ele>
        <time>2020-05-12T13:44:33Z</time>
      </trkpt>
      <trkpt lat="47.853" lon="6.45175">
        <ele>434.40509</ele>
        <time>2020-05-12T13:44:35Z</time>
      </trkpt>
      <trkpt lat="47.85294" lon="6.45178">
        <ele>434.416321</ele>
        <time>2020-05-12T13:44:36Z</time>
      </trkpt>
      <trkpt lat="47.85288" lon="6.45182">
        <ele>434.381592</ele>
        <time>2020-05-12T13:44:38Z</time>
      </trkpt>
      <trkpt lat="47.85279" lon="6.45191">
        <ele>434.312195</ele>
        <time>2020-05-12T13:44:40Z</time>
      </trkpt>
      <trkpt lat="47.85276" lon="6.45197">
        <ele>434.304993</ele>
        <time>2020-05-12T13:44:41Z</time>
      </trkpt>
      <trkpt lat="47.85274" lon="6.452">
        <ele>434.287262</ele>
        <time>2020-05-12T13:44:42Z</time>
      </trkpt>
      <trkpt lat="47.8527" lon="6.45217">
        <ele>434.287994</ele>
        <time>2020-05-12T13:44:44Z</time>
      </trkpt>
      <trkpt lat="47.85266" lon="6.45233">
        <ele>434.175751</ele>
        <time>2020-05-12T13:44:45Z</time>
      </trkpt>
      <trkpt lat="47.85263" lon="6.45245">
        <ele>434.019989</ele>
        <time>2020-05-12T13:44:46Z</time>
      </trkpt>
      <trkpt lat="47.8526" lon="6.45256">
        <ele>433.799988</ele>
        <time>2020-05-12T13:44:47Z</time>
      </trkpt>
      <trkpt lat="47.85257" lon="6.45264">
        <ele>433.559998</ele>
        <time>2020-05-12T13:44:49Z</time>
      </trkpt>
      <trkpt lat="47.85251" lon="6.45278">
        <ele>433.100006</ele>
        <time>2020-05-12T13:44:50Z</time>
      </trkpt>
      <trkpt lat="47.85247" lon="6.45282">
        <ele>432.73999</ele>
        <time>2020-05-12T13:44:52Z</time>
      </trkpt>
      <trkpt lat="47.85244" lon="6.45285">
        <ele>432.440002</ele>
        <time>2020-05-12T13:44:53Z</time>
      </trkpt>
      <trkpt lat="47.85223" lon="6.45309">
        <ele>430.801025</ele>
        <time>2020-05-12T13:44:54Z</time>
      </trkpt>
      <trkpt lat="47.85219" lon="6.45314">
        <ele>430.584198</ele>
        <time>2020-05-12T13:44:55Z</time>
      </trkpt>
      <trkpt lat="47.85212" lon="6.45323">
        <ele>430.295593</ele>
        <time>2020-05-12T13:44:56Z</time>
      </trkpt>
      <trkpt lat="47.852" lon="6.45334">
        <ele>430.067596</ele>
        <time>2020-05-12T13:44:58Z</time>
      </trkpt>
      <trkpt lat="47.85195" lon="6.45339">
        <ele>430.038116</ele>
        <time>2020-05-12T13:44:59Z</time>
      </trkpt>
      <trkpt lat="47.85185" lon="6.45348">
        <ele>430.124023</ele>
        <time>2020-05-12T13:45:01Z</time>
      </trkpt>
      <trkpt lat="47.85175" lon="6.45353">
        <ele>430.575836</ele>
        <time>2020-05-12T13:45:03Z</time>
      </trkpt>
      <trkpt lat="47.85167" lon="6.45346">
        <ele>430.778015</ele>
        <time>2020-05-12T13:45:05Z</time>
      </trkpt>
      <trkpt lat="47.85164" lon="6.45341">
        <ele>430.736725</ele>
        <time>2020-05-12T13:45:06Z</time>
      </trkpt>
      <trkpt lat="47.85156" lon="6.45331">
        <ele>430.699554</ele>
        <time>2020-05-12T13:45:08Z</time>
      </trkpt>
      <trkpt lat="47.85153" lon="6.45326">
        <ele>430.641083</ele>
        <time>2020-05-12T13:45:09Z</time>
      </trkpt>
      <trkpt lat="47.85144" lon="6.45315">
        <ele>430.536102</ele>
        <time>2020-05-12T13:45:11Z</time>
      </trkpt>
      <trkpt lat="47.85139" lon="6.4531">
        <ele>430.45932</ele>
        <time>2020-05-12T13:45:12Z</time>
      </trkpt>
      <trkpt lat="47.85131" lon="6.45298">
        <ele>430.245636</ele>
        <time>2020-05-12T13:45:14Z</time>
      </trkpt>
      <trkpt lat="47.85123" lon="6.45288">
        <ele>429.809204</ele>
        <time>2020-05-12T13:45:16Z</time>
      </trkpt>
      <trkpt lat="47.85119" lon="6.45282">
        <ele>429.622131</ele>
        <time>2020-05-12T13:45:17Z</time>
      </trkpt>
      <trkpt lat="47.85109" lon="6.45274">
        <ele>429.673615</ele>
        <time>2020-05-12T13:45:19Z</time>
      </trkpt>
      <trkpt lat="47.85105" lon="6.45272">
        <ele>429.810883</ele>
        <time>2020-05-12T13:45:20Z</time>
      </trkpt>
      <trkpt lat="47.85095" lon="6.45273">
        <ele>430.468903</ele>
        <time>2020-05-12T13:45:22Z</time>
      </trkpt>
      <trkpt lat="47.85086" lon="6.45278">
        <ele>431.295013</ele>
        <time>2020-05-12T13:45:24Z</time>
      </trkpt>
      <trkpt lat="47.85073" lon="6.45284">
        <ele>432.244995</ele>
        <time>2020-05-12T13:45:26Z</time>
      </trkpt>
      <trkpt lat="47.8506" lon="6.4529">
        <ele>433.230011</ele>
        <time>2020-05-12T13:45:28Z</time>
      </trkpt>
      <trkpt lat="47.85045" lon="6.45294">
        <ele>434.10675</ele>
        <time>2020-05-12T13:45:30Z</time>
      </trkpt>
      <trkpt lat="47.85028" lon="6.45299">
        <ele>434.4104</ele>
        <time>2020-05-12T13:45:32Z</time>
      </trkpt>
      <trkpt lat="47.85014" lon="6.45302">
        <ele>434.703094</ele>
        <time>2020-05-12T13:45:34Z</time>
      </trkpt>
      <trkpt lat="47.85001" lon="6.45305">
        <ele>435.017487</ele>
        <time>2020-05-12T13:45:36Z</time>
      </trkpt>
      <trkpt lat="47.84996" lon="6.45307">
        <ele>435.203918</ele>
        <time>2020-05-12T13:45:37Z</time>
      </trkpt>
      <trkpt lat="47.84985" lon="6.45309">
        <ele>435.556641</ele>
        <time>2020-05-12T13:45:39Z</time>
      </trkpt>
      <trkpt lat="47.84975" lon="6.45312">
        <ele>435.893616</ele>
        <time>2020-05-12T13:45:41Z</time>
      </trkpt>
      <trkpt lat="47.8497" lon="6.45314">
        <ele>436.078552</ele>
        <time>2020-05-12T13:45:42Z</time>
      </trkpt>
      <trkpt lat="47.84966" lon="6.45317">
        <ele>436.269257</ele>
        <time>2020-05-12T13:45:43Z</time>
      </trkpt>
      <trkpt lat="47.84957" lon="6.45321">
        <ele>436.598633</ele>
        <time>2020-05-12T13:45:45Z</time>
      </trkpt>
      <trkpt lat="47.84953" lon="6.45323">
        <ele>436.759949</ele>
        <time>2020-05-12T13:45:46Z</time>
      </trkpt>
      <trkpt lat="47.84944" lon="6.45328">
        <ele>437.063263</ele>
        <time>2020-05-12T13:45:48Z</time>
      </trkpt>
      <trkpt lat="47.8494" lon="6.4533">
        <ele>437.193542</ele>
        <time>2020-05-12T13:45:49Z</time>
      </trkpt>
      <trkpt lat="47.84937" lon="6.45332">
        <ele>437.280823</ele>
        <time>2020-05-12T13:45:50Z</time>
      </trkpt>
      <trkpt lat="47.84932" lon="6.45333">
        <ele>437.38559</ele>
        <time>2020-05-12T13:45:51Z</time>
      </trkpt>
      <trkpt lat="47.84927" lon="6.45335">
        <ele>437.476746</ele>
        <time>2020-05-12T13:45:52Z</time>
      </trkpt>
      <trkpt lat="47.84918" lon="6.45339">
        <ele>437.687347</ele>
        <time>2020-05-12T13:45:54Z</time>
      </trkpt>
      <trkpt lat="47.84912" lon="6.45344">
        <ele>437.851379</ele>
        <time>2020-05-12T13:45:56Z</time>
      </trkpt>
      <trkpt lat="47.84904" lon="6.4535">
        <ele>438.065094</ele>
        <time>2020-05-12T13:45:58Z</time>
      </trkpt>
      <trkpt lat="47.84901" lon="6.45353">
        <ele>438.149323</ele>
        <time>2020-05-12T13:45:59Z</time>
      </trkpt>
      <trkpt lat="47.84899" lon="6.45357">
        <ele>438.250092</ele>
        <time>2020-05-12T13:46:00Z</time>
      </trkpt>
      <trkpt lat="47.84898" lon="6.45361">
        <ele>438.365326</ele>
        <time>2020-05-12T13:46:01Z</time>
      </trkpt>
      <trkpt lat="47.84897" lon="6.45366">
        <ele>438.490875</ele>
        <time>2020-05-12T13:46:03Z</time>
      </trkpt>
      <trkpt lat="47.84896" lon="6.45368">
        <ele>438.52002</ele>
        <time>2020-05-12T13:46:04Z</time>
      </trkpt>
      <trkpt lat="47.84891" lon="6.45372">
        <ele>438.588287</ele>
        <time>2020-05-12T13:46:05Z</time>
      </trkpt>
      <trkpt lat="47.84885" lon="6.45376">
        <ele>438.651917</ele>
        <time>2020-05-12T13:46:07Z</time>
      </trkpt>
      <trkpt lat="47.8488" lon="6.4538">
        <ele>438.695313</ele>
        <time>2020-05-12T13:46:08Z</time>
      </trkpt>
      <trkpt lat="47.84873" lon="6.45385">
        <ele>438.715424</ele>
        <time>2020-05-12T13:46:09Z</time>
      </trkpt>
      <trkpt lat="47.84869" lon="6.45388">
        <ele>438.716156</ele>
        <time>2020-05-12T13:46:10Z</time>
      </trkpt>
      <trkpt lat="47.84863" lon="6.45391">
        <ele>438.692505</ele>
        <time>2020-05-12T13:46:12Z</time>
      </trkpt>
      <trkpt lat="47.84859" lon="6.45393">
        <ele>438.510651</ele>
        <time>2020-05-12T13:46:13Z</time>
      </trkpt>
      <trkpt lat="47.84855" lon="6.45396">
        <ele>438.3255</ele>
        <time>2020-05-12T13:46:14Z</time>
      </trkpt>
      <trkpt lat="47.84852" lon="6.45398">
        <ele>438.184448</ele>
        <time>2020-05-12T13:46:15Z</time>
      </trkpt>
      <trkpt lat="47.84849" lon="6.45403">
        <ele>438.029633</ele>
        <time>2020-05-12T13:46:17Z</time>
      </trkpt>
      <trkpt lat="47.84846" lon="6.45411">
        <ele>437.835846</ele>
        <time>2020-05-12T13:46:18Z</time>
      </trkpt>
      <trkpt lat="47.84842" lon="6.45414">
        <ele>437.559387</ele>
        <time>2020-05-12T13:46:19Z</time>
      </trkpt>
      <trkpt lat="47.8484" lon="6.4542">
        <ele>437.244202</ele>
        <time>2020-05-12T13:46:21Z</time>
      </trkpt>
      <trkpt lat="47.84836" lon="6.45431">
        <ele>436.752441</ele>
        <time>2020-05-12T13:46:22Z</time>
      </trkpt>
      <trkpt lat="47.84833" lon="6.45437">
        <ele>436.36319</ele>
        <time>2020-05-12T13:46:23Z</time>
      </trkpt>
      <trkpt lat="47.84829" lon="6.45444">
        <ele>435.96106</ele>
        <time>2020-05-12T13:46:24Z</time>
      </trkpt>
      <trkpt lat="47.84827" lon="6.45451">
        <ele>435.568268</ele>
        <time>2020-05-12T13:46:26Z</time>
      </trkpt>
      <trkpt lat="47.84825" lon="6.45458">
        <ele>435.244171</ele>
        <time>2020-05-12T13:46:27Z</time>
      </trkpt>
      <trkpt lat="47.84823" lon="6.45465">
        <ele>434.932098</ele>
        <time>2020-05-12T13:46:28Z</time>
      </trkpt>
      <trkpt lat="47.84821" lon="6.45472">
        <ele>434.564606</ele>
        <time>2020-05-12T13:46:30Z</time>
      </trkpt>
      <trkpt lat="47.84819" lon="6.45478">
        <ele>434.238403</ele>
        <time>2020-05-12T13:46:31Z</time>
      </trkpt>
      <trkpt lat="47.84817" lon="6.45482">
        <ele>433.979614</ele>
        <time>2020-05-12T13:46:32Z</time>
      </trkpt>
      <trkpt lat="47.84812" lon="6.45495">
        <ele>433.068512</ele>
        <time>2020-05-12T13:46:33Z</time>
      </trkpt>
      <trkpt lat="47.84805" lon="6.45503">
        <ele>432.115509</ele>
        <time>2020-05-12T13:46:35Z</time>
      </trkpt>
      <trkpt lat="47.84798" lon="6.45509">
        <ele>431.34549</ele>
        <time>2020-05-12T13:46:36Z</time>
      </trkpt>
      <trkpt lat="47.848" lon="6.45499">
        <ele>431.665619</ele>
        <time>2020-05-12T13:46:37Z</time>
      </trkpt>
      <trkpt lat="47.84797" lon="6.45501">
        <ele>431.311401</ele>
        <time>2020-05-12T13:46:38Z</time>
      </trkpt>
      <trkpt lat="47.84782" lon="6.45534">
        <ele>429.940857</ele>
        <time>2020-05-12T13:46:40Z</time>
      </trkpt>
      <trkpt lat="47.84775" lon="6.45552">
        <ele>430.18454</ele>
        <time>2020-05-12T13:46:41Z</time>
      </trkpt>
      <trkpt lat="47.84771" lon="6.45554">
        <ele>430.137604</ele>
        <time>2020-05-12T13:46:43Z</time>
      </trkpt>
      <trkpt lat="47.84766" lon="6.45561">
        <ele>430.336426</ele>
        <time>2020-05-12T13:46:44Z</time>
      </trkpt>
      <trkpt lat="47.84764" lon="6.45566">
        <ele>430.5784</ele>
        <time>2020-05-12T13:46:46Z</time>
      </trkpt>
      <trkpt lat="47.84762" lon="6.4557">
        <ele>430.808411</ele>
        <time>2020-05-12T13:46:47Z</time>
      </trkpt>
      <trkpt lat="47.84759" lon="6.45579">
        <ele>431.233337</ele>
        <time>2020-05-12T13:46:48Z</time>
      </trkpt>
      <trkpt lat="47.84757" lon="6.456">
        <ele>432.362091</ele>
        <time>2020-05-12T13:46:50Z</time>
      </trkpt>
      <trkpt lat="47.84754" lon="6.45614">
        <ele>432.747375</ele>
        <time>2020-05-12T13:46:51Z</time>
      </trkpt>
      <trkpt lat="47.84753" lon="6.45624">
        <ele>432.976135</ele>
        <time>2020-05-12T13:46:52Z</time>
      </trkpt>
      <trkpt lat="47.84753" lon="6.45636">
        <ele>433.338501</ele>
        <time>2020-05-12T13:46:53Z</time>
      </trkpt>
      <trkpt lat="47.84753" lon="6.45656">
        <ele>433.894989</ele>
        <time>2020-05-12T13:46:54Z</time>
      </trkpt>
      <trkpt lat="47.84753" lon="6.45663">
        <ele>434.079803</ele>
        <time>2020-05-12T13:46:55Z</time>
      </trkpt>
      <trkpt lat="47.84753" lon="6.45669">
        <ele>434.244812</ele>
        <time>2020-05-12T13:46:57Z</time>
      </trkpt>
      <trkpt lat="47.84751" lon="6.45684">
        <ele>434.401245</ele>
        <time>2020-05-12T13:46:58Z</time>
      </trkpt>
      <trkpt lat="47.84745" lon="6.45724">
        <ele>434.681244</ele>
        <time>2020-05-12T13:47:00Z</time>
      </trkpt>
      <trkpt lat="47.84742" lon="6.45737">
        <ele>434.751373</ele>
        <time>2020-05-12T13:47:01Z</time>
      </trkpt>
      <trkpt lat="47.84741" lon="6.45749">
        <ele>434.599701</ele>
        <time>2020-05-12T13:47:02Z</time>
      </trkpt>
      <trkpt lat="47.84738" lon="6.45767">
        <ele>434.304596</ele>
        <time>2020-05-12T13:47:04Z</time>
      </trkpt>
      <trkpt lat="47.84736" lon="6.45783">
        <ele>434.060791</ele>
        <time>2020-05-12T13:47:06Z</time>
      </trkpt>
      <trkpt lat="47.84735" lon="6.45799">
        <ele>433.914459</ele>
        <time>2020-05-12T13:47:08Z</time>
      </trkpt>
      <trkpt lat="47.84736" lon="6.45814">
        <ele>433.980011</ele>
        <time>2020-05-12T13:47:10Z</time>
      </trkpt>
      <trkpt lat="47.84736" lon="6.45822">
        <ele>434.059998</ele>
        <time>2020-05-12T13:47:11Z</time>
      </trkpt>
      <trkpt lat="47.84739" lon="6.45836">
        <ele>434.359985</ele>
        <time>2020-05-12T13:47:13Z</time>
      </trkpt>
      <trkpt lat="47.84746" lon="6.45848">
        <ele>434.980011</ele>
        <time>2020-05-12T13:47:15Z</time>
      </trkpt>
      <trkpt lat="47.84749" lon="6.45853">
        <ele>435.339996</ele>
        <time>2020-05-12T13:47:16Z</time>
      </trkpt>
      <trkpt lat="47.84756" lon="6.45861">
        <ele>435.959991</ele>
        <time>2020-05-12T13:47:18Z</time>
      </trkpt>
      <trkpt lat="47.84765" lon="6.45869">
        <ele>436.54599</ele>
        <time>2020-05-12T13:47:20Z</time>
      </trkpt>
      <trkpt lat="47.84769" lon="6.45872">
        <ele>436.869629</ele>
        <time>2020-05-12T13:47:21Z</time>
      </trkpt>
      <trkpt lat="47.84774" lon="6.45876">
        <ele>437.200012</ele>
        <time>2020-05-12T13:47:22Z</time>
      </trkpt>
      <trkpt lat="47.84774" lon="6.45881">
        <ele>437.170013</ele>
        <time>2020-05-12T13:47:24Z</time>
      </trkpt>
      <trkpt lat="47.84778" lon="6.45884">
        <ele>437.470001</ele>
        <time>2020-05-12T13:47:25Z</time>
      </trkpt>
      <trkpt lat="47.84787" lon="6.45887">
        <ele>438.084991</ele>
        <time>2020-05-12T13:47:26Z</time>
      </trkpt>
      <trkpt lat="47.84795" lon="6.4589">
        <ele>438.654999</ele>
        <time>2020-05-12T13:47:28Z</time>
      </trkpt>
      <trkpt lat="47.84805" lon="6.45894">
        <ele>439.128632</ele>
        <time>2020-05-12T13:47:29Z</time>
      </trkpt>
      <trkpt lat="47.84814" lon="6.45899">
        <ele>439.415802</ele>
        <time>2020-05-12T13:47:31Z</time>
      </trkpt>
      <trkpt lat="47.8482" lon="6.45901">
        <ele>439.587494</ele>
        <time>2020-05-12T13:47:32Z</time>
      </trkpt>
      <trkpt lat="47.84828" lon="6.45904">
        <ele>439.871094</ele>
        <time>2020-05-12T13:47:34Z</time>
      </trkpt>
      <trkpt lat="47.84834" lon="6.45907">
        <ele>440.099701</ele>
        <time>2020-05-12T13:47:35Z</time>
      </trkpt>
      <trkpt lat="47.84846" lon="6.45911">
        <ele>440.512482</ele>
        <time>2020-05-12T13:47:37Z</time>
      </trkpt>
      <trkpt lat="47.84851" lon="6.45914">
        <ele>440.667511</ele>
        <time>2020-05-12T13:47:38Z</time>
      </trkpt>
      <trkpt lat="47.84857" lon="6.45917">
        <ele>440.827484</ele>
        <time>2020-05-12T13:47:39Z</time>
      </trkpt>
      <trkpt lat="47.84867" lon="6.45922">
        <ele>441.131256</ele>
        <time>2020-05-12T13:47:41Z</time>
      </trkpt>
      <trkpt lat="47.84872" lon="6.45925">
        <ele>441.266266</ele>
        <time>2020-05-12T13:47:42Z</time>
      </trkpt>
      <trkpt lat="47.84877" lon="6.45927">
        <ele>441.40625</ele>
        <time>2020-05-12T13:47:43Z</time>
      </trkpt>
      <trkpt lat="47.84886" lon="6.45932">
        <ele>441.671265</ele>
        <time>2020-05-12T13:47:45Z</time>
      </trkpt>
      <trkpt lat="47.8489" lon="6.45934">
        <ele>441.804993</ele>
        <time>2020-05-12T13:47:46Z</time>
      </trkpt>
      <trkpt lat="47.84895" lon="6.45937">
        <ele>441.945007</ele>
        <time>2020-05-12T13:47:47Z</time>
      </trkpt>
      <trkpt lat="47.849" lon="6.45939">
        <ele>442.08374</ele>
        <time>2020-05-12T13:47:48Z</time>
      </trkpt>
      <trkpt lat="47.8491" lon="6.45943">
        <ele>442.366241</ele>
        <time>2020-05-12T13:47:50Z</time>
      </trkpt>
      <trkpt lat="47.8492" lon="6.45948">
        <ele>442.648743</ele>
        <time>2020-05-12T13:47:52Z</time>
      </trkpt>
      <trkpt lat="47.84929" lon="6.45952">
        <ele>442.909668</ele>
        <time>2020-05-12T13:47:54Z</time>
      </trkpt>
      <trkpt lat="47.84939" lon="6.45957">
        <ele>443.230011</ele>
        <time>2020-05-12T13:47:56Z</time>
      </trkpt>
      <trkpt lat="47.84947" lon="6.45963">
        <ele>443.630005</ele>
        <time>2020-05-12T13:47:58Z</time>
      </trkpt>
      <trkpt lat="47.84952" lon="6.45967">
        <ele>443.820007</ele>
        <time>2020-05-12T13:47:59Z</time>
      </trkpt>
      <trkpt lat="47.8496" lon="6.45974">
        <ele>444.230011</ele>
        <time>2020-05-12T13:48:01Z</time>
      </trkpt>
      <trkpt lat="47.84965" lon="6.45978">
        <ele>444.429993</ele>
        <time>2020-05-12T13:48:02Z</time>
      </trkpt>
      <trkpt lat="47.84973" lon="6.45986">
        <ele>444.809998</ele>
        <time>2020-05-12T13:48:04Z</time>
      </trkpt>
      <trkpt lat="47.84977" lon="6.4599">
        <ele>444.98999</ele>
        <time>2020-05-12T13:48:05Z</time>
      </trkpt>
      <trkpt lat="47.84985" lon="6.45998">
        <ele>445.300629</ele>
        <time>2020-05-12T13:48:07Z</time>
      </trkpt>
      <trkpt lat="47.84993" lon="6.46008">
        <ele>445.643768</ele>
        <time>2020-05-12T13:48:09Z</time>
      </trkpt>
      <trkpt lat="47.85" lon="6.46021">
        <ele>446.020477</ele>
        <time>2020-05-12T13:48:11Z</time>
      </trkpt>
      <trkpt lat="47.85006" lon="6.46034">
        <ele>446.214996</ele>
        <time>2020-05-12T13:48:13Z</time>
      </trkpt>
      <trkpt lat="47.85013" lon="6.46047">
        <ele>446.346252</ele>
        <time>2020-05-12T13:48:15Z</time>
      </trkpt>
      <trkpt lat="47.85021" lon="6.46059">
        <ele>446.560699</ele>
        <time>2020-05-12T13:48:17Z</time>
      </trkpt>
      <trkpt lat="47.8503" lon="6.46071">
        <ele>446.862</ele>
        <time>2020-05-12T13:48:19Z</time>
      </trkpt>
      <trkpt lat="47.85038" lon="6.46083">
        <ele>447.274536</ele>
        <time>2020-05-12T13:48:21Z</time>
      </trkpt>
      <trkpt lat="47.85046" lon="6.46094">
        <ele>447.81131</ele>
        <time>2020-05-12T13:48:23Z</time>
      </trkpt>
      <trkpt lat="47.85054" lon="6.46104">
        <ele>448.480011</ele>
        <time>2020-05-12T13:48:25Z</time>
      </trkpt>
      <trkpt lat="47.85058" lon="6.4611">
        <ele>448.881256</ele>
        <time>2020-05-12T13:48:26Z</time>
      </trkpt>
      <trkpt lat="47.85063" lon="6.46116">
        <ele>449.285004</ele>
        <time>2020-05-12T13:48:27Z</time>
      </trkpt>
      <trkpt lat="47.85071" lon="6.46127">
        <ele>449.82373</ele>
        <time>2020-05-12T13:48:29Z</time>
      </trkpt>
      <trkpt lat="47.85079" lon="6.46138">
        <ele>450.355011</ele>
        <time>2020-05-12T13:48:31Z</time>
      </trkpt>
      <trkpt lat="47.85087" lon="6.46149">
        <ele>450.856262</ele>
        <time>2020-05-12T13:48:33Z</time>
      </trkpt>
      <trkpt lat="47.85091" lon="6.46154">
        <ele>451.136261</ele>
        <time>2020-05-12T13:48:34Z</time>
      </trkpt>
      <trkpt lat="47.851" lon="6.46166">
        <ele>451.729309</ele>
        <time>2020-05-12T13:48:36Z</time>
      </trkpt>
      <trkpt lat="47.85108" lon="6.46178">
        <ele>452.444946</ele>
        <time>2020-05-12T13:48:38Z</time>
      </trkpt>
      <trkpt lat="47.85113" lon="6.46184">
        <ele>452.791504</ele>
        <time>2020-05-12T13:48:39Z</time>
      </trkpt>
      <trkpt lat="47.85117" lon="6.4619">
        <ele>453.107666</ele>
        <time>2020-05-12T13:48:40Z</time>
      </trkpt>
      <trkpt lat="47.85126" lon="6.46202">
        <ele>453.713104</ele>
        <time>2020-05-12T13:48:42Z</time>
      </trkpt>
      <trkpt lat="47.8513" lon="6.46208">
        <ele>453.980408</ele>
        <time>2020-05-12T13:48:43Z</time>
      </trkpt>
      <trkpt lat="47.85135" lon="6.46214">
        <ele>454.232758</ele>
        <time>2020-05-12T13:48:44Z</time>
      </trkpt>
      <trkpt lat="47.85139" lon="6.46219">
        <ele>454.445435</ele>
        <time>2020-05-12T13:48:45Z</time>
      </trkpt>
      <trkpt lat="47.85146" lon="6.46228">
        <ele>454.819733</ele>
        <time>2020-05-12T13:48:47Z</time>
      </trkpt>
      <trkpt lat="47.8515" lon="6.46233">
        <ele>454.943939</ele>
        <time>2020-05-12T13:48:48Z</time>
      </trkpt>
      <trkpt lat="47.85157" lon="6.46241">
        <ele>455.046112</ele>
        <time>2020-05-12T13:48:50Z</time>
      </trkpt>
      <trkpt lat="47.8516" lon="6.46245">
        <ele>455.087189</ele>
        <time>2020-05-12T13:48:51Z</time>
      </trkpt>
      <trkpt lat="47.85166" lon="6.46254">
        <ele>455.142914</ele>
        <time>2020-05-12T13:48:53Z</time>
      </trkpt>
      <trkpt lat="47.85169" lon="6.46258">
        <ele>455.159668</ele>
        <time>2020-05-12T13:48:54Z</time>
      </trkpt>
      <trkpt lat="47.85172" lon="6.46263">
        <ele>455.167908</ele>
        <time>2020-05-12T13:48:55Z</time>
      </trkpt>
      <trkpt lat="47.85175" lon="6.46267">
        <ele>455.169495</ele>
        <time>2020-05-12T13:48:56Z</time>
      </trkpt>
      <trkpt lat="47.85181" lon="6.46274">
        <ele>455.137482</ele>
        <time>2020-05-12T13:48:58Z</time>
      </trkpt>
      <trkpt lat="47.85184" lon="6.46278">
        <ele>455.113342</ele>
        <time>2020-05-12T13:48:59Z</time>
      </trkpt>
      <trkpt lat="47.85186" lon="6.46282">
        <ele>455.082397</ele>
        <time>2020-05-12T13:49:00Z</time>
      </trkpt>
      <trkpt lat="47.85192" lon="6.46289">
        <ele>455.003662</ele>
        <time>2020-05-12T13:49:02Z</time>
      </trkpt>
      <trkpt lat="47.85198" lon="6.46301">
        <ele>454.579498</ele>
        <time>2020-05-12T13:49:03Z</time>
      </trkpt>
      <trkpt lat="47.85197" lon="6.46304">
        <ele>454.600891</ele>
        <time>2020-05-12T13:49:04Z</time>
      </trkpt>
      <trkpt lat="47.85197" lon="6.46306">
        <ele>454.597351</ele>
        <time>2020-05-12T13:49:05Z</time>
      </trkpt>
      <trkpt lat="47.85194" lon="6.46309">
        <ele>454.749481</ele>
        <time>2020-05-12T13:49:07Z</time>
      </trkpt>
      <trkpt lat="47.85192" lon="6.46313">
        <ele>454.832764</ele>
        <time>2020-05-12T13:49:08Z</time>
      </trkpt>
      <trkpt lat="47.8519" lon="6.46318">
        <ele>454.871155</ele>
        <time>2020-05-12T13:49:09Z</time>
      </trkpt>
      <trkpt lat="47.85187" lon="6.46323">
        <ele>454.84259</ele>
        <time>2020-05-12T13:49:10Z</time>
      </trkpt>
      <trkpt lat="47.85185" lon="6.46328">
        <ele>454.831787</ele>
        <time>2020-05-12T13:49:12Z</time>
      </trkpt>
      <trkpt lat="47.85183" lon="6.46334">
        <ele>454.823486</ele>
        <time>2020-05-12T13:49:13Z</time>
      </trkpt>
      <trkpt lat="47.85179" lon="6.46341">
        <ele>454.849579</ele>
        <time>2020-05-12T13:49:14Z</time>
      </trkpt>
      <trkpt lat="47.85176" lon="6.46346">
        <ele>454.898865</ele>
        <time>2020-05-12T13:49:15Z</time>
      </trkpt>
      <trkpt lat="47.85173" lon="6.46352">
        <ele>454.925262</ele>
        <time>2020-05-12T13:49:17Z</time>
      </trkpt>
      <trkpt lat="47.8517" lon="6.46359">
        <ele>454.971161</ele>
        <time>2020-05-12T13:49:18Z</time>
      </trkpt>
      <trkpt lat="47.85168" lon="6.46364">
        <ele>455.015625</ele>
        <time>2020-05-12T13:49:19Z</time>
      </trkpt>
      <trkpt lat="47.85166" lon="6.46369">
        <ele>455.060394</ele>
        <time>2020-05-12T13:49:21Z</time>
      </trkpt>
      <trkpt lat="47.85164" lon="6.46373">
        <ele>455.120209</ele>
        <time>2020-05-12T13:49:22Z</time>
      </trkpt>
      <trkpt lat="47.8516" lon="6.4638">
        <ele>455.201721</ele>
        <time>2020-05-12T13:49:23Z</time>
      </trkpt>
      <trkpt lat="47.85158" lon="6.46384">
        <ele>455.264252</ele>
        <time>2020-05-12T13:49:24Z</time>
      </trkpt>
      <trkpt lat="47.85156" lon="6.46389">
        <ele>455.343872</ele>
        <time>2020-05-12T13:49:25Z</time>
      </trkpt>
      <trkpt lat="47.85153" lon="6.46395">
        <ele>455.479706</ele>
        <time>2020-05-12T13:49:27Z</time>
      </trkpt>
      <trkpt lat="47.8515" lon="6.46401">
        <ele>455.594299</ele>
        <time>2020-05-12T13:49:28Z</time>
      </trkpt>
      <trkpt lat="47.85148" lon="6.46405">
        <ele>455.696991</ele>
        <time>2020-05-12T13:49:30Z</time>
      </trkpt>
      <trkpt lat="47.85145" lon="6.46411">
        <ele>455.856384</ele>
        <time>2020-05-12T13:49:31Z</time>
      </trkpt>
      <trkpt lat="47.85142" lon="6.46417">
        <ele>456.01001</ele>
        <time>2020-05-12T13:49:32Z</time>
      </trkpt>
      <trkpt lat="47.85138" lon="6.46423">
        <ele>456.084991</ele>
        <time>2020-05-12T13:49:34Z</time>
      </trkpt>
      <trkpt lat="47.85135" lon="6.46429">
        <ele>456.160004</ele>
        <time>2020-05-12T13:49:36Z</time>
      </trkpt>
      <trkpt lat="47.85131" lon="6.46435">
        <ele>456.230011</ele>
        <time>2020-05-12T13:49:37Z</time>
      </trkpt>
      <trkpt lat="47.85128" lon="6.46441">
        <ele>456.320068</ele>
        <time>2020-05-12T13:49:38Z</time>
      </trkpt>
      <trkpt lat="47.85125" lon="6.46446">
        <ele>456.404694</ele>
        <time>2020-05-12T13:49:39Z</time>
      </trkpt>
      <trkpt lat="47.85122" lon="6.46454">
        <ele>456.550385</ele>
        <time>2020-05-12T13:49:41Z</time>
      </trkpt>
      <trkpt lat="47.85119" lon="6.4646">
        <ele>456.672516</ele>
        <time>2020-05-12T13:49:42Z</time>
      </trkpt>
      <trkpt lat="47.85117" lon="6.46464">
        <ele>456.770386</ele>
        <time>2020-05-12T13:49:44Z</time>
      </trkpt>
      <trkpt lat="47.85113" lon="6.46471">
        <ele>456.924011</ele>
        <time>2020-05-12T13:49:45Z</time>
      </trkpt>
      <trkpt lat="47.85111" lon="6.46475">
        <ele>457.032806</ele>
        <time>2020-05-12T13:49:46Z</time>
      </trkpt>
      <trkpt lat="47.8511" lon="6.4648">
        <ele>457.133148</ele>
        <time>2020-05-12T13:49:47Z</time>
      </trkpt>
      <trkpt lat="47.85107" lon="6.46484">
        <ele>457.267853</ele>
        <time>2020-05-12T13:49:49Z</time>
      </trkpt>
      <trkpt lat="47.85105" lon="6.46489">
        <ele>457.400452</ele>
        <time>2020-05-12T13:49:50Z</time>
      </trkpt>
      <trkpt lat="47.85103" lon="6.46494">
        <ele>457.562103</ele>
        <time>2020-05-12T13:49:51Z</time>
      </trkpt>
      <trkpt lat="47.85099" lon="6.46502">
        <ele>457.765015</ele>
        <time>2020-05-12T13:49:53Z</time>
      </trkpt>
      <trkpt lat="47.85095" lon="6.46509">
        <ele>457.808746</ele>
        <time>2020-05-12T13:49:54Z</time>
      </trkpt>
      <trkpt lat="47.85092" lon="6.46515">
        <ele>457.774475</ele>
        <time>2020-05-12T13:49:56Z</time>
      </trkpt>
      <trkpt lat="47.8509" lon="6.4652">
        <ele>457.718628</ele>
        <time>2020-05-12T13:49:57Z</time>
      </trkpt>
      <trkpt lat="47.85088" lon="6.46525">
        <ele>457.667236</ele>
        <time>2020-05-12T13:49:59Z</time>
      </trkpt>
      <trkpt lat="47.85084" lon="6.46532">
        <ele>457.607483</ele>
        <time>2020-05-12T13:50:00Z</time>
      </trkpt>
      <trkpt lat="47.85081" lon="6.46538">
        <ele>457.569092</ele>
        <time>2020-05-12T13:50:02Z</time>
      </trkpt>
      <trkpt lat="47.85077" lon="6.46547">
        <ele>457.530853</ele>
        <time>2020-05-12T13:50:04Z</time>
      </trkpt>
      <trkpt lat="47.85075" lon="6.46551">
        <ele>457.520386</ele>
        <time>2020-05-12T13:50:05Z</time>
      </trkpt>
      <trkpt lat="47.85072" lon="6.46557">
        <ele>457.516693</ele>
        <time>2020-05-12T13:50:06Z</time>
      </trkpt>
      <trkpt lat="47.85069" lon="6.46563">
        <ele>457.527161</ele>
        <time>2020-05-12T13:50:07Z</time>
      </trkpt>
      <trkpt lat="47.85067" lon="6.46568">
        <ele>457.495056</ele>
        <time>2020-05-12T13:50:08Z</time>
      </trkpt>
      <trkpt lat="47.85063" lon="6.46573">
        <ele>457.462189</ele>
        <time>2020-05-12T13:50:09Z</time>
      </trkpt>
      <trkpt lat="47.8506" lon="6.46577">
        <ele>457.443787</ele>
        <time>2020-05-12T13:50:11Z</time>
      </trkpt>
      <trkpt lat="47.85057" lon="6.46582">
        <ele>457.423828</ele>
        <time>2020-05-12T13:50:12Z</time>
      </trkpt>
      <trkpt lat="47.85053" lon="6.4659">
        <ele>457.411316</ele>
        <time>2020-05-12T13:50:14Z</time>
      </trkpt>
      <trkpt lat="47.85048" lon="6.46599">
        <ele>457.401154</ele>
        <time>2020-05-12T13:50:16Z</time>
      </trkpt>
      <trkpt lat="47.85046" lon="6.46603">
        <ele>457.401245</ele>
        <time>2020-05-12T13:50:17Z</time>
      </trkpt>
      <trkpt lat="47.85046" lon="6.46608">
        <ele>457.323761</ele>
        <time>2020-05-12T13:50:18Z</time>
      </trkpt>
      <trkpt lat="47.85048" lon="6.46611">
        <ele>457.188721</ele>
        <time>2020-05-12T13:50:19Z</time>
      </trkpt>
      <trkpt lat="47.85051" lon="6.46613">
        <ele>457.036621</ele>
        <time>2020-05-12T13:50:20Z</time>
      </trkpt>
      <trkpt lat="47.85056" lon="6.46618">
        <ele>456.739075</ele>
        <time>2020-05-12T13:50:22Z</time>
      </trkpt>
      <trkpt lat="47.85059" lon="6.46621">
        <ele>456.598236</ele>
        <time>2020-05-12T13:50:23Z</time>
      </trkpt>
      <trkpt lat="47.85063" lon="6.46626">
        <ele>456.279663</ele>
        <time>2020-05-12T13:50:24Z</time>
      </trkpt>
      <trkpt lat="47.85068" lon="6.46631">
        <ele>455.961426</ele>
        <time>2020-05-12T13:50:26Z</time>
      </trkpt>
      <trkpt lat="47.85073" lon="6.46637">
        <ele>455.622559</ele>
        <time>2020-05-12T13:50:27Z</time>
      </trkpt>
      <trkpt lat="47.85078" lon="6.46642">
        <ele>455.270233</ele>
        <time>2020-05-12T13:50:28Z</time>
      </trkpt>
      <trkpt lat="47.85085" lon="6.46648">
        <ele>454.91629</ele>
        <time>2020-05-12T13:50:29Z</time>
      </trkpt>
      <trkpt lat="47.85096" lon="6.4666">
        <ele>454.511475</ele>
        <time>2020-05-12T13:50:31Z</time>
      </trkpt>
      <trkpt lat="47.85103" lon="6.46667">
        <ele>454.344238</ele>
        <time>2020-05-12T13:50:32Z</time>
      </trkpt>
      <trkpt lat="47.85112" lon="6.46681">
        <ele>454.147217</ele>
        <time>2020-05-12T13:50:34Z</time>
      </trkpt>
      <trkpt lat="47.85108" lon="6.4668">
        <ele>454.183136</ele>
        <time>2020-05-12T13:50:35Z</time>
      </trkpt>
      <trkpt lat="47.85105" lon="6.46675">
        <ele>454.251556</ele>
        <time>2020-05-12T13:50:36Z</time>
      </trkpt>
      <trkpt lat="47.85105" lon="6.46696">
        <ele>454.045013</ele>
        <time>2020-05-12T13:50:38Z</time>
      </trkpt>
      <trkpt lat="47.85097" lon="6.46718">
        <ele>453.747498</ele>
        <time>2020-05-12T13:50:40Z</time>
      </trkpt>
      <trkpt lat="47.85092" lon="6.46726">
        <ele>453.617493</ele>
        <time>2020-05-12T13:50:41Z</time>
      </trkpt>
      <trkpt lat="47.85083" lon="6.46739">
        <ele>453.343719</ele>
        <time>2020-05-12T13:50:43Z</time>
      </trkpt>
      <trkpt lat="47.85075" lon="6.46751">
        <ele>452.873962</ele>
        <time>2020-05-12T13:50:45Z</time>
      </trkpt>
      <trkpt lat="47.85068" lon="6.4676">
        <ele>452.360168</ele>
        <time>2020-05-12T13:50:47Z</time>
      </trkpt>
      <trkpt lat="47.85064" lon="6.46765">
        <ele>452.057495</ele>
        <time>2020-05-12T13:50:48Z</time>
      </trkpt>
      <trkpt lat="47.85061" lon="6.46771">
        <ele>451.742493</ele>
        <time>2020-05-12T13:50:49Z</time>
      </trkpt>
      <trkpt lat="47.85057" lon="6.46778">
        <ele>451.392487</ele>
        <time>2020-05-12T13:50:50Z</time>
      </trkpt>
      <trkpt lat="47.85049" lon="6.46792">
        <ele>450.595001</ele>
        <time>2020-05-12T13:50:52Z</time>
      </trkpt>
      <trkpt lat="47.8504" lon="6.46807">
        <ele>449.747498</ele>
        <time>2020-05-12T13:50:54Z</time>
      </trkpt>
      <trkpt lat="47.85035" lon="6.46816">
        <ele>449.200958</ele>
        <time>2020-05-12T13:50:55Z</time>
      </trkpt>
      <trkpt lat="47.85026" lon="6.46833">
        <ele>447.735931</ele>
        <time>2020-05-12T13:50:57Z</time>
      </trkpt>
      <trkpt lat="47.85016" lon="6.46845">
        <ele>446.209534</ele>
        <time>2020-05-12T13:50:59Z</time>
      </trkpt>
      <trkpt lat="47.8501" lon="6.46849">
        <ele>445.504669</ele>
        <time>2020-05-12T13:51:00Z</time>
      </trkpt>
      <trkpt lat="47.85006" lon="6.46851">
        <ele>444.970245</ele>
        <time>2020-05-12T13:51:01Z</time>
      </trkpt>
      <trkpt lat="47.85004" lon="6.46852">
        <ele>444.696716</ele>
        <time>2020-05-12T13:51:02Z</time>
      </trkpt>
      <trkpt lat="47.85003" lon="6.46852">
        <ele>444.65152</ele>
        <time>2020-05-12T13:51:03Z</time>
      </trkpt>
      <trkpt lat="47.85003" lon="6.46853">
        <ele>444.601563</ele>
        <time>2020-05-12T13:51:05Z</time>
      </trkpt>
      <trkpt lat="47.85003" lon="6.46853">
        <ele>444.556244</ele>
        <time>2020-05-12T13:51:07Z</time>
      </trkpt>
      <trkpt lat="47.85003" lon="6.46854">
        <ele>444.528137</ele>
        <time>2020-05-12T13:51:08Z</time>
      </trkpt>
      <trkpt lat="47.85003" lon="6.46854">
        <ele>444.482697</ele>
        <time>2020-05-12T13:51:10Z</time>
      </trkpt>
      <trkpt lat="47.85003" lon="6.46854">
        <ele>444.454529</ele>
        <time>2020-05-12T13:51:11Z</time>
      </trkpt>
      <trkpt lat="47.85003" lon="6.46855">
        <ele>444.408997</ele>
        <time>2020-05-12T13:51:12Z</time>
      </trkpt>
      <trkpt lat="47.85002" lon="6.46855">
        <ele>444.380798</ele>
        <time>2020-05-12T13:51:14Z</time>
      </trkpt>
      <trkpt lat="47.85002" lon="6.46856">
        <ele>444.335175</ele>
        <time>2020-05-12T13:51:16Z</time>
      </trkpt>
      <trkpt lat="47.85002" lon="6.46856">
        <ele>444.306946</ele>
        <time>2020-05-12T13:51:17Z</time>
      </trkpt>
      <trkpt lat="47.85002" lon="6.46857">
        <ele>444.2612</ele>
        <time>2020-05-12T13:51:18Z</time>
      </trkpt>
      <trkpt lat="47.85" lon="6.46863">
        <ele>443.718048</ele>
        <time>2020-05-12T13:51:20Z</time>
      </trkpt>
      <trkpt lat="47.84998" lon="6.46866">
        <ele>443.287415</ele>
        <time>2020-05-12T13:51:21Z</time>
      </trkpt>
      <trkpt lat="47.84992" lon="6.46875">
        <ele>442.261597</ele>
        <time>2020-05-12T13:51:23Z</time>
      </trkpt>
      <trkpt lat="47.84989" lon="6.46881">
        <ele>441.641083</ele>
        <time>2020-05-12T13:51:24Z</time>
      </trkpt>
      <trkpt lat="47.84985" lon="6.46887">
        <ele>441.124268</ele>
        <time>2020-05-12T13:51:25Z</time>
      </trkpt>
      <trkpt lat="47.84982" lon="6.46895">
        <ele>440.433899</ele>
        <time>2020-05-12T13:51:26Z</time>
      </trkpt>
      <trkpt lat="47.84978" lon="6.469">
        <ele>439.89151</ele>
        <time>2020-05-12T13:51:28Z</time>
      </trkpt>
      <trkpt lat="47.84976" lon="6.46901">
        <ele>439.709839</ele>
        <time>2020-05-12T13:51:29Z</time>
      </trkpt>
      <trkpt lat="47.84975" lon="6.46902">
        <ele>439.623535</ele>
        <time>2020-05-12T13:51:31Z</time>
      </trkpt>
      <trkpt lat="47.84974" lon="6.46904">
        <ele>439.467499</ele>
        <time>2020-05-12T13:51:32Z</time>
      </trkpt>
      <trkpt lat="47.84973" lon="6.46907">
        <ele>439.253204</ele>
        <time>2020-05-12T13:51:34Z</time>
      </trkpt>
      <trkpt lat="47.84973" lon="6.46912">
        <ele>438.903931</ele>
        <time>2020-05-12T13:51:35Z</time>
      </trkpt>
      <trkpt lat="47.84975" lon="6.46919">
        <ele>438.438141</ele>
        <time>2020-05-12T13:51:37Z</time>
      </trkpt>
      <trkpt lat="47.84977" lon="6.46924">
        <ele>438.071106</ele>
        <time>2020-05-12T13:51:38Z</time>
      </trkpt>
      <trkpt lat="47.84981" lon="6.4693">
        <ele>437.43277</ele>
        <time>2020-05-12T13:51:40Z</time>
      </trkpt>
      <trkpt lat="47.84984" lon="6.46934">
        <ele>436.952332</ele>
        <time>2020-05-12T13:51:41Z</time>
      </trkpt>
      <trkpt lat="47.84987" lon="6.46938">
        <ele>436.436188</ele>
        <time>2020-05-12T13:51:42Z</time>
      </trkpt>
      <trkpt lat="47.84989" lon="6.4694">
        <ele>436.122498</ele>
        <time>2020-05-12T13:51:44Z</time>
      </trkpt>
      <trkpt lat="47.84993" lon="6.46944">
        <ele>436.206238</ele>
        <time>2020-05-12T13:51:45Z</time>
      </trkpt>
      <trkpt lat="47.84996" lon="6.46949">
        <ele>436.091248</ele>
        <time>2020-05-12T13:51:47Z</time>
      </trkpt>
      <trkpt lat="47.84999" lon="6.46955">
        <ele>435.82251</ele>
        <time>2020-05-12T13:51:48Z</time>
      </trkpt>
      <trkpt lat="47.85001" lon="6.4696">
        <ele>435.588745</ele>
        <time>2020-05-12T13:51:49Z</time>
      </trkpt>
      <trkpt lat="47.85003" lon="6.46964">
        <ele>435.578064</ele>
        <time>2020-05-12T13:51:51Z</time>
      </trkpt>
      <trkpt lat="47.85005" lon="6.46969">
        <ele>435.612885</ele>
        <time>2020-05-12T13:51:52Z</time>
      </trkpt>
      <trkpt lat="47.85006" lon="6.46973">
        <ele>435.531982</ele>
        <time>2020-05-12T13:51:53Z</time>
      </trkpt>
      <trkpt lat="47.85009" lon="6.46981">
        <ele>435.321747</ele>
        <time>2020-05-12T13:51:56Z</time>
      </trkpt>
      <trkpt lat="47.85011" lon="6.46984">
        <ele>435.182495</ele>
        <time>2020-05-12T13:51:57Z</time>
      </trkpt>
      <trkpt lat="47.85012" lon="6.46989">
        <ele>434.937012</ele>
        <time>2020-05-12T13:51:58Z</time>
      </trkpt>
      <trkpt lat="47.85013" lon="6.46993">
        <ele>434.639435</ele>
        <time>2020-05-12T13:51:59Z</time>
      </trkpt>
      <trkpt lat="47.85014" lon="6.46998">
        <ele>434.270508</ele>
        <time>2020-05-12T13:52:01Z</time>
      </trkpt>
      <trkpt lat="47.85015" lon="6.47004">
        <ele>433.845245</ele>
        <time>2020-05-12T13:52:02Z</time>
      </trkpt>
      <trkpt lat="47.85017" lon="6.47011">
        <ele>433.147186</ele>
        <time>2020-05-12T13:52:03Z</time>
      </trkpt>
      <trkpt lat="47.8502" lon="6.47022">
        <ele>431.901245</ele>
        <time>2020-05-12T13:52:05Z</time>
      </trkpt>
      <trkpt lat="47.85025" lon="6.4704">
        <ele>429.719513</ele>
        <time>2020-05-12T13:52:06Z</time>
      </trkpt>
      <trkpt lat="47.8503" lon="6.47055">
        <ele>427.786499</ele>
        <time>2020-05-12T13:52:07Z</time>
      </trkpt>
      <trkpt lat="47.85034" lon="6.47068">
        <ele>426.639618</ele>
        <time>2020-05-12T13:52:08Z</time>
      </trkpt>
      <trkpt lat="47.85037" lon="6.4708">
        <ele>425.317474</ele>
        <time>2020-05-12T13:52:10Z</time>
      </trkpt>
      <trkpt lat="47.8504" lon="6.47089">
        <ele>424.228455</ele>
        <time>2020-05-12T13:52:11Z</time>
      </trkpt>
      <trkpt lat="47.85043" lon="6.47103">
        <ele>422.212006</ele>
        <time>2020-05-12T13:52:13Z</time>
      </trkpt>
      <trkpt lat="47.85046" lon="6.47116">
        <ele>419.848541</ele>
        <time>2020-05-12T13:52:14Z</time>
      </trkpt>
      <trkpt lat="47.85048" lon="6.47122">
        <ele>418.590088</ele>
        <time>2020-05-12T13:52:16Z</time>
      </trkpt>
      <trkpt lat="47.85047" lon="6.4713">
        <ele>417.184601</ele>
        <time>2020-05-12T13:52:17Z</time>
      </trkpt>
      <trkpt lat="47.85045" lon="6.47135">
        <ele>416.631104</ele>
        <time>2020-05-12T13:52:18Z</time>
      </trkpt>
      <trkpt lat="47.85043" lon="6.47141">
        <ele>415.793396</ele>
        <time>2020-05-12T13:52:20Z</time>
      </trkpt>
      <trkpt lat="47.85041" lon="6.47151">
        <ele>414.437653</ele>
        <time>2020-05-12T13:52:21Z</time>
      </trkpt>
      <trkpt lat="47.85039" lon="6.47159">
        <ele>413.519012</ele>
        <time>2020-05-12T13:52:23Z</time>
      </trkpt>
      <trkpt lat="47.85038" lon="6.47168">
        <ele>412.409576</ele>
        <time>2020-05-12T13:52:24Z</time>
      </trkpt>
      <trkpt lat="47.85036" lon="6.47178">
        <ele>410.613434</ele>
        <time>2020-05-12T13:52:25Z</time>
      </trkpt>
      <trkpt lat="47.85035" lon="6.47191">
        <ele>408.17984</ele>
        <time>2020-05-12T13:52:27Z</time>
      </trkpt>
      <trkpt lat="47.85032" lon="6.47202">
        <ele>406.72879</ele>
        <time>2020-05-12T13:52:28Z</time>
      </trkpt>
      <trkpt lat="47.85028" lon="6.47213">
        <ele>405.856995</ele>
        <time>2020-05-12T13:52:30Z</time>
      </trkpt>
      <trkpt lat="47.85024" lon="6.47226">
        <ele>404.547089</ele>
        <time>2020-05-12T13:52:32Z</time>
      </trkpt>
      <trkpt lat="47.85024" lon="6.47232">
        <ele>403.393646</ele>
        <time>2020-05-12T13:52:33Z</time>
      </trkpt>
      <trkpt lat="47.85022" lon="6.4724">
        <ele>401.668549</ele>
        <time>2020-05-12T13:52:34Z</time>
      </trkpt>
      <trkpt lat="47.8502" lon="6.47247">
        <ele>400.601746</ele>
        <time>2020-05-12T13:52:35Z</time>
      </trkpt>
      <trkpt lat="47.85019" lon="6.47253">
        <ele>398.987366</ele>
        <time>2020-05-12T13:52:36Z</time>
      </trkpt>
      <trkpt lat="47.85019" lon="6.4726">
        <ele>397.164886</ele>
        <time>2020-05-12T13:52:38Z</time>
      </trkpt>
      <trkpt lat="47.85019" lon="6.47262">
        <ele>396.549774</ele>
        <time>2020-05-12T13:52:40Z</time>
      </trkpt>
      <trkpt lat="47.85019" lon="6.47261">
        <ele>396.57608</ele>
        <time>2020-05-12T13:52:42Z</time>
      </trkpt>
      <trkpt lat="47.8502" lon="6.47261">
        <ele>396.377563</ele>
        <time>2020-05-12T13:52:43Z</time>
      </trkpt>
      <trkpt lat="47.85021" lon="6.47261">
        <ele>396.311951</ele>
        <time>2020-05-12T13:52:44Z</time>
      </trkpt>
      <trkpt lat="47.85021" lon="6.4726">
        <ele>396.381622</ele>
        <time>2020-05-12T13:52:45Z</time>
      </trkpt>
      <trkpt lat="47.85022" lon="6.47259">
        <ele>396.327515</ele>
        <time>2020-05-12T13:52:46Z</time>
      </trkpt>
      <trkpt lat="47.85024" lon="6.47257">
        <ele>396.289398</ele>
        <time>2020-05-12T13:52:48Z</time>
      </trkpt>
      <trkpt lat="47.85025" lon="6.47256">
        <ele>396.26239</ele>
        <time>2020-05-12T13:52:49Z</time>
      </trkpt>
      <trkpt lat="47.85027" lon="6.47255">
        <ele>396.062042</ele>
        <time>2020-05-12T13:52:50Z</time>
      </trkpt>
      <trkpt lat="47.85028" lon="6.47254">
        <ele>395.812103</ele>
        <time>2020-05-12T13:52:51Z</time>
      </trkpt>
      <trkpt lat="47.85029" lon="6.47254">
        <ele>395.601257</ele>
        <time>2020-05-12T13:52:53Z</time>
      </trkpt>
      <trkpt lat="47.85031" lon="6.47253">
        <ele>395.191711</ele>
        <time>2020-05-12T13:52:54Z</time>
      </trkpt>
      <trkpt lat="47.85032" lon="6.47252">
        <ele>395.022156</ele>
        <time>2020-05-12T13:52:56Z</time>
      </trkpt>
      <trkpt lat="47.85036" lon="6.47249">
        <ele>394.723846</ele>
        <time>2020-05-12T13:52:57Z</time>
      </trkpt>
      <trkpt lat="47.85037" lon="6.47247">
        <ele>394.734009</ele>
        <time>2020-05-12T13:52:58Z</time>
      </trkpt>
      <trkpt lat="47.8504" lon="6.47242">
        <ele>395.167999</ele>
        <time>2020-05-12T13:53:00Z</time>
      </trkpt>
      <trkpt lat="47.85042" lon="6.47244">
        <ele>393.740784</ele>
        <time>2020-05-12T13:53:01Z</time>
      </trkpt>
      <trkpt lat="47.85043" lon="6.47248">
        <ele>392.514313</ele>
        <time>2020-05-12T13:53:02Z</time>
      </trkpt>
      <trkpt lat="47.85043" lon="6.47251">
        <ele>391.670013</ele>
        <time>2020-05-12T13:53:03Z</time>
      </trkpt>
      <trkpt lat="47.85044" lon="6.47253">
        <ele>391.089996</ele>
        <time>2020-05-12T13:53:04Z</time>
      </trkpt>
      <trkpt lat="47.85048" lon="6.47255">
        <ele>389.340088</ele>
        <time>2020-05-12T13:53:06Z</time>
      </trkpt>
      <trkpt lat="47.8505" lon="6.47255">
        <ele>388.433746</ele>
        <time>2020-05-12T13:53:07Z</time>
      </trkpt>
      <trkpt lat="47.85063" lon="6.4725">
        <ele>385.341614</ele>
        <time>2020-05-12T13:53:09Z</time>
      </trkpt>
      <trkpt lat="47.85073" lon="6.47244">
        <ele>383.875</ele>
        <time>2020-05-12T13:53:10Z</time>
      </trkpt>
      <trkpt lat="47.85081" lon="6.47238">
        <ele>383.83252</ele>
        <time>2020-05-12T13:53:11Z</time>
      </trkpt>
      <trkpt lat="47.85089" lon="6.47231">
        <ele>384.380005</ele>
        <time>2020-05-12T13:53:13Z</time>
      </trkpt>
      <trkpt lat="47.85098" lon="6.47222">
        <ele>386.154999</ele>
        <time>2020-05-12T13:53:14Z</time>
      </trkpt>
      <trkpt lat="47.85091" lon="6.47246">
        <ele>381.337494</ele>
      </trkpt>
      <trkpt lat="47.85074" lon="6.47281">
        <ele>377.9375</ele>
      </trkpt>
      <trkpt lat="47.85055" lon="6.47313">
        <ele>375.96582</ele>
      </trkpt>
      <trkpt lat="47.85017" lon="6.47327">
        <ele>379.457733</ele>
      </trkpt>
      <trkpt lat="47.84973" lon="6.47357">
        <ele>374.392456</ele>
      </trkpt>
      <trkpt lat="47.84929" lon="6.4737">
        <ele>373.122589</ele>
      </trkpt>
      <trkpt lat="47.84852" lon="6.47337">
        <ele>377.525452</ele>
      </trkpt>
      <trkpt lat="47.84783" lon="6.47309">
        <ele>372.870819</ele>
      </trkpt>
      <trkpt lat="47.8473" lon="6.47274">
        <ele>369.134949</ele>
      </trkpt>
      <trkpt lat="47.84684" lon="6.47234">
        <ele>368.313751</ele>
      </trkpt>
      <trkpt lat="47.84693" lon="6.47235">
        <ele>369.313751</ele>
      </trkpt>
      <trkpt lat="47.84663" lon="6.47228">
        <ele>366.459991</ele>
        <time>2020-02-14T15:06:04Z</time>
      </trkpt>
      <trkpt lat="47.84659" lon="6.47226">
        <ele>366.160004</ele>
        <time>2020-02-14T15:06:05Z</time>
      </trkpt>
      <trkpt lat="47.84623" lon="6.47204">
        <ele>363.838745</ele>
        <time>2020-02-14T15:06:08Z</time>
      </trkpt>
      <trkpt lat="47.84617" lon="6.47201">
        <ele>363.347992</ele>
        <time>2020-02-14T15:06:09Z</time>
      </trkpt>
      <trkpt lat="47.8461" lon="6.47199">
        <ele>362.648193</ele>
        <time>2020-02-14T15:06:10Z</time>
      </trkpt>
      <trkpt lat="47.84596" lon="6.47198">
        <ele>360.763763</ele>
        <time>2020-02-14T15:06:12Z</time>
      </trkpt>
      <trkpt lat="47.8458" lon="6.47204">
        <ele>358.083099</ele>
        <time>2020-02-14T15:06:14Z</time>
      </trkpt>
      <trkpt lat="47.84572" lon="6.47207">
        <ele>356.993469</ele>
        <time>2020-02-14T15:06:15Z</time>
      </trkpt>
      <trkpt lat="47.84563" lon="6.47211">
        <ele>356.134186</ele>
        <time>2020-02-14T15:06:16Z</time>
      </trkpt>
      <trkpt lat="47.84545" lon="6.47226">
        <ele>354.254028</ele>
        <time>2020-02-14T15:06:18Z</time>
      </trkpt>
      <trkpt lat="47.84535" lon="6.47235">
        <ele>353.329742</ele>
        <time>2020-02-14T15:06:19Z</time>
      </trkpt>
      <trkpt lat="47.84516" lon="6.47252">
        <ele>351.962616</ele>
        <time>2020-02-14T15:06:21Z</time>
      </trkpt>
      <trkpt lat="47.84501" lon="6.47268">
        <ele>351.167938</ele>
        <time>2020-02-14T15:06:23Z</time>
      </trkpt>
      <trkpt lat="47.84487" lon="6.47285">
        <ele>350.622833</ele>
        <time>2020-02-14T15:06:25Z</time>
      </trkpt>
      <trkpt lat="47.84481" lon="6.47294">
        <ele>350.411652</ele>
        <time>2020-02-14T15:06:26Z</time>
      </trkpt>
      <trkpt lat="47.84474" lon="6.473">
        <ele>350.112244</ele>
        <time>2020-02-14T15:06:27Z</time>
      </trkpt>
      <trkpt lat="47.84459" lon="6.47308">
        <ele>349.61557</ele>
        <time>2020-02-14T15:06:29Z</time>
      </trkpt>
      <trkpt lat="47.84451" lon="6.47311">
        <ele>349.399384</ele>
        <time>2020-02-14T15:06:30Z</time>
      </trkpt>
      <trkpt lat="47.84437" lon="6.47312">
        <ele>349.054565</ele>
        <time>2020-02-14T15:06:32Z</time>
      </trkpt>
      <trkpt lat="47.84431" lon="6.4731">
        <ele>348.990112</ele>
        <time>2020-02-14T15:06:33Z</time>
      </trkpt>
      <trkpt lat="47.84421" lon="6.47301">
        <ele>348.919189</ele>
        <time>2020-02-14T15:06:35Z</time>
      </trkpt>
      <trkpt lat="47.8441" lon="6.47288">
        <ele>348.755676</ele>
        <time>2020-02-14T15:06:37Z</time>
      </trkpt>
      <trkpt lat="47.84404" lon="6.4728">
        <ele>348.621948</ele>
        <time>2020-02-14T15:06:38Z</time>
      </trkpt>
      <trkpt lat="47.84393" lon="6.47265">
        <ele>348.274811</ele>
        <time>2020-02-14T15:06:40Z</time>
      </trkpt>
      <trkpt lat="47.84381" lon="6.47251">
        <ele>347.594391</ele>
        <time>2020-02-14T15:06:42Z</time>
      </trkpt>
      <trkpt lat="47.84376" lon="6.47244">
        <ele>347.279999</ele>
        <time>2020-02-14T15:06:43Z</time>
      </trkpt>
      <trkpt lat="47.84368" lon="6.47228">
        <ele>346.880005</ele>
        <time>2020-02-14T15:06:45Z</time>
      </trkpt>
      <trkpt lat="47.84364" lon="6.47221">
        <ele>346.709991</ele>
        <time>2020-02-14T15:06:46Z</time>
      </trkpt>
      <trkpt lat="47.84361" lon="6.47214">
        <ele>346.540009</ele>
        <time>2020-02-14T15:06:47Z</time>
      </trkpt>
      <trkpt lat="47.84358" lon="6.47206">
        <ele>346.410004</ele>
        <time>2020-02-14T15:06:48Z</time>
      </trkpt>
      <trkpt lat="47.84352" lon="6.47193">
        <ele>346.130005</ele>
        <time>2020-02-14T15:06:50Z</time>
      </trkpt>
      <trkpt lat="47.84349" lon="6.47186">
        <ele>345.995605</ele>
        <time>2020-02-14T15:06:51Z</time>
      </trkpt>
      <trkpt lat="47.84343" lon="6.47172">
        <ele>345.921265</ele>
        <time>2020-02-14T15:06:53Z</time>
      </trkpt>
      <trkpt lat="47.84337" lon="6.47159">
        <ele>345.889008</ele>
        <time>2020-02-14T15:06:55Z</time>
      </trkpt>
      <trkpt lat="47.8433" lon="6.47145">
        <ele>345.787048</ele>
        <time>2020-02-14T15:06:57Z</time>
      </trkpt>
      <trkpt lat="47.84327" lon="6.47139">
        <ele>345.718994</ele>
        <time>2020-02-14T15:06:58Z</time>
      </trkpt>
      <trkpt lat="47.84321" lon="6.47127">
        <ele>345.552795</ele>
        <time>2020-02-14T15:07:00Z</time>
      </trkpt>
      <trkpt lat="47.84318" lon="6.47121">
        <ele>345.443451</ele>
        <time>2020-02-14T15:07:01Z</time>
      </trkpt>
      <trkpt lat="47.84312" lon="6.47109">
        <ele>345.20752</ele>
        <time>2020-02-14T15:07:03Z</time>
      </trkpt>
      <trkpt lat="47.84309" lon="6.47104">
        <ele>345.126251</ele>
        <time>2020-02-14T15:07:04Z</time>
      </trkpt>
      <trkpt lat="47.84306" lon="6.47099">
        <ele>345.08374</ele>
        <time>2020-02-14T15:07:05Z</time>
      </trkpt>
      <trkpt lat="47.84298" lon="6.4709">
        <ele>345.033752</ele>
        <time>2020-02-14T15:07:07Z</time>
      </trkpt>
      <trkpt lat="47.8429" lon="6.47082">
        <ele>344.957489</ele>
        <time>2020-02-14T15:07:09Z</time>
      </trkpt>
      <trkpt lat="47.84286" lon="6.47078">
        <ele>344.907501</ele>
        <time>2020-02-14T15:07:10Z</time>
      </trkpt>
      <trkpt lat="47.84282" lon="6.47075">
        <ele>344.869995</ele>
        <time>2020-02-14T15:07:11Z</time>
      </trkpt>
      <trkpt lat="47.84278" lon="6.47072">
        <ele>344.827484</ele>
        <time>2020-02-14T15:07:12Z</time>
      </trkpt>
      <trkpt lat="47.84275" lon="6.47069">
        <ele>344.788757</ele>
        <time>2020-02-14T15:07:13Z</time>
      </trkpt>
      <trkpt lat="47.84272" lon="6.47067">
        <ele>344.743744</ele>
        <time>2020-02-14T15:07:14Z</time>
      </trkpt>
      <trkpt lat="47.84269" lon="6.47065">
        <ele>344.706238</ele>
        <time>2020-02-14T15:07:15Z</time>
      </trkpt>
      <trkpt lat="47.84263" lon="6.47059">
        <ele>344.648376</ele>
        <time>2020-02-14T15:07:17Z</time>
      </trkpt>
      <trkpt lat="47.84259" lon="6.47057">
        <ele>344.629852</ele>
        <time>2020-02-14T15:07:18Z</time>
      </trkpt>
      <trkpt lat="47.84263" lon="6.47054">
        <ele>344.724945</ele>
        <time>2020-02-14T15:07:20Z</time>
      </trkpt>
      <trkpt lat="47.84253" lon="6.47047">
        <ele>344.620667</ele>
        <time>2020-02-14T15:07:22Z</time>
      </trkpt>
      <trkpt lat="47.84243" lon="6.47041">
        <ele>344.479706</ele>
        <time>2020-02-14T15:07:24Z</time>
      </trkpt>
      <trkpt lat="47.84238" lon="6.47037">
        <ele>344.383148</ele>
        <time>2020-02-14T15:07:25Z</time>
      </trkpt>
      <trkpt lat="47.84232" lon="6.47033">
        <ele>344.303741</ele>
        <time>2020-02-14T15:07:26Z</time>
      </trkpt>
      <trkpt lat="47.84226" lon="6.47028">
        <ele>344.221252</ele>
        <time>2020-02-14T15:07:28Z</time>
      </trkpt>
      <trkpt lat="47.84222" lon="6.47023">
        <ele>344.195007</ele>
        <time>2020-02-14T15:07:29Z</time>
      </trkpt>
      <trkpt lat="47.84217" lon="6.47018">
        <ele>344.076263</ele>
        <time>2020-02-14T15:07:31Z</time>
      </trkpt>
      <trkpt lat="47.84212" lon="6.47017">
        <ele>343.875</ele>
        <time>2020-02-14T15:07:32Z</time>
      </trkpt>
      <trkpt lat="47.84209" lon="6.47017">
        <ele>343.733765</ele>
        <time>2020-02-14T15:07:33Z</time>
      </trkpt>
      <trkpt lat="47.84205" lon="6.47013">
        <ele>343.58374</ele>
        <time>2020-02-14T15:07:36Z</time>
      </trkpt>
      <trkpt lat="47.84201" lon="6.47008">
        <ele>343.463745</ele>
        <time>2020-02-14T15:07:38Z</time>
      </trkpt>
      <trkpt lat="47.84197" lon="6.47004">
        <ele>343.33374</ele>
        <time>2020-02-14T15:07:40Z</time>
      </trkpt>
      <trkpt lat="47.84192" lon="6.47002">
        <ele>343.143738</ele>
        <time>2020-02-14T15:07:43Z</time>
      </trkpt>
      <trkpt lat="47.84189" lon="6.47001">
        <ele>343.04126</ele>
        <time>2020-02-14T15:07:44Z</time>
      </trkpt>
      <trkpt lat="47.84187" lon="6.46999">
        <ele>342.940002</ele>
        <time>2020-02-14T15:07:45Z</time>
      </trkpt>
      <trkpt lat="47.84183" lon="6.46997">
        <ele>342.800018</ele>
        <time>2020-02-14T15:07:46Z</time>
      </trkpt>
      <trkpt lat="47.84177" lon="6.46992">
        <ele>342.580017</ele>
        <time>2020-02-14T15:07:49Z</time>
      </trkpt>
      <trkpt lat="47.84172" lon="6.46989">
        <ele>342.389008</ele>
        <time>2020-02-14T15:07:51Z</time>
      </trkpt>
      <trkpt lat="47.84169" lon="6.46987">
        <ele>342.261292</ele>
        <time>2020-02-14T15:07:52Z</time>
      </trkpt>
      <trkpt lat="47.84165" lon="6.46985">
        <ele>342.049896</ele>
        <time>2020-02-14T15:07:54Z</time>
      </trkpt>
      <trkpt lat="47.8416" lon="6.46984">
        <ele>341.816589</ele>
        <time>2020-02-14T15:07:55Z</time>
      </trkpt>
      <trkpt lat="47.84156" lon="6.46986">
        <ele>341.613251</ele>
        <time>2020-02-14T15:07:57Z</time>
      </trkpt>
      <trkpt lat="47.84152" lon="6.4699">
        <ele>341.413696</ele>
        <time>2020-02-14T15:07:58Z</time>
      </trkpt>
      <trkpt lat="47.8415" lon="6.46992">
        <ele>341.300964</ele>
        <time>2020-02-14T15:08:00Z</time>
      </trkpt>
      <trkpt lat="47.84147" lon="6.46994">
        <ele>341.197754</ele>
        <time>2020-02-14T15:08:01Z</time>
      </trkpt>
      <trkpt lat="47.84144" lon="6.46999">
        <ele>341.100098</ele>
        <time>2020-02-14T15:08:03Z</time>
      </trkpt>
      <trkpt lat="47.84141" lon="6.47005">
        <ele>341.056793</ele>
        <time>2020-02-14T15:08:04Z</time>
      </trkpt>
      <trkpt lat="47.84139" lon="6.47014">
        <ele>341.081482</ele>
        <time>2020-02-14T15:08:06Z</time>
      </trkpt>
      <trkpt lat="47.84138" lon="6.47019">
        <ele>341.097015</ele>
        <time>2020-02-14T15:08:07Z</time>
      </trkpt>
      <trkpt lat="47.84136" lon="6.47029">
        <ele>341.219696</ele>
        <time>2020-02-14T15:08:09Z</time>
      </trkpt>
      <trkpt lat="47.84134" lon="6.47038">
        <ele>341.588867</ele>
        <time>2020-02-14T15:08:11Z</time>
      </trkpt>
      <trkpt lat="47.84131" lon="6.47049">
        <ele>342.023834</ele>
        <time>2020-02-14T15:08:13Z</time>
      </trkpt>
      <trkpt lat="47.8413" lon="6.47054">
        <ele>342.245544</ele>
        <time>2020-02-14T15:08:14Z</time>
      </trkpt>
      <trkpt lat="47.84128" lon="6.47061">
        <ele>342.545013</ele>
        <time>2020-02-14T15:08:16Z</time>
      </trkpt>
      <trkpt lat="47.84125" lon="6.47068">
        <ele>342.856262</ele>
        <time>2020-02-14T15:08:17Z</time>
      </trkpt>
      <trkpt lat="47.84123" lon="6.47072">
        <ele>343.040009</ele>
        <time>2020-02-14T15:08:19Z</time>
      </trkpt>
      <trkpt lat="47.8412" lon="6.47073">
        <ele>343.133759</ele>
        <time>2020-02-14T15:08:22Z</time>
      </trkpt>
      <trkpt lat="47.84117" lon="6.47069">
        <ele>342.964996</ele>
        <time>2020-02-14T15:08:23Z</time>
      </trkpt>
      <trkpt lat="47.84114" lon="6.47067">
        <ele>342.848755</ele>
        <time>2020-02-14T15:08:24Z</time>
      </trkpt>
      <trkpt lat="47.84111" lon="6.47063">
        <ele>342.713745</ele>
        <time>2020-02-14T15:08:25Z</time>
      </trkpt>
      <trkpt lat="47.84107" lon="6.47059">
        <ele>342.529999</ele>
        <time>2020-02-14T15:08:27Z</time>
      </trkpt>
      <trkpt lat="47.84102" lon="6.47054">
        <ele>342.334991</ele>
        <time>2020-02-14T15:08:29Z</time>
      </trkpt>
      <trkpt lat="47.84097" lon="6.4705">
        <ele>342.143738</ele>
        <time>2020-02-14T15:08:32Z</time>
      </trkpt>
      <trkpt lat="47.84094" lon="6.47048">
        <ele>342.07251</ele>
        <time>2020-02-14T15:08:34Z</time>
      </trkpt>
      <trkpt lat="47.8409" lon="6.47045">
        <ele>341.941254</ele>
        <time>2020-02-14T15:08:35Z</time>
      </trkpt>
      <trkpt lat="47.84088" lon="6.47043">
        <ele>341.866241</ele>
        <time>2020-02-14T15:08:37Z</time>
      </trkpt>
      <trkpt lat="47.84083" lon="6.47039">
        <ele>341.720001</ele>
        <time>2020-02-14T15:08:38Z</time>
      </trkpt>
      <trkpt lat="47.84079" lon="6.47037">
        <ele>341.630005</ele>
        <time>2020-02-14T15:08:40Z</time>
      </trkpt>
      <trkpt lat="47.84069" lon="6.47031">
        <ele>341.390015</ele>
        <time>2020-02-14T15:08:42Z</time>
      </trkpt>
      <trkpt lat="47.84042" lon="6.4702">
        <ele>341.015015</ele>
        <time>2020-02-14T15:08:44Z</time>
      </trkpt>
      <trkpt lat="47.84024" lon="6.47002">
        <ele>340.787964</ele>
        <time>2020-02-14T15:08:46Z</time>
      </trkpt>
      <trkpt lat="47.84011" lon="6.46988">
        <ele>340.524231</ele>
        <time>2020-02-14T15:08:48Z</time>
      </trkpt>
      <trkpt lat="47.84005" lon="6.46984">
        <ele>340.408508</ele>
        <time>2020-02-14T15:08:49Z</time>
      </trkpt>
      <trkpt lat="47.83995" lon="6.46975">
        <ele>340.13028</ele>
        <time>2020-02-14T15:08:51Z</time>
      </trkpt>
      <trkpt lat="47.8399" lon="6.4697">
        <ele>339.919464</ele>
        <time>2020-02-14T15:08:52Z</time>
      </trkpt>
      <trkpt lat="47.83985" lon="6.46966">
        <ele>339.728943</ele>
        <time>2020-02-14T15:08:53Z</time>
      </trkpt>
      <trkpt lat="47.83976" lon="6.46958">
        <ele>339.402405</ele>
        <time>2020-02-14T15:08:55Z</time>
      </trkpt>
      <trkpt lat="47.8397" lon="6.46955">
        <ele>339.260986</ele>
        <time>2020-02-14T15:08:56Z</time>
      </trkpt>
      <trkpt lat="47.83958" lon="6.46947">
        <ele>339.007965</ele>
        <time>2020-02-14T15:08:58Z</time>
      </trkpt>
      <trkpt lat="47.83952" lon="6.46942">
        <ele>338.776031</ele>
        <time>2020-02-14T15:08:59Z</time>
      </trkpt>
      <trkpt lat="47.83941" lon="6.46936">
        <ele>338.236389</ele>
        <time>2020-02-14T15:09:01Z</time>
      </trkpt>
      <trkpt lat="47.83934" lon="6.46934">
        <ele>338.034485</ele>
        <time>2020-02-14T15:09:02Z</time>
      </trkpt>
      <trkpt lat="47.83918" lon="6.46933">
        <ele>337.737</ele>
        <time>2020-02-14T15:09:04Z</time>
      </trkpt>
      <trkpt lat="47.83899" lon="6.46936">
        <ele>337.551514</ele>
        <time>2020-02-14T15:09:06Z</time>
      </trkpt>
      <trkpt lat="47.8389" lon="6.46937">
        <ele>337.469696</ele>
        <time>2020-02-14T15:09:07Z</time>
      </trkpt>
      <trkpt lat="47.83883" lon="6.46939">
        <ele>337.40152</ele>
        <time>2020-02-14T15:09:08Z</time>
      </trkpt>
      <trkpt lat="47.83875" lon="6.46941">
        <ele>337.32251</ele>
        <time>2020-02-14T15:09:09Z</time>
      </trkpt>
      <trkpt lat="47.83862" lon="6.46945">
        <ele>337.172821</ele>
        <time>2020-02-14T15:09:11Z</time>
      </trkpt>
      <trkpt lat="47.83855" lon="6.46946">
        <ele>337.217896</ele>
        <time>2020-02-14T15:09:12Z</time>
      </trkpt>
      <trkpt lat="47.83849" lon="6.46948">
        <ele>337.256378</ele>
        <time>2020-02-14T15:09:13Z</time>
      </trkpt>
      <trkpt lat="47.83836" lon="6.46951">
        <ele>337.289764</ele>
        <time>2020-02-14T15:09:15Z</time>
      </trkpt>
      <trkpt lat="47.83829" lon="6.46952">
        <ele>337.302002</ele>
        <time>2020-02-14T15:09:16Z</time>
      </trkpt>
      <trkpt lat="47.83823" lon="6.46954">
        <ele>337.302338</ele>
        <time>2020-02-14T15:09:17Z</time>
      </trkpt>
      <trkpt lat="47.8381" lon="6.46954">
        <ele>337.290009</ele>
        <time>2020-02-14T15:09:19Z</time>
      </trkpt>
      <trkpt lat="47.83804" lon="6.46954">
        <ele>337.296265</ele>
        <time>2020-02-14T15:09:20Z</time>
      </trkpt>
      <trkpt lat="47.8379" lon="6.46954">
        <ele>337.309998</ele>
        <time>2020-02-14T15:09:22Z</time>
      </trkpt>
      <trkpt lat="47.83778" lon="6.46954">
        <ele>337.332489</ele>
        <time>2020-02-14T15:09:24Z</time>
      </trkpt>
      <trkpt lat="47.83771" lon="6.46955">
        <ele>337.331726</ele>
        <time>2020-02-14T15:09:25Z</time>
      </trkpt>
      <trkpt lat="47.83764" lon="6.46955">
        <ele>337.292603</ele>
        <time>2020-02-14T15:09:26Z</time>
      </trkpt>
      <trkpt lat="47.83751" lon="6.46956">
        <ele>337.202789</ele>
        <time>2020-02-14T15:09:28Z</time>
      </trkpt>
      <trkpt lat="47.83744" lon="6.46956">
        <ele>337.150085</ele>
        <time>2020-02-14T15:09:29Z</time>
      </trkpt>
      <trkpt lat="47.83738" lon="6.46956">
        <ele>337.093994</ele>
        <time>2020-02-14T15:09:30Z</time>
      </trkpt>
      <trkpt lat="47.83725" lon="6.46955">
        <ele>336.964447</ele>
        <time>2020-02-14T15:09:32Z</time>
      </trkpt>
      <trkpt lat="47.83718" lon="6.46955">
        <ele>336.882751</ele>
        <time>2020-02-14T15:09:33Z</time>
      </trkpt>
      <trkpt lat="47.83706" lon="6.46956">
        <ele>336.726593</ele>
        <time>2020-02-14T15:09:35Z</time>
      </trkpt>
      <trkpt lat="47.83699" lon="6.46956">
        <ele>336.659363</ele>
        <time>2020-02-14T15:09:36Z</time>
      </trkpt>
      <trkpt lat="47.83693" lon="6.46957">
        <ele>336.588043</ele>
        <time>2020-02-14T15:09:37Z</time>
      </trkpt>
      <trkpt lat="47.83679" lon="6.46956">
        <ele>336.381256</ele>
        <time>2020-02-14T15:09:39Z</time>
      </trkpt>
      <trkpt lat="47.83665" lon="6.46955">
        <ele>336.084991</ele>
        <time>2020-02-14T15:09:41Z</time>
      </trkpt>
      <trkpt lat="47.83651" lon="6.46955">
        <ele>335.788757</ele>
        <time>2020-02-14T15:09:43Z</time>
      </trkpt>
      <trkpt lat="47.83644" lon="6.46955">
        <ele>335.63501</ele>
        <time>2020-02-14T15:09:44Z</time>
      </trkpt>
      <trkpt lat="47.83629" lon="6.46954">
        <ele>335.32251</ele>
        <time>2020-02-14T15:09:46Z</time>
      </trkpt>
      <trkpt lat="47.83622" lon="6.46953">
        <ele>335.14624</ele>
        <time>2020-02-14T15:09:47Z</time>
      </trkpt>
      <trkpt lat="47.83607" lon="6.46947">
        <ele>334.735016</ele>
        <time>2020-02-14T15:09:49Z</time>
      </trkpt>
      <trkpt lat="47.83601" lon="6.46942">
        <ele>334.528748</ele>
        <time>2020-02-14T15:09:50Z</time>
      </trkpt>
      <trkpt lat="47.83589" lon="6.46933">
        <ele>334.140015</ele>
        <time>2020-02-14T15:09:52Z</time>
      </trkpt>
      <trkpt lat="47.83584" lon="6.46927">
        <ele>333.942505</ele>
        <time>2020-02-14T15:09:53Z</time>
      </trkpt>
      <trkpt lat="47.83579" lon="6.46922">
        <ele>333.753754</ele>
        <time>2020-02-14T15:09:54Z</time>
      </trkpt>
      <trkpt lat="47.83572" lon="6.4691">
        <ele>333.369537</ele>
        <time>2020-02-14T15:09:56Z</time>
      </trkpt>
      <trkpt lat="47.83565" lon="6.46899">
        <ele>333.018829</ele>
        <time>2020-02-14T15:09:58Z</time>
      </trkpt>
      <trkpt lat="47.83561" lon="6.46894">
        <ele>332.863098</ele>
        <time>2020-02-14T15:09:59Z</time>
      </trkpt>
      <trkpt lat="47.83559" lon="6.46889">
        <ele>332.73053</ele>
        <time>2020-02-14T15:10:00Z</time>
      </trkpt>
      <trkpt lat="47.83559" lon="6.46883">
        <ele>332.622498</ele>
        <time>2020-02-14T15:10:01Z</time>
      </trkpt>
      <trkpt lat="47.83561" lon="6.46877">
        <ele>332.526001</ele>
        <time>2020-02-14T15:10:02Z</time>
      </trkpt>
      <trkpt lat="47.8357" lon="6.46865">
        <ele>332.330688</ele>
        <time>2020-02-14T15:10:04Z</time>
      </trkpt>
      <trkpt lat="47.83579" lon="6.46853">
        <ele>332.075623</ele>
        <time>2020-02-14T15:10:06Z</time>
      </trkpt>
      <trkpt lat="47.83587" lon="6.46841">
        <ele>331.833618</ele>
        <time>2020-02-14T15:10:08Z</time>
      </trkpt>
      <trkpt lat="47.83594" lon="6.46828">
        <ele>331.642242</ele>
        <time>2020-02-14T15:10:10Z</time>
      </trkpt>
      <trkpt lat="47.83598" lon="6.46822">
        <ele>331.588654</ele>
        <time>2020-02-14T15:10:11Z</time>
      </trkpt>
      <trkpt lat="47.83605" lon="6.46809">
        <ele>331.582428</ele>
        <time>2020-02-14T15:10:13Z</time>
      </trkpt>
      <trkpt lat="47.83611" lon="6.46795">
        <ele>331.470612</ele>
        <time>2020-02-14T15:10:15Z</time>
      </trkpt>
      <trkpt lat="47.83615" lon="6.4678">
        <ele>331.244904</ele>
        <time>2020-02-14T15:10:17Z</time>
      </trkpt>
      <trkpt lat="47.83616" lon="6.46773">
        <ele>331.116669</ele>
        <time>2020-02-14T15:10:18Z</time>
      </trkpt>
      <trkpt lat="47.83617" lon="6.46765">
        <ele>330.974731</ele>
        <time>2020-02-14T15:10:19Z</time>
      </trkpt>
      <trkpt lat="47.83621" lon="6.4675">
        <ele>330.677521</ele>
        <time>2020-02-14T15:10:21Z</time>
      </trkpt>
      <trkpt lat="47.83624" lon="6.46734">
        <ele>330.323395</ele>
        <time>2020-02-14T15:10:23Z</time>
      </trkpt>
      <trkpt lat="47.83625" lon="6.46726">
        <ele>330.140991</ele>
        <time>2020-02-14T15:10:24Z</time>
      </trkpt>
      <trkpt lat="47.83625" lon="6.46718">
        <ele>330</ele>
        <time>2020-02-14T15:10:25Z</time>
      </trkpt>
      <trkpt lat="47.83627" lon="6.46703">
        <ele>330</ele>
        <time>2020-02-14T15:10:27Z</time>
      </trkpt>
      <trkpt lat="47.83629" lon="6.46687">
        <ele>330</ele>
        <time>2020-02-14T15:10:29Z</time>
      </trkpt>
      <trkpt lat="47.83629" lon="6.46679">
        <ele>330</ele>
        <time>2020-02-14T15:10:30Z</time>
      </trkpt>
      <trkpt lat="47.83627" lon="6.46662">
        <ele>330</ele>
        <time>2020-02-14T15:10:32Z</time>
      </trkpt>
      <trkpt lat="47.83626" lon="6.46646">
        <ele>330.048401</ele>
        <time>2020-02-14T15:10:34Z</time>
      </trkpt>
      <trkpt lat="47.83625" lon="6.4663">
        <ele>330.176788</ele>
        <time>2020-02-14T15:10:36Z</time>
      </trkpt>
      <trkpt lat="47.83625" lon="6.46621">
        <ele>330.254791</ele>
        <time>2020-02-14T15:10:37Z</time>
      </trkpt>
      <trkpt lat="47.83623" lon="6.46604">
        <ele>330.432739</ele>
        <time>2020-02-14T15:10:39Z</time>
      </trkpt>
      <trkpt lat="47.83622" lon="6.46587">
        <ele>330.623993</ele>
        <time>2020-02-14T15:10:41Z</time>
      </trkpt>
      <trkpt lat="47.83621" lon="6.46579">
        <ele>330.654999</ele>
        <time>2020-02-14T15:10:42Z</time>
      </trkpt>
      <trkpt lat="47.8362" lon="6.46562">
        <ele>330.695007</ele>
        <time>2020-02-14T15:10:44Z</time>
      </trkpt>
      <trkpt lat="47.83619" lon="6.46545">
        <ele>330.730011</ele>
        <time>2020-02-14T15:10:46Z</time>
      </trkpt>
      <trkpt lat="47.83618" lon="6.46537">
        <ele>330.75</ele>
        <time>2020-02-14T15:10:47Z</time>
      </trkpt>
      <trkpt lat="47.83617" lon="6.46522">
        <ele>330.795013</ele>
        <time>2020-02-14T15:10:49Z</time>
      </trkpt>
      <trkpt lat="47.83616" lon="6.46515">
        <ele>330.899109</ele>
        <time>2020-02-14T15:10:50Z</time>
      </trkpt>
      <trkpt lat="47.83616" lon="6.46502">
        <ele>331.246246</ele>
        <time>2020-02-14T15:10:52Z</time>
      </trkpt>
      <trkpt lat="47.83615" lon="6.46495">
        <ele>331.436493</ele>
        <time>2020-02-14T15:10:53Z</time>
      </trkpt>
      <trkpt lat="47.83614" lon="6.46482">
        <ele>331.845215</ele>
        <time>2020-02-14T15:10:55Z</time>
      </trkpt>
      <trkpt lat="47.83614" lon="6.46469">
        <ele>332.216248</ele>
        <time>2020-02-14T15:10:57Z</time>
      </trkpt>
      <trkpt lat="47.83614" lon="6.46456">
        <ele>332.605469</ele>
        <time>2020-02-14T15:10:59Z</time>
      </trkpt>
      <trkpt lat="47.83613" lon="6.46443">
        <ele>332.92926</ele>
        <time>2020-02-14T15:11:01Z</time>
      </trkpt>
      <trkpt lat="47.83612" lon="6.46438">
        <ele>333.104004</ele>
        <time>2020-02-14T15:11:02Z</time>
      </trkpt>
      <trkpt lat="47.8361" lon="6.46429">
        <ele>333.718872</ele>
        <time>2020-02-14T15:11:04Z</time>
      </trkpt>
      <trkpt lat="47.83605" lon="6.46427">
        <ele>335.824829</ele>
        <time>2020-02-14T15:11:06Z</time>
      </trkpt>
      <trkpt lat="47.83603" lon="6.46422">
        <ele>337.054626</ele>
        <time>2020-02-14T15:11:08Z</time>
      </trkpt>
      <trkpt lat="47.83601" lon="6.46417">
        <ele>338.317505</ele>
        <time>2020-02-14T15:11:10Z</time>
      </trkpt>
      <trkpt lat="47.83599" lon="6.46409">
        <ele>339.627441</ele>
        <time>2020-02-14T15:11:13Z</time>
      </trkpt>
      <trkpt lat="47.83597" lon="6.46404">
        <ele>340.879089</ele>
        <time>2020-02-14T15:11:15Z</time>
      </trkpt>
      <trkpt lat="47.83595" lon="6.46399">
        <ele>342.025879</ele>
        <time>2020-02-14T15:11:18Z</time>
      </trkpt>
      <trkpt lat="47.83594" lon="6.46395">
        <ele>342.53833</ele>
        <time>2020-02-14T15:11:20Z</time>
      </trkpt>
      <trkpt lat="47.83593" lon="6.4639">
        <ele>343.423431</ele>
        <time>2020-02-14T15:11:23Z</time>
      </trkpt>
      <trkpt lat="47.83592" lon="6.46384">
        <ele>344.158417</ele>
        <time>2020-02-14T15:11:26Z</time>
      </trkpt>
      <trkpt lat="47.83591" lon="6.46378">
        <ele>345.123474</ele>
        <time>2020-02-14T15:11:28Z</time>
      </trkpt>
      <trkpt lat="47.83589" lon="6.46373">
        <ele>346.231445</ele>
        <time>2020-02-14T15:11:31Z</time>
      </trkpt>
      <trkpt lat="47.83588" lon="6.46367">
        <ele>346.75119</ele>
        <time>2020-02-14T15:11:34Z</time>
      </trkpt>
      <trkpt lat="47.83587" lon="6.46363">
        <ele>347.285339</ele>
        <time>2020-02-14T15:11:36Z</time>
      </trkpt>
      <trkpt lat="47.83586" lon="6.46356">
        <ele>347.795135</ele>
        <time>2020-02-14T15:11:39Z</time>
      </trkpt>
      <trkpt lat="47.83586" lon="6.4635">
        <ele>347.852875</ele>
        <time>2020-02-14T15:11:42Z</time>
      </trkpt>
      <trkpt lat="47.83586" lon="6.46345">
        <ele>347.806763</ele>
        <time>2020-02-14T15:11:45Z</time>
      </trkpt>
      <trkpt lat="47.83585" lon="6.46341">
        <ele>348.324799</ele>
        <time>2020-02-14T15:11:48Z</time>
      </trkpt>
      <trkpt lat="47.83585" lon="6.46337">
        <ele>348.283997</ele>
        <time>2020-02-14T15:11:51Z</time>
      </trkpt>
      <trkpt lat="47.83585" lon="6.46331">
        <ele>348.67923</ele>
        <time>2020-02-14T15:11:54Z</time>
      </trkpt>
      <trkpt lat="47.83585" lon="6.46325">
        <ele>348.731415</ele>
        <time>2020-02-14T15:11:59Z</time>
      </trkpt>
      <trkpt lat="47.83584" lon="6.4632">
        <ele>349.006744</ele>
        <time>2020-02-14T15:12:04Z</time>
      </trkpt>
      <trkpt lat="47.83584" lon="6.46315">
        <ele>349.293488</ele>
        <time>2020-02-14T15:12:07Z</time>
      </trkpt>
      <trkpt lat="47.83583" lon="6.46311">
        <ele>349.347839</ele>
        <time>2020-02-14T15:12:09Z</time>
      </trkpt>
      <trkpt lat="47.83583" lon="6.46306">
        <ele>349.462006</ele>
        <time>2020-02-14T15:12:11Z</time>
      </trkpt>
      <trkpt lat="47.83582" lon="6.46301">
        <ele>349.756744</ele>
        <time>2020-02-14T15:12:14Z</time>
      </trkpt>
      <trkpt lat="47.83582" lon="6.46296">
        <ele>349.76062</ele>
        <time>2020-02-14T15:12:17Z</time>
      </trkpt>
      <trkpt lat="47.83581" lon="6.46291">
        <ele>349.838898</ele>
        <time>2020-02-14T15:12:20Z</time>
      </trkpt>
      <trkpt lat="47.8358" lon="6.46284">
        <ele>350.043091</ele>
        <time>2020-02-14T15:12:24Z</time>
      </trkpt>
      <trkpt lat="47.8358" lon="6.4628">
        <ele>350.210358</ele>
        <time>2020-02-14T15:12:26Z</time>
      </trkpt>
      <trkpt lat="47.83578" lon="6.46274">
        <ele>350.515533</ele>
        <time>2020-02-14T15:12:29Z</time>
      </trkpt>
      <trkpt lat="47.83577" lon="6.46267">
        <ele>350.865204</ele>
        <time>2020-02-14T15:12:32Z</time>
      </trkpt>
      <trkpt lat="47.83576" lon="6.46262">
        <ele>351.238586</ele>
        <time>2020-02-14T15:12:34Z</time>
      </trkpt>
      <trkpt lat="47.83574" lon="6.46258">
        <ele>351.576996</ele>
        <time>2020-02-14T15:12:36Z</time>
      </trkpt>
      <trkpt lat="47.83573" lon="6.46253">
        <ele>351.963379</ele>
        <time>2020-02-14T15:12:38Z</time>
      </trkpt>
      <trkpt lat="47.83572" lon="6.46249">
        <ele>352.175568</ele>
        <time>2020-02-14T15:12:40Z</time>
      </trkpt>
      <trkpt lat="47.83571" lon="6.46245">
        <ele>352.147034</ele>
        <time>2020-02-14T15:12:43Z</time>
      </trkpt>
      <trkpt lat="47.83571" lon="6.46238">
        <ele>352.102264</ele>
        <time>2020-02-14T15:12:46Z</time>
      </trkpt>
      <trkpt lat="47.8357" lon="6.46233">
        <ele>351.98877</ele>
        <time>2020-02-14T15:12:49Z</time>
      </trkpt>
      <trkpt lat="47.83569" lon="6.46227">
        <ele>351.964355</ele>
        <time>2020-02-14T15:12:51Z</time>
      </trkpt>
      <trkpt lat="47.83568" lon="6.4622">
        <ele>351.901764</ele>
        <time>2020-02-14T15:12:54Z</time>
      </trkpt>
      <trkpt lat="47.83568" lon="6.46215">
        <ele>351.803284</ele>
        <time>2020-02-14T15:12:56Z</time>
      </trkpt>
      <trkpt lat="47.83567" lon="6.46209">
        <ele>351.873352</ele>
        <time>2020-02-14T15:12:59Z</time>
      </trkpt>
      <trkpt lat="47.83566" lon="6.46204">
        <ele>352.027283</ele>
        <time>2020-02-14T15:13:02Z</time>
      </trkpt>
      <trkpt lat="47.83564" lon="6.46198">
        <ele>352.155975</ele>
        <time>2020-02-14T15:13:06Z</time>
      </trkpt>
      <trkpt lat="47.83563" lon="6.46192">
        <ele>352.158936</ele>
        <time>2020-02-14T15:13:08Z</time>
      </trkpt>
      <trkpt lat="47.83562" lon="6.46186">
        <ele>352.237579</ele>
        <time>2020-02-14T15:13:10Z</time>
      </trkpt>
      <trkpt lat="47.83561" lon="6.46181">
        <ele>352.421753</ele>
        <time>2020-02-14T15:13:13Z</time>
      </trkpt>
      <trkpt lat="47.8356" lon="6.46173">
        <ele>353.709595</ele>
        <time>2020-02-14T15:13:15Z</time>
      </trkpt>
      <trkpt lat="47.83559" lon="6.46165">
        <ele>355.367737</ele>
        <time>2020-02-14T15:13:16Z</time>
      </trkpt>
      <trkpt lat="47.83559" lon="6.46157">
        <ele>356.458405</ele>
        <time>2020-02-14T15:13:18Z</time>
      </trkpt>
      <trkpt lat="47.83559" lon="6.4615">
        <ele>357.610107</ele>
        <time>2020-02-14T15:13:20Z</time>
      </trkpt>
      <trkpt lat="47.83559" lon="6.46144">
        <ele>358.196808</ele>
        <time>2020-02-14T15:13:24Z</time>
      </trkpt>
      <trkpt lat="47.8356" lon="6.46139">
        <ele>358.536713</ele>
        <time>2020-02-14T15:13:26Z</time>
      </trkpt>
      <trkpt lat="47.8356" lon="6.46134">
        <ele>359.447601</ele>
        <time>2020-02-14T15:13:30Z</time>
      </trkpt>
      <trkpt lat="47.83559" lon="6.46129">
        <ele>360.536285</ele>
        <time>2020-02-14T15:13:34Z</time>
      </trkpt>
      <trkpt lat="47.83559" lon="6.46124">
        <ele>361.167053</ele>
        <time>2020-02-14T15:13:37Z</time>
      </trkpt>
      <trkpt lat="47.83559" lon="6.46118">
        <ele>362.198853</ele>
        <time>2020-02-14T15:13:41Z</time>
      </trkpt>
      <trkpt lat="47.83557" lon="6.46112">
        <ele>363.570007</ele>
        <time>2020-02-14T15:13:44Z</time>
      </trkpt>
      <trkpt lat="47.83557" lon="6.46108">
        <ele>364.408752</ele>
        <time>2020-02-14T15:13:46Z</time>
      </trkpt>
      <trkpt lat="47.83556" lon="6.46102">
        <ele>365.83374</ele>
        <time>2020-02-14T15:13:49Z</time>
      </trkpt>
      <trkpt lat="47.83556" lon="6.46096">
        <ele>366.973755</ele>
        <time>2020-02-14T15:13:52Z</time>
      </trkpt>
      <trkpt lat="47.83555" lon="6.46091">
        <ele>367.956238</ele>
        <time>2020-02-14T15:13:55Z</time>
      </trkpt>
      <trkpt lat="47.83554" lon="6.46085">
        <ele>369.304993</ele>
        <time>2020-02-14T15:13:58Z</time>
      </trkpt>
      <trkpt lat="47.83554" lon="6.46079">
        <ele>370.323761</ele>
        <time>2020-02-14T15:14:02Z</time>
      </trkpt>
      <trkpt lat="47.83553" lon="6.46074">
        <ele>371.351257</ele>
        <time>2020-02-14T15:14:06Z</time>
      </trkpt>
      <trkpt lat="47.83553" lon="6.46069">
        <ele>372.167511</ele>
        <time>2020-02-14T15:14:07Z</time>
      </trkpt>
      <trkpt lat="47.83553" lon="6.46065">
        <ele>373.127502</ele>
        <time>2020-02-14T15:14:10Z</time>
      </trkpt>
      <trkpt lat="47.83552" lon="6.46059">
        <ele>374.290009</ele>
        <time>2020-02-14T15:14:12Z</time>
      </trkpt>
      <trkpt lat="47.83552" lon="6.46053">
        <ele>375.351257</ele>
        <time>2020-02-14T15:14:15Z</time>
      </trkpt>
      <trkpt lat="47.83551" lon="6.46046">
        <ele>376.769989</ele>
        <time>2020-02-14T15:14:18Z</time>
      </trkpt>
      <trkpt lat="47.83551" lon="6.46042">
        <ele>377.407593</ele>
        <time>2020-02-14T15:14:20Z</time>
      </trkpt>
      <trkpt lat="47.8355" lon="6.46037">
        <ele>378.196075</ele>
        <time>2020-02-14T15:14:23Z</time>
      </trkpt>
      <trkpt lat="47.8355" lon="6.4603">
        <ele>379.08905</ele>
        <time>2020-02-14T15:14:27Z</time>
      </trkpt>
      <trkpt lat="47.83549" lon="6.46024">
        <ele>380.133575</ele>
        <time>2020-02-14T15:14:29Z</time>
      </trkpt>
      <trkpt lat="47.83549" lon="6.46018">
        <ele>380.90921</ele>
        <time>2020-02-14T15:14:32Z</time>
      </trkpt>
      <trkpt lat="47.83549" lon="6.46014">
        <ele>381.582581</ele>
        <time>2020-02-14T15:14:34Z</time>
      </trkpt>
      <trkpt lat="47.83549" lon="6.46008">
        <ele>382.238983</ele>
        <time>2020-02-14T15:14:37Z</time>
      </trkpt>
      <trkpt lat="47.83549" lon="6.46002">
        <ele>382.918365</ele>
        <time>2020-02-14T15:14:40Z</time>
      </trkpt>
      <trkpt lat="47.83549" lon="6.45996">
        <ele>383.448059</ele>
        <time>2020-02-14T15:14:43Z</time>
      </trkpt>
      <trkpt lat="47.8355" lon="6.4599">
        <ele>383.778992</ele>
        <time>2020-02-14T15:14:46Z</time>
      </trkpt>
      <trkpt lat="47.8355" lon="6.45984">
        <ele>384.338135</ele>
        <time>2020-02-14T15:14:48Z</time>
      </trkpt>
      <trkpt lat="47.83552" lon="6.45974">
        <ele>384.895508</ele>
        <time>2020-02-14T15:14:51Z</time>
      </trkpt>
      <trkpt lat="47.83553" lon="6.45969">
        <ele>384.917938</ele>
        <time>2020-02-14T15:14:53Z</time>
      </trkpt>
      <trkpt lat="47.83554" lon="6.45964">
        <ele>384.84845</ele>
        <time>2020-02-14T15:14:55Z</time>
      </trkpt>
      <trkpt lat="47.83555" lon="6.45959">
        <ele>384.890656</ele>
        <time>2020-02-14T15:14:58Z</time>
      </trkpt>
      <trkpt lat="47.83556" lon="6.45954">
        <ele>384.938843</ele>
        <time>2020-02-14T15:15:00Z</time>
      </trkpt>
      <trkpt lat="47.83557" lon="6.45949">
        <ele>384.882813</ele>
        <time>2020-02-14T15:15:02Z</time>
      </trkpt>
      <trkpt lat="47.83558" lon="6.45944">
        <ele>384.943665</ele>
        <time>2020-02-14T15:15:05Z</time>
      </trkpt>
      <trkpt lat="47.8356" lon="6.45939">
        <ele>385.003052</ele>
        <time>2020-02-14T15:15:08Z</time>
      </trkpt>
      <trkpt lat="47.83561" lon="6.45935">
        <ele>384.982513</ele>
        <time>2020-02-14T15:15:11Z</time>
      </trkpt>
      <trkpt lat="47.83562" lon="6.4593">
        <ele>385.054504</ele>
        <time>2020-02-14T15:15:13Z</time>
      </trkpt>
      <trkpt lat="47.83563" lon="6.45925">
        <ele>385.132385</ele>
        <time>2020-02-14T15:15:16Z</time>
      </trkpt>
      <trkpt lat="47.83564" lon="6.4592">
        <ele>385.223846</ele>
        <time>2020-02-14T15:15:17Z</time>
      </trkpt>
      <trkpt lat="47.83567" lon="6.45913">
        <ele>384.636536</ele>
        <time>2020-02-14T15:15:19Z</time>
      </trkpt>
      <trkpt lat="47.83571" lon="6.45903">
        <ele>383.50061</ele>
        <time>2020-02-14T15:15:20Z</time>
      </trkpt>
      <trkpt lat="47.83575" lon="6.45894">
        <ele>382.268951</ele>
        <time>2020-02-14T15:15:22Z</time>
      </trkpt>
      <trkpt lat="47.83579" lon="6.45889">
        <ele>380.840363</ele>
        <time>2020-02-14T15:15:23Z</time>
      </trkpt>
      <trkpt lat="47.83581" lon="6.45885">
        <ele>379.921173</ele>
        <time>2020-02-14T15:15:25Z</time>
      </trkpt>
      <trkpt lat="47.83584" lon="6.45882">
        <ele>379.094421</ele>
        <time>2020-02-14T15:15:26Z</time>
      </trkpt>
      <trkpt lat="47.83586" lon="6.45879">
        <ele>377.929688</ele>
        <time>2020-02-14T15:15:27Z</time>
      </trkpt>
      <trkpt lat="47.83589" lon="6.45875">
        <ele>375.915588</ele>
        <time>2020-02-14T15:15:29Z</time>
      </trkpt>
      <trkpt lat="47.83594" lon="6.4587">
        <ele>373.234924</ele>
        <time>2020-02-14T15:15:31Z</time>
      </trkpt>
      <trkpt lat="47.83598" lon="6.45863">
        <ele>370.830109</ele>
        <time>2020-02-14T15:15:34Z</time>
      </trkpt>
      <trkpt lat="47.836" lon="6.45859">
        <ele>370.093689</ele>
        <time>2020-02-14T15:15:35Z</time>
      </trkpt>
      <trkpt lat="47.83602" lon="6.45853">
        <ele>368.90271</ele>
        <time>2020-02-14T15:15:36Z</time>
      </trkpt>
      <trkpt lat="47.83604" lon="6.45844">
        <ele>367.977783</ele>
        <time>2020-02-14T15:15:38Z</time>
      </trkpt>
      <trkpt lat="47.83604" lon="6.4584">
        <ele>367.62851</ele>
        <time>2020-02-14T15:15:39Z</time>
      </trkpt>
      <trkpt lat="47.83605" lon="6.45831">
        <ele>366.751617</ele>
        <time>2020-02-14T15:15:41Z</time>
      </trkpt>
      <trkpt lat="47.83606" lon="6.45825">
        <ele>366.086304</ele>
        <time>2020-02-14T15:15:42Z</time>
      </trkpt>
      <trkpt lat="47.83609" lon="6.45819">
        <ele>364.424316</ele>
        <time>2020-02-14T15:15:44Z</time>
      </trkpt>
      <trkpt lat="47.83608" lon="6.45813">
        <ele>364.570618</ele>
        <time>2020-02-14T15:15:47Z</time>
      </trkpt>
      <trkpt lat="47.83606" lon="6.4581">
        <ele>365.566986</ele>
        <time>2020-02-14T15:15:50Z</time>
      </trkpt>
      <trkpt lat="47.83606" lon="6.45804">
        <ele>365.260406</ele>
        <time>2020-02-14T15:15:52Z</time>
      </trkpt>
      <trkpt lat="47.83607" lon="6.45795">
        <ele>364.815216</ele>
        <time>2020-02-14T15:15:54Z</time>
      </trkpt>
      <trkpt lat="47.83606" lon="6.4579">
        <ele>364.803741</ele>
        <time>2020-02-14T15:15:55Z</time>
      </trkpt>
      <trkpt lat="47.83606" lon="6.45785">
        <ele>364.94165</ele>
        <time>2020-02-14T15:15:56Z</time>
      </trkpt>
      <trkpt lat="47.83602" lon="6.45767">
        <ele>364.617645</ele>
        <time>2020-02-14T15:15:57Z</time>
      </trkpt>
      <trkpt lat="47.83599" lon="6.4576">
        <ele>365.49707</ele>
        <time>2020-02-14T15:15:59Z</time>
      </trkpt>
      <trkpt lat="47.83587" lon="6.45701">
        <ele>360.538086</ele>
        <time>2020-02-14T15:16:01Z</time>
      </trkpt>
      <trkpt lat="47.83583" lon="6.45684">
        <ele>358.571686</ele>
        <time>2020-02-14T15:16:02Z</time>
      </trkpt>
      <trkpt lat="47.83578" lon="6.45672">
        <ele>357.469269</ele>
        <time>2020-02-14T15:16:03Z</time>
      </trkpt>
      <trkpt lat="47.83568" lon="6.45655">
        <ele>357.064362</ele>
        <time>2020-02-14T15:16:05Z</time>
      </trkpt>
      <trkpt lat="47.83564" lon="6.45648">
        <ele>356.870911</ele>
        <time>2020-02-14T15:16:06Z</time>
      </trkpt>
      <trkpt lat="47.83561" lon="6.45644">
        <ele>357.26825</ele>
        <time>2020-02-14T15:16:07Z</time>
      </trkpt>
      <trkpt lat="47.83554" lon="6.45641">
        <ele>358.542816</ele>
        <time>2020-02-14T15:16:09Z</time>
      </trkpt>
      <trkpt lat="47.83561" lon="6.45641">
        <ele>356.329285</ele>
        <time>2020-02-14T15:16:12Z</time>
      </trkpt>
      <trkpt lat="47.83565" lon="6.4564">
        <ele>354.629242</ele>
        <time>2020-02-14T15:16:15Z</time>
      </trkpt>
      <trkpt lat="47.83563" lon="6.45635">
        <ele>354.110413</ele>
        <time>2020-02-14T15:16:18Z</time>
      </trkpt>
      <trkpt lat="47.83559" lon="6.45634">
        <ele>354.981873</ele>
        <time>2020-02-14T15:16:19Z</time>
      </trkpt>
      <trkpt lat="47.83555" lon="6.45633">
        <ele>355.930084</ele>
        <time>2020-02-14T15:16:21Z</time>
      </trkpt>
      <trkpt lat="47.83552" lon="6.45633">
        <ele>357.047211</ele>
        <time>2020-02-14T15:16:22Z</time>
      </trkpt>
      <trkpt lat="47.83548" lon="6.45635">
        <ele>358.634491</ele>
        <time>2020-02-14T15:16:25Z</time>
      </trkpt>
      <trkpt lat="47.83544" lon="6.45634">
        <ele>359.573456</ele>
        <time>2020-02-14T15:16:28Z</time>
      </trkpt>
      <trkpt lat="47.8354" lon="6.45633">
        <ele>360.254242</ele>
        <time>2020-02-14T15:16:31Z</time>
      </trkpt>
      <trkpt lat="47.83535" lon="6.45632">
        <ele>360.91449</ele>
        <time>2020-02-14T15:16:33Z</time>
      </trkpt>
      <trkpt lat="47.83532" lon="6.45631">
        <ele>361.416473</ele>
        <time>2020-02-14T15:16:35Z</time>
      </trkpt>
      <trkpt lat="47.83529" lon="6.45629">
        <ele>361.780792</ele>
        <time>2020-02-14T15:16:37Z</time>
      </trkpt>
      <trkpt lat="47.83526" lon="6.45628">
        <ele>362.194</ele>
        <time>2020-02-14T15:16:38Z</time>
      </trkpt>
      <trkpt lat="47.83523" lon="6.45627">
        <ele>362.650421</ele>
        <time>2020-02-14T15:16:40Z</time>
      </trkpt>
      <trkpt lat="47.8352" lon="6.45625">
        <ele>363.016541</ele>
        <time>2020-02-14T15:16:42Z</time>
      </trkpt>
      <trkpt lat="47.83517" lon="6.45624">
        <ele>363.561462</ele>
        <time>2020-02-14T15:16:44Z</time>
      </trkpt>
      <trkpt lat="47.83513" lon="6.45623">
        <ele>364.19458</ele>
        <time>2020-02-14T15:16:47Z</time>
      </trkpt>
      <trkpt lat="47.83509" lon="6.45621">
        <ele>364.574005</ele>
        <time>2020-02-14T15:16:50Z</time>
      </trkpt>
      <trkpt lat="47.83506" lon="6.4562">
        <ele>364.933502</ele>
        <time>2020-02-14T15:16:52Z</time>
      </trkpt>
      <trkpt lat="47.83503" lon="6.45618">
        <ele>365.397491</ele>
        <time>2020-02-14T15:16:53Z</time>
      </trkpt>
      <trkpt lat="47.83498" lon="6.45616">
        <ele>366.049988</ele>
        <time>2020-02-14T15:16:56Z</time>
      </trkpt>
      <trkpt lat="47.83492" lon="6.45615">
        <ele>367.152496</ele>
        <time>2020-02-14T15:17:00Z</time>
      </trkpt>
      <trkpt lat="47.83488" lon="6.45615">
        <ele>367.804993</ele>
        <time>2020-02-14T15:17:01Z</time>
      </trkpt>
      <trkpt lat="47.83483" lon="6.45614">
        <ele>368.862518</ele>
        <time>2020-02-14T15:17:04Z</time>
      </trkpt>
      <trkpt lat="47.83478" lon="6.45614">
        <ele>369.73999</ele>
        <time>2020-02-14T15:17:07Z</time>
      </trkpt>
      <trkpt lat="47.83474" lon="6.45612">
        <ele>370.324982</ele>
        <time>2020-02-14T15:17:10Z</time>
      </trkpt>
      <trkpt lat="47.8347" lon="6.4561">
        <ele>370.684998</ele>
        <time>2020-02-14T15:17:14Z</time>
      </trkpt>
      <trkpt lat="47.83466" lon="6.45609">
        <ele>371.202515</ele>
        <time>2020-02-14T15:17:18Z</time>
      </trkpt>
      <trkpt lat="47.83462" lon="6.45609">
        <ele>371.877502</ele>
        <time>2020-02-14T15:17:21Z</time>
      </trkpt>
      <trkpt lat="47.83459" lon="6.45609">
        <ele>372.514191</ele>
        <time>2020-02-14T15:17:24Z</time>
      </trkpt>
      <trkpt lat="47.83455" lon="6.45608">
        <ele>373.196716</ele>
        <time>2020-02-14T15:17:27Z</time>
      </trkpt>
      <trkpt lat="47.83452" lon="6.45608">
        <ele>373.567688</ele>
        <time>2020-02-14T15:17:29Z</time>
      </trkpt>
      <trkpt lat="47.83448" lon="6.45606">
        <ele>373.977997</ele>
        <time>2020-02-14T15:17:33Z</time>
      </trkpt>
      <trkpt lat="47.83444" lon="6.45604">
        <ele>374.161285</ele>
        <time>2020-02-14T15:17:35Z</time>
      </trkpt>
      <trkpt lat="47.8344" lon="6.45603">
        <ele>374.519501</ele>
        <time>2020-02-14T15:17:37Z</time>
      </trkpt>
      <trkpt lat="47.83436" lon="6.456">
        <ele>374.788086</ele>
        <time>2020-02-14T15:17:40Z</time>
      </trkpt>
      <trkpt lat="47.83431" lon="6.45598">
        <ele>375.137634</ele>
        <time>2020-02-14T15:17:43Z</time>
      </trkpt>
      <trkpt lat="47.83428" lon="6.45597">
        <ele>375.449615</ele>
        <time>2020-02-14T15:17:44Z</time>
      </trkpt>
      <trkpt lat="47.83425" lon="6.45596">
        <ele>375.677277</ele>
        <time>2020-02-14T15:17:46Z</time>
      </trkpt>
      <trkpt lat="47.83419" lon="6.45593">
        <ele>376.080597</ele>
        <time>2020-02-14T15:17:49Z</time>
      </trkpt>
      <trkpt lat="47.83415" lon="6.45591">
        <ele>376.43512</ele>
        <time>2020-02-14T15:17:51Z</time>
      </trkpt>
      <trkpt lat="47.83411" lon="6.45589">
        <ele>376.696472</ele>
        <time>2020-02-14T15:17:54Z</time>
      </trkpt>
      <trkpt lat="47.83408" lon="6.45587">
        <ele>376.923828</ele>
        <time>2020-02-14T15:17:56Z</time>
      </trkpt>
      <trkpt lat="47.83405" lon="6.45586">
        <ele>377.135986</ele>
        <time>2020-02-14T15:17:58Z</time>
      </trkpt>
      <trkpt lat="47.83401" lon="6.45583">
        <ele>377.422638</ele>
        <time>2020-02-14T15:18:00Z</time>
      </trkpt>
      <trkpt lat="47.83396" lon="6.45581">
        <ele>377.844482</ele>
        <time>2020-02-14T15:18:03Z</time>
      </trkpt>
      <trkpt lat="47.83392" lon="6.45579">
        <ele>378.151306</ele>
        <time>2020-02-14T15:18:05Z</time>
      </trkpt>
      <trkpt lat="47.83388" lon="6.45577">
        <ele>378.551025</ele>
        <time>2020-02-14T15:18:07Z</time>
      </trkpt>
      <trkpt lat="47.83384" lon="6.45574">
        <ele>378.911255</ele>
        <time>2020-02-14T15:18:09Z</time>
      </trkpt>
      <trkpt lat="47.83379" lon="6.45571">
        <ele>379.253265</ele>
        <time>2020-02-14T15:18:11Z</time>
      </trkpt>
      <trkpt lat="47.83374" lon="6.45569">
        <ele>379.80188</ele>
        <time>2020-02-14T15:18:13Z</time>
      </trkpt>
      <trkpt lat="47.83371" lon="6.45568">
        <ele>380.118744</ele>
        <time>2020-02-14T15:18:14Z</time>
      </trkpt>
      <trkpt lat="47.83367" lon="6.45565">
        <ele>380.056244</ele>
        <time>2020-02-14T15:18:15Z</time>
      </trkpt>
      <trkpt lat="47.83363" lon="6.45562">
        <ele>379.993744</ele>
        <time>2020-02-14T15:18:17Z</time>
      </trkpt>
      <trkpt lat="47.83358" lon="6.45559">
        <ele>379.78952</ele>
        <time>2020-02-14T15:18:19Z</time>
      </trkpt>
      <trkpt lat="47.83354" lon="6.45557">
        <ele>379.748566</ele>
        <time>2020-02-14T15:18:20Z</time>
      </trkpt>
      <trkpt lat="47.8335" lon="6.45554">
        <ele>379.583801</ele>
        <time>2020-02-14T15:18:23Z</time>
      </trkpt>
      <trkpt lat="47.83347" lon="6.45552">
        <ele>379.424622</ele>
        <time>2020-02-14T15:18:26Z</time>
      </trkpt>
      <trkpt lat="47.83343" lon="6.4555">
        <ele>379.353394</ele>
        <time>2020-02-14T15:18:28Z</time>
      </trkpt>
      <trkpt lat="47.8334" lon="6.45549">
        <ele>379.519165</ele>
        <time>2020-02-14T15:18:31Z</time>
      </trkpt>
      <trkpt lat="47.83336" lon="6.45548">
        <ele>379.634766</ele>
        <time>2020-02-14T15:18:34Z</time>
      </trkpt>
      <trkpt lat="47.83332" lon="6.45546">
        <ele>379.688293</ele>
        <time>2020-02-14T15:18:37Z</time>
      </trkpt>
      <trkpt lat="47.83329" lon="6.45546">
        <ele>380.158417</ele>
        <time>2020-02-14T15:18:41Z</time>
      </trkpt>
      <trkpt lat="47.83325" lon="6.45546">
        <ele>380.407501</ele>
        <time>2020-02-14T15:18:47Z</time>
      </trkpt>
      <trkpt lat="47.83321" lon="6.45545">
        <ele>380.647491</ele>
        <time>2020-02-14T15:18:51Z</time>
      </trkpt>
      <trkpt lat="47.83317" lon="6.45545">
        <ele>380.917511</ele>
        <time>2020-02-14T15:18:55Z</time>
      </trkpt>
      <trkpt lat="47.83305" lon="6.45542">
        <ele>381.105011</ele>
        <time>2020-02-14T15:18:57Z</time>
      </trkpt>
      <trkpt lat="47.83301" lon="6.45541">
        <ele>381.142487</ele>
        <time>2020-02-14T15:18:59Z</time>
      </trkpt>
      <trkpt lat="47.83293" lon="6.45541">
        <ele>382.035004</ele>
        <time>2020-02-14T15:19:34Z</time>
      </trkpt>
      <trkpt lat="47.8329" lon="6.45541">
        <ele>382.26001</ele>
        <time>2020-02-14T15:19:37Z</time>
      </trkpt>
      <trkpt lat="47.83287" lon="6.45542">
        <ele>382.837494</ele>
        <time>2020-02-14T15:19:42Z</time>
      </trkpt>
      <trkpt lat="47.83283" lon="6.45541">
        <ele>382.867493</ele>
        <time>2020-02-14T15:19:47Z</time>
      </trkpt>
      <trkpt lat="47.83279" lon="6.45539">
        <ele>382.551483</ele>
        <time>2020-02-14T15:19:49Z</time>
      </trkpt>
      <trkpt lat="47.83276" lon="6.45542">
        <ele>383.373993</ele>
        <time>2020-02-14T15:19:53Z</time>
      </trkpt>
      <trkpt lat="47.83273" lon="6.4554">
        <ele>382.927765</ele>
        <time>2020-02-14T15:19:55Z</time>
      </trkpt>
      <trkpt lat="47.8327" lon="6.4554">
        <ele>382.754547</ele>
        <time>2020-02-14T15:19:57Z</time>
      </trkpt>
      <trkpt lat="47.83267" lon="6.45537">
        <ele>382.000977</ele>
        <time>2020-02-14T15:19:59Z</time>
      </trkpt>
      <trkpt lat="47.83264" lon="6.45535">
        <ele>381.684113</ele>
        <time>2020-02-14T15:20:01Z</time>
      </trkpt>
      <trkpt lat="47.83261" lon="6.45535">
        <ele>381.548401</ele>
        <time>2020-02-14T15:20:02Z</time>
      </trkpt>
      <trkpt lat="47.83258" lon="6.45534">
        <ele>381.504547</ele>
        <time>2020-02-14T15:20:04Z</time>
      </trkpt>
      <trkpt lat="47.83255" lon="6.45534">
        <ele>381.416992</ele>
        <time>2020-02-14T15:20:05Z</time>
      </trkpt>
      <trkpt lat="47.83252" lon="6.45534">
        <ele>381.487915</ele>
        <time>2020-02-14T15:20:06Z</time>
      </trkpt>
      <trkpt lat="47.83248" lon="6.45534">
        <ele>381.561035</ele>
        <time>2020-02-14T15:20:07Z</time>
      </trkpt>
      <trkpt lat="47.83245" lon="6.45534">
        <ele>381.656982</ele>
        <time>2020-02-14T15:20:09Z</time>
      </trkpt>
      <trkpt lat="47.8324" lon="6.45535">
        <ele>381.909882</ele>
        <time>2020-02-14T15:20:10Z</time>
      </trkpt>
      <trkpt lat="47.83237" lon="6.45535">
        <ele>382.153839</ele>
        <time>2020-02-14T15:20:11Z</time>
      </trkpt>
      <trkpt lat="47.83233" lon="6.45536">
        <ele>382.2258</ele>
        <time>2020-02-14T15:20:12Z</time>
      </trkpt>
      <trkpt lat="47.8323" lon="6.45537">
        <ele>382.493286</ele>
        <time>2020-02-14T15:20:14Z</time>
      </trkpt>
      <trkpt lat="47.83226" lon="6.45538">
        <ele>382.583221</ele>
        <time>2020-02-14T15:20:15Z</time>
      </trkpt>
      <trkpt lat="47.83222" lon="6.45539">
        <ele>382.53186</ele>
        <time>2020-02-14T15:20:16Z</time>
      </trkpt>
      <trkpt lat="47.83218" lon="6.45539">
        <ele>382.503387</ele>
        <time>2020-02-14T15:20:18Z</time>
      </trkpt>
      <trkpt lat="47.83214" lon="6.45539">
        <ele>382.220398</ele>
        <time>2020-02-14T15:20:19Z</time>
      </trkpt>
      <trkpt lat="47.8321" lon="6.45538">
        <ele>381.853363</ele>
        <time>2020-02-14T15:20:20Z</time>
      </trkpt>
      <trkpt lat="47.83203" lon="6.45538">
        <ele>381.709381</ele>
        <time>2020-02-14T15:20:21Z</time>
      </trkpt>
      <trkpt lat="47.83195" lon="6.45542">
        <ele>382.332123</ele>
        <time>2020-02-14T15:20:23Z</time>
      </trkpt>
      <trkpt lat="47.83182" lon="6.45546">
        <ele>382.872498</ele>
        <time>2020-02-14T15:20:24Z</time>
      </trkpt>
      <trkpt lat="47.83128" lon="6.45542">
        <ele>379.579712</ele>
        <time>2020-02-14T15:20:27Z</time>
      </trkpt>
      <trkpt lat="47.83111" lon="6.45538">
        <ele>378.204254</ele>
        <time>2020-02-14T15:20:28Z</time>
      </trkpt>
      <trkpt lat="47.83088" lon="6.45531">
        <ele>377.048859</ele>
        <time>2020-02-14T15:20:30Z</time>
      </trkpt>
      <trkpt lat="47.83071" lon="6.45525">
        <ele>376.429626</ele>
        <time>2020-02-14T15:20:32Z</time>
      </trkpt>
      <trkpt lat="47.83052" lon="6.45526">
        <ele>377.109375</ele>
        <time>2020-02-14T15:20:34Z</time>
      </trkpt>
      <trkpt lat="47.83033" lon="6.45527">
        <ele>377.372009</ele>
        <time>2020-02-14T15:20:36Z</time>
      </trkpt>
      <trkpt lat="47.83025" lon="6.45527">
        <ele>377.479614</ele>
        <time>2020-02-14T15:20:37Z</time>
      </trkpt>
      <trkpt lat="47.83017" lon="6.45527">
        <ele>377.52359</ele>
        <time>2020-02-14T15:20:38Z</time>
      </trkpt>
      <trkpt lat="47.83004" lon="6.45529">
        <ele>377.604218</ele>
        <time>2020-02-14T15:20:40Z</time>
      </trkpt>
      <trkpt lat="47.82992" lon="6.45529">
        <ele>377.463501</ele>
        <time>2020-02-14T15:20:42Z</time>
      </trkpt>
      <trkpt lat="47.82986" lon="6.4553">
        <ele>377.445007</ele>
        <time>2020-02-14T15:20:43Z</time>
      </trkpt>
      <trkpt lat="47.8298" lon="6.45531">
        <ele>377.33194</ele>
        <time>2020-02-14T15:20:44Z</time>
      </trkpt>
      <trkpt lat="47.82974" lon="6.45531">
        <ele>377.126404</ele>
        <time>2020-02-14T15:20:45Z</time>
      </trkpt>
      <trkpt lat="47.8296" lon="6.45532">
        <ele>376.877502</ele>
        <time>2020-02-14T15:20:47Z</time>
      </trkpt>
      <trkpt lat="47.82947" lon="6.45541">
        <ele>377.837494</ele>
        <time>2020-02-14T15:20:49Z</time>
      </trkpt>
      <trkpt lat="47.82934" lon="6.45553">
        <ele>379.19751</ele>
        <time>2020-02-14T15:20:51Z</time>
      </trkpt>
      <trkpt lat="47.82928" lon="6.45559">
        <ele>379.890015</ele>
        <time>2020-02-14T15:20:52Z</time>
      </trkpt>
      <trkpt lat="47.82916" lon="6.4557">
        <ele>381.31485</ele>
        <time>2020-02-14T15:20:54Z</time>
      </trkpt>
      <trkpt lat="47.82911" lon="6.45574">
        <ele>381.865448</ele>
        <time>2020-02-14T15:20:55Z</time>
      </trkpt>
      <trkpt lat="47.82901" lon="6.4558">
        <ele>382.329468</ele>
        <time>2020-02-14T15:20:57Z</time>
      </trkpt>
      <trkpt lat="47.82896" lon="6.45581">
        <ele>382.331635</ele>
        <time>2020-02-14T15:20:58Z</time>
      </trkpt>
      <trkpt lat="47.82893" lon="6.45582">
        <ele>382.298645</ele>
        <time>2020-02-14T15:20:59Z</time>
      </trkpt>
      <trkpt lat="47.82891" lon="6.45585">
        <ele>382.394562</ele>
        <time>2020-02-14T15:21:04Z</time>
      </trkpt>
      <trkpt lat="47.82888" lon="6.45585">
        <ele>382.312988</ele>
        <time>2020-02-14T15:21:05Z</time>
      </trkpt>
      <trkpt lat="47.82885" lon="6.45588">
        <ele>382.414124</ele>
        <time>2020-02-14T15:21:07Z</time>
      </trkpt>
      <trkpt lat="47.82884" lon="6.45593">
        <ele>382.704987</ele>
        <time>2020-02-14T15:21:09Z</time>
      </trkpt>
      <trkpt lat="47.82882" lon="6.45595">
        <ele>382.975006</ele>
        <time>2020-02-14T15:21:12Z</time>
      </trkpt>
      <trkpt lat="47.82878" lon="6.45597">
        <ele>382.892517</ele>
        <time>2020-02-14T15:21:15Z</time>
      </trkpt>
      <trkpt lat="47.82874" lon="6.45595">
        <ele>382.508179</ele>
        <time>2020-02-14T15:21:17Z</time>
      </trkpt>
      <trkpt lat="47.8287" lon="6.45592">
        <ele>382.629639</ele>
        <time>2020-02-14T15:21:19Z</time>
      </trkpt>
      <trkpt lat="47.82861" lon="6.45585">
        <ele>383.409058</ele>
        <time>2020-02-14T15:21:23Z</time>
      </trkpt>
      <trkpt lat="47.82857" lon="6.45582">
        <ele>383.726563</ele>
        <time>2020-02-14T15:21:24Z</time>
      </trkpt>
      <trkpt lat="47.82854" lon="6.4558">
        <ele>383.998962</ele>
        <time>2020-02-14T15:21:25Z</time>
      </trkpt>
      <trkpt lat="47.8285" lon="6.4558">
        <ele>384.481049</ele>
        <time>2020-02-14T15:21:28Z</time>
      </trkpt>
      <trkpt lat="47.82847" lon="6.45584">
        <ele>384.92746</ele>
        <time>2020-02-14T15:21:30Z</time>
      </trkpt>
      <trkpt lat="47.82844" lon="6.45586">
        <ele>385.360474</ele>
        <time>2020-02-14T15:21:31Z</time>
      </trkpt>
      <trkpt lat="47.8284" lon="6.4559">
        <ele>385.975586</ele>
        <time>2020-02-14T15:21:33Z</time>
      </trkpt>
      <trkpt lat="47.82837" lon="6.45592">
        <ele>386.469391</ele>
        <time>2020-02-14T15:21:34Z</time>
      </trkpt>
      <trkpt lat="47.82834" lon="6.45595">
        <ele>386.904327</ele>
        <time>2020-02-14T15:21:36Z</time>
      </trkpt>
      <trkpt lat="47.82831" lon="6.45599">
        <ele>387.346619</ele>
        <time>2020-02-14T15:21:38Z</time>
      </trkpt>
      <trkpt lat="47.8283" lon="6.45603">
        <ele>387.661469</ele>
        <time>2020-02-14T15:21:39Z</time>
      </trkpt>
      <trkpt lat="47.82828" lon="6.45608">
        <ele>388.025574</ele>
        <time>2020-02-14T15:21:41Z</time>
      </trkpt>
      <trkpt lat="47.82827" lon="6.45612">
        <ele>388.285675</ele>
        <time>2020-02-14T15:21:42Z</time>
      </trkpt>
      <trkpt lat="47.82825" lon="6.45617">
        <ele>388.621948</ele>
        <time>2020-02-14T15:21:44Z</time>
      </trkpt>
      <trkpt lat="47.82823" lon="6.45622">
        <ele>388.98349</ele>
        <time>2020-02-14T15:21:45Z</time>
      </trkpt>
      <trkpt lat="47.82821" lon="6.45627">
        <ele>389.224548</ele>
        <time>2020-02-14T15:21:47Z</time>
      </trkpt>
      <trkpt lat="47.8282" lon="6.4563">
        <ele>389.469971</ele>
        <time>2020-02-14T15:21:48Z</time>
      </trkpt>
      <trkpt lat="47.82817" lon="6.45635">
        <ele>389.790344</ele>
        <time>2020-02-14T15:21:49Z</time>
      </trkpt>
      <trkpt lat="47.82816" lon="6.45641">
        <ele>390.099457</ele>
        <time>2020-02-14T15:21:52Z</time>
      </trkpt>
      <trkpt lat="47.82814" lon="6.45644">
        <ele>390.318451</ele>
        <time>2020-02-14T15:21:53Z</time>
      </trkpt>
      <trkpt lat="47.8281" lon="6.45649">
        <ele>390.668457</ele>
        <time>2020-02-14T15:21:56Z</time>
      </trkpt>
      <trkpt lat="47.82808" lon="6.45653">
        <ele>390.922882</ele>
        <time>2020-02-14T15:21:58Z</time>
      </trkpt>
      <trkpt lat="47.82804" lon="6.45657">
        <ele>391.436768</ele>
        <time>2020-02-14T15:22:01Z</time>
      </trkpt>
      <trkpt lat="47.828" lon="6.45661">
        <ele>391.949738</ele>
        <time>2020-02-14T15:22:04Z</time>
      </trkpt>
      <trkpt lat="47.82795" lon="6.45662">
        <ele>392.272461</ele>
        <time>2020-02-14T15:22:07Z</time>
      </trkpt>
      <trkpt lat="47.82791" lon="6.45662">
        <ele>392.487518</ele>
        <time>2020-02-14T15:22:10Z</time>
      </trkpt>
      <trkpt lat="47.82788" lon="6.45663">
        <ele>392.635925</ele>
        <time>2020-02-14T15:22:12Z</time>
      </trkpt>
      <trkpt lat="47.82781" lon="6.45664">
        <ele>393.097321</ele>
        <time>2020-02-14T15:22:15Z</time>
      </trkpt>
      <trkpt lat="47.82777" lon="6.45665">
        <ele>393.517487</ele>
        <time>2020-02-14T15:22:18Z</time>
      </trkpt>
      <trkpt lat="47.82774" lon="6.45669">
        <ele>393.968811</ele>
        <time>2020-02-14T15:22:51Z</time>
      </trkpt>
      <trkpt lat="47.82772" lon="6.45681">
        <ele>394.908936</ele>
        <time>2020-02-14T15:23:19Z</time>
      </trkpt>
      <trkpt lat="47.82774" lon="6.45685">
        <ele>395.043793</ele>
        <time>2020-02-14T15:23:23Z</time>
      </trkpt>
      <trkpt lat="47.82776" lon="6.45679">
        <ele>394.523682</ele>
        <time>2020-02-14T15:23:47Z</time>
      </trkpt>
      <trkpt lat="47.82778" lon="6.45677">
        <ele>394.209991</ele>
        <time>2020-02-14T15:23:52Z</time>
      </trkpt>
      <trkpt lat="47.82782" lon="6.45677">
        <ele>393.9953</ele>
        <time>2020-02-14T15:24:05Z</time>
      </trkpt>
      <trkpt lat="47.82785" lon="6.45677">
        <ele>393.845032</ele>
        <time>2020-02-14T15:24:41Z</time>
      </trkpt>
      <trkpt lat="47.82788" lon="6.45677">
        <ele>393.744995</ele>
        <time>2020-02-14T15:24:56Z</time>
      </trkpt>
      <trkpt lat="47.8279" lon="6.45672">
        <ele>393.282013</ele>
        <time>2020-02-14T15:25:01Z</time>
      </trkpt>
      <trkpt lat="47.8279" lon="6.45666">
        <ele>392.861511</ele>
        <time>2020-02-14T15:25:04Z</time>
      </trkpt>
      <trkpt lat="47.82792" lon="6.45662">
        <ele>392.415039</ele>
        <time>2020-02-14T15:25:08Z</time>
      </trkpt>
      <trkpt lat="47.82794" lon="6.45657">
        <ele>391.960632</ele>
        <time>2020-02-14T15:25:12Z</time>
      </trkpt>
      <trkpt lat="47.82798" lon="6.45654">
        <ele>391.531036</ele>
        <time>2020-02-14T15:25:15Z</time>
      </trkpt>
      <trkpt lat="47.82802" lon="6.4565">
        <ele>391.0979</ele>
        <time>2020-02-14T15:25:19Z</time>
      </trkpt>
      <trkpt lat="47.82802" lon="6.45646">
        <ele>390.960968</ele>
        <time>2020-02-14T15:25:21Z</time>
      </trkpt>
      <trkpt lat="47.82802" lon="6.45642">
        <ele>390.886536</ele>
        <time>2020-02-14T15:25:22Z</time>
      </trkpt>
      <trkpt lat="47.82801" lon="6.45637">
        <ele>390.831757</ele>
        <time>2020-02-14T15:25:23Z</time>
      </trkpt>
      <trkpt lat="47.82801" lon="6.45631">
        <ele>390.650635</ele>
        <time>2020-02-14T15:25:24Z</time>
      </trkpt>
      <trkpt lat="47.828" lon="6.45624">
        <ele>390.528259</ele>
        <time>2020-02-14T15:25:27Z</time>
      </trkpt>
      <trkpt lat="47.82798" lon="6.45617">
        <ele>390.510162</ele>
        <time>2020-02-14T15:25:29Z</time>
      </trkpt>
      <trkpt lat="47.82797" lon="6.4561">
        <ele>390.487061</ele>
        <time>2020-02-14T15:25:32Z</time>
      </trkpt>
      <trkpt lat="47.82795" lon="6.45606">
        <ele>390.549042</ele>
        <time>2020-02-14T15:25:34Z</time>
      </trkpt>
      <trkpt lat="47.82797" lon="6.45609">
        <ele>390.415405</ele>
        <time>2020-02-14T15:25:43Z</time>
      </trkpt>
      <trkpt lat="47.82794" lon="6.45603">
        <ele>390.569519</ele>
        <time>2020-02-14T15:27:12Z</time>
      </trkpt>
      <trkpt lat="47.82793" lon="6.45599">
        <ele>390.542572</ele>
        <time>2020-02-14T15:27:32Z</time>
      </trkpt>
      <trkpt lat="47.82791" lon="6.45593">
        <ele>390.635925</ele>
        <time>2020-02-14T15:27:42Z</time>
      </trkpt>
      <trkpt lat="47.82789" lon="6.4559">
        <ele>390.768463</ele>
        <time>2020-02-14T15:27:44Z</time>
      </trkpt>
      <trkpt lat="47.82785" lon="6.45583">
        <ele>391.006256</ele>
        <time>2020-02-14T15:27:47Z</time>
      </trkpt>
      <trkpt lat="47.82782" lon="6.45577">
        <ele>391.198761</ele>
        <time>2020-02-14T15:27:49Z</time>
      </trkpt>
      <trkpt lat="47.8278" lon="6.45574">
        <ele>391.334991</ele>
        <time>2020-02-14T15:27:51Z</time>
      </trkpt>
      <trkpt lat="47.82778" lon="6.45569">
        <ele>391.467499</ele>
        <time>2020-02-14T15:27:55Z</time>
      </trkpt>
      <trkpt lat="47.82777" lon="6.45563">
        <ele>391.5</ele>
        <time>2020-02-14T15:27:57Z</time>
      </trkpt>
      <trkpt lat="47.82775" lon="6.4556">
        <ele>391.612488</ele>
        <time>2020-02-14T15:27:59Z</time>
      </trkpt>
      <trkpt lat="47.82772" lon="6.45552">
        <ele>391.799988</ele>
        <time>2020-02-14T15:28:03Z</time>
      </trkpt>
      <trkpt lat="47.8277" lon="6.45544">
        <ele>391.858765</ele>
        <time>2020-02-14T15:28:06Z</time>
      </trkpt>
      <trkpt lat="47.82769" lon="6.45539">
        <ele>391.901245</ele>
        <time>2020-02-14T15:28:07Z</time>
      </trkpt>
      <trkpt lat="47.82768" lon="6.45529">
        <ele>391.911255</ele>
        <time>2020-02-14T15:28:09Z</time>
      </trkpt>
      <trkpt lat="47.82767" lon="6.45523">
        <ele>391.893738</ele>
        <time>2020-02-14T15:28:10Z</time>
      </trkpt>
      <trkpt lat="47.82767" lon="6.45518">
        <ele>391.866241</ele>
        <time>2020-02-14T15:28:11Z</time>
      </trkpt>
      <trkpt lat="47.82766" lon="6.4551">
        <ele>391.78891</ele>
        <time>2020-02-14T15:28:13Z</time>
      </trkpt>
      <trkpt lat="47.82765" lon="6.45499">
        <ele>391.702606</ele>
        <time>2020-02-14T15:28:14Z</time>
      </trkpt>
      <trkpt lat="47.82761" lon="6.45482">
        <ele>391.809052</ele>
        <time>2020-02-14T15:28:15Z</time>
      </trkpt>
      <trkpt lat="47.82758" lon="6.4547">
        <ele>391.899139</ele>
        <time>2020-02-14T15:28:17Z</time>
      </trkpt>
      <trkpt lat="47.82755" lon="6.45454">
        <ele>391.953003</ele>
        <time>2020-02-14T15:28:18Z</time>
      </trkpt>
      <trkpt lat="47.82754" lon="6.45446">
        <ele>392.087189</ele>
        <time>2020-02-14T15:28:19Z</time>
      </trkpt>
      <trkpt lat="47.82754" lon="6.45437">
        <ele>392.556183</ele>
        <time>2020-02-14T15:28:21Z</time>
      </trkpt>
      <trkpt lat="47.82756" lon="6.45431">
        <ele>392.665588</ele>
        <time>2020-02-14T15:28:22Z</time>
      </trkpt>
      <trkpt lat="47.82757" lon="6.45427">
        <ele>392.798126</ele>
        <time>2020-02-14T15:28:24Z</time>
      </trkpt>
      <trkpt lat="47.82759" lon="6.45421">
        <ele>392.905426</ele>
        <time>2020-02-14T15:28:25Z</time>
      </trkpt>
      <trkpt lat="47.82761" lon="6.45416">
        <ele>392.954987</ele>
        <time>2020-02-14T15:28:26Z</time>
      </trkpt>
      <trkpt lat="47.82763" lon="6.45412">
        <ele>392.937866</ele>
        <time>2020-02-14T15:28:28Z</time>
      </trkpt>
      <trkpt lat="47.82765" lon="6.45409">
        <ele>392.929993</ele>
        <time>2020-02-14T15:28:29Z</time>
      </trkpt>
      <trkpt lat="47.82769" lon="6.45404">
        <ele>392.901611</ele>
        <time>2020-02-14T15:28:31Z</time>
      </trkpt>
      <trkpt lat="47.82773" lon="6.45398">
        <ele>392.870026</ele>
        <time>2020-02-14T15:28:32Z</time>
      </trkpt>
      <trkpt lat="47.82776" lon="6.45394">
        <ele>392.837494</ele>
        <time>2020-02-14T15:28:33Z</time>
      </trkpt>
      <trkpt lat="47.82779" lon="6.4539">
        <ele>392.777069</ele>
        <time>2020-02-14T15:28:35Z</time>
      </trkpt>
      <trkpt lat="47.82783" lon="6.45386">
        <ele>392.688416</ele>
        <time>2020-02-14T15:28:36Z</time>
      </trkpt>
      <trkpt lat="47.82789" lon="6.45379">
        <ele>392.56366</ele>
        <time>2020-02-14T15:28:38Z</time>
      </trkpt>
      <trkpt lat="47.82792" lon="6.45376">
        <ele>392.527435</ele>
        <time>2020-02-14T15:28:39Z</time>
      </trkpt>
      <trkpt lat="47.82795" lon="6.45373">
        <ele>392.557251</ele>
        <time>2020-02-14T15:28:40Z</time>
      </trkpt>
      <trkpt lat="47.82798" lon="6.4537">
        <ele>392.605927</ele>
        <time>2020-02-14T15:28:42Z</time>
      </trkpt>
      <trkpt lat="47.82801" lon="6.45366">
        <ele>392.680786</ele>
        <time>2020-02-14T15:28:43Z</time>
      </trkpt>
      <trkpt lat="47.82803" lon="6.45363">
        <ele>392.754578</ele>
        <time>2020-02-14T15:28:44Z</time>
      </trkpt>
      <trkpt lat="47.82808" lon="6.45358">
        <ele>392.908234</ele>
        <time>2020-02-14T15:28:47Z</time>
      </trkpt>
      <trkpt lat="47.82811" lon="6.45354">
        <ele>393.04834</ele>
        <time>2020-02-14T15:28:48Z</time>
      </trkpt>
      <trkpt lat="47.82814" lon="6.45352">
        <ele>393.145233</ele>
        <time>2020-02-14T15:28:49Z</time>
      </trkpt>
      <trkpt lat="47.82817" lon="6.45348">
        <ele>393.274994</ele>
        <time>2020-02-14T15:28:51Z</time>
      </trkpt>
      <trkpt lat="47.82822" lon="6.45345">
        <ele>393.415009</ele>
        <time>2020-02-14T15:28:52Z</time>
      </trkpt>
      <trkpt lat="47.82825" lon="6.45342">
        <ele>393.538239</ele>
        <time>2020-02-14T15:28:53Z</time>
      </trkpt>
      <trkpt lat="47.8283" lon="6.45338">
        <ele>393.730652</ele>
        <time>2020-02-14T15:28:55Z</time>
      </trkpt>
      <trkpt lat="47.82833" lon="6.45335">
        <ele>393.895935</ele>
        <time>2020-02-14T15:28:56Z</time>
      </trkpt>
      <trkpt lat="47.82839" lon="6.45328">
        <ele>394.382111</ele>
        <time>2020-02-14T15:28:57Z</time>
      </trkpt>
      <trkpt lat="47.82854" lon="6.45313">
        <ele>394.908051</ele>
        <time>2020-02-14T15:28:58Z</time>
      </trkpt>
      <trkpt lat="47.82863" lon="6.45304">
        <ele>395.050537</ele>
        <time>2020-02-14T15:29:00Z</time>
      </trkpt>
      <trkpt lat="47.82868" lon="6.453">
        <ele>395.162964</ele>
        <time>2020-02-14T15:29:01Z</time>
      </trkpt>
      <trkpt lat="47.82873" lon="6.45292">
        <ele>395.414246</ele>
        <time>2020-02-14T15:29:03Z</time>
      </trkpt>
      <trkpt lat="47.82876" lon="6.45287">
        <ele>395.623016</ele>
        <time>2020-02-14T15:29:04Z</time>
      </trkpt>
      <trkpt lat="47.82881" lon="6.45281">
        <ele>395.889862</ele>
        <time>2020-02-14T15:29:06Z</time>
      </trkpt>
      <trkpt lat="47.82884" lon="6.45275">
        <ele>396.18985</ele>
        <time>2020-02-14T15:29:07Z</time>
      </trkpt>
      <trkpt lat="47.82888" lon="6.45269">
        <ele>396.466278</ele>
        <time>2020-02-14T15:29:08Z</time>
      </trkpt>
      <trkpt lat="47.8289" lon="6.45263">
        <ele>396.668213</ele>
        <time>2020-02-14T15:29:09Z</time>
      </trkpt>
      <trkpt lat="47.82892" lon="6.4526">
        <ele>396.804688</ele>
        <time>2020-02-14T15:29:10Z</time>
      </trkpt>
      <trkpt lat="47.82895" lon="6.45255">
        <ele>396.841614</ele>
        <time>2020-02-14T15:29:12Z</time>
      </trkpt>
      <trkpt lat="47.82898" lon="6.45251">
        <ele>396.821411</ele>
        <time>2020-02-14T15:29:14Z</time>
      </trkpt>
      <trkpt lat="47.829" lon="6.45248">
        <ele>396.813812</ele>
        <time>2020-02-14T15:29:15Z</time>
      </trkpt>
      <trkpt lat="47.82902" lon="6.45245">
        <ele>396.811493</ele>
        <time>2020-02-14T15:29:16Z</time>
      </trkpt>
      <trkpt lat="47.82905" lon="6.45241">
        <ele>396.817688</ele>
        <time>2020-02-14T15:29:18Z</time>
      </trkpt>
      <trkpt lat="47.82908" lon="6.45238">
        <ele>396.838409</ele>
        <time>2020-02-14T15:29:19Z</time>
      </trkpt>
      <trkpt lat="47.82911" lon="6.45235">
        <ele>396.871246</ele>
        <time>2020-02-14T15:29:20Z</time>
      </trkpt>
      <trkpt lat="47.82913" lon="6.45231">
        <ele>396.913849</ele>
        <time>2020-02-14T15:29:21Z</time>
      </trkpt>
      <trkpt lat="47.82918" lon="6.45226">
        <ele>397.023102</ele>
        <time>2020-02-14T15:29:23Z</time>
      </trkpt>
      <trkpt lat="47.8292" lon="6.45223">
        <ele>397.086365</ele>
        <time>2020-02-14T15:29:24Z</time>
      </trkpt>
      <trkpt lat="47.82928" lon="6.45212">
        <ele>397.395935</ele>
        <time>2020-02-14T15:29:25Z</time>
      </trkpt>
      <trkpt lat="47.8294" lon="6.45198">
        <ele>397.65213</ele>
        <time>2020-02-14T15:29:26Z</time>
      </trkpt>
      <trkpt lat="47.82952" lon="6.45183">
        <ele>397.123505</ele>
        <time>2020-02-14T15:29:28Z</time>
      </trkpt>
      <trkpt lat="47.8296" lon="6.45174">
        <ele>396.964539</ele>
        <time>2020-02-14T15:29:29Z</time>
      </trkpt>
      <trkpt lat="47.82967" lon="6.45165">
        <ele>396.980011</ele>
        <time>2020-02-14T15:29:30Z</time>
      </trkpt>
      <trkpt lat="47.8297" lon="6.45161">
        <ele>397.0495</ele>
        <time>2020-02-14T15:29:32Z</time>
      </trkpt>
      <trkpt lat="47.8298" lon="6.45149">
        <ele>397.451202</ele>
        <time>2020-02-14T15:29:33Z</time>
      </trkpt>
      <trkpt lat="47.82987" lon="6.4514">
        <ele>397.322174</ele>
        <time>2020-02-14T15:29:34Z</time>
      </trkpt>
      <trkpt lat="47.82998" lon="6.45128">
        <ele>396.819672</ele>
        <time>2020-02-14T15:29:36Z</time>
      </trkpt>
      <trkpt lat="47.83004" lon="6.45122">
        <ele>396.5</ele>
        <time>2020-02-14T15:29:37Z</time>
      </trkpt>
      <trkpt lat="47.83014" lon="6.45112">
        <ele>396.286285</ele>
        <time>2020-02-14T15:29:39Z</time>
      </trkpt>
      <trkpt lat="47.83021" lon="6.45103">
        <ele>396.443298</ele>
        <time>2020-02-14T15:29:41Z</time>
      </trkpt>
      <trkpt lat="47.83029" lon="6.45097">
        <ele>396.612793</ele>
        <time>2020-02-14T15:29:43Z</time>
      </trkpt>
      <trkpt lat="47.83034" lon="6.45093">
        <ele>396.551697</ele>
        <time>2020-02-14T15:29:45Z</time>
      </trkpt>
      <trkpt lat="47.83041" lon="6.45089">
        <ele>396.482788</ele>
        <time>2020-02-14T15:29:47Z</time>
      </trkpt>
      <trkpt lat="47.83046" lon="6.45084">
        <ele>396.589691</ele>
        <time>2020-02-14T15:29:48Z</time>
      </trkpt>
      <trkpt lat="47.83053" lon="6.45077">
        <ele>396.929535</ele>
        <time>2020-02-14T15:29:50Z</time>
      </trkpt>
      <trkpt lat="47.83058" lon="6.45073">
        <ele>397.155334</ele>
        <time>2020-02-14T15:29:51Z</time>
      </trkpt>
      <trkpt lat="47.83067" lon="6.45066">
        <ele>397.347687</ele>
        <time>2020-02-14T15:29:53Z</time>
      </trkpt>
      <trkpt lat="47.83072" lon="6.45062">
        <ele>397.434052</ele>
        <time>2020-02-14T15:29:54Z</time>
      </trkpt>
      <trkpt lat="47.83079" lon="6.45057">
        <ele>397.566406</ele>
        <time>2020-02-14T15:29:55Z</time>
      </trkpt>
      <trkpt lat="47.83091" lon="6.45047">
        <ele>397.931671</ele>
        <time>2020-02-14T15:29:57Z</time>
      </trkpt>
      <trkpt lat="47.83102" lon="6.4504">
        <ele>398.213043</ele>
        <time>2020-02-14T15:29:59Z</time>
      </trkpt>
      <trkpt lat="47.83107" lon="6.45038">
        <ele>398.316589</ele>
        <time>2020-02-14T15:30:00Z</time>
      </trkpt>
      <trkpt lat="47.83115" lon="6.45032">
        <ele>398.614197</ele>
        <time>2020-02-14T15:30:02Z</time>
      </trkpt>
      <trkpt lat="47.8312" lon="6.45026">
        <ele>398.932678</ele>
        <time>2020-02-14T15:30:05Z</time>
      </trkpt>
      <trkpt lat="47.83123" lon="6.45025">
        <ele>399.029999</ele>
        <time>2020-02-14T15:30:06Z</time>
      </trkpt>
      <trkpt lat="47.83127" lon="6.45022">
        <ele>399.204987</ele>
        <time>2020-02-14T15:30:08Z</time>
      </trkpt>
      <trkpt lat="47.8313" lon="6.45021">
        <ele>399.320007</ele>
        <time>2020-02-14T15:30:09Z</time>
      </trkpt>
      <trkpt lat="47.83133" lon="6.45018">
        <ele>399.480011</ele>
        <time>2020-02-14T15:30:10Z</time>
      </trkpt>
      <trkpt lat="47.83135" lon="6.45015">
        <ele>399.665009</ele>
        <time>2020-02-14T15:30:11Z</time>
      </trkpt>
      <trkpt lat="47.83138" lon="6.4501">
        <ele>399.984985</ele>
        <time>2020-02-14T15:30:12Z</time>
      </trkpt>
      <trkpt lat="47.83142" lon="6.45004">
        <ele>400.089996</ele>
        <time>2020-02-14T15:30:15Z</time>
      </trkpt>
      <trkpt lat="47.83146" lon="6.45002">
        <ele>400.119995</ele>
        <time>2020-02-14T15:30:16Z</time>
      </trkpt>
      <trkpt lat="47.83153" lon="6.44999">
        <ele>400.172485</ele>
        <time>2020-02-14T15:30:19Z</time>
      </trkpt>
      <trkpt lat="47.83157" lon="6.44997">
        <ele>400.217499</ele>
        <time>2020-02-14T15:30:21Z</time>
      </trkpt>
      <trkpt lat="47.83161" lon="6.44993">
        <ele>400.276245</ele>
        <time>2020-02-14T15:30:22Z</time>
      </trkpt>
      <trkpt lat="47.83164" lon="6.4499">
        <ele>400.318756</ele>
        <time>2020-02-14T15:30:23Z</time>
      </trkpt>
      <trkpt lat="47.83169" lon="6.44985">
        <ele>400.370941</ele>
        <time>2020-02-14T15:30:25Z</time>
      </trkpt>
      <trkpt lat="47.83174" lon="6.4498">
        <ele>400.415283</ele>
        <time>2020-02-14T15:30:27Z</time>
      </trkpt>
      <trkpt lat="47.83178" lon="6.44975">
        <ele>400.449371</ele>
        <time>2020-02-14T15:30:28Z</time>
      </trkpt>
      <trkpt lat="47.83184" lon="6.44967">
        <ele>400.575134</ele>
        <time>2020-02-14T15:30:29Z</time>
      </trkpt>
      <trkpt lat="47.83188" lon="6.44962">
        <ele>400.668304</ele>
        <time>2020-02-14T15:30:31Z</time>
      </trkpt>
      <trkpt lat="47.83192" lon="6.44956">
        <ele>400.793365</ele>
        <time>2020-02-14T15:30:33Z</time>
      </trkpt>
      <trkpt lat="47.83195" lon="6.4495">
        <ele>400.939636</ele>
        <time>2020-02-14T15:30:35Z</time>
      </trkpt>
      <trkpt lat="47.83197" lon="6.44945">
        <ele>401.036255</ele>
        <time>2020-02-14T15:30:36Z</time>
      </trkpt>
      <trkpt lat="47.83199" lon="6.44937">
        <ele>401.162506</ele>
        <time>2020-02-14T15:30:37Z</time>
      </trkpt>
      <trkpt lat="47.832" lon="6.44932">
        <ele>401.236237</ele>
        <time>2020-02-14T15:30:38Z</time>
      </trkpt>
      <trkpt lat="47.832" lon="6.44927">
        <ele>401.306244</ele>
        <time>2020-02-14T15:30:40Z</time>
      </trkpt>
      <trkpt lat="47.832" lon="6.44923">
        <ele>401.367493</ele>
        <time>2020-02-14T15:30:41Z</time>
      </trkpt>
      <trkpt lat="47.83201" lon="6.44918">
        <ele>401.450012</ele>
        <time>2020-02-14T15:30:42Z</time>
      </trkpt>
      <trkpt lat="47.83203" lon="6.4491">
        <ele>401.565002</ele>
        <time>2020-02-14T15:30:44Z</time>
      </trkpt>
      <trkpt lat="47.83207" lon="6.44903">
        <ele>401.682495</ele>
        <time>2020-02-14T15:30:45Z</time>
      </trkpt>
      <trkpt lat="47.83212" lon="6.44896">
        <ele>401.792511</ele>
        <time>2020-02-14T15:30:47Z</time>
      </trkpt>
      <trkpt lat="47.83215" lon="6.44891">
        <ele>401.868744</ele>
        <time>2020-02-14T15:30:48Z</time>
      </trkpt>
      <trkpt lat="47.83218" lon="6.44886">
        <ele>401.808746</ele>
        <time>2020-02-14T15:30:49Z</time>
      </trkpt>
      <trkpt lat="47.83222" lon="6.44881">
        <ele>401.723663</ele>
        <time>2020-02-14T15:30:50Z</time>
      </trkpt>
      <trkpt lat="47.83224" lon="6.44875">
        <ele>401.640656</ele>
        <time>2020-02-14T15:30:51Z</time>
      </trkpt>
      <trkpt lat="47.83228" lon="6.44869">
        <ele>401.516022</ele>
        <time>2020-02-14T15:30:54Z</time>
      </trkpt>
      <trkpt lat="47.83233" lon="6.44864">
        <ele>401.365906</ele>
        <time>2020-02-14T15:30:55Z</time>
      </trkpt>
      <trkpt lat="47.83235" lon="6.44861">
        <ele>401.285675</ele>
        <time>2020-02-14T15:30:56Z</time>
      </trkpt>
      <trkpt lat="47.83238" lon="6.44857">
        <ele>401.223999</ele>
        <time>2020-02-14T15:30:57Z</time>
      </trkpt>
      <trkpt lat="47.83241" lon="6.44853">
        <ele>401.172455</ele>
        <time>2020-02-14T15:30:58Z</time>
      </trkpt>
      <trkpt lat="47.83243" lon="6.44848">
        <ele>401.121002</ele>
        <time>2020-02-14T15:31:00Z</time>
      </trkpt>
      <trkpt lat="47.83247" lon="6.44843">
        <ele>401.083954</ele>
        <time>2020-02-14T15:31:01Z</time>
      </trkpt>
      <trkpt lat="47.83249" lon="6.44839">
        <ele>401.061035</ele>
        <time>2020-02-14T15:31:02Z</time>
      </trkpt>
      <trkpt lat="47.83251" lon="6.44835">
        <ele>401.043335</ele>
        <time>2020-02-14T15:31:03Z</time>
      </trkpt>
      <trkpt lat="47.83254" lon="6.44831">
        <ele>401.015167</ele>
        <time>2020-02-14T15:31:05Z</time>
      </trkpt>
      <trkpt lat="47.83258" lon="6.44825">
        <ele>401.001282</ele>
        <time>2020-02-14T15:31:06Z</time>
      </trkpt>
      <trkpt lat="47.8326" lon="6.44821">
        <ele>401.017944</ele>
        <time>2020-02-14T15:31:08Z</time>
      </trkpt>
      <trkpt lat="47.83264" lon="6.44814">
        <ele>400.80896</ele>
        <time>2020-02-14T15:31:10Z</time>
      </trkpt>
      <trkpt lat="47.83266" lon="6.44808">
        <ele>400.400848</ele>
        <time>2020-02-14T15:31:11Z</time>
      </trkpt>
      <trkpt lat="47.83268" lon="6.44803">
        <ele>400.12973</ele>
        <time>2020-02-14T15:31:12Z</time>
      </trkpt>
      <trkpt lat="47.8327" lon="6.44798">
        <ele>399.833313</ele>
        <time>2020-02-14T15:31:13Z</time>
      </trkpt>
      <trkpt lat="47.83272" lon="6.44793">
        <ele>399.512024</ele>
        <time>2020-02-14T15:31:14Z</time>
      </trkpt>
      <trkpt lat="47.83274" lon="6.44789">
        <ele>399.236176</ele>
        <time>2020-02-14T15:31:15Z</time>
      </trkpt>
      <trkpt lat="47.83276" lon="6.44784">
        <ele>398.992188</ele>
        <time>2020-02-14T15:31:17Z</time>
      </trkpt>
      <trkpt lat="47.83278" lon="6.4478">
        <ele>398.753876</ele>
        <time>2020-02-14T15:31:18Z</time>
      </trkpt>
      <trkpt lat="47.83281" lon="6.44775">
        <ele>398.379791</ele>
        <time>2020-02-14T15:31:19Z</time>
      </trkpt>
      <trkpt lat="47.83284" lon="6.44769">
        <ele>397.930908</ele>
        <time>2020-02-14T15:31:22Z</time>
      </trkpt>
      <trkpt lat="47.83287" lon="6.44765">
        <ele>397.556671</ele>
        <time>2020-02-14T15:31:24Z</time>
      </trkpt>
      <trkpt lat="47.8329" lon="6.4476">
        <ele>397.210327</ele>
        <time>2020-02-14T15:31:27Z</time>
      </trkpt>
      <trkpt lat="47.83293" lon="6.44754">
        <ele>396.900299</ele>
        <time>2020-02-14T15:31:31Z</time>
      </trkpt>
      <trkpt lat="47.83294" lon="6.4475">
        <ele>396.768005</ele>
        <time>2020-02-14T15:31:32Z</time>
      </trkpt>
      <trkpt lat="47.83297" lon="6.44744">
        <ele>396.492737</ele>
        <time>2020-02-14T15:31:35Z</time>
      </trkpt>
      <trkpt lat="47.833" lon="6.44739">
        <ele>396.300873</ele>
        <time>2020-02-14T15:31:36Z</time>
      </trkpt>
      <trkpt lat="47.83302" lon="6.44732">
        <ele>396.137634</ele>
        <time>2020-02-14T15:31:37Z</time>
      </trkpt>
      <trkpt lat="47.83309" lon="6.44714">
        <ele>395.794891</ele>
        <time>2020-02-14T15:31:39Z</time>
      </trkpt>
      <trkpt lat="47.83313" lon="6.44705">
        <ele>395.538422</ele>
        <time>2020-02-14T15:31:40Z</time>
      </trkpt>
      <trkpt lat="47.83317" lon="6.44691">
        <ele>395.170013</ele>
        <time>2020-02-14T15:31:42Z</time>
      </trkpt>
      <trkpt lat="47.83321" lon="6.44676">
        <ele>394.330261</ele>
        <time>2020-02-14T15:31:43Z</time>
      </trkpt>
      <trkpt lat="47.83325" lon="6.44666">
        <ele>393.574402</ele>
        <time>2020-02-14T15:31:45Z</time>
      </trkpt>
      <trkpt lat="47.83329" lon="6.44657">
        <ele>392.929993</ele>
        <time>2020-02-14T15:31:46Z</time>
      </trkpt>
      <trkpt lat="47.83332" lon="6.4465">
        <ele>392.448395</ele>
        <time>2020-02-14T15:31:47Z</time>
      </trkpt>
      <trkpt lat="47.83352" lon="6.44603">
        <ele>390.299438</ele>
        <time>2020-02-14T15:31:51Z</time>
      </trkpt>
      <trkpt lat="47.83356" lon="6.44593">
        <ele>389.810486</ele>
        <time>2020-02-14T15:31:52Z</time>
      </trkpt>
      <trkpt lat="47.83365" lon="6.44583">
        <ele>388.878296</ele>
        <time>2020-02-14T15:31:54Z</time>
      </trkpt>
      <trkpt lat="47.8337" lon="6.44581">
        <ele>388.280243</ele>
        <time>2020-02-14T15:31:55Z</time>
      </trkpt>
      <trkpt lat="47.8338" lon="6.44571">
        <ele>387.300507</ele>
        <time>2020-02-14T15:31:57Z</time>
      </trkpt>
      <trkpt lat="47.83383" lon="6.44564">
        <ele>387.099487</ele>
        <time>2020-02-14T15:31:58Z</time>
      </trkpt>
      <trkpt lat="47.83388" lon="6.44549">
        <ele>385.887939</ele>
        <time>2020-02-14T15:32:00Z</time>
      </trkpt>
      <trkpt lat="47.83391" lon="6.44534">
        <ele>384.577026</ele>
        <time>2020-02-14T15:32:02Z</time>
      </trkpt>
      <trkpt lat="47.83393" lon="6.44526">
        <ele>383.83255</ele>
        <time>2020-02-14T15:32:03Z</time>
      </trkpt>
      <trkpt lat="47.83396" lon="6.44515">
        <ele>382.880768</ele>
        <time>2020-02-14T15:32:04Z</time>
      </trkpt>
      <trkpt lat="47.83402" lon="6.44495">
        <ele>380.755798</ele>
        <time>2020-02-14T15:32:06Z</time>
      </trkpt>
      <trkpt lat="47.83407" lon="6.44482">
        <ele>378.523163</ele>
        <time>2020-02-14T15:32:07Z</time>
      </trkpt>
      <trkpt lat="47.83415" lon="6.44458">
        <ele>373.693756</ele>
        <time>2020-02-14T15:32:09Z</time>
      </trkpt>
      <trkpt lat="47.83417" lon="6.44436">
        <ele>370.369995</ele>
        <time>2020-02-14T15:32:11Z</time>
      </trkpt>
      <trkpt lat="47.83411" lon="6.44416">
        <ele>369.723175</ele>
        <time>2020-02-14T15:32:13Z</time>
      </trkpt>
      <trkpt lat="47.83404" lon="6.44395">
        <ele>368.692444</ele>
        <time>2020-02-14T15:32:15Z</time>
      </trkpt>
      <trkpt lat="47.83399" lon="6.44384">
        <ele>368.369629</ele>
        <time>2020-02-14T15:32:16Z</time>
      </trkpt>
      <trkpt lat="47.83391" lon="6.44363">
        <ele>367.719391</ele>
        <time>2020-02-14T15:32:18Z</time>
      </trkpt>
      <trkpt lat="47.83383" lon="6.44342">
        <ele>367.212311</ele>
        <time>2020-02-14T15:32:20Z</time>
      </trkpt>
      <trkpt lat="47.83379" lon="6.44331">
        <ele>366.678101</ele>
        <time>2020-02-14T15:32:21Z</time>
      </trkpt>
      <trkpt lat="47.83373" lon="6.44309">
        <ele>365.449127</ele>
        <time>2020-02-14T15:32:23Z</time>
      </trkpt>
      <trkpt lat="47.83369" lon="6.44298">
        <ele>364.738251</ele>
        <time>2020-02-14T15:32:24Z</time>
      </trkpt>
      <trkpt lat="47.83365" lon="6.44288">
        <ele>364.041168</ele>
        <time>2020-02-14T15:32:25Z</time>
      </trkpt>
      <trkpt lat="47.83356" lon="6.44271">
        <ele>363.305145</ele>
        <time>2020-02-14T15:32:27Z</time>
      </trkpt>
      <trkpt lat="47.83352" lon="6.44263">
        <ele>363.007538</ele>
        <time>2020-02-14T15:32:28Z</time>
      </trkpt>
      <trkpt lat="47.83347" lon="6.44253">
        <ele>362.679657</ele>
        <time>2020-02-14T15:32:29Z</time>
      </trkpt>
      <trkpt lat="47.83343" lon="6.44243">
        <ele>362.298187</ele>
        <time>2020-02-14T15:32:30Z</time>
      </trkpt>
      <trkpt lat="47.83335" lon="6.44224">
        <ele>361.627808</ele>
        <time>2020-02-14T15:32:32Z</time>
      </trkpt>
      <trkpt lat="47.83332" lon="6.44204">
        <ele>360.454041</ele>
        <time>2020-02-14T15:32:34Z</time>
      </trkpt>
      <trkpt lat="47.83332" lon="6.44192">
        <ele>359.591217</ele>
        <time>2020-02-14T15:32:35Z</time>
      </trkpt>
      <trkpt lat="47.83329" lon="6.44171">
        <ele>358.187897</ele>
        <time>2020-02-14T15:32:37Z</time>
      </trkpt>
      <trkpt lat="47.83327" lon="6.44161">
        <ele>357.556458</ele>
        <time>2020-02-14T15:32:38Z</time>
      </trkpt>
      <trkpt lat="47.83319" lon="6.44137">
        <ele>356.435791</ele>
        <time>2020-02-14T15:32:40Z</time>
      </trkpt>
      <trkpt lat="47.83315" lon="6.44125">
        <ele>355.895599</ele>
        <time>2020-02-14T15:32:41Z</time>
      </trkpt>
      <trkpt lat="47.83306" lon="6.44097">
        <ele>354.55426</ele>
        <time>2020-02-14T15:32:43Z</time>
      </trkpt>
      <trkpt lat="47.83297" lon="6.44069">
        <ele>352.928833</ele>
        <time>2020-02-14T15:32:45Z</time>
      </trkpt>
      <trkpt lat="47.83293" lon="6.44056">
        <ele>352.169586</ele>
        <time>2020-02-14T15:32:46Z</time>
      </trkpt>
      <trkpt lat="47.83289" lon="6.44034">
        <ele>350.910004</ele>
        <time>2020-02-14T15:32:48Z</time>
      </trkpt>
      <trkpt lat="47.83285" lon="6.44019">
        <ele>349.934998</ele>
        <time>2020-02-14T15:32:50Z</time>
      </trkpt>
      <trkpt lat="47.83282" lon="6.44016">
        <ele>349.543457</ele>
        <time>2020-02-14T15:32:51Z</time>
      </trkpt>
      <trkpt lat="47.83279" lon="6.44012">
        <ele>349.095276</ele>
        <time>2020-02-14T15:32:52Z</time>
      </trkpt>
      <trkpt lat="47.8327" lon="6.44005">
        <ele>348.144836</ele>
        <time>2020-02-14T15:32:54Z</time>
      </trkpt>
      <trkpt lat="47.83259" lon="6.43996">
        <ele>347.201447</ele>
        <time>2020-02-14T15:32:56Z</time>
      </trkpt>
      <trkpt lat="47.83254" lon="6.43992">
        <ele>346.908417</ele>
        <time>2020-02-14T15:32:57Z</time>
      </trkpt>
      <trkpt lat="47.83241" lon="6.43989">
        <ele>346.345001</ele>
        <time>2020-02-14T15:32:59Z</time>
      </trkpt>
      <trkpt lat="47.8323" lon="6.43989">
        <ele>345.714996</ele>
        <time>2020-02-14T15:33:01Z</time>
      </trkpt>
      <trkpt lat="47.83217" lon="6.43988">
        <ele>344.807495</ele>
        <time>2020-02-14T15:33:03Z</time>
      </trkpt>
      <trkpt lat="47.83211" lon="6.43987">
        <ele>344.357483</ele>
        <time>2020-02-14T15:33:04Z</time>
      </trkpt>
      <trkpt lat="47.83202" lon="6.43979">
        <ele>343.082489</ele>
        <time>2020-02-14T15:33:06Z</time>
      </trkpt>
      <trkpt lat="47.83197" lon="6.43976">
        <ele>341.980011</ele>
        <time>2020-02-14T15:33:07Z</time>
      </trkpt>
      <trkpt lat="47.83184" lon="6.43972">
        <ele>339.799988</ele>
        <time>2020-02-14T15:33:09Z</time>
      </trkpt>
      <trkpt lat="47.83169" lon="6.43966">
        <ele>336.877502</ele>
        <time>2020-02-14T15:33:11Z</time>
      </trkpt>
      <trkpt lat="47.83162" lon="6.43964">
        <ele>335.64502</ele>
        <time>2020-02-14T15:33:12Z</time>
      </trkpt>
      <trkpt lat="47.83148" lon="6.43963">
        <ele>333.563446</ele>
        <time>2020-02-14T15:33:14Z</time>
      </trkpt>
      <trkpt lat="47.83141" lon="6.43962">
        <ele>332.588989</ele>
        <time>2020-02-14T15:33:15Z</time>
      </trkpt>
      <trkpt lat="47.83132" lon="6.43962">
        <ele>331.214172</ele>
        <time>2020-02-14T15:33:17Z</time>
      </trkpt>
      <trkpt lat="47.83128" lon="6.43964">
        <ele>330.856628</ele>
        <time>2020-02-14T15:33:18Z</time>
      </trkpt>
      <trkpt lat="47.83125" lon="6.43967">
        <ele>330.663605</ele>
        <time>2020-02-14T15:33:19Z</time>
      </trkpt>
      <trkpt lat="47.8312" lon="6.43969">
        <ele>330.045563</ele>
        <time>2020-02-14T15:33:21Z</time>
      </trkpt>
      <trkpt lat="47.83117" lon="6.4397">
        <ele>329.534058</ele>
        <time>2020-02-14T15:33:22Z</time>
      </trkpt>
      <trkpt lat="47.83114" lon="6.43969">
        <ele>329.093292</ele>
        <time>2020-02-14T15:33:23Z</time>
      </trkpt>
      <trkpt lat="47.83108" lon="6.43969">
        <ele>328.367126</ele>
        <time>2020-02-14T15:33:25Z</time>
      </trkpt>
      <trkpt lat="47.83091" lon="6.4397">
        <ele>326.44693</ele>
        <time>2020-02-14T15:33:27Z</time>
      </trkpt>
      <trkpt lat="47.83083" lon="6.43969">
        <ele>325.393311</ele>
        <time>2020-02-14T15:33:28Z</time>
      </trkpt>
      <trkpt lat="47.8307" lon="6.43961">
        <ele>323.420166</ele>
        <time>2020-02-14T15:33:30Z</time>
      </trkpt>
      <trkpt lat="47.83062" lon="6.43945">
        <ele>322.877472</ele>
        <time>2020-02-14T15:33:32Z</time>
      </trkpt>
      <trkpt lat="47.83061" lon="6.43933">
        <ele>322.524628</ele>
        <time>2020-02-14T15:33:34Z</time>
      </trkpt>
      <trkpt lat="47.83059" lon="6.43926">
        <ele>322.590729</ele>
        <time>2020-02-14T15:33:36Z</time>
      </trkpt>
      <trkpt lat="47.83057" lon="6.43929">
        <ele>322.72821</ele>
        <time>2020-02-14T15:33:37Z</time>
      </trkpt>
      <trkpt lat="47.83054" lon="6.4393">
        <ele>322.91333</ele>
        <time>2020-02-14T15:33:40Z</time>
      </trkpt>
      <trkpt lat="47.83049" lon="6.43928">
        <ele>323.260498</ele>
        <time>2020-02-14T15:33:42Z</time>
      </trkpt>
      <trkpt lat="47.8304" lon="6.43922">
        <ele>323.863739</ele>
        <time>2020-02-14T15:33:43Z</time>
      </trkpt>
      <trkpt lat="47.83035" lon="6.43918">
        <ele>324.230499</ele>
        <time>2020-02-14T15:33:44Z</time>
      </trkpt>
      <trkpt lat="47.8303" lon="6.43914">
        <ele>324.560577</ele>
        <time>2020-02-14T15:33:45Z</time>
      </trkpt>
      <trkpt lat="47.83024" lon="6.43908">
        <ele>325.089996</ele>
        <time>2020-02-14T15:33:46Z</time>
      </trkpt>
      <trkpt lat="47.8302" lon="6.43905">
        <ele>325.540009</ele>
        <time>2020-02-14T15:33:48Z</time>
      </trkpt>
      <trkpt lat="47.83017" lon="6.43901">
        <ele>325.98999</ele>
        <time>2020-02-14T15:33:49Z</time>
      </trkpt>
      <trkpt lat="47.83013" lon="6.43897">
        <ele>326.589996</ele>
        <time>2020-02-14T15:33:52Z</time>
      </trkpt>
      <trkpt lat="47.83009" lon="6.43893">
        <ele>327.130005</ele>
        <time>2020-02-14T15:33:53Z</time>
      </trkpt>
      <trkpt lat="47.83002" lon="6.43887">
        <ele>328.059998</ele>
        <time>2020-02-14T15:33:57Z</time>
      </trkpt>
      <trkpt lat="47.83001" lon="6.43885">
        <ele>328.179993</ele>
        <time>2020-02-14T15:33:58Z</time>
      </trkpt>
      <trkpt lat="47.82999" lon="6.43881">
        <ele>328.480011</ele>
        <time>2020-02-14T15:34:01Z</time>
      </trkpt>
      <trkpt lat="47.82997" lon="6.43876">
        <ele>328.839996</ele>
        <time>2020-02-14T15:34:02Z</time>
      </trkpt>
      <trkpt lat="47.82992" lon="6.43871">
        <ele>329.470001</ele>
        <time>2020-02-14T15:34:06Z</time>
      </trkpt>
      <trkpt lat="47.82989" lon="6.43867">
        <ele>329.859985</ele>
        <time>2020-02-14T15:34:08Z</time>
      </trkpt>
      <trkpt lat="47.82987" lon="6.43862">
        <ele>330.25</ele>
        <time>2020-02-14T15:34:10Z</time>
      </trkpt>
      <trkpt lat="47.82984" lon="6.43859">
        <ele>330.550934</ele>
        <time>2020-02-14T15:34:11Z</time>
      </trkpt>
      <trkpt lat="47.82981" lon="6.43855">
        <ele>330.885437</ele>
        <time>2020-02-14T15:34:13Z</time>
      </trkpt>
      <trkpt lat="47.82977" lon="6.43851">
        <ele>331.093842</ele>
        <time>2020-02-14T15:34:15Z</time>
      </trkpt>
      <trkpt lat="47.82974" lon="6.43847">
        <ele>331.21933</ele>
        <time>2020-02-14T15:34:18Z</time>
      </trkpt>
      <trkpt lat="47.8297" lon="6.43845">
        <ele>331.40683</ele>
        <time>2020-02-14T15:34:21Z</time>
      </trkpt>
      <trkpt lat="47.82967" lon="6.43844">
        <ele>331.498535</ele>
        <time>2020-02-14T15:34:22Z</time>
      </trkpt>
      <trkpt lat="47.82965" lon="6.43841">
        <ele>331.546143</ele>
        <time>2020-02-14T15:34:23Z</time>
      </trkpt>
      <trkpt lat="47.82962" lon="6.43839">
        <ele>331.593323</ele>
        <time>2020-02-14T15:34:24Z</time>
      </trkpt>
      <trkpt lat="47.82959" lon="6.43836">
        <ele>331.653137</ele>
        <time>2020-02-14T15:34:26Z</time>
      </trkpt>
      <trkpt lat="47.82957" lon="6.43836">
        <ele>331.755127</ele>
        <time>2020-02-14T15:34:28Z</time>
      </trkpt>
      <trkpt lat="47.82954" lon="6.43833">
        <ele>331.802643</ele>
        <time>2020-02-14T15:34:30Z</time>
      </trkpt>
      <trkpt lat="47.82949" lon="6.43832">
        <ele>331.944092</ele>
        <time>2020-02-14T15:34:32Z</time>
      </trkpt>
      <trkpt lat="47.82945" lon="6.4383">
        <ele>332.05481</ele>
        <time>2020-02-14T15:34:34Z</time>
      </trkpt>
      <trkpt lat="47.82941" lon="6.4383">
        <ele>332.163391</ele>
        <time>2020-02-14T15:34:36Z</time>
      </trkpt>
      <trkpt lat="47.82938" lon="6.43829">
        <ele>332.26178</ele>
        <time>2020-02-14T15:34:37Z</time>
      </trkpt>
      <trkpt lat="47.82933" lon="6.43828">
        <ele>332.149994</ele>
        <time>2020-02-14T15:34:39Z</time>
      </trkpt>
      <trkpt lat="47.82929" lon="6.43827">
        <ele>332.059998</ele>
        <time>2020-02-14T15:34:42Z</time>
      </trkpt>
      <trkpt lat="47.82924" lon="6.43828">
        <ele>332.005005</ele>
        <time>2020-02-14T15:34:44Z</time>
      </trkpt>
      <trkpt lat="47.82921" lon="6.43828">
        <ele>331.964996</ele>
        <time>2020-02-14T15:34:46Z</time>
      </trkpt>
      <trkpt lat="47.82917" lon="6.43828">
        <ele>331.910004</ele>
        <time>2020-02-14T15:34:50Z</time>
      </trkpt>
      <trkpt lat="47.82913" lon="6.43828">
        <ele>331.845001</ele>
        <time>2020-02-14T15:34:51Z</time>
      </trkpt>
      <trkpt lat="47.82908" lon="6.43828">
        <ele>331.735016</ele>
        <time>2020-02-14T15:34:54Z</time>
      </trkpt>
      <trkpt lat="47.82904" lon="6.43828">
        <ele>331.639984</ele>
        <time>2020-02-14T15:34:56Z</time>
      </trkpt>
      <trkpt lat="47.82896" lon="6.43827">
        <ele>331.470001</ele>
        <time>2020-02-14T15:34:58Z</time>
      </trkpt>
      <trkpt lat="47.82893" lon="6.43827">
        <ele>331.390015</ele>
        <time>2020-02-14T15:34:59Z</time>
      </trkpt>
      <trkpt lat="47.8289" lon="6.43826">
        <ele>331.36499</ele>
        <time>2020-02-14T15:35:00Z</time>
      </trkpt>
      <trkpt lat="47.82886" lon="6.43826">
        <ele>331.369995</ele>
        <time>2020-02-14T15:35:02Z</time>
      </trkpt>
      <trkpt lat="47.82883" lon="6.43826">
        <ele>331.369995</ele>
        <time>2020-02-14T15:35:03Z</time>
      </trkpt>
      <trkpt lat="47.82879" lon="6.43826">
        <ele>331.390015</ele>
        <time>2020-02-14T15:35:04Z</time>
      </trkpt>
      <trkpt lat="47.82875" lon="6.43826">
        <ele>331.424988</ele>
        <time>2020-02-14T15:35:05Z</time>
      </trkpt>
      <trkpt lat="47.82872" lon="6.43827">
        <ele>331.484985</ele>
        <time>2020-02-14T15:35:06Z</time>
      </trkpt>
      <trkpt lat="47.82869" lon="6.43827">
        <ele>331.5</ele>
        <time>2020-02-14T15:35:07Z</time>
      </trkpt>
      <trkpt lat="47.82865" lon="6.43826">
        <ele>331.484985</ele>
        <time>2020-02-14T15:35:08Z</time>
      </trkpt>
      <trkpt lat="47.82862" lon="6.43826">
        <ele>331.494995</ele>
        <time>2020-02-14T15:35:10Z</time>
      </trkpt>
      <trkpt lat="47.82854" lon="6.43827">
        <ele>331.575012</ele>
        <time>2020-02-14T15:35:11Z</time>
      </trkpt>
      <trkpt lat="47.82851" lon="6.43828">
        <ele>331.63501</ele>
        <time>2020-02-14T15:35:13Z</time>
      </trkpt>
      <trkpt lat="47.82847" lon="6.43829">
        <ele>331.709991</ele>
        <time>2020-02-14T15:35:15Z</time>
      </trkpt>
      <trkpt lat="47.82843" lon="6.4383">
        <ele>331.785004</ele>
        <time>2020-02-14T15:35:16Z</time>
      </trkpt>
      <trkpt lat="47.8284" lon="6.4383">
        <ele>331.829987</ele>
        <time>2020-02-14T15:35:17Z</time>
      </trkpt>
      <trkpt lat="47.82837" lon="6.43831">
        <ele>331.880005</ele>
        <time>2020-02-14T15:35:19Z</time>
      </trkpt>
      <trkpt lat="47.82832" lon="6.43832">
        <ele>331.959991</ele>
        <time>2020-02-14T15:35:20Z</time>
      </trkpt>
      <trkpt lat="47.82829" lon="6.43832">
        <ele>332</ele>
        <time>2020-02-14T15:35:21Z</time>
      </trkpt>
      <trkpt lat="47.82826" lon="6.43833">
        <ele>332.035004</ele>
        <time>2020-02-14T15:35:22Z</time>
      </trkpt>
      <trkpt lat="47.8282" lon="6.43833">
        <ele>332.084991</ele>
        <time>2020-02-14T15:35:25Z</time>
      </trkpt>
      <trkpt lat="47.82818" lon="6.43833">
        <ele>332.119995</ele>
        <time>2020-02-14T15:35:26Z</time>
      </trkpt>
      <trkpt lat="47.82814" lon="6.43834">
        <ele>332.165009</ele>
        <time>2020-02-14T15:35:27Z</time>
      </trkpt>
      <trkpt lat="47.8281" lon="6.43834">
        <ele>332.214996</ele>
        <time>2020-02-14T15:35:28Z</time>
      </trkpt>
      <trkpt lat="47.82807" lon="6.43834">
        <ele>332.209991</ele>
        <time>2020-02-14T15:35:30Z</time>
      </trkpt>
      <trkpt lat="47.82801" lon="6.43832">
        <ele>332.143219</ele>
        <time>2020-02-14T15:35:32Z</time>
      </trkpt>
      <trkpt lat="47.82793" lon="6.43829">
        <ele>332.023682</ele>
        <time>2020-02-14T15:35:34Z</time>
      </trkpt>
      <trkpt lat="47.8279" lon="6.43827">
        <ele>331.955597</ele>
        <time>2020-02-14T15:35:35Z</time>
      </trkpt>
      <trkpt lat="47.82785" lon="6.43825">
        <ele>331.907959</ele>
        <time>2020-02-14T15:35:36Z</time>
      </trkpt>
      <trkpt lat="47.82781" lon="6.43825">
        <ele>331.917603</ele>
        <time>2020-02-14T15:35:38Z</time>
      </trkpt>
      <trkpt lat="47.82757" lon="6.43818">
        <ele>331.865112</ele>
        <time>2020-02-14T15:35:40Z</time>
      </trkpt>
      <trkpt lat="47.82748" lon="6.43814">
        <ele>332.220306</ele>
        <time>2020-02-14T15:35:41Z</time>
      </trkpt>
      <trkpt lat="47.82745" lon="6.4381">
        <ele>332.269043</ele>
        <time>2020-02-14T15:35:42Z</time>
      </trkpt>
      <trkpt lat="47.82735" lon="6.43804">
        <ele>332.590973</ele>
        <time>2020-02-14T15:35:44Z</time>
      </trkpt>
      <trkpt lat="47.82729" lon="6.43801">
        <ele>332.859863</ele>
        <time>2020-02-14T15:35:46Z</time>
      </trkpt>
      <trkpt lat="47.82726" lon="6.43799">
        <ele>332.996155</ele>
        <time>2020-02-14T15:35:47Z</time>
      </trkpt>
      <trkpt lat="47.82717" lon="6.43796">
        <ele>333.437988</ele>
        <time>2020-02-14T15:35:49Z</time>
      </trkpt>
      <trkpt lat="47.82713" lon="6.43795">
        <ele>333.659302</ele>
        <time>2020-02-14T15:35:50Z</time>
      </trkpt>
      <trkpt lat="47.8271" lon="6.43793">
        <ele>333.737122</ele>
        <time>2020-02-14T15:35:52Z</time>
      </trkpt>
      <trkpt lat="47.82707" lon="6.43792">
        <ele>333.8349</ele>
        <time>2020-02-14T15:35:53Z</time>
      </trkpt>
      <trkpt lat="47.82703" lon="6.43791">
        <ele>333.959778</ele>
        <time>2020-02-14T15:35:55Z</time>
      </trkpt>
      <trkpt lat="47.82697" lon="6.43789">
        <ele>334.134094</ele>
        <time>2020-02-14T15:35:57Z</time>
      </trkpt>
      <trkpt lat="47.82693" lon="6.43787">
        <ele>334.255432</ele>
        <time>2020-02-14T15:35:59Z</time>
      </trkpt>
      <trkpt lat="47.82689" lon="6.43785">
        <ele>334.40451</ele>
        <time>2020-02-14T15:36:00Z</time>
      </trkpt>
      <trkpt lat="47.82686" lon="6.43784">
        <ele>334.503937</ele>
        <time>2020-02-14T15:36:01Z</time>
      </trkpt>
      <trkpt lat="47.82683" lon="6.43782">
        <ele>334.59848</ele>
        <time>2020-02-14T15:36:02Z</time>
      </trkpt>
      <trkpt lat="47.8268" lon="6.43781">
        <ele>334.67981</ele>
        <time>2020-02-14T15:36:03Z</time>
      </trkpt>
      <trkpt lat="47.82676" lon="6.43779">
        <ele>334.814178</ele>
        <time>2020-02-14T15:36:05Z</time>
      </trkpt>
      <trkpt lat="47.8267" lon="6.43774">
        <ele>335.020477</ele>
        <time>2020-02-14T15:36:08Z</time>
      </trkpt>
      <trkpt lat="47.82666" lon="6.43772">
        <ele>335.03595</ele>
        <time>2020-02-14T15:36:10Z</time>
      </trkpt>
      <trkpt lat="47.82662" lon="6.43769">
        <ele>335</ele>
        <time>2020-02-14T15:36:12Z</time>
      </trkpt>
      <trkpt lat="47.82658" lon="6.43766">
        <ele>334.900116</ele>
        <time>2020-02-14T15:36:15Z</time>
      </trkpt>
      <trkpt lat="47.82651" lon="6.43763">
        <ele>334.785492</ele>
        <time>2020-02-14T15:36:18Z</time>
      </trkpt>
      <trkpt lat="47.82649" lon="6.43761">
        <ele>334.746002</ele>
        <time>2020-02-14T15:36:19Z</time>
      </trkpt>
      <trkpt lat="47.82646" lon="6.4376">
        <ele>334.709198</ele>
        <time>2020-02-14T15:36:20Z</time>
      </trkpt>
      <trkpt lat="47.82642" lon="6.43758">
        <ele>334.645966</ele>
        <time>2020-02-14T15:36:21Z</time>
      </trkpt>
      <trkpt lat="47.82639" lon="6.43756">
        <ele>334.600647</ele>
        <time>2020-02-14T15:36:23Z</time>
      </trkpt>
      <trkpt lat="47.82635" lon="6.43753">
        <ele>334.541077</ele>
        <time>2020-02-14T15:36:24Z</time>
      </trkpt>
      <trkpt lat="47.82631" lon="6.43751">
        <ele>334.49057</ele>
        <time>2020-02-14T15:36:25Z</time>
      </trkpt>
      <trkpt lat="47.8262" lon="6.43746">
        <ele>334.347778</ele>
        <time>2020-02-14T15:36:26Z</time>
      </trkpt>
      <trkpt lat="47.82604" lon="6.4374">
        <ele>333.974731</ele>
        <time>2020-02-14T15:36:28Z</time>
      </trkpt>
      <trkpt lat="47.82595" lon="6.43737">
        <ele>333.792267</ele>
        <time>2020-02-14T15:36:29Z</time>
      </trkpt>
      <trkpt lat="47.8259" lon="6.43735">
        <ele>333.692139</ele>
        <time>2020-02-14T15:36:30Z</time>
      </trkpt>
      <trkpt lat="47.82584" lon="6.43731">
        <ele>333.563019</ele>
        <time>2020-02-14T15:36:32Z</time>
      </trkpt>
      <trkpt lat="47.82579" lon="6.43729">
        <ele>333.471588</ele>
        <time>2020-02-14T15:36:33Z</time>
      </trkpt>
      <trkpt lat="47.82574" lon="6.43726">
        <ele>333.394196</ele>
        <time>2020-02-14T15:36:34Z</time>
      </trkpt>
      <trkpt lat="47.82569" lon="6.43724">
        <ele>333.321899</ele>
        <time>2020-02-14T15:36:36Z</time>
      </trkpt>
      <trkpt lat="47.82563" lon="6.43721">
        <ele>333.238983</ele>
        <time>2020-02-14T15:36:37Z</time>
      </trkpt>
      <trkpt lat="47.82555" lon="6.43717">
        <ele>333.14386</ele>
        <time>2020-02-14T15:36:38Z</time>
      </trkpt>
      <trkpt lat="47.82549" lon="6.43714">
        <ele>333.087982</ele>
        <time>2020-02-14T15:36:40Z</time>
      </trkpt>
      <trkpt lat="47.82541" lon="6.43711">
        <ele>333.027496</ele>
        <time>2020-02-14T15:36:41Z</time>
      </trkpt>
      <trkpt lat="47.82538" lon="6.4371">
        <ele>333.009277</ele>
        <time>2020-02-14T15:36:42Z</time>
      </trkpt>
      <trkpt lat="47.82532" lon="6.43709">
        <ele>332.936462</ele>
        <time>2020-02-14T15:36:43Z</time>
      </trkpt>
      <trkpt lat="47.82529" lon="6.43708">
        <ele>332.870575</ele>
        <time>2020-02-14T15:36:44Z</time>
      </trkpt>
      <trkpt lat="47.82515" lon="6.43696">
        <ele>332.54895</ele>
        <time>2020-02-14T15:36:46Z</time>
      </trkpt>
      <trkpt lat="47.825" lon="6.43682">
        <ele>331.970703</ele>
        <time>2020-02-14T15:36:48Z</time>
      </trkpt>
      <trkpt lat="47.82495" lon="6.43679">
        <ele>331.769928</ele>
        <time>2020-02-14T15:36:50Z</time>
      </trkpt>
      <trkpt lat="47.8249" lon="6.43678">
        <ele>331.665009</ele>
        <time>2020-02-14T15:36:51Z</time>
      </trkpt>
      <trkpt lat="47.82486" lon="6.43676">
        <ele>331.627502</ele>
        <time>2020-02-14T15:36:52Z</time>
      </trkpt>
      <trkpt lat="47.82483" lon="6.43676">
        <ele>331.61499</ele>
        <time>2020-02-14T15:36:54Z</time>
      </trkpt>
      <trkpt lat="47.82479" lon="6.43675">
        <ele>331.600006</ele>
        <time>2020-02-14T15:36:55Z</time>
      </trkpt>
      <trkpt lat="47.82474" lon="6.43672">
        <ele>331.535004</ele>
        <time>2020-02-14T15:36:56Z</time>
      </trkpt>
      <trkpt lat="47.82471" lon="6.4367">
        <ele>331.482513</ele>
        <time>2020-02-14T15:36:58Z</time>
      </trkpt>
      <trkpt lat="47.82467" lon="6.43667">
        <ele>331.410004</ele>
        <time>2020-02-14T15:36:59Z</time>
      </trkpt>
      <trkpt lat="47.82463" lon="6.43664">
        <ele>331.315002</ele>
        <time>2020-02-14T15:37:00Z</time>
      </trkpt>
      <trkpt lat="47.82457" lon="6.43659">
        <ele>331.167511</ele>
        <time>2020-02-14T15:37:01Z</time>
      </trkpt>
      <trkpt lat="47.82451" lon="6.43653">
        <ele>331.027496</ele>
        <time>2020-02-14T15:37:03Z</time>
      </trkpt>
      <trkpt lat="47.82448" lon="6.4365">
        <ele>330.922485</ele>
        <time>2020-02-14T15:37:04Z</time>
      </trkpt>
      <trkpt lat="47.82442" lon="6.43642">
        <ele>330.797089</ele>
        <time>2020-02-14T15:37:05Z</time>
      </trkpt>
      <trkpt lat="47.82432" lon="6.43631">
        <ele>330.693909</ele>
        <time>2020-02-14T15:37:07Z</time>
      </trkpt>
      <trkpt lat="47.8242" lon="6.43618">
        <ele>330.685425</ele>
        <time>2020-02-14T15:37:08Z</time>
      </trkpt>
      <trkpt lat="47.82412" lon="6.43613">
        <ele>330.681427</ele>
        <time>2020-02-14T15:37:09Z</time>
      </trkpt>
      <trkpt lat="47.82379" lon="6.43603">
        <ele>330.618073</ele>
        <time>2020-05-12T15:14:54Z</time>
      </trkpt>
      <trkpt lat="47.82373" lon="6.43595">
        <ele>330.384552</ele>
        <time>2020-05-12T15:14:55Z</time>
      </trkpt>
      <trkpt lat="47.8236" lon="6.43581">
        <ele>330.07959</ele>
        <time>2020-05-12T15:14:57Z</time>
      </trkpt>
      <trkpt lat="47.82353" lon="6.43575">
        <ele>329.841797</ele>
        <time>2020-05-12T15:14:58Z</time>
      </trkpt>
      <trkpt lat="47.82347" lon="6.43569">
        <ele>329.639618</ele>
        <time>2020-05-12T15:14:59Z</time>
      </trkpt>
      <trkpt lat="47.82336" lon="6.43557">
        <ele>329.302094</ele>
        <time>2020-05-12T15:15:01Z</time>
      </trkpt>
      <trkpt lat="47.8233" lon="6.43551">
        <ele>329.149963</ele>
        <time>2020-05-12T15:15:02Z</time>
      </trkpt>
      <trkpt lat="47.82324" lon="6.43543">
        <ele>329.017395</ele>
        <time>2020-05-12T15:15:03Z</time>
      </trkpt>
      <trkpt lat="47.82311" lon="6.43529">
        <ele>328.601257</ele>
        <time>2020-05-12T15:15:05Z</time>
      </trkpt>
      <trkpt lat="47.82298" lon="6.43515">
        <ele>328.068756</ele>
        <time>2020-05-12T15:15:07Z</time>
      </trkpt>
      <trkpt lat="47.82284" lon="6.43503">
        <ele>327.773132</ele>
        <time>2020-05-12T15:15:09Z</time>
      </trkpt>
      <trkpt lat="47.82273" lon="6.43491">
        <ele>327.686249</ele>
        <time>2020-05-12T15:15:11Z</time>
      </trkpt>
      <trkpt lat="47.8226" lon="6.43479">
        <ele>327.5625</ele>
        <time>2020-05-12T15:15:13Z</time>
      </trkpt>
      <trkpt lat="47.8225" lon="6.43468">
        <ele>327.495758</ele>
        <time>2020-05-12T15:15:15Z</time>
      </trkpt>
      <trkpt lat="47.82241" lon="6.43456">
        <ele>327.539459</ele>
        <time>2020-05-12T15:15:17Z</time>
      </trkpt>
      <trkpt lat="47.82235" lon="6.43449">
        <ele>327.62619</ele>
        <time>2020-05-12T15:15:18Z</time>
      </trkpt>
      <trkpt lat="47.82222" lon="6.43436">
        <ele>327.760986</ele>
        <time>2020-05-12T15:15:20Z</time>
      </trkpt>
      <trkpt lat="47.82208" lon="6.43422">
        <ele>327.992065</ele>
        <time>2020-05-12T15:15:22Z</time>
      </trkpt>
      <trkpt lat="47.82193" lon="6.43407">
        <ele>328.520294</ele>
        <time>2020-05-12T15:15:24Z</time>
      </trkpt>
      <trkpt lat="47.82186" lon="6.434">
        <ele>328.855011</ele>
        <time>2020-05-12T15:15:25Z</time>
      </trkpt>
      <trkpt lat="47.82179" lon="6.43393">
        <ele>329.130798</ele>
        <time>2020-05-12T15:15:26Z</time>
      </trkpt>
      <trkpt lat="47.82168" lon="6.4338">
        <ele>329.614838</ele>
        <time>2020-05-12T15:15:28Z</time>
      </trkpt>
      <trkpt lat="47.8216" lon="6.43369">
        <ele>330.064362</ele>
        <time>2020-05-12T15:15:30Z</time>
      </trkpt>
      <trkpt lat="47.82152" lon="6.43361">
        <ele>330.451569</ele>
        <time>2020-05-12T15:15:32Z</time>
      </trkpt>
      <trkpt lat="47.82147" lon="6.43358">
        <ele>330.626801</ele>
        <time>2020-05-12T15:15:33Z</time>
      </trkpt>
      <trkpt lat="47.82141" lon="6.43353">
        <ele>330.867493</ele>
        <time>2020-05-12T15:15:35Z</time>
      </trkpt>
      <trkpt lat="47.82138" lon="6.4335">
        <ele>330.972504</ele>
        <time>2020-05-12T15:15:36Z</time>
      </trkpt>
      <trkpt lat="47.82134" lon="6.43347">
        <ele>331.111237</ele>
        <time>2020-05-12T15:15:37Z</time>
      </trkpt>
      <trkpt lat="47.82126" lon="6.43341">
        <ele>331.339996</ele>
        <time>2020-05-12T15:15:39Z</time>
      </trkpt>
      <trkpt lat="47.82115" lon="6.43334">
        <ele>331.602509</ele>
        <time>2020-05-12T15:15:41Z</time>
      </trkpt>
      <trkpt lat="47.82111" lon="6.43331">
        <ele>331.733765</ele>
        <time>2020-05-12T15:15:42Z</time>
      </trkpt>
      <trkpt lat="47.82101" lon="6.43321">
        <ele>331.95166</ele>
        <time>2020-05-12T15:15:44Z</time>
      </trkpt>
      <trkpt lat="47.82091" lon="6.43311">
        <ele>331.471161</ele>
        <time>2020-05-12T15:15:46Z</time>
      </trkpt>
      <trkpt lat="47.82079" lon="6.433">
        <ele>330.869537</ele>
        <time>2020-05-12T15:15:48Z</time>
      </trkpt>
      <trkpt lat="47.82072" lon="6.43294">
        <ele>330.574432</ele>
        <time>2020-05-12T15:15:49Z</time>
      </trkpt>
      <trkpt lat="47.82065" lon="6.43288">
        <ele>330.32251</ele>
        <time>2020-05-12T15:15:50Z</time>
      </trkpt>
      <trkpt lat="47.82058" lon="6.43283">
        <ele>330.064453</ele>
        <time>2020-05-12T15:15:51Z</time>
      </trkpt>
      <trkpt lat="47.82043" lon="6.43272">
        <ele>329.361603</ele>
        <time>2020-05-12T15:15:53Z</time>
      </trkpt>
      <trkpt lat="47.82037" lon="6.43266">
        <ele>329.043549</ele>
        <time>2020-05-12T15:15:54Z</time>
      </trkpt>
      <trkpt lat="47.82024" lon="6.43254">
        <ele>328.524628</ele>
        <time>2020-05-12T15:15:56Z</time>
      </trkpt>
      <trkpt lat="47.82018" lon="6.43248">
        <ele>328.195313</ele>
        <time>2020-05-12T15:15:57Z</time>
      </trkpt>
      <trkpt lat="47.82005" lon="6.43237">
        <ele>327.493988</ele>
        <time>2020-05-12T15:15:59Z</time>
      </trkpt>
      <trkpt lat="47.81998" lon="6.43231">
        <ele>327.177338</ele>
        <time>2020-05-12T15:16:00Z</time>
      </trkpt>
      <trkpt lat="47.81988" lon="6.4322">
        <ele>326.679138</ele>
        <time>2020-05-12T15:16:02Z</time>
      </trkpt>
      <trkpt lat="47.81976" lon="6.4321">
        <ele>326.242889</ele>
        <time>2020-05-12T15:16:04Z</time>
      </trkpt>
      <trkpt lat="47.8197" lon="6.43204">
        <ele>326.047424</ele>
        <time>2020-05-12T15:16:05Z</time>
      </trkpt>
      <trkpt lat="47.81958" lon="6.43192">
        <ele>325.51001</ele>
        <time>2020-05-12T15:16:07Z</time>
      </trkpt>
      <trkpt lat="47.81951" lon="6.43185">
        <ele>325.190002</ele>
        <time>2020-05-12T15:16:08Z</time>
      </trkpt>
      <trkpt lat="47.81939" lon="6.43173">
        <ele>324.476501</ele>
        <time>2020-05-12T15:16:10Z</time>
      </trkpt>
      <trkpt lat="47.81934" lon="6.43167">
        <ele>324.078369</ele>
        <time>2020-05-12T15:16:11Z</time>
      </trkpt>
      <trkpt lat="47.81925" lon="6.43157">
        <ele>323.399414</ele>
        <time>2020-05-12T15:16:13Z</time>
      </trkpt>
      <trkpt lat="47.81916" lon="6.43148">
        <ele>322.623749</ele>
        <time>2020-05-12T15:16:15Z</time>
      </trkpt>
      <trkpt lat="47.81906" lon="6.43139">
        <ele>321.824463</ele>
        <time>2020-05-12T15:16:17Z</time>
      </trkpt>
      <trkpt lat="47.81895" lon="6.43128">
        <ele>320.98999</ele>
        <time>2020-05-12T15:16:19Z</time>
      </trkpt>
      <trkpt lat="47.81883" lon="6.43118">
        <ele>320.222229</ele>
        <time>2020-05-12T15:16:21Z</time>
      </trkpt>
      <trkpt lat="47.8187" lon="6.43108">
        <ele>319.50769</ele>
        <time>2020-05-12T15:16:23Z</time>
      </trkpt>
      <trkpt lat="47.81856" lon="6.43098">
        <ele>318.786957</ele>
        <time>2020-05-12T15:16:25Z</time>
      </trkpt>
      <trkpt lat="47.81841" lon="6.43086">
        <ele>318.121613</ele>
        <time>2020-05-12T15:16:27Z</time>
      </trkpt>
      <trkpt lat="47.81831" lon="6.43071">
        <ele>317.454803</ele>
        <time>2020-05-12T15:16:29Z</time>
      </trkpt>
      <trkpt lat="47.81829" lon="6.43062">
        <ele>317.323242</ele>
        <time>2020-05-12T15:16:30Z</time>
      </trkpt>
      <trkpt lat="47.81827" lon="6.43043">
        <ele>317.192688</ele>
        <time>2020-05-12T15:16:32Z</time>
      </trkpt>
      <trkpt lat="47.81824" lon="6.43026">
        <ele>316.93161</ele>
        <time>2020-05-12T15:16:34Z</time>
      </trkpt>
      <trkpt lat="47.81823" lon="6.43017">
        <ele>316.780609</ele>
        <time>2020-05-12T15:16:35Z</time>
      </trkpt>
      <trkpt lat="47.81818" lon="6.42999">
        <ele>316.509613</ele>
        <time>2020-05-12T15:16:37Z</time>
      </trkpt>
      <trkpt lat="47.81814" lon="6.42981">
        <ele>316.354309</ele>
        <time>2020-05-12T15:16:39Z</time>
      </trkpt>
      <trkpt lat="47.81811" lon="6.42971">
        <ele>316.296967</ele>
        <time>2020-05-12T15:16:40Z</time>
      </trkpt>
      <trkpt lat="47.81803" lon="6.42954">
        <ele>316.13501</ele>
        <time>2020-05-12T15:16:42Z</time>
      </trkpt>
      <trkpt lat="47.81799" lon="6.42945">
        <ele>316.029999</ele>
        <time>2020-05-12T15:16:43Z</time>
      </trkpt>
      <trkpt lat="47.8179" lon="6.42928">
        <ele>315.924744</ele>
        <time>2020-05-12T15:16:45Z</time>
      </trkpt>
      <trkpt lat="47.81786" lon="6.42919">
        <ele>315.914246</ele>
        <time>2020-05-12T15:16:46Z</time>
      </trkpt>
      <trkpt lat="47.81777" lon="6.42902">
        <ele>315.972168</ele>
        <time>2020-05-12T15:16:48Z</time>
      </trkpt>
      <trkpt lat="47.81767" lon="6.42885">
        <ele>316</ele>
        <time>2020-05-12T15:16:50Z</time>
      </trkpt>
      <trkpt lat="47.81763" lon="6.42876">
        <ele>316</ele>
        <time>2020-05-12T15:16:51Z</time>
      </trkpt>
      <trkpt lat="47.81754" lon="6.4286">
        <ele>315.964996</ele>
        <time>2020-05-12T15:16:53Z</time>
      </trkpt>
      <trkpt lat="47.81745" lon="6.42844">
        <ele>315.765015</ele>
        <time>2020-05-12T15:16:55Z</time>
      </trkpt>
      <trkpt lat="47.81738" lon="6.42829">
        <ele>315.589996</ele>
        <time>2020-05-12T15:16:57Z</time>
      </trkpt>
      <trkpt lat="47.81734" lon="6.42822">
        <ele>315.360138</ele>
        <time>2020-05-12T15:16:58Z</time>
      </trkpt>
      <trkpt lat="47.81728" lon="6.42808">
        <ele>314.961884</ele>
        <time>2020-05-12T15:17:00Z</time>
      </trkpt>
      <trkpt lat="47.81722" lon="6.42796">
        <ele>314.648499</ele>
        <time>2020-05-12T15:17:02Z</time>
      </trkpt>
      <trkpt lat="47.81717" lon="6.42784">
        <ele>314.3992</ele>
        <time>2020-05-12T15:17:04Z</time>
      </trkpt>
      <trkpt lat="47.81711" lon="6.42774">
        <ele>314.201874</ele>
        <time>2020-05-12T15:17:06Z</time>
      </trkpt>
      <trkpt lat="47.81706" lon="6.42763">
        <ele>314.044067</ele>
        <time>2020-05-12T15:17:08Z</time>
      </trkpt>
      <trkpt lat="47.817" lon="6.42751">
        <ele>313.880005</ele>
        <time>2020-05-12T15:17:10Z</time>
      </trkpt>
      <trkpt lat="47.81695" lon="6.42739">
        <ele>313.711243</ele>
        <time>2020-05-12T15:17:12Z</time>
      </trkpt>
      <trkpt lat="47.81689" lon="6.42727">
        <ele>313.54126</ele>
        <time>2020-05-12T15:17:14Z</time>
      </trkpt>
      <trkpt lat="47.81687" lon="6.42721">
        <ele>313.448761</ele>
        <time>2020-05-12T15:17:15Z</time>
      </trkpt>
      <trkpt lat="47.81682" lon="6.42708">
        <ele>313.266235</ele>
        <time>2020-05-12T15:17:17Z</time>
      </trkpt>
      <trkpt lat="47.81679" lon="6.42702">
        <ele>313.171265</ele>
        <time>2020-05-12T15:17:18Z</time>
      </trkpt>
      <trkpt lat="47.81674" lon="6.4269">
        <ele>312.996246</ele>
        <time>2020-05-12T15:17:20Z</time>
      </trkpt>
      <trkpt lat="47.81671" lon="6.42684">
        <ele>312.904602</ele>
        <time>2020-05-12T15:17:21Z</time>
      </trkpt>
      <trkpt lat="47.81668" lon="6.42674">
        <ele>312.702271</ele>
        <time>2020-05-12T15:17:23Z</time>
      </trkpt>
      <trkpt lat="47.81642" lon="6.42663">
        <ele>312.208801</ele>
        <time>2020-05-12T15:19:44Z</time>
      </trkpt>
      <trkpt lat="47.81646" lon="6.42676">
        <ele>312.354218</ele>
        <time>2020-05-12T15:19:46Z</time>
      </trkpt>
      <trkpt lat="47.81645" lon="6.42691">
        <ele>312.442047</ele>
        <time>2020-05-12T15:19:48Z</time>
      </trkpt>
      <trkpt lat="47.81643" lon="6.42698">
        <ele>312.434998</ele>
        <time>2020-05-12T15:19:49Z</time>
      </trkpt>
      <trkpt lat="47.81639" lon="6.42712">
        <ele>312.41214</ele>
        <time>2020-05-12T15:19:51Z</time>
      </trkpt>
      <trkpt lat="47.81637" lon="6.42719">
        <ele>312.390869</ele>
        <time>2020-05-12T15:19:52Z</time>
      </trkpt>
      <trkpt lat="47.81635" lon="6.42725">
        <ele>312.347321</ele>
        <time>2020-05-12T15:19:53Z</time>
      </trkpt>
      <trkpt lat="47.81632" lon="6.42732">
        <ele>312.260406</ele>
        <time>2020-05-12T15:19:54Z</time>
      </trkpt>
      <trkpt lat="47.81626" lon="6.42746">
        <ele>312.085388</ele>
        <time>2020-05-12T15:19:56Z</time>
      </trkpt>
      <trkpt lat="47.81624" lon="6.42754">
        <ele>311.970245</ele>
        <time>2020-05-12T15:19:57Z</time>
      </trkpt>
      <trkpt lat="47.81618" lon="6.42769">
        <ele>311.713654</ele>
        <time>2020-05-12T15:19:59Z</time>
      </trkpt>
      <trkpt lat="47.81616" lon="6.42777">
        <ele>311.618347</ele>
        <time>2020-05-12T15:20:00Z</time>
      </trkpt>
      <trkpt lat="47.8161" lon="6.42794">
        <ele>311.521515</ele>
        <time>2020-05-12T15:20:02Z</time>
      </trkpt>
      <trkpt lat="47.81607" lon="6.42803">
        <ele>311.518188</ele>
        <time>2020-05-12T15:20:03Z</time>
      </trkpt>
      <trkpt lat="47.81602" lon="6.42822">
        <ele>311.591492</ele>
        <time>2020-05-12T15:20:05Z</time>
      </trkpt>
      <trkpt lat="47.81599" lon="6.4283">
        <ele>311.611572</ele>
        <time>2020-05-12T15:20:06Z</time>
      </trkpt>
      <trkpt lat="47.81595" lon="6.42846">
        <ele>311.599548</ele>
        <time>2020-05-12T15:20:08Z</time>
      </trkpt>
      <trkpt lat="47.8159" lon="6.42859">
        <ele>311.530975</ele>
        <time>2020-05-12T15:20:10Z</time>
      </trkpt>
      <trkpt lat="47.81588" lon="6.42866">
        <ele>311.478149</ele>
        <time>2020-05-12T15:20:11Z</time>
      </trkpt>
      <trkpt lat="47.81583" lon="6.42878">
        <ele>311.34671</ele>
        <time>2020-05-12T15:20:13Z</time>
      </trkpt>
      <trkpt lat="47.81581" lon="6.42884">
        <ele>311.277374</ele>
        <time>2020-05-12T15:20:14Z</time>
      </trkpt>
      <trkpt lat="47.81578" lon="6.42893">
        <ele>311.138947</ele>
        <time>2020-05-12T15:20:16Z</time>
      </trkpt>
      <trkpt lat="47.81572" lon="6.42895">
        <ele>310.880005</ele>
        <time>2020-05-12T15:20:18Z</time>
      </trkpt>
      <trkpt lat="47.81566" lon="6.42883">
        <ele>310.429993</ele>
        <time>2020-05-12T15:20:20Z</time>
      </trkpt>
      <trkpt lat="47.81562" lon="6.42875">
        <ele>310.10318</ele>
        <time>2020-05-12T15:20:21Z</time>
      </trkpt>
      <trkpt lat="47.81557" lon="6.42867">
        <ele>309.681854</ele>
        <time>2020-05-12T15:20:22Z</time>
      </trkpt>
      <trkpt lat="47.81547" lon="6.42852">
        <ele>308.808807</ele>
        <time>2020-05-12T15:20:24Z</time>
      </trkpt>
      <trkpt lat="47.81542" lon="6.42845">
        <ele>308.356262</ele>
        <time>2020-05-12T15:20:25Z</time>
      </trkpt>
      <trkpt lat="47.81538" lon="6.42837">
        <ele>307.947632</ele>
        <time>2020-05-12T15:20:26Z</time>
      </trkpt>
      <trkpt lat="47.81535" lon="6.4283">
        <ele>307.589783</ele>
        <time>2020-05-12T15:20:27Z</time>
      </trkpt>
      <trkpt lat="47.8153" lon="6.42814">
        <ele>306.869995</ele>
        <time>2020-05-12T15:20:29Z</time>
      </trkpt>
      <trkpt lat="47.81527" lon="6.42806">
        <ele>306.650635</ele>
        <time>2020-05-12T15:20:30Z</time>
      </trkpt>
      <trkpt lat="47.81524" lon="6.42799">
        <ele>306.480164</ele>
        <time>2020-05-12T15:20:31Z</time>
      </trkpt>
      <trkpt lat="47.81522" lon="6.42793">
        <ele>306.360504</ele>
        <time>2020-05-12T15:20:32Z</time>
      </trkpt>
      <trkpt lat="47.81517" lon="6.42784">
        <ele>306.081451</ele>
        <time>2020-05-12T15:20:34Z</time>
      </trkpt>
      <trkpt lat="47.81512" lon="6.42779">
        <ele>305.828217</ele>
        <time>2020-05-12T15:20:35Z</time>
      </trkpt>
      <trkpt lat="47.81507" lon="6.42772">
        <ele>305.566315</ele>
        <time>2020-05-12T15:20:36Z</time>
      </trkpt>
      <trkpt lat="47.81502" lon="6.42767">
        <ele>305.353241</ele>
        <time>2020-05-12T15:20:37Z</time>
      </trkpt>
      <trkpt lat="47.81503" lon="6.42763">
        <ele>305.455078</ele>
        <time>2020-05-12T15:20:38Z</time>
      </trkpt>
      <trkpt lat="47.81504" lon="6.42762">
        <ele>305.519623</ele>
        <time>2020-05-12T15:20:39Z</time>
      </trkpt>
      <trkpt lat="47.81507" lon="6.42761">
        <ele>305.63269</ele>
        <time>2020-05-12T15:20:40Z</time>
      </trkpt>
      <trkpt lat="47.81506" lon="6.42755">
        <ele>305.631317</ele>
        <time>2020-05-12T15:20:42Z</time>
      </trkpt>
      <trkpt lat="47.81497" lon="6.42753">
        <ele>305.249786</ele>
        <time>2020-05-12T15:20:43Z</time>
      </trkpt>
      <trkpt lat="47.81491" lon="6.42752">
        <ele>304.933716</ele>
        <time>2020-05-12T15:20:44Z</time>
      </trkpt>
      <trkpt lat="47.81483" lon="6.42751">
        <ele>304.863739</ele>
        <time>2020-05-12T15:20:46Z</time>
      </trkpt>
      <trkpt lat="47.81476" lon="6.42748">
        <ele>304.89624</ele>
        <time>2020-05-12T15:20:47Z</time>
      </trkpt>
      <trkpt lat="47.81465" lon="6.42737">
        <ele>305.089996</ele>
        <time>2020-05-12T15:20:48Z</time>
      </trkpt>
      <trkpt lat="47.81458" lon="6.42732">
        <ele>305.23999</ele>
        <time>2020-05-12T15:20:49Z</time>
      </trkpt>
      <trkpt lat="47.81455" lon="6.42729">
        <ele>305.3125</ele>
        <time>2020-05-12T15:20:50Z</time>
      </trkpt>
      <trkpt lat="47.81454" lon="6.42729">
        <ele>305.325012</ele>
        <time>2020-05-12T15:20:51Z</time>
      </trkpt>
      <trkpt lat="47.8145" lon="6.42727">
        <ele>305.359985</ele>
        <time>2020-05-12T15:20:53Z</time>
      </trkpt>
      <trkpt lat="47.81446" lon="6.42726">
        <ele>305.380005</ele>
        <time>2020-05-12T15:20:54Z</time>
      </trkpt>
      <trkpt lat="47.81442" lon="6.42724">
        <ele>305.450012</ele>
        <time>2020-05-12T15:20:55Z</time>
      </trkpt>
      <trkpt lat="47.81438" lon="6.42719">
        <ele>305.575012</ele>
        <time>2020-05-12T15:20:57Z</time>
      </trkpt>
      <trkpt lat="47.81435" lon="6.42715">
        <ele>305.692505</ele>
        <time>2020-05-12T15:20:58Z</time>
      </trkpt>
      <trkpt lat="47.81433" lon="6.42711">
        <ele>305.804993</ele>
        <time>2020-05-12T15:20:59Z</time>
      </trkpt>
      <trkpt lat="47.81431" lon="6.42703">
        <ele>306.029999</ele>
        <time>2020-05-12T15:21:00Z</time>
      </trkpt>
      <trkpt lat="47.81428" lon="6.42697">
        <ele>306.212494</ele>
        <time>2020-05-12T15:21:02Z</time>
      </trkpt>
      <trkpt lat="47.81424" lon="6.42691">
        <ele>306.377502</ele>
        <time>2020-05-12T15:21:03Z</time>
      </trkpt>
      <trkpt lat="47.81419" lon="6.42687">
        <ele>306.5</ele>
        <time>2020-05-12T15:21:04Z</time>
      </trkpt>
      <trkpt lat="47.81414" lon="6.42682">
        <ele>306.625</ele>
        <time>2020-05-12T15:21:06Z</time>
      </trkpt>
      <trkpt lat="47.81412" lon="6.42676">
        <ele>306.792511</ele>
        <time>2020-05-12T15:21:07Z</time>
      </trkpt>
      <trkpt lat="47.81411" lon="6.42671">
        <ele>306.964996</ele>
        <time>2020-05-12T15:21:08Z</time>
      </trkpt>
      <trkpt lat="47.8139" lon="6.42647">
        <ele>307.253204</ele>
        <time>2020-05-12T15:21:10Z</time>
      </trkpt>
      <trkpt lat="47.81373" lon="6.42635">
        <ele>306.962463</ele>
        <time>2020-05-12T15:21:11Z</time>
      </trkpt>
      <trkpt lat="47.81359" lon="6.42618">
        <ele>306.732147</ele>
        <time>2020-05-12T15:21:12Z</time>
      </trkpt>
      <trkpt lat="47.81352" lon="6.42603">
        <ele>306.767487</ele>
        <time>2020-05-12T15:21:13Z</time>
      </trkpt>
      <trkpt lat="47.81346" lon="6.42589">
        <ele>306.794006</ele>
        <time>2020-05-12T15:21:14Z</time>
      </trkpt>
      <trkpt lat="47.81339" lon="6.42568">
        <ele>306.74231</ele>
        <time>2020-05-12T15:21:15Z</time>
      </trkpt>
      <trkpt lat="47.81332" lon="6.42552">
        <ele>306.600739</ele>
        <time>2020-05-12T15:21:16Z</time>
      </trkpt>
      <trkpt lat="47.81326" lon="6.42538">
        <ele>306.381805</ele>
        <time>2020-05-12T15:21:18Z</time>
      </trkpt>
      <trkpt lat="47.81321" lon="6.4253">
        <ele>306.19751</ele>
        <time>2020-05-12T15:21:19Z</time>
      </trkpt>
      <trkpt lat="47.81315" lon="6.42519">
        <ele>306.230011</ele>
        <time>2020-05-12T15:21:21Z</time>
      </trkpt>
      <trkpt lat="47.81311" lon="6.42511">
        <ele>306.360016</ele>
        <time>2020-05-12T15:21:23Z</time>
      </trkpt>
      <trkpt lat="47.81307" lon="6.42504">
        <ele>306.477509</ele>
        <time>2020-05-12T15:21:24Z</time>
      </trkpt>
      <trkpt lat="47.81304" lon="6.425">
        <ele>306.527496</ele>
        <time>2020-05-12T15:21:26Z</time>
      </trkpt>
      <trkpt lat="47.81303" lon="6.42498">
        <ele>306.554993</ele>
        <time>2020-05-12T15:21:27Z</time>
      </trkpt>
      <trkpt lat="47.81303" lon="6.42496">
        <ele>306.584991</ele>
        <time>2020-05-12T15:21:28Z</time>
      </trkpt>
      <trkpt lat="47.81303" lon="6.42496">
        <ele>306.589996</ele>
        <time>2020-05-12T15:21:30Z</time>
      </trkpt>
      <trkpt lat="47.81304" lon="6.42497">
        <ele>306.619995</ele>
        <time>2020-05-12T15:21:32Z</time>
      </trkpt>
      <trkpt lat="47.81304" lon="6.42496">
        <ele>306.649994</ele>
        <time>2020-05-12T15:21:33Z</time>
      </trkpt>
      <trkpt lat="47.81305" lon="6.42495">
        <ele>306.670013</ele>
        <time>2020-05-12T15:21:35Z</time>
      </trkpt>
      <trkpt lat="47.81304" lon="6.42494">
        <ele>306.69751</ele>
        <time>2020-05-12T15:21:36Z</time>
      </trkpt>
      <trkpt lat="47.81304" lon="6.42492">
        <ele>306.742493</ele>
        <time>2020-05-12T15:21:37Z</time>
      </trkpt>
      <trkpt lat="47.81301" lon="6.42488">
        <ele>306.80249</ele>
        <time>2020-05-12T15:21:39Z</time>
      </trkpt>
      <trkpt lat="47.813" lon="6.42486">
        <ele>306.832489</ele>
        <time>2020-05-12T15:21:40Z</time>
      </trkpt>
      <trkpt lat="47.81299" lon="6.42483">
        <ele>306.872498</ele>
        <time>2020-05-12T15:21:41Z</time>
      </trkpt>
      <trkpt lat="47.81296" lon="6.42478">
        <ele>306.942505</ele>
        <time>2020-05-12T15:21:42Z</time>
      </trkpt>
      <trkpt lat="47.81294" lon="6.42477">
        <ele>306.959991</ele>
        <time>2020-05-12T15:21:43Z</time>
      </trkpt>
      <trkpt lat="47.81288" lon="6.42471">
        <ele>306.967499</ele>
        <time>2020-05-12T15:21:45Z</time>
      </trkpt>
      <trkpt lat="47.81281" lon="6.42465">
        <ele>306.964996</ele>
        <time>2020-05-12T15:21:46Z</time>
      </trkpt>
      <trkpt lat="47.81276" lon="6.42461">
        <ele>306.967499</ele>
        <time>2020-05-12T15:21:47Z</time>
      </trkpt>
      <trkpt lat="47.81268" lon="6.42454">
        <ele>307.26001</ele>
        <time>2020-05-12T15:21:49Z</time>
      </trkpt>
      <trkpt lat="47.81261" lon="6.42447">
        <ele>307.609985</ele>
        <time>2020-05-12T15:21:50Z</time>
      </trkpt>
      <trkpt lat="47.81256" lon="6.42441">
        <ele>307.904999</ele>
        <time>2020-05-12T15:21:51Z</time>
      </trkpt>
      <trkpt lat="47.81251" lon="6.42434">
        <ele>308.195007</ele>
        <time>2020-05-12T15:21:53Z</time>
      </trkpt>
      <trkpt lat="47.81245" lon="6.42427">
        <ele>308.55249</ele>
        <time>2020-05-12T15:21:54Z</time>
      </trkpt>
      <trkpt lat="47.8124" lon="6.42419">
        <ele>308.88501</ele>
        <time>2020-05-12T15:21:56Z</time>
      </trkpt>
      <trkpt lat="47.81234" lon="6.42407">
        <ele>309.382507</ele>
        <time>2020-05-12T15:21:58Z</time>
      </trkpt>
      <trkpt lat="47.8123" lon="6.424">
        <ele>309.655243</ele>
        <time>2020-05-12T15:21:59Z</time>
      </trkpt>
      <trkpt lat="47.81224" lon="6.42388">
        <ele>309.986359</ele>
        <time>2020-05-12T15:22:00Z</time>
      </trkpt>
      <trkpt lat="47.81218" lon="6.42376">
        <ele>310.167511</ele>
        <time>2020-05-12T15:22:02Z</time>
      </trkpt>
      <trkpt lat="47.81213" lon="6.42367">
        <ele>310.288757</ele>
        <time>2020-05-12T15:22:04Z</time>
      </trkpt>
      <trkpt lat="47.81208" lon="6.4236">
        <ele>310.397491</ele>
        <time>2020-05-12T15:22:05Z</time>
      </trkpt>
      <trkpt lat="47.81204" lon="6.42355">
        <ele>310.461243</ele>
        <time>2020-05-12T15:22:07Z</time>
      </trkpt>
      <trkpt lat="47.81201" lon="6.42348">
        <ele>310.558746</ele>
        <time>2020-05-12T15:22:08Z</time>
      </trkpt>
      <trkpt lat="47.81198" lon="6.4234">
        <ele>310.681244</ele>
        <time>2020-05-12T15:22:10Z</time>
      </trkpt>
      <trkpt lat="47.81197" lon="6.42334">
        <ele>310.773743</ele>
        <time>2020-05-12T15:22:11Z</time>
      </trkpt>
      <trkpt lat="47.81195" lon="6.42324">
        <ele>310.91626</ele>
        <time>2020-05-12T15:22:12Z</time>
      </trkpt>
      <trkpt lat="47.81193" lon="6.42315">
        <ele>311</ele>
        <time>2020-05-12T15:22:13Z</time>
      </trkpt>
      <trkpt lat="47.8119" lon="6.42306">
        <ele>311</ele>
        <time>2020-05-12T15:22:15Z</time>
      </trkpt>
      <trkpt lat="47.81186" lon="6.423">
        <ele>311</ele>
        <time>2020-05-12T15:22:16Z</time>
      </trkpt>
      <trkpt lat="47.8118" lon="6.42292">
        <ele>311</ele>
        <time>2020-05-12T15:22:18Z</time>
      </trkpt>
      <trkpt lat="47.81176" lon="6.42287">
        <ele>311</ele>
        <time>2020-05-12T15:22:19Z</time>
      </trkpt>
      <trkpt lat="47.81173" lon="6.42284">
        <ele>311</ele>
        <time>2020-05-12T15:22:20Z</time>
      </trkpt>
      <trkpt lat="47.8117" lon="6.42279">
        <ele>311</ele>
        <time>2020-05-12T15:22:22Z</time>
      </trkpt>
      <trkpt lat="47.81169" lon="6.42274">
        <ele>311</ele>
        <time>2020-05-12T15:22:23Z</time>
      </trkpt>
      <trkpt lat="47.81167" lon="6.42269">
        <ele>311</ele>
        <time>2020-05-12T15:22:24Z</time>
      </trkpt>
      <trkpt lat="47.81166" lon="6.42267">
        <ele>311</ele>
        <time>2020-05-12T15:22:25Z</time>
      </trkpt>
      <trkpt lat="47.81161" lon="6.42255">
        <ele>311</ele>
        <time>2020-05-12T15:22:26Z</time>
      </trkpt>
      <trkpt lat="47.81155" lon="6.42243">
        <ele>311</ele>
        <time>2020-05-12T15:22:27Z</time>
      </trkpt>
      <trkpt lat="47.8115" lon="6.4223">
        <ele>311</ele>
        <time>2020-05-12T15:22:29Z</time>
      </trkpt>
      <trkpt lat="47.81147" lon="6.4222">
        <ele>310.98999</ele>
        <time>2020-05-12T15:22:30Z</time>
      </trkpt>
      <trkpt lat="47.81147" lon="6.42211">
        <ele>310.98999</ele>
        <time>2020-05-12T15:22:31Z</time>
      </trkpt>
      <trkpt lat="47.81149" lon="6.42206">
        <ele>311</ele>
        <time>2020-05-12T15:22:33Z</time>
      </trkpt>
      <trkpt lat="47.81151" lon="6.42199">
        <ele>311</ele>
        <time>2020-05-12T15:22:35Z</time>
      </trkpt>
      <trkpt lat="47.81154" lon="6.42196">
        <ele>311</ele>
        <time>2020-05-12T15:22:36Z</time>
      </trkpt>
      <trkpt lat="47.81157" lon="6.42189">
        <ele>311</ele>
        <time>2020-05-12T15:22:37Z</time>
      </trkpt>
      <trkpt lat="47.81161" lon="6.42182">
        <ele>311</ele>
        <time>2020-05-12T15:22:39Z</time>
      </trkpt>
      <trkpt lat="47.81166" lon="6.42175">
        <ele>311</ele>
        <time>2020-05-12T15:22:40Z</time>
      </trkpt>
      <trkpt lat="47.8117" lon="6.42169">
        <ele>311</ele>
        <time>2020-05-12T15:22:42Z</time>
      </trkpt>
      <trkpt lat="47.81173" lon="6.42166">
        <ele>311</ele>
        <time>2020-05-12T15:22:43Z</time>
      </trkpt>
      <trkpt lat="47.81177" lon="6.42163">
        <ele>311</ele>
        <time>2020-05-12T15:22:45Z</time>
      </trkpt>
      <trkpt lat="47.81177" lon="6.42159">
        <ele>311</ele>
        <time>2020-05-12T15:22:46Z</time>
      </trkpt>
      <trkpt lat="47.81177" lon="6.42146">
        <ele>311</ele>
        <time>2020-05-12T15:24:19Z</time>
      </trkpt>
      <trkpt lat="47.81163" lon="6.42122">
        <ele>311</ele>
        <time>2020-05-12T15:24:20Z</time>
      </trkpt>
      <trkpt lat="47.81156" lon="6.42122">
        <ele>311</ele>
        <time>2020-05-12T15:24:22Z</time>
      </trkpt>
      <trkpt lat="47.8115" lon="6.42128">
        <ele>310.994995</ele>
        <time>2020-05-12T15:24:23Z</time>
      </trkpt>
      <trkpt lat="47.81146" lon="6.42129">
        <ele>310.904999</ele>
        <time>2020-05-12T15:24:24Z</time>
      </trkpt>
      <trkpt lat="47.81143" lon="6.42135">
        <ele>310.845001</ele>
        <time>2020-05-12T15:24:25Z</time>
      </trkpt>
      <trkpt lat="47.81141" lon="6.42138">
        <ele>310.795013</ele>
        <time>2020-05-12T15:24:41Z</time>
      </trkpt>
      <trkpt lat="47.8114" lon="6.4214">
        <ele>310.779999</ele>
        <time>2020-05-12T15:24:42Z</time>
      </trkpt>
      <trkpt lat="47.8114" lon="6.42143">
        <ele>310.779999</ele>
        <time>2020-05-12T15:24:43Z</time>
      </trkpt>
      <trkpt lat="47.8114" lon="6.4214">
        <ele>310.765015</ele>
        <time>2020-05-12T15:24:45Z</time>
      </trkpt>
      <trkpt lat="47.81138" lon="6.42139">
        <ele>310.730011</ele>
        <time>2020-05-12T15:24:46Z</time>
      </trkpt>
      <trkpt lat="47.81137" lon="6.42139">
        <ele>310.700012</ele>
        <time>2020-05-12T15:24:47Z</time>
      </trkpt>
      <trkpt lat="47.81132" lon="6.42138">
        <ele>310.600006</ele>
        <time>2020-05-12T15:24:49Z</time>
      </trkpt>
      <trkpt lat="47.81131" lon="6.42138">
        <ele>310.559998</ele>
        <time>2020-05-12T15:24:50Z</time>
      </trkpt>
      <trkpt lat="47.81129" lon="6.42137">
        <ele>310.524994</ele>
        <time>2020-05-12T15:24:51Z</time>
      </trkpt>
      <trkpt lat="47.81128" lon="6.42136">
        <ele>310.494995</ele>
        <time>2020-05-12T15:24:52Z</time>
      </trkpt>
      <trkpt lat="47.81126" lon="6.42134">
        <ele>310.454987</ele>
        <time>2020-05-12T15:24:54Z</time>
      </trkpt>
      <trkpt lat="47.81125" lon="6.42132">
        <ele>310.429993</ele>
        <time>2020-05-12T15:24:55Z</time>
      </trkpt>
      <trkpt lat="47.81124" lon="6.42129">
        <ele>310.420013</ele>
        <time>2020-05-12T15:24:57Z</time>
      </trkpt>
      <trkpt lat="47.81125" lon="6.42125">
        <ele>310.424988</ele>
        <time>2020-05-12T15:24:58Z</time>
      </trkpt>
      <trkpt lat="47.81124" lon="6.42121">
        <ele>310.415009</ele>
        <time>2020-05-12T15:25:00Z</time>
      </trkpt>
      <trkpt lat="47.81123" lon="6.42117">
        <ele>310.375</ele>
        <time>2020-05-12T15:25:01Z</time>
      </trkpt>
      <trkpt lat="47.81123" lon="6.42115">
        <ele>310.38501</ele>
        <time>2020-05-12T15:25:02Z</time>
      </trkpt>
      <trkpt lat="47.81123" lon="6.42114">
        <ele>310.375</ele>
        <time>2020-05-12T15:25:03Z</time>
      </trkpt>
      <trkpt lat="47.81123" lon="6.42112">
        <ele>310.367371</ele>
        <time>2020-05-12T15:25:04Z</time>
      </trkpt>
      <trkpt lat="47.81122" lon="6.4211">
        <ele>310.354675</ele>
        <time>2020-05-12T15:25:05Z</time>
      </trkpt>
      <trkpt lat="47.81121" lon="6.42107">
        <ele>310.345642</ele>
        <time>2020-05-12T15:25:07Z</time>
      </trkpt>
      <trkpt lat="47.81119" lon="6.42105">
        <ele>310.327301</ele>
        <time>2020-05-12T15:25:08Z</time>
      </trkpt>
      <trkpt lat="47.81118" lon="6.42103">
        <ele>310.313202</ele>
        <time>2020-05-12T15:25:10Z</time>
      </trkpt>
      <trkpt lat="47.81116" lon="6.421">
        <ele>310.307495</ele>
        <time>2020-05-12T15:25:11Z</time>
      </trkpt>
      <trkpt lat="47.81115" lon="6.42099">
        <ele>310.297607</ele>
        <time>2020-05-12T15:25:13Z</time>
      </trkpt>
      <trkpt lat="47.81114" lon="6.42099">
        <ele>310.293457</ele>
        <time>2020-05-12T15:25:14Z</time>
      </trkpt>
      <trkpt lat="47.81113" lon="6.42098">
        <ele>310.290283</ele>
        <time>2020-05-12T15:25:15Z</time>
      </trkpt>
      <trkpt lat="47.81112" lon="6.42097">
        <ele>310.284393</ele>
        <time>2020-05-12T15:25:17Z</time>
      </trkpt>
      <trkpt lat="47.81111" lon="6.42096">
        <ele>310.283325</ele>
        <time>2020-05-12T15:25:18Z</time>
      </trkpt>
      <trkpt lat="47.8111" lon="6.42095">
        <ele>310.282196</ele>
        <time>2020-05-12T15:25:19Z</time>
      </trkpt>
      <trkpt lat="47.81109" lon="6.42094">
        <ele>310.27951</ele>
        <time>2020-05-12T15:25:20Z</time>
      </trkpt>
      <trkpt lat="47.81106" lon="6.42092">
        <ele>310.282501</ele>
        <time>2020-05-12T15:25:21Z</time>
      </trkpt>
      <trkpt lat="47.81103" lon="6.42091">
        <ele>310.290009</ele>
        <time>2020-05-12T15:25:23Z</time>
      </trkpt>
      <trkpt lat="47.81101" lon="6.42091">
        <ele>310.288757</ele>
        <time>2020-05-12T15:25:24Z</time>
      </trkpt>
      <trkpt lat="47.811" lon="6.42092">
        <ele>310.276245</ele>
        <time>2020-05-12T15:25:25Z</time>
      </trkpt>
      <trkpt lat="47.81097" lon="6.42093">
        <ele>310.256256</ele>
        <time>2020-05-12T15:25:27Z</time>
      </trkpt>
      <trkpt lat="47.81094" lon="6.42093">
        <ele>310.258759</ele>
        <time>2020-05-12T15:25:28Z</time>
      </trkpt>
      <trkpt lat="47.81093" lon="6.42093">
        <ele>310.26001</ele>
        <time>2020-05-12T15:25:29Z</time>
      </trkpt>
      <trkpt lat="47.81091" lon="6.42093">
        <ele>310.25</ele>
        <time>2020-05-12T15:25:30Z</time>
      </trkpt>
      <trkpt lat="47.81086" lon="6.42092">
        <ele>310.265015</ele>
        <time>2020-05-12T15:25:32Z</time>
      </trkpt>
      <trkpt lat="47.81084" lon="6.42091">
        <ele>310.272491</ele>
        <time>2020-05-12T15:25:33Z</time>
      </trkpt>
      <trkpt lat="47.81081" lon="6.42092">
        <ele>310.256256</ele>
        <time>2020-05-12T15:25:35Z</time>
      </trkpt>
      <trkpt lat="47.81077" lon="6.42093">
        <ele>310.236237</ele>
        <time>2020-05-12T15:25:37Z</time>
      </trkpt>
      <trkpt lat="47.81076" lon="6.42093">
        <ele>310.241241</ele>
        <time>2020-05-12T15:25:38Z</time>
      </trkpt>
      <trkpt lat="47.81074" lon="6.42092">
        <ele>310.243744</ele>
        <time>2020-05-12T15:25:39Z</time>
      </trkpt>
      <trkpt lat="47.8107" lon="6.4209">
        <ele>310.28125</ele>
        <time>2020-05-12T15:25:41Z</time>
      </trkpt>
      <trkpt lat="47.81065" lon="6.42086">
        <ele>310.32251</ele>
        <time>2020-05-12T15:25:42Z</time>
      </trkpt>
      <trkpt lat="47.8106" lon="6.42082">
        <ele>310.377502</ele>
        <time>2020-05-12T15:25:43Z</time>
      </trkpt>
      <trkpt lat="47.81052" lon="6.42079">
        <ele>310.423737</ele>
        <time>2020-05-12T15:25:44Z</time>
      </trkpt>
      <trkpt lat="47.81048" lon="6.42076">
        <ele>310.464996</ele>
        <time>2020-05-12T15:25:46Z</time>
      </trkpt>
      <trkpt lat="47.81045" lon="6.42072">
        <ele>310.518738</ele>
        <time>2020-05-12T15:25:47Z</time>
      </trkpt>
      <trkpt lat="47.81044" lon="6.4207">
        <ele>310.54126</ele>
        <time>2020-05-12T15:25:48Z</time>
      </trkpt>
      <trkpt lat="47.81043" lon="6.42068">
        <ele>310.566254</ele>
        <time>2020-05-12T15:25:49Z</time>
      </trkpt>
      <trkpt lat="47.81041" lon="6.42066">
        <ele>310.60376</ele>
        <time>2020-05-12T15:25:51Z</time>
      </trkpt>
      <trkpt lat="47.81038" lon="6.42062">
        <ele>310.660004</ele>
        <time>2020-05-12T15:25:52Z</time>
      </trkpt>
      <trkpt lat="47.81035" lon="6.42055">
        <ele>310.753754</ele>
        <time>2020-05-12T15:25:54Z</time>
      </trkpt>
      <trkpt lat="47.81034" lon="6.42052">
        <ele>310.807495</ele>
        <time>2020-05-12T15:25:55Z</time>
      </trkpt>
      <trkpt lat="47.81032" lon="6.42049">
        <ele>310.848755</ele>
        <time>2020-05-12T15:25:56Z</time>
      </trkpt>
      <trkpt lat="47.81029" lon="6.42045">
        <ele>310.899994</ele>
        <time>2020-05-12T15:25:57Z</time>
      </trkpt>
      <trkpt lat="47.81028" lon="6.42044">
        <ele>310.917511</ele>
        <time>2020-05-12T15:25:58Z</time>
      </trkpt>
      <trkpt lat="47.81027" lon="6.42041">
        <ele>310.963745</ele>
        <time>2020-05-12T15:25:59Z</time>
      </trkpt>
      <trkpt lat="47.81025" lon="6.42039">
        <ele>310.981262</ele>
        <time>2020-05-12T15:26:01Z</time>
      </trkpt>
      <trkpt lat="47.81022" lon="6.42038">
        <ele>310.996246</ele>
        <time>2020-05-12T15:26:02Z</time>
      </trkpt>
      <trkpt lat="47.81018" lon="6.42035">
        <ele>310.999237</ele>
        <time>2020-05-12T15:26:03Z</time>
      </trkpt>
      <trkpt lat="47.81013" lon="6.42025">
        <ele>310.97464</ele>
        <time>2020-05-12T15:26:05Z</time>
      </trkpt>
      <trkpt lat="47.81007" lon="6.42016">
        <ele>310.915955</ele>
        <time>2020-05-12T15:26:06Z</time>
      </trkpt>
      <trkpt lat="47.81004" lon="6.42009">
        <ele>310.856049</ele>
        <time>2020-05-12T15:26:07Z</time>
      </trkpt>
      <trkpt lat="47.81" lon="6.42002">
        <ele>310.769928</ele>
        <time>2020-05-12T15:26:08Z</time>
      </trkpt>
      <trkpt lat="47.80996" lon="6.41997">
        <ele>310.681854</ele>
        <time>2020-05-12T15:26:10Z</time>
      </trkpt>
      <trkpt lat="47.80993" lon="6.41993">
        <ele>310.611877</ele>
        <time>2020-05-12T15:26:11Z</time>
      </trkpt>
      <trkpt lat="47.8099" lon="6.41988">
        <ele>310.526825</ele>
        <time>2020-05-12T15:26:12Z</time>
      </trkpt>
      <trkpt lat="47.80988" lon="6.41983">
        <ele>310.446777</ele>
        <time>2020-05-12T15:26:13Z</time>
      </trkpt>
      <trkpt lat="47.80986" lon="6.41976">
        <ele>310.322388</ele>
        <time>2020-05-12T15:26:15Z</time>
      </trkpt>
      <trkpt lat="47.80979" lon="6.4196">
        <ele>309.723755</ele>
        <time>2020-05-12T15:26:17Z</time>
      </trkpt>
      <trkpt lat="47.80971" lon="6.41942">
        <ele>308.80896</ele>
        <time>2020-05-12T15:26:18Z</time>
      </trkpt>
      <trkpt lat="47.80963" lon="6.41929">
        <ele>308.186951</ele>
        <time>2020-05-12T15:26:20Z</time>
      </trkpt>
      <trkpt lat="47.80958" lon="6.41922">
        <ele>307.872101</ele>
        <time>2020-05-12T15:26:21Z</time>
      </trkpt>
      <trkpt lat="47.80953" lon="6.41916">
        <ele>307.635712</ele>
        <time>2020-05-12T15:26:22Z</time>
      </trkpt>
      <trkpt lat="47.80947" lon="6.4191">
        <ele>307.3927</ele>
        <time>2020-05-12T15:26:23Z</time>
      </trkpt>
      <trkpt lat="47.80938" lon="6.41898">
        <ele>307.015839</ele>
        <time>2020-05-12T15:26:25Z</time>
      </trkpt>
      <trkpt lat="47.80934" lon="6.4189">
        <ele>306.893738</ele>
        <time>2020-05-12T15:26:26Z</time>
      </trkpt>
      <trkpt lat="47.80931" lon="6.41883">
        <ele>306.792511</ele>
        <time>2020-05-12T15:26:28Z</time>
      </trkpt>
      <trkpt lat="47.80927" lon="6.41875">
        <ele>306.672485</ele>
        <time>2020-05-12T15:26:30Z</time>
      </trkpt>
      <trkpt lat="47.80924" lon="6.41871">
        <ele>306.613739</ele>
        <time>2020-05-12T15:26:31Z</time>
      </trkpt>
      <trkpt lat="47.80921" lon="6.41865">
        <ele>306.537506</ele>
        <time>2020-05-12T15:26:32Z</time>
      </trkpt>
      <trkpt lat="47.80919" lon="6.4186">
        <ele>306.466248</ele>
        <time>2020-05-12T15:26:33Z</time>
      </trkpt>
      <trkpt lat="47.80916" lon="6.41853">
        <ele>306.361237</ele>
        <time>2020-05-12T15:26:35Z</time>
      </trkpt>
      <trkpt lat="47.80914" lon="6.41849">
        <ele>306.30249</ele>
        <time>2020-05-12T15:26:37Z</time>
      </trkpt>
      <trkpt lat="47.80912" lon="6.41846">
        <ele>306.251251</ele>
        <time>2020-05-12T15:26:38Z</time>
      </trkpt>
      <trkpt lat="47.80908" lon="6.41837">
        <ele>306.127502</ele>
        <time>2020-05-12T15:26:40Z</time>
      </trkpt>
      <trkpt lat="47.80906" lon="6.41832">
        <ele>306.049988</ele>
        <time>2020-05-12T15:26:41Z</time>
      </trkpt>
      <trkpt lat="47.80906" lon="6.41824">
        <ele>306</ele>
        <time>2020-05-12T15:26:43Z</time>
      </trkpt>
      <trkpt lat="47.80908" lon="6.41819">
        <ele>306</ele>
        <time>2020-05-12T15:26:44Z</time>
      </trkpt>
      <trkpt lat="47.80909" lon="6.41817">
        <ele>306</ele>
        <time>2020-05-12T15:26:45Z</time>
      </trkpt>
      <trkpt lat="47.80911" lon="6.41814">
        <ele>306</ele>
        <time>2020-05-12T15:26:46Z</time>
      </trkpt>
      <trkpt lat="47.80911" lon="6.41813">
        <ele>306</ele>
        <time>2020-05-12T15:26:47Z</time>
      </trkpt>
      <trkpt lat="47.80913" lon="6.41809">
        <ele>306</ele>
        <time>2020-05-12T15:26:48Z</time>
      </trkpt>
      <trkpt lat="47.80915" lon="6.41805">
        <ele>306</ele>
        <time>2020-05-12T15:26:50Z</time>
      </trkpt>
      <trkpt lat="47.80918" lon="6.41801">
        <ele>306</ele>
        <time>2020-05-12T15:26:51Z</time>
      </trkpt>
      <trkpt lat="47.80922" lon="6.41794">
        <ele>306</ele>
        <time>2020-05-12T15:26:52Z</time>
      </trkpt>
      <trkpt lat="47.80926" lon="6.41785">
        <ele>306</ele>
        <time>2020-05-12T15:26:54Z</time>
      </trkpt>
      <trkpt lat="47.80929" lon="6.4178">
        <ele>306</ele>
        <time>2020-05-12T15:26:55Z</time>
      </trkpt>
      <trkpt lat="47.80934" lon="6.41771">
        <ele>306</ele>
        <time>2020-05-12T15:26:56Z</time>
      </trkpt>
      <trkpt lat="47.80939" lon="6.41763">
        <ele>305.978912</ele>
        <time>2020-05-12T15:26:57Z</time>
      </trkpt>
      <trkpt lat="47.80944" lon="6.41753">
        <ele>305.759338</ele>
        <time>2020-05-12T15:26:59Z</time>
      </trkpt>
      <trkpt lat="47.80951" lon="6.4174">
        <ele>305.562408</ele>
        <time>2020-05-12T15:27:00Z</time>
      </trkpt>
      <trkpt lat="47.80961" lon="6.41723">
        <ele>305.492126</ele>
        <time>2020-05-12T15:27:02Z</time>
      </trkpt>
      <trkpt lat="47.80966" lon="6.41715">
        <ele>305.545471</ele>
        <time>2020-05-12T15:27:03Z</time>
      </trkpt>
      <trkpt lat="47.80971" lon="6.41707">
        <ele>305.646149</ele>
        <time>2020-05-12T15:27:04Z</time>
      </trkpt>
      <trkpt lat="47.80981" lon="6.41693">
        <ele>305.776245</ele>
        <time>2020-05-12T15:27:06Z</time>
      </trkpt>
      <trkpt lat="47.80991" lon="6.4168">
        <ele>305.607483</ele>
        <time>2020-05-12T15:27:08Z</time>
      </trkpt>
      <trkpt lat="47.80997" lon="6.41673">
        <ele>305.438843</ele>
        <time>2020-05-12T15:27:09Z</time>
      </trkpt>
      <trkpt lat="47.81007" lon="6.41659">
        <ele>305.200592</ele>
        <time>2020-05-12T15:27:11Z</time>
      </trkpt>
      <trkpt lat="47.81012" lon="6.41653">
        <ele>305.115448</ele>
        <time>2020-05-12T15:27:12Z</time>
      </trkpt>
      <trkpt lat="47.81021" lon="6.41642">
        <ele>305.019379</ele>
        <time>2020-05-12T15:27:14Z</time>
      </trkpt>
      <trkpt lat="47.81031" lon="6.41631">
        <ele>305</ele>
        <time>2020-05-12T15:27:16Z</time>
      </trkpt>
      <trkpt lat="47.8104" lon="6.4162">
        <ele>304.859985</ele>
        <time>2020-05-12T15:27:18Z</time>
      </trkpt>
      <trkpt lat="47.81049" lon="6.4161">
        <ele>304.670013</ele>
        <time>2020-05-12T15:27:20Z</time>
      </trkpt>
      <trkpt lat="47.81053" lon="6.41605">
        <ele>304.575012</ele>
        <time>2020-05-12T15:27:21Z</time>
      </trkpt>
      <trkpt lat="47.81057" lon="6.41601">
        <ele>304.480011</ele>
        <time>2020-05-12T15:27:22Z</time>
      </trkpt>
      <trkpt lat="47.81066" lon="6.41595">
        <ele>304.299988</ele>
        <time>2020-05-12T15:27:24Z</time>
      </trkpt>
      <trkpt lat="47.8107" lon="6.41591">
        <ele>304.209991</ele>
        <time>2020-05-12T15:27:25Z</time>
      </trkpt>
      <trkpt lat="47.81076" lon="6.41583">
        <ele>304.084991</ele>
        <time>2020-05-12T15:27:27Z</time>
      </trkpt>
      <trkpt lat="47.81074" lon="6.41574">
        <ele>304.144989</ele>
        <time>2020-05-12T15:27:29Z</time>
      </trkpt>
      <trkpt lat="47.81069" lon="6.41568">
        <ele>304.183746</ele>
        <time>2020-05-12T15:27:31Z</time>
      </trkpt>
      <trkpt lat="47.81063" lon="6.41559">
        <ele>304.178741</ele>
        <time>2020-05-12T15:27:33Z</time>
      </trkpt>
      <trkpt lat="47.81061" lon="6.41555">
        <ele>304.160004</ele>
        <time>2020-05-12T15:27:34Z</time>
      </trkpt>
      <trkpt lat="47.81059" lon="6.41542">
        <ele>304.026245</ele>
        <time>2020-05-12T15:27:36Z</time>
      </trkpt>
      <trkpt lat="47.81056" lon="6.41537">
        <ele>304.027496</ele>
        <time>2020-05-12T15:27:37Z</time>
      </trkpt>
      <trkpt lat="47.81054" lon="6.41535">
        <ele>304.042511</ele>
        <time>2020-05-12T15:27:38Z</time>
      </trkpt>
      <trkpt lat="47.81051" lon="6.41528">
        <ele>304.014984</ele>
        <time>2020-05-12T15:27:40Z</time>
      </trkpt>
      <trkpt lat="47.81049" lon="6.41521">
        <ele>303.977509</ele>
        <time>2020-05-12T15:27:41Z</time>
      </trkpt>
      <trkpt lat="47.81047" lon="6.41515">
        <ele>303.934998</ele>
        <time>2020-05-12T15:27:42Z</time>
      </trkpt>
      <trkpt lat="47.81043" lon="6.41504">
        <ele>303.87616</ele>
        <time>2020-05-12T15:27:43Z</time>
      </trkpt>
      <trkpt lat="47.8104" lon="6.41496">
        <ele>303.830841</ele>
        <time>2020-05-12T15:27:45Z</time>
      </trkpt>
      <trkpt lat="47.81037" lon="6.41487">
        <ele>303.748871</ele>
        <time>2020-05-12T15:27:46Z</time>
      </trkpt>
      <trkpt lat="47.81035" lon="6.41475">
        <ele>303.594147</ele>
        <time>2020-05-12T15:27:47Z</time>
      </trkpt>
      <trkpt lat="47.81031" lon="6.41456">
        <ele>303.423401</ele>
        <time>2020-05-12T15:27:49Z</time>
      </trkpt>
      <trkpt lat="47.81026" lon="6.4144">
        <ele>303.328491</ele>
        <time>2020-05-12T15:27:51Z</time>
      </trkpt>
      <trkpt lat="47.81022" lon="6.41424">
        <ele>303.325989</ele>
        <time>2020-05-12T15:27:53Z</time>
      </trkpt>
      <trkpt lat="47.81018" lon="6.41408">
        <ele>303.289368</ele>
        <time>2020-05-12T15:27:55Z</time>
      </trkpt>
      <trkpt lat="47.81017" lon="6.41399">
        <ele>303.245941</ele>
        <time>2020-05-12T15:27:56Z</time>
      </trkpt>
      <trkpt lat="47.81013" lon="6.41382">
        <ele>303.131989</ele>
        <time>2020-05-12T15:27:58Z</time>
      </trkpt>
      <trkpt lat="47.81011" lon="6.41374">
        <ele>303.05777</ele>
        <time>2020-05-12T15:27:59Z</time>
      </trkpt>
      <trkpt lat="47.81007" lon="6.41357">
        <ele>302.930511</ele>
        <time>2020-05-12T15:28:01Z</time>
      </trkpt>
      <trkpt lat="47.81005" lon="6.41348">
        <ele>302.909241</ele>
        <time>2020-05-12T15:28:02Z</time>
      </trkpt>
      <trkpt lat="47.80999" lon="6.41332">
        <ele>302.978485</ele>
        <time>2020-05-12T15:28:04Z</time>
      </trkpt>
      <trkpt lat="47.80994" lon="6.41317">
        <ele>303.105011</ele>
        <time>2020-05-12T15:28:06Z</time>
      </trkpt>
      <trkpt lat="47.80989" lon="6.41302">
        <ele>303.23999</ele>
        <time>2020-05-12T15:28:08Z</time>
      </trkpt>
      <trkpt lat="47.80982" lon="6.41287">
        <ele>303.283844</ele>
        <time>2020-05-12T15:28:10Z</time>
      </trkpt>
      <trkpt lat="47.80979" lon="6.41279">
        <ele>303.311005</ele>
        <time>2020-05-12T15:28:11Z</time>
      </trkpt>
      <trkpt lat="47.80973" lon="6.41263">
        <ele>303.404266</ele>
        <time>2020-05-12T15:28:13Z</time>
      </trkpt>
      <trkpt lat="47.80971" lon="6.41255">
        <ele>303.464966</ele>
        <time>2020-05-12T15:28:14Z</time>
      </trkpt>
      <trkpt lat="47.80968" lon="6.41247">
        <ele>303.532593</ele>
        <time>2020-05-12T15:28:15Z</time>
      </trkpt>
      <trkpt lat="47.80964" lon="6.41233">
        <ele>303.673309</ele>
        <time>2020-05-12T15:28:17Z</time>
      </trkpt>
      <trkpt lat="47.80963" lon="6.41226">
        <ele>303.686554</ele>
        <time>2020-05-12T15:28:18Z</time>
      </trkpt>
      <trkpt lat="47.8096" lon="6.41216">
        <ele>303.682678</ele>
        <time>2020-05-12T15:28:20Z</time>
      </trkpt>
      <trkpt lat="47.80957" lon="6.41205">
        <ele>303.624481</ele>
        <time>2020-05-12T15:28:22Z</time>
      </trkpt>
      <trkpt lat="47.80954" lon="6.41195">
        <ele>303.514709</ele>
        <time>2020-05-12T15:28:24Z</time>
      </trkpt>
      <trkpt lat="47.80953" lon="6.4119">
        <ele>303.467896</ele>
        <time>2020-05-12T15:28:25Z</time>
      </trkpt>
      <trkpt lat="47.80951" lon="6.41181">
        <ele>303.396729</ele>
        <time>2020-05-12T15:28:27Z</time>
      </trkpt>
      <trkpt lat="47.80948" lon="6.41172">
        <ele>303.339752</ele>
        <time>2020-05-12T15:28:29Z</time>
      </trkpt>
      <trkpt lat="47.80947" lon="6.41167">
        <ele>303.316681</ele>
        <time>2020-05-12T15:28:30Z</time>
      </trkpt>
      <trkpt lat="47.80946" lon="6.41162">
        <ele>303.304993</ele>
        <time>2020-05-12T15:28:31Z</time>
      </trkpt>
      <trkpt lat="47.80944" lon="6.41156">
        <ele>303.355011</ele>
        <time>2020-05-12T15:28:32Z</time>
      </trkpt>
      <trkpt lat="47.80938" lon="6.41141">
        <ele>303.480011</ele>
        <time>2020-05-12T15:28:33Z</time>
      </trkpt>
      <trkpt lat="47.80937" lon="6.41141">
        <ele>303.519989</ele>
        <time>2020-05-12T15:28:34Z</time>
      </trkpt>
      <trkpt lat="47.80935" lon="6.41134">
        <ele>303.549988</ele>
        <time>2020-05-12T15:28:36Z</time>
      </trkpt>
      <trkpt lat="47.80934" lon="6.41128">
        <ele>303.579987</ele>
        <time>2020-05-12T15:28:37Z</time>
      </trkpt>
      <trkpt lat="47.80933" lon="6.41122">
        <ele>303.619995</ele>
        <time>2020-05-12T15:28:38Z</time>
      </trkpt>
      <trkpt lat="47.80931" lon="6.41116">
        <ele>303.665009</ele>
        <time>2020-05-12T15:28:39Z</time>
      </trkpt>
      <trkpt lat="47.80928" lon="6.41108">
        <ele>303.730011</ele>
        <time>2020-05-12T15:28:41Z</time>
      </trkpt>
      <trkpt lat="47.80926" lon="6.411">
        <ele>303.790009</ele>
        <time>2020-05-12T15:28:42Z</time>
      </trkpt>
      <trkpt lat="47.80924" lon="6.4109">
        <ele>303.779999</ele>
        <time>2020-05-12T15:28:43Z</time>
      </trkpt>
      <trkpt lat="47.80922" lon="6.41082">
        <ele>303.712494</ele>
        <time>2020-05-12T15:28:45Z</time>
      </trkpt>
      <trkpt lat="47.80921" lon="6.41076">
        <ele>303.640015</ele>
        <time>2020-05-12T15:28:46Z</time>
      </trkpt>
      <trkpt lat="47.8092" lon="6.41069">
        <ele>303.570007</ele>
        <time>2020-05-12T15:28:47Z</time>
      </trkpt>
      <trkpt lat="47.80918" lon="6.41062">
        <ele>303.506256</ele>
        <time>2020-05-12T15:28:49Z</time>
      </trkpt>
      <trkpt lat="47.80916" lon="6.41053">
        <ele>303.417999</ele>
        <time>2020-05-12T15:28:50Z</time>
      </trkpt>
      <trkpt lat="47.80914" lon="6.41046">
        <ele>303.356171</ele>
        <time>2020-05-12T15:28:51Z</time>
      </trkpt>
      <trkpt lat="47.80913" lon="6.41041">
        <ele>303.309845</ele>
        <time>2020-05-12T15:28:52Z</time>
      </trkpt>
      <trkpt lat="47.8091" lon="6.4103">
        <ele>303.242004</ele>
        <time>2020-05-12T15:28:54Z</time>
      </trkpt>
      <trkpt lat="47.80907" lon="6.41021">
        <ele>303.250427</ele>
        <time>2020-05-12T15:28:56Z</time>
      </trkpt>
      <trkpt lat="47.80905" lon="6.41017">
        <ele>303.281128</ele>
        <time>2020-05-12T15:28:57Z</time>
      </trkpt>
      <trkpt lat="47.80902" lon="6.41014">
        <ele>303.327362</ele>
        <time>2020-05-12T15:28:58Z</time>
      </trkpt>
      <trkpt lat="47.80898" lon="6.41012">
        <ele>303.3862</ele>
        <time>2020-05-12T15:28:59Z</time>
      </trkpt>
      <trkpt lat="47.80894" lon="6.4101">
        <ele>303.438171</ele>
        <time>2020-05-12T15:29:00Z</time>
      </trkpt>
      <trkpt lat="47.80889" lon="6.41006">
        <ele>303.489594</ele>
        <time>2020-05-12T15:29:02Z</time>
      </trkpt>
      <trkpt lat="47.80885" lon="6.41003">
        <ele>303.522125</ele>
        <time>2020-05-12T15:29:03Z</time>
      </trkpt>
      <trkpt lat="47.80882" lon="6.41002">
        <ele>303.55423</ele>
        <time>2020-05-12T15:29:04Z</time>
      </trkpt>
      <trkpt lat="47.80878" lon="6.41">
        <ele>303.598419</ele>
        <time>2020-05-12T15:29:06Z</time>
      </trkpt>
      <trkpt lat="47.80874" lon="6.40997">
        <ele>303.618073</ele>
        <time>2020-05-12T15:29:07Z</time>
      </trkpt>
      <trkpt lat="47.80869" lon="6.40994">
        <ele>303.625885</ele>
        <time>2020-05-12T15:29:08Z</time>
      </trkpt>
      <trkpt lat="47.80865" lon="6.40992">
        <ele>303.641205</ele>
        <time>2020-05-12T15:29:09Z</time>
      </trkpt>
      <trkpt lat="47.8086" lon="6.40989">
        <ele>303.665009</ele>
        <time>2020-05-12T15:29:10Z</time>
      </trkpt>
      <trkpt lat="47.80855" lon="6.40985">
        <ele>303.700256</ele>
        <time>2020-05-12T15:29:12Z</time>
      </trkpt>
      <trkpt lat="47.80847" lon="6.40979">
        <ele>303.762817</ele>
        <time>2020-05-12T15:29:14Z</time>
      </trkpt>
      <trkpt lat="47.80841" lon="6.40975">
        <ele>303.838135</ele>
        <time>2020-05-12T15:29:15Z</time>
      </trkpt>
      <trkpt lat="47.80834" lon="6.40971">
        <ele>303.940002</ele>
        <time>2020-05-12T15:29:16Z</time>
      </trkpt>
      <trkpt lat="47.80827" lon="6.40966">
        <ele>303.919006</ele>
        <time>2020-05-12T15:29:18Z</time>
      </trkpt>
      <trkpt lat="47.80819" lon="6.40961">
        <ele>303.755707</ele>
        <time>2020-05-12T15:29:20Z</time>
      </trkpt>
      <trkpt lat="47.80814" lon="6.40957">
        <ele>303.636108</ele>
        <time>2020-05-12T15:29:21Z</time>
      </trkpt>
      <trkpt lat="47.80809" lon="6.40953">
        <ele>303.516754</ele>
        <time>2020-05-12T15:29:22Z</time>
      </trkpt>
      <trkpt lat="47.80805" lon="6.4095">
        <ele>303.403351</ele>
        <time>2020-05-12T15:29:23Z</time>
      </trkpt>
      <trkpt lat="47.80801" lon="6.40948">
        <ele>303.301208</ele>
        <time>2020-05-12T15:29:25Z</time>
      </trkpt>
      <trkpt lat="47.80797" lon="6.40946">
        <ele>303.213898</ele>
        <time>2020-05-12T15:29:26Z</time>
      </trkpt>
      <trkpt lat="47.80777" lon="6.40935">
        <ele>303</ele>
        <time>2020-05-12T15:29:28Z</time>
      </trkpt>
      <trkpt lat="47.80767" lon="6.40928">
        <ele>303</ele>
        <time>2020-05-12T15:29:29Z</time>
      </trkpt>
      <trkpt lat="47.80749" lon="6.40919">
        <ele>303</ele>
        <time>2020-05-12T15:29:31Z</time>
      </trkpt>
      <trkpt lat="47.80737" lon="6.40914">
        <ele>303</ele>
        <time>2020-05-12T15:29:33Z</time>
      </trkpt>
      <trkpt lat="47.80732" lon="6.40912">
        <ele>303</ele>
        <time>2020-05-12T15:29:34Z</time>
      </trkpt>
      <trkpt lat="47.80728" lon="6.40915">
        <ele>303</ele>
        <time>2020-05-12T15:29:36Z</time>
      </trkpt>
      <trkpt lat="47.80727" lon="6.40917">
        <ele>303</ele>
        <time>2020-05-12T15:29:37Z</time>
      </trkpt>
      <trkpt lat="47.80724" lon="6.40914">
        <ele>303</ele>
        <time>2020-05-12T15:29:38Z</time>
      </trkpt>
      <trkpt lat="47.8072" lon="6.40908">
        <ele>303</ele>
        <time>2020-05-12T15:29:39Z</time>
      </trkpt>
      <trkpt lat="47.80714" lon="6.40901">
        <ele>303</ele>
        <time>2020-05-12T15:29:41Z</time>
      </trkpt>
      <trkpt lat="47.80711" lon="6.40899">
        <ele>303</ele>
        <time>2020-05-12T15:29:42Z</time>
      </trkpt>
      <trkpt lat="47.80708" lon="6.40896">
        <ele>303</ele>
        <time>2020-05-12T15:29:43Z</time>
      </trkpt>
      <trkpt lat="47.80706" lon="6.40892">
        <ele>303</ele>
        <time>2020-05-12T15:29:44Z</time>
      </trkpt>
      <trkpt lat="47.80702" lon="6.40887">
        <ele>303</ele>
        <time>2020-05-12T15:29:45Z</time>
      </trkpt>
      <trkpt lat="47.80699" lon="6.40883">
        <ele>303</ele>
        <time>2020-05-12T15:29:47Z</time>
      </trkpt>
      <trkpt lat="47.80696" lon="6.4088">
        <ele>303</ele>
        <time>2020-05-12T15:29:48Z</time>
      </trkpt>
      <trkpt lat="47.80692" lon="6.40878">
        <ele>303</ele>
        <time>2020-05-12T15:29:49Z</time>
      </trkpt>
      <trkpt lat="47.8069" lon="6.40877">
        <ele>303</ele>
        <time>2020-05-12T15:29:50Z</time>
      </trkpt>
      <trkpt lat="47.80687" lon="6.40875">
        <ele>303</ele>
        <time>2020-05-12T15:29:52Z</time>
      </trkpt>
      <trkpt lat="47.80684" lon="6.40873">
        <ele>303</ele>
        <time>2020-05-12T15:29:53Z</time>
      </trkpt>
      <trkpt lat="47.80681" lon="6.4087">
        <ele>303</ele>
        <time>2020-05-12T15:29:54Z</time>
      </trkpt>
      <trkpt lat="47.80673" lon="6.40865">
        <ele>303</ele>
        <time>2020-05-12T15:29:55Z</time>
      </trkpt>
      <trkpt lat="47.80668" lon="6.40861">
        <ele>303</ele>
        <time>2020-05-12T15:29:56Z</time>
      </trkpt>
      <trkpt lat="47.80662" lon="6.40858">
        <ele>303</ele>
        <time>2020-05-12T15:29:58Z</time>
      </trkpt>
      <trkpt lat="47.80657" lon="6.40857">
        <ele>303</ele>
        <time>2020-05-12T15:29:59Z</time>
      </trkpt>
      <trkpt lat="47.80638" lon="6.40845">
        <ele>303</ele>
        <time>2020-05-12T15:30:00Z</time>
      </trkpt>
      <trkpt lat="47.80634" lon="6.4084">
        <ele>303</ele>
        <time>2020-05-12T15:30:01Z</time>
      </trkpt>
      <trkpt lat="47.80621" lon="6.40831">
        <ele>303</ele>
        <time>2020-05-12T15:30:03Z</time>
      </trkpt>
      <trkpt lat="47.8061" lon="6.40835">
        <ele>303</ele>
        <time>2020-05-12T15:30:04Z</time>
      </trkpt>
      <trkpt lat="47.80606" lon="6.40836">
        <ele>303</ele>
        <time>2020-05-12T15:30:06Z</time>
      </trkpt>
      <trkpt lat="47.80581" lon="6.40816">
        <ele>303</ele>
        <time>2020-05-12T15:30:07Z</time>
      </trkpt>
      <trkpt lat="47.80577" lon="6.40813">
        <ele>303</ele>
        <time>2020-05-12T15:30:08Z</time>
      </trkpt>
      <trkpt lat="47.8057" lon="6.40809">
        <ele>303</ele>
        <time>2020-05-12T15:30:09Z</time>
      </trkpt>
      <trkpt lat="47.80564" lon="6.40805">
        <ele>303</ele>
        <time>2020-05-12T15:30:10Z</time>
      </trkpt>
      <trkpt lat="47.80553" lon="6.40798">
        <ele>303</ele>
        <time>2020-05-12T15:30:12Z</time>
      </trkpt>
      <trkpt lat="47.80541" lon="6.40791">
        <ele>303</ele>
        <time>2020-05-12T15:30:14Z</time>
      </trkpt>
      <trkpt lat="47.80527" lon="6.40782">
        <ele>303</ele>
        <time>2020-05-12T15:30:16Z</time>
      </trkpt>
      <trkpt lat="47.80519" lon="6.40777">
        <ele>303</ele>
        <time>2020-05-12T15:30:17Z</time>
      </trkpt>
      <trkpt lat="47.80507" lon="6.40769">
        <ele>303</ele>
        <time>2020-05-12T15:30:19Z</time>
      </trkpt>
      <trkpt lat="47.80502" lon="6.40766">
        <ele>303</ele>
        <time>2020-05-12T15:30:20Z</time>
      </trkpt>
      <trkpt lat="47.80499" lon="6.40761">
        <ele>303</ele>
        <time>2020-05-12T15:30:21Z</time>
      </trkpt>
      <trkpt lat="47.80495" lon="6.40759">
        <ele>303</ele>
        <time>2020-05-12T15:30:22Z</time>
      </trkpt>
      <trkpt lat="47.8049" lon="6.40757">
        <ele>303</ele>
        <time>2020-05-12T15:30:24Z</time>
      </trkpt>
      <trkpt lat="47.80486" lon="6.40755">
        <ele>303</ele>
        <time>2020-05-12T15:30:25Z</time>
      </trkpt>
      <trkpt lat="47.80482" lon="6.40753">
        <ele>303</ele>
        <time>2020-05-12T15:30:26Z</time>
      </trkpt>
      <trkpt lat="47.80477" lon="6.40751">
        <ele>303</ele>
        <time>2020-05-12T15:30:27Z</time>
      </trkpt>
      <trkpt lat="47.80469" lon="6.40748">
        <ele>303</ele>
        <time>2020-05-12T15:30:28Z</time>
      </trkpt>
      <trkpt lat="47.80459" lon="6.40743">
        <ele>303</ele>
        <time>2020-05-12T15:30:30Z</time>
      </trkpt>
      <trkpt lat="47.80453" lon="6.4074">
        <ele>303</ele>
        <time>2020-05-12T15:30:31Z</time>
      </trkpt>
      <trkpt lat="47.80448" lon="6.40738">
        <ele>303</ele>
        <time>2020-05-12T15:30:32Z</time>
      </trkpt>
      <trkpt lat="47.80444" lon="6.40734">
        <ele>303</ele>
        <time>2020-05-12T15:30:33Z</time>
      </trkpt>
      <trkpt lat="47.8044" lon="6.40731">
        <ele>303</ele>
        <time>2020-05-12T15:30:35Z</time>
      </trkpt>
      <trkpt lat="47.80435" lon="6.40728">
        <ele>303</ele>
        <time>2020-05-12T15:30:36Z</time>
      </trkpt>
      <trkpt lat="47.80432" lon="6.40725">
        <ele>302.950012</ele>
        <time>2020-05-12T15:30:37Z</time>
      </trkpt>
      <trkpt lat="47.80426" lon="6.40721">
        <ele>302.793793</ele>
        <time>2020-05-12T15:30:38Z</time>
      </trkpt>
      <trkpt lat="47.80421" lon="6.40718">
        <ele>302.657654</ele>
        <time>2020-05-12T15:30:39Z</time>
      </trkpt>
      <trkpt lat="47.80415" lon="6.40714">
        <ele>302.503296</ele>
        <time>2020-05-12T15:30:41Z</time>
      </trkpt>
      <trkpt lat="47.80409" lon="6.4071">
        <ele>302.363892</ele>
        <time>2020-05-12T15:30:42Z</time>
      </trkpt>
      <trkpt lat="47.80403" lon="6.40706">
        <ele>302.223022</ele>
        <time>2020-05-12T15:30:43Z</time>
      </trkpt>
      <trkpt lat="47.80398" lon="6.40701">
        <ele>302.129364</ele>
        <time>2020-05-12T15:30:45Z</time>
      </trkpt>
      <trkpt lat="47.80394" lon="6.40697">
        <ele>302.063782</ele>
        <time>2020-05-12T15:30:46Z</time>
      </trkpt>
      <trkpt lat="47.8039" lon="6.40694">
        <ele>302</ele>
        <time>2020-05-12T15:30:47Z</time>
      </trkpt>
      <trkpt lat="47.80384" lon="6.4069">
        <ele>302</ele>
        <time>2020-05-12T15:30:48Z</time>
      </trkpt>
      <trkpt lat="47.8038" lon="6.40686">
        <ele>302</ele>
        <time>2020-05-12T15:30:50Z</time>
      </trkpt>
      <trkpt lat="47.80377" lon="6.40683">
        <ele>302</ele>
        <time>2020-05-12T15:30:51Z</time>
      </trkpt>
      <trkpt lat="47.80371" lon="6.40677">
        <ele>302</ele>
        <time>2020-05-12T15:30:52Z</time>
      </trkpt>
      <trkpt lat="47.80367" lon="6.40673">
        <ele>302</ele>
        <time>2020-05-12T15:30:53Z</time>
      </trkpt>
      <trkpt lat="47.80363" lon="6.40669">
        <ele>302</ele>
        <time>2020-05-12T15:30:55Z</time>
      </trkpt>
      <trkpt lat="47.80359" lon="6.40665">
        <ele>302</ele>
        <time>2020-05-12T15:30:56Z</time>
      </trkpt>
      <trkpt lat="47.80354" lon="6.4066">
        <ele>302</ele>
        <time>2020-05-12T15:30:57Z</time>
      </trkpt>
      <trkpt lat="47.80352" lon="6.40657">
        <ele>302</ele>
        <time>2020-05-12T15:30:59Z</time>
      </trkpt>
      <trkpt lat="47.8035" lon="6.40652">
        <ele>302</ele>
        <time>2020-05-12T15:31:01Z</time>
      </trkpt>
      <trkpt lat="47.80348" lon="6.40649">
        <ele>301.997498</ele>
        <time>2020-05-12T15:31:02Z</time>
      </trkpt>
      <trkpt lat="47.80344" lon="6.40644">
        <ele>301.871246</ele>
        <time>2020-05-12T15:31:04Z</time>
      </trkpt>
      <trkpt lat="47.80343" lon="6.40642">
        <ele>301.817505</ele>
        <time>2020-05-12T15:31:05Z</time>
      </trkpt>
      <trkpt lat="47.80342" lon="6.40641">
        <ele>301.765015</ele>
        <time>2020-05-12T15:31:06Z</time>
      </trkpt>
      <trkpt lat="47.8034" lon="6.40638">
        <ele>301.679993</ele>
        <time>2020-05-12T15:31:07Z</time>
      </trkpt>
      <trkpt lat="47.80337" lon="6.40636">
        <ele>301.595001</ele>
        <time>2020-05-12T15:31:08Z</time>
      </trkpt>
      <trkpt lat="47.80332" lon="6.40631">
        <ele>301.408752</ele>
        <time>2020-05-12T15:31:09Z</time>
      </trkpt>
      <trkpt lat="47.80327" lon="6.40621">
        <ele>301.137512</ele>
        <time>2020-05-12T15:31:11Z</time>
      </trkpt>
      <trkpt lat="47.80322" lon="6.40614">
        <ele>300.926239</ele>
        <time>2020-05-12T15:31:13Z</time>
      </trkpt>
      <trkpt lat="47.80311" lon="6.40598">
        <ele>300.459991</ele>
        <time>2020-05-12T15:31:15Z</time>
      </trkpt>
      <trkpt lat="47.80308" lon="6.40592">
        <ele>300.293762</ele>
        <time>2020-05-12T15:31:16Z</time>
      </trkpt>
      <trkpt lat="47.80305" lon="6.40585">
        <ele>300.126251</ele>
        <time>2020-05-12T15:31:17Z</time>
      </trkpt>
      <trkpt lat="47.80299" lon="6.40567">
        <ele>299.64856</ele>
        <time>2020-05-12T15:31:19Z</time>
      </trkpt>
      <trkpt lat="47.80297" lon="6.40559">
        <ele>299.366516</ele>
        <time>2020-05-12T15:31:20Z</time>
      </trkpt>
      <trkpt lat="47.80297" lon="6.40547">
        <ele>298.989441</ele>
        <time>2020-05-12T15:31:21Z</time>
      </trkpt>
      <trkpt lat="47.80298" lon="6.40536">
        <ele>298.611694</ele>
        <time>2020-05-12T15:31:23Z</time>
      </trkpt>
      <trkpt lat="47.803" lon="6.40521">
        <ele>298.176178</ele>
        <time>2020-05-12T15:31:25Z</time>
      </trkpt>
      <trkpt lat="47.80305" lon="6.40492">
        <ele>297.372498</ele>
        <time>2020-05-12T15:31:27Z</time>
      </trkpt>
      <trkpt lat="47.8031" lon="6.4047">
        <ele>296.792511</ele>
        <time>2020-05-12T15:31:29Z</time>
      </trkpt>
      <trkpt lat="47.80313" lon="6.40461">
        <ele>296.557495</ele>
        <time>2020-05-12T15:31:30Z</time>
      </trkpt>
      <trkpt lat="47.80318" lon="6.40444">
        <ele>296.161255</ele>
        <time>2020-05-12T15:31:32Z</time>
      </trkpt>
      <trkpt lat="47.80322" lon="6.40429">
        <ele>296.024994</ele>
        <time>2020-05-12T15:31:34Z</time>
      </trkpt>
      <trkpt lat="47.8032" lon="6.40403">
        <ele>295.563751</ele>
        <time>2020-05-12T15:32:14Z</time>
      </trkpt>
      <trkpt lat="47.80319" lon="6.40405">
        <ele>295.577515</ele>
        <time>2020-05-12T15:32:15Z</time>
      </trkpt>
      <trkpt lat="47.80316" lon="6.40406">
        <ele>295.523743</ele>
        <time>2020-05-12T15:32:16Z</time>
      </trkpt>
      <trkpt lat="47.80318" lon="6.40404">
        <ele>295.542511</ele>
        <time>2020-05-12T15:32:18Z</time>
      </trkpt>
      <trkpt lat="47.80318" lon="6.40403">
        <ele>295.53125</ele>
        <time>2020-05-12T15:32:19Z</time>
      </trkpt>
      <trkpt lat="47.80316" lon="6.40403">
        <ele>295.480011</ele>
        <time>2020-05-12T15:32:21Z</time>
      </trkpt>
      <trkpt lat="47.80314" lon="6.40404">
        <ele>295.446259</ele>
        <time>2020-05-12T15:32:22Z</time>
      </trkpt>
      <trkpt lat="47.80311" lon="6.40404">
        <ele>295.392487</ele>
        <time>2020-05-12T15:32:24Z</time>
      </trkpt>
      <trkpt lat="47.8031" lon="6.40403">
        <ele>295.341248</ele>
        <time>2020-05-12T15:32:25Z</time>
      </trkpt>
      <trkpt lat="47.80305" lon="6.40402">
        <ele>295.233765</ele>
        <time>2020-05-12T15:32:27Z</time>
      </trkpt>
      <trkpt lat="47.80301" lon="6.40404">
        <ele>295.17749</ele>
        <time>2020-05-12T15:32:28Z</time>
      </trkpt>
      <trkpt lat="47.80298" lon="6.40406">
        <ele>295.138733</ele>
        <time>2020-05-12T15:32:29Z</time>
      </trkpt>
      <trkpt lat="47.80294" lon="6.40408">
        <ele>295.09375</ele>
        <time>2020-05-12T15:32:30Z</time>
      </trkpt>
      <trkpt lat="47.80293" lon="6.40408">
        <ele>295.078735</ele>
        <time>2020-05-12T15:32:32Z</time>
      </trkpt>
      <trkpt lat="47.80292" lon="6.40409">
        <ele>295.067505</ele>
        <time>2020-05-12T15:32:33Z</time>
      </trkpt>
      <trkpt lat="47.8029" lon="6.40409">
        <ele>295.023743</ele>
        <time>2020-05-12T15:32:35Z</time>
      </trkpt>
      <trkpt lat="47.80288" lon="6.40406">
        <ele>294.926239</ele>
        <time>2020-05-12T15:32:37Z</time>
      </trkpt>
      <trkpt lat="47.80285" lon="6.40402">
        <ele>294.809998</ele>
        <time>2020-05-12T15:32:38Z</time>
      </trkpt>
      <trkpt lat="47.80282" lon="6.40398">
        <ele>294.6875</ele>
        <time>2020-05-12T15:32:39Z</time>
      </trkpt>
      <trkpt lat="47.80279" lon="6.40392">
        <ele>294.526245</ele>
        <time>2020-05-12T15:32:40Z</time>
      </trkpt>
      <trkpt lat="47.80276" lon="6.40387">
        <ele>294.39624</ele>
        <time>2020-05-12T15:32:41Z</time>
      </trkpt>
      <trkpt lat="47.80274" lon="6.40384">
        <ele>294.292511</ele>
        <time>2020-05-12T15:32:42Z</time>
      </trkpt>
      <trkpt lat="47.80272" lon="6.40383">
        <ele>294.223755</ele>
        <time>2020-05-12T15:32:43Z</time>
      </trkpt>
      <trkpt lat="47.80268" lon="6.40382">
        <ele>294.143738</ele>
        <time>2020-05-12T15:32:45Z</time>
      </trkpt>
      <trkpt lat="47.80266" lon="6.40376">
        <ele>294.015015</ele>
        <time>2020-05-12T15:32:46Z</time>
      </trkpt>
      <trkpt lat="47.80265" lon="6.40374">
        <ele>293.975006</ele>
        <time>2020-05-12T15:32:47Z</time>
      </trkpt>
      <trkpt lat="47.80259" lon="6.40367">
        <ele>293.825012</ele>
        <time>2020-05-12T15:32:49Z</time>
      </trkpt>
      <trkpt lat="47.80255" lon="6.40366">
        <ele>293.744995</ele>
        <time>2020-05-12T15:32:50Z</time>
      </trkpt>
      <trkpt lat="47.80254" lon="6.40366">
        <ele>293.709991</ele>
        <time>2020-05-12T15:32:51Z</time>
      </trkpt>
      <trkpt lat="47.80249" lon="6.40365">
        <ele>293.61499</ele>
        <time>2020-05-12T15:32:53Z</time>
      </trkpt>
      <trkpt lat="47.80245" lon="6.40362">
        <ele>293.519989</ele>
        <time>2020-05-12T15:32:54Z</time>
      </trkpt>
      <trkpt lat="47.80237" lon="6.40354">
        <ele>293.320007</ele>
        <time>2020-05-12T15:32:56Z</time>
      </trkpt>
      <trkpt lat="47.80227" lon="6.40343">
        <ele>293.100006</ele>
        <time>2020-05-12T15:32:57Z</time>
      </trkpt>
      <trkpt lat="47.80172" lon="6.40302">
        <ele>291.867126</ele>
        <time>2020-05-12T15:32:59Z</time>
      </trkpt>
      <trkpt lat="47.80165" lon="6.40296">
        <ele>291.679993</ele>
        <time>2020-05-12T15:33:00Z</time>
      </trkpt>
      <trkpt lat="47.80146" lon="6.4028">
        <ele>291.255005</ele>
        <time>2020-05-12T15:33:02Z</time>
      </trkpt>
      <trkpt lat="47.80127" lon="6.4026">
        <ele>290.901123</ele>
        <time>2020-05-12T15:33:04Z</time>
      </trkpt>
      <trkpt lat="47.80122" lon="6.40252">
        <ele>290.795624</ele>
        <time>2020-05-12T15:33:05Z</time>
      </trkpt>
      <trkpt lat="47.80112" lon="6.40241">
        <ele>290.550598</ele>
        <time>2020-05-12T15:33:07Z</time>
      </trkpt>
      <trkpt lat="47.80107" lon="6.40231">
        <ele>290.373535</ele>
        <time>2020-05-12T15:33:08Z</time>
      </trkpt>
      <trkpt lat="47.80101" lon="6.40216">
        <ele>290.017487</ele>
        <time>2020-05-12T15:33:10Z</time>
      </trkpt>
      <trkpt lat="47.80099" lon="6.40213">
        <ele>289.92749</ele>
        <time>2020-05-12T15:33:11Z</time>
      </trkpt>
      <trkpt lat="47.80097" lon="6.40209">
        <ele>289.811249</ele>
        <time>2020-05-12T15:33:13Z</time>
      </trkpt>
      <trkpt lat="47.80096" lon="6.40205">
        <ele>289.722504</ele>
        <time>2020-05-12T15:33:14Z</time>
      </trkpt>
      <trkpt lat="47.80096" lon="6.40201">
        <ele>289.654999</ele>
        <time>2020-05-12T15:33:15Z</time>
      </trkpt>
      <trkpt lat="47.80096" lon="6.40199">
        <ele>289.621246</ele>
        <time>2020-05-12T15:33:16Z</time>
      </trkpt>
      <trkpt lat="47.80098" lon="6.40195">
        <ele>289.619995</ele>
        <time>2020-05-12T15:33:18Z</time>
      </trkpt>
      <trkpt lat="47.80099" lon="6.40194">
        <ele>289.618744</ele>
        <time>2020-05-12T15:33:19Z</time>
      </trkpt>
      <trkpt lat="47.80101" lon="6.4019">
        <ele>289.608765</ele>
        <time>2020-05-12T15:33:20Z</time>
      </trkpt>
      <trkpt lat="47.80102" lon="6.40189">
        <ele>289.600006</ele>
        <time>2020-05-12T15:33:21Z</time>
      </trkpt>
      <trkpt lat="47.80097" lon="6.4018">
        <ele>289.362488</ele>
        <time>2020-05-12T15:33:23Z</time>
      </trkpt>
      <trkpt lat="47.80091" lon="6.40174">
        <ele>289.142944</ele>
        <time>2020-05-12T15:33:24Z</time>
      </trkpt>
      <trkpt lat="47.80085" lon="6.40167">
        <ele>288.927582</ele>
        <time>2020-05-12T15:33:25Z</time>
      </trkpt>
      <trkpt lat="47.80079" lon="6.40161">
        <ele>288.678314</ele>
        <time>2020-05-12T15:33:26Z</time>
      </trkpt>
      <trkpt lat="47.80074" lon="6.40156">
        <ele>288.529755</ele>
        <time>2020-05-12T15:33:28Z</time>
      </trkpt>
      <trkpt lat="47.80069" lon="6.40154">
        <ele>288.4039</ele>
        <time>2020-05-12T15:33:29Z</time>
      </trkpt>
      <trkpt lat="47.80068" lon="6.40153">
        <ele>288.360168</ele>
        <time>2020-05-12T15:33:30Z</time>
      </trkpt>
      <trkpt lat="47.80068" lon="6.40151">
        <ele>288.336975</ele>
        <time>2020-05-12T15:33:31Z</time>
      </trkpt>
      <trkpt lat="47.80068" lon="6.4015">
        <ele>288.335907</ele>
        <time>2020-05-12T15:33:32Z</time>
      </trkpt>
      <trkpt lat="47.80071" lon="6.40151">
        <ele>288.418701</ele>
        <time>2020-05-12T15:33:33Z</time>
      </trkpt>
      <trkpt lat="47.80075" lon="6.40154">
        <ele>288.535156</ele>
        <time>2020-05-12T15:33:34Z</time>
      </trkpt>
      <trkpt lat="47.80079" lon="6.40156">
        <ele>288.652252</ele>
        <time>2020-05-12T15:33:36Z</time>
      </trkpt>
      <trkpt lat="47.80084" lon="6.40156">
        <ele>288.759827</ele>
        <time>2020-05-12T15:33:37Z</time>
      </trkpt>
      <trkpt lat="47.80088" lon="6.40156">
        <ele>288.8591</ele>
        <time>2020-05-12T15:33:38Z</time>
      </trkpt>
      <trkpt lat="47.80092" lon="6.4015">
        <ele>288.958954</ele>
        <time>2020-05-12T15:33:39Z</time>
      </trkpt>
      <trkpt lat="47.80096" lon="6.40145">
        <ele>289.045013</ele>
        <time>2020-05-12T15:33:41Z</time>
      </trkpt>
      <trkpt lat="47.80098" lon="6.40138">
        <ele>289.070007</ele>
        <time>2020-05-12T15:33:42Z</time>
      </trkpt>
      <trkpt lat="47.80099" lon="6.4013">
        <ele>289.100006</ele>
        <time>2020-05-12T15:33:43Z</time>
      </trkpt>
      <trkpt lat="47.80103" lon="6.40121">
        <ele>289.174988</ele>
        <time>2020-05-12T15:33:44Z</time>
      </trkpt>
      <trkpt lat="47.80107" lon="6.40112">
        <ele>289.255005</ele>
        <time>2020-05-12T15:33:46Z</time>
      </trkpt>
      <trkpt lat="47.80109" lon="6.40104">
        <ele>289.304993</ele>
        <time>2020-05-12T15:33:47Z</time>
      </trkpt>
      <trkpt lat="47.8011" lon="6.40095">
        <ele>289.290009</ele>
        <time>2020-05-12T15:33:48Z</time>
      </trkpt>
      <trkpt lat="47.8011" lon="6.40086">
        <ele>289.160004</ele>
        <time>2020-05-12T15:33:49Z</time>
      </trkpt>
      <trkpt lat="47.8011" lon="6.40079">
        <ele>289.049988</ele>
        <time>2020-05-12T15:33:50Z</time>
      </trkpt>
      <trkpt lat="47.80109" lon="6.40072">
        <ele>288.901245</ele>
        <time>2020-05-12T15:33:52Z</time>
      </trkpt>
      <trkpt lat="47.80106" lon="6.40069">
        <ele>288.809998</ele>
        <time>2020-05-12T15:33:53Z</time>
      </trkpt>
      <trkpt lat="47.80105" lon="6.40069">
        <ele>288.79126</ele>
        <time>2020-05-12T15:33:54Z</time>
      </trkpt>
      <trkpt lat="47.80103" lon="6.40069">
        <ele>288.731262</ele>
        <time>2020-05-12T15:33:56Z</time>
      </trkpt>
      <trkpt lat="47.801" lon="6.40068">
        <ele>288.658752</ele>
        <time>2020-05-12T15:33:57Z</time>
      </trkpt>
      <trkpt lat="47.80098" lon="6.40065">
        <ele>288.556244</ele>
        <time>2020-05-12T15:33:59Z</time>
      </trkpt>
      <trkpt lat="47.80096" lon="6.40063">
        <ele>288.495728</ele>
        <time>2020-05-12T15:34:00Z</time>
      </trkpt>
      <trkpt lat="47.80091" lon="6.40059">
        <ele>288.271301</ele>
        <time>2020-05-12T15:34:02Z</time>
      </trkpt>
      <trkpt lat="47.80091" lon="6.40056">
        <ele>288.227661</ele>
        <time>2020-05-12T15:34:03Z</time>
      </trkpt>
      <trkpt lat="47.8009" lon="6.40054">
        <ele>288.164459</ele>
        <time>2020-05-12T15:34:04Z</time>
      </trkpt>
      <trkpt lat="47.80088" lon="6.40049">
        <ele>288.052368</ele>
        <time>2020-05-12T15:34:06Z</time>
      </trkpt>
      <trkpt lat="47.80088" lon="6.40045">
        <ele>287.979401</ele>
        <time>2020-05-12T15:34:07Z</time>
      </trkpt>
      <trkpt lat="47.80087" lon="6.40041">
        <ele>287.911987</ele>
        <time>2020-05-12T15:34:08Z</time>
      </trkpt>
      <trkpt lat="47.80086" lon="6.40035">
        <ele>287.823212</ele>
        <time>2020-05-12T15:34:09Z</time>
      </trkpt>
      <trkpt lat="47.80086" lon="6.40033">
        <ele>287.795685</ele>
        <time>2020-05-12T15:34:10Z</time>
      </trkpt>
      <trkpt lat="47.80088" lon="6.40025">
        <ele>287.76001</ele>
        <time>2020-05-12T15:34:12Z</time>
      </trkpt>
      <trkpt lat="47.80086" lon="6.40022">
        <ele>287.725006</ele>
        <time>2020-05-12T15:34:13Z</time>
      </trkpt>
      <trkpt lat="47.80085" lon="6.40017">
        <ele>287.704987</ele>
        <time>2020-05-12T15:34:15Z</time>
      </trkpt>
      <trkpt lat="47.80085" lon="6.40013">
        <ele>287.695007</ele>
        <time>2020-05-12T15:34:16Z</time>
      </trkpt>
      <trkpt lat="47.80086" lon="6.40009">
        <ele>287.704987</ele>
        <time>2020-05-12T15:34:17Z</time>
      </trkpt>
      <trkpt lat="47.80083" lon="6.39992">
        <ele>287.63501</ele>
        <time>2020-05-12T15:34:19Z</time>
      </trkpt>
      <trkpt lat="47.80082" lon="6.39981">
        <ele>287.595001</ele>
        <time>2020-05-12T15:34:20Z</time>
      </trkpt>
      <trkpt lat="47.80084" lon="6.39963">
        <ele>287.619995</ele>
        <time>2020-05-12T15:34:21Z</time>
      </trkpt>
      <trkpt lat="47.80082" lon="6.3996">
        <ele>287.59906</ele>
        <time>2020-05-12T15:34:23Z</time>
      </trkpt>
      <trkpt lat="47.80083" lon="6.39957">
        <ele>287.628052</ele>
        <time>2020-05-12T15:34:24Z</time>
      </trkpt>
      <trkpt lat="47.80085" lon="6.39955">
        <ele>287.671936</ele>
        <time>2020-05-12T15:34:26Z</time>
      </trkpt>
      <trkpt lat="47.80087" lon="6.3995">
        <ele>287.731995</ele>
        <time>2020-05-12T15:34:27Z</time>
      </trkpt>
      <trkpt lat="47.80088" lon="6.39945">
        <ele>287.772858</ele>
        <time>2020-05-12T15:34:29Z</time>
      </trkpt>
      <trkpt lat="47.8009" lon="6.39939">
        <ele>287.823212</ele>
        <time>2020-05-12T15:34:31Z</time>
      </trkpt>
      <trkpt lat="47.80091" lon="6.39935">
        <ele>287.859131</ele>
        <time>2020-05-12T15:34:32Z</time>
      </trkpt>
      <trkpt lat="47.80095" lon="6.39925">
        <ele>287.925537</ele>
        <time>2020-05-12T15:34:33Z</time>
      </trkpt>
      <trkpt lat="47.80095" lon="6.39921">
        <ele>287.941498</ele>
        <time>2020-05-12T15:34:35Z</time>
      </trkpt>
      <trkpt lat="47.80096" lon="6.39917">
        <ele>287.955444</ele>
        <time>2020-05-12T15:34:36Z</time>
      </trkpt>
      <trkpt lat="47.80098" lon="6.39907">
        <ele>287.981354</ele>
        <time>2020-05-12T15:34:37Z</time>
      </trkpt>
      <trkpt lat="47.801" lon="6.39896">
        <ele>287.998779</ele>
        <time>2020-05-12T15:34:38Z</time>
      </trkpt>
      <trkpt lat="47.80102" lon="6.39882">
        <ele>288.378265</ele>
        <time>2020-05-12T15:34:40Z</time>
      </trkpt>
      <trkpt lat="47.80104" lon="6.3987">
        <ele>288.751923</ele>
        <time>2020-05-12T15:34:41Z</time>
      </trkpt>
      <trkpt lat="47.8011" lon="6.39857">
        <ele>289.196289</ele>
        <time>2020-05-12T15:34:42Z</time>
      </trkpt>
      <trkpt lat="47.80115" lon="6.39839">
        <ele>289.747772</ele>
        <time>2020-05-12T15:34:44Z</time>
      </trkpt>
      <trkpt lat="47.80119" lon="6.39832">
        <ele>289.930084</ele>
        <time>2020-05-12T15:34:46Z</time>
      </trkpt>
      <trkpt lat="47.80121" lon="6.39828">
        <ele>290.02124</ele>
        <time>2020-05-12T15:34:47Z</time>
      </trkpt>
      <trkpt lat="47.80122" lon="6.39821">
        <ele>290.133759</ele>
        <time>2020-05-12T15:34:49Z</time>
      </trkpt>
      <trkpt lat="47.80123" lon="6.39812">
        <ele>290.263763</ele>
        <time>2020-05-12T15:34:50Z</time>
      </trkpt>
      <trkpt lat="47.80123" lon="6.39795">
        <ele>290.513763</ele>
        <time>2020-05-12T15:34:51Z</time>
      </trkpt>
      <trkpt lat="47.80124" lon="6.39783">
        <ele>290.695007</ele>
        <time>2020-05-12T15:34:53Z</time>
      </trkpt>
      <trkpt lat="47.80124" lon="6.39774">
        <ele>290.832489</ele>
        <time>2020-05-12T15:34:54Z</time>
      </trkpt>
      <trkpt lat="47.80123" lon="6.39768">
        <ele>290.917511</ele>
        <time>2020-05-12T15:34:55Z</time>
      </trkpt>
      <trkpt lat="47.80122" lon="6.39763">
        <ele>290.996246</ele>
        <time>2020-05-12T15:34:56Z</time>
      </trkpt>
      <trkpt lat="47.8012" lon="6.39754">
        <ele>291.125</ele>
        <time>2020-05-12T15:34:58Z</time>
      </trkpt>
      <trkpt lat="47.8012" lon="6.39748">
        <ele>291.221252</ele>
        <time>2020-05-12T15:34:59Z</time>
      </trkpt>
      <trkpt lat="47.80118" lon="6.39739">
        <ele>291.352509</ele>
        <time>2020-05-12T15:35:00Z</time>
      </trkpt>
      <trkpt lat="47.80117" lon="6.39732">
        <ele>291.450012</ele>
        <time>2020-05-12T15:35:02Z</time>
      </trkpt>
      <trkpt lat="47.80117" lon="6.39728">
        <ele>291.517487</ele>
        <time>2020-05-12T15:35:03Z</time>
      </trkpt>
      <trkpt lat="47.80116" lon="6.39724">
        <ele>291.579987</ele>
        <time>2020-05-12T15:35:04Z</time>
      </trkpt>
      <trkpt lat="47.80116" lon="6.3972">
        <ele>291.640015</ele>
        <time>2020-05-12T15:35:05Z</time>
      </trkpt>
      <trkpt lat="47.80115" lon="6.39716">
        <ele>291.69751</ele>
        <time>2020-05-12T15:35:06Z</time>
      </trkpt>
      <trkpt lat="47.80113" lon="6.3971">
        <ele>291.774994</ele>
        <time>2020-05-12T15:35:08Z</time>
      </trkpt>
      <trkpt lat="47.80112" lon="6.39707">
        <ele>291.823761</ele>
        <time>2020-05-12T15:35:09Z</time>
      </trkpt>
      <trkpt lat="47.8011" lon="6.39704">
        <ele>291.869995</ele>
        <time>2020-05-12T15:35:10Z</time>
      </trkpt>
      <trkpt lat="47.80107" lon="6.39698">
        <ele>291.899994</ele>
        <time>2020-05-12T15:35:12Z</time>
      </trkpt>
      <trkpt lat="47.80106" lon="6.39694">
        <ele>291.916077</ele>
        <time>2020-05-12T15:35:13Z</time>
      </trkpt>
      <trkpt lat="47.80103" lon="6.39686">
        <ele>291.855621</ele>
        <time>2020-05-12T15:35:14Z</time>
      </trkpt>
      <trkpt lat="47.80101" lon="6.39682">
        <ele>291.833435</ele>
        <time>2020-05-12T15:35:15Z</time>
      </trkpt>
      <trkpt lat="47.80101" lon="6.3968">
        <ele>291.826752</ele>
        <time>2020-05-12T15:35:16Z</time>
      </trkpt>
      <trkpt lat="47.80099" lon="6.39677">
        <ele>291.810974</ele>
        <time>2020-05-12T15:35:17Z</time>
      </trkpt>
      <trkpt lat="47.80097" lon="6.39673">
        <ele>291.789978</ele>
        <time>2020-05-12T15:35:19Z</time>
      </trkpt>
      <trkpt lat="47.80094" lon="6.39667">
        <ele>291.782837</ele>
        <time>2020-05-12T15:35:20Z</time>
      </trkpt>
      <trkpt lat="47.80092" lon="6.3966">
        <ele>291.790527</ele>
        <time>2020-05-12T15:35:21Z</time>
      </trkpt>
      <trkpt lat="47.80091" lon="6.39654">
        <ele>291.811401</ele>
        <time>2020-05-12T15:35:22Z</time>
      </trkpt>
      <trkpt lat="47.80086" lon="6.39636">
        <ele>291.921661</ele>
        <time>2020-05-12T15:35:25Z</time>
      </trkpt>
      <trkpt lat="47.80078" lon="6.39623">
        <ele>292.011108</ele>
        <time>2020-05-12T15:35:26Z</time>
      </trkpt>
      <trkpt lat="47.80065" lon="6.39603">
        <ele>291.953003</ele>
        <time>2020-05-12T15:35:27Z</time>
      </trkpt>
      <trkpt lat="47.80061" lon="6.39592">
        <ele>291.90921</ele>
        <time>2020-05-12T15:35:29Z</time>
      </trkpt>
      <trkpt lat="47.80059" lon="6.39581">
        <ele>291.920135</ele>
        <time>2020-05-12T15:35:31Z</time>
      </trkpt>
      <trkpt lat="47.80059" lon="6.39576">
        <ele>291.936432</ele>
        <time>2020-05-12T15:35:32Z</time>
      </trkpt>
      <trkpt lat="47.80058" lon="6.3957">
        <ele>291.954407</ele>
        <time>2020-05-12T15:35:33Z</time>
      </trkpt>
      <trkpt lat="47.80056" lon="6.39556">
        <ele>292.014008</ele>
        <time>2020-05-12T15:35:34Z</time>
      </trkpt>
      <trkpt lat="47.80056" lon="6.39545">
        <ele>292.129456</ele>
        <time>2020-05-12T15:35:36Z</time>
      </trkpt>
      <trkpt lat="47.80059" lon="6.39537">
        <ele>292.229401</ele>
        <time>2020-05-12T15:35:37Z</time>
      </trkpt>
      <trkpt lat="47.8006" lon="6.3953">
        <ele>292.317474</ele>
        <time>2020-05-12T15:35:39Z</time>
      </trkpt>
      <trkpt lat="47.80062" lon="6.39523">
        <ele>292.420013</ele>
        <time>2020-05-12T15:35:40Z</time>
      </trkpt>
      <trkpt lat="47.80064" lon="6.39516">
        <ele>292.523926</ele>
        <time>2020-05-12T15:35:41Z</time>
      </trkpt>
      <trkpt lat="47.80065" lon="6.39509">
        <ele>292.628418</ele>
        <time>2020-05-12T15:35:42Z</time>
      </trkpt>
      <trkpt lat="47.80066" lon="6.39499">
        <ele>292.775513</ele>
        <time>2020-05-12T15:35:43Z</time>
      </trkpt>
      <trkpt lat="47.80068" lon="6.39491">
        <ele>292.905609</ele>
        <time>2020-05-12T15:35:44Z</time>
      </trkpt>
      <trkpt lat="47.80069" lon="6.39484">
        <ele>292.941986</ele>
        <time>2020-05-12T15:35:46Z</time>
      </trkpt>
      <trkpt lat="47.80071" lon="6.39472">
        <ele>292.978729</ele>
        <time>2020-05-12T15:35:47Z</time>
      </trkpt>
      <trkpt lat="47.80072" lon="6.39463">
        <ele>292.988556</ele>
        <time>2020-05-12T15:35:48Z</time>
      </trkpt>
      <trkpt lat="47.80072" lon="6.39453">
        <ele>292.991455</ele>
        <time>2020-05-12T15:35:50Z</time>
      </trkpt>
      <trkpt lat="47.80073" lon="6.39441">
        <ele>292.99765</ele>
        <time>2020-05-12T15:35:51Z</time>
      </trkpt>
      <trkpt lat="47.80074" lon="6.39432">
        <ele>292.998932</ele>
        <time>2020-05-12T15:35:52Z</time>
      </trkpt>
      <trkpt lat="47.80071" lon="6.39422">
        <ele>293.035004</ele>
        <time>2020-05-12T15:35:54Z</time>
      </trkpt>
      <trkpt lat="47.80069" lon="6.39417">
        <ele>293.11499</ele>
        <time>2020-05-12T15:35:55Z</time>
      </trkpt>
      <trkpt lat="47.80068" lon="6.39411">
        <ele>293.200012</ele>
        <time>2020-05-12T15:35:56Z</time>
      </trkpt>
      <trkpt lat="47.80068" lon="6.39402">
        <ele>293.342499</ele>
        <time>2020-05-12T15:35:57Z</time>
      </trkpt>
      <trkpt lat="47.80071" lon="6.39395">
        <ele>293.440002</ele>
        <time>2020-05-12T15:35:59Z</time>
      </trkpt>
      <trkpt lat="47.80074" lon="6.39389">
        <ele>293.538757</ele>
        <time>2020-05-12T15:36:00Z</time>
      </trkpt>
      <trkpt lat="47.80077" lon="6.39383">
        <ele>293.640472</ele>
        <time>2020-05-12T15:36:02Z</time>
      </trkpt>
      <trkpt lat="47.80079" lon="6.39377">
        <ele>293.746399</ele>
        <time>2020-05-12T15:36:03Z</time>
      </trkpt>
      <trkpt lat="47.80081" lon="6.39371">
        <ele>293.840027</ele>
        <time>2020-05-12T15:36:04Z</time>
      </trkpt>
      <trkpt lat="47.80083" lon="6.39366">
        <ele>293.910736</ele>
        <time>2020-05-12T15:36:05Z</time>
      </trkpt>
      <trkpt lat="47.80086" lon="6.39361">
        <ele>293.979126</ele>
        <time>2020-05-12T15:36:06Z</time>
      </trkpt>
      <trkpt lat="47.80088" lon="6.39354">
        <ele>294</ele>
        <time>2020-05-12T15:36:07Z</time>
      </trkpt>
      <trkpt lat="47.80091" lon="6.39346">
        <ele>294</ele>
        <time>2020-05-12T15:36:08Z</time>
      </trkpt>
      <trkpt lat="47.80093" lon="6.39339">
        <ele>294</ele>
        <time>2020-05-12T15:36:09Z</time>
      </trkpt>
      <trkpt lat="47.80096" lon="6.39331">
        <ele>294</ele>
        <time>2020-05-12T15:36:10Z</time>
      </trkpt>
      <trkpt lat="47.801" lon="6.3932">
        <ele>294</ele>
        <time>2020-05-12T15:36:12Z</time>
      </trkpt>
      <trkpt lat="47.80104" lon="6.3931">
        <ele>294</ele>
        <time>2020-05-12T15:36:13Z</time>
      </trkpt>
      <trkpt lat="47.80108" lon="6.39301">
        <ele>294</ele>
        <time>2020-05-12T15:36:14Z</time>
      </trkpt>
      <trkpt lat="47.80111" lon="6.39295">
        <ele>294</ele>
        <time>2020-05-12T15:36:15Z</time>
      </trkpt>
      <trkpt lat="47.80115" lon="6.3929">
        <ele>293.92749</ele>
        <time>2020-05-12T15:36:17Z</time>
      </trkpt>
      <trkpt lat="47.80119" lon="6.39285">
        <ele>293.855011</ele>
        <time>2020-05-12T15:36:18Z</time>
      </trkpt>
      <trkpt lat="47.80122" lon="6.3928">
        <ele>293.769989</ele>
        <time>2020-05-12T15:36:19Z</time>
      </trkpt>
      <trkpt lat="47.80125" lon="6.39276">
        <ele>293.717499</ele>
        <time>2020-05-12T15:36:20Z</time>
      </trkpt>
      <trkpt lat="47.80128" lon="6.39273">
        <ele>293.559509</ele>
        <time>2020-05-12T15:36:21Z</time>
      </trkpt>
      <trkpt lat="47.80131" lon="6.39269">
        <ele>293.405426</ele>
        <time>2020-05-12T15:36:23Z</time>
      </trkpt>
      <trkpt lat="47.80132" lon="6.39265">
        <ele>293.31958</ele>
        <time>2020-05-12T15:36:24Z</time>
      </trkpt>
      <trkpt lat="47.80132" lon="6.39259">
        <ele>293.22467</ele>
        <time>2020-05-12T15:36:25Z</time>
      </trkpt>
      <trkpt lat="47.80132" lon="6.39256">
        <ele>293.171509</ele>
        <time>2020-05-12T15:36:26Z</time>
      </trkpt>
      <trkpt lat="47.80132" lon="6.3925">
        <ele>293.087646</ele>
        <time>2020-05-12T15:36:28Z</time>
      </trkpt>
      <trkpt lat="47.80132" lon="6.39246">
        <ele>292.994812</ele>
        <time>2020-05-12T15:36:29Z</time>
      </trkpt>
      <trkpt lat="47.80133" lon="6.39241">
        <ele>292.864746</ele>
        <time>2020-05-12T15:36:30Z</time>
      </trkpt>
      <trkpt lat="47.80135" lon="6.39235">
        <ele>292.710083</ele>
        <time>2020-05-12T15:36:31Z</time>
      </trkpt>
      <trkpt lat="47.80136" lon="6.39228">
        <ele>292.52475</ele>
        <time>2020-05-12T15:36:32Z</time>
      </trkpt>
      <trkpt lat="47.80137" lon="6.39219">
        <ele>292.111786</ele>
        <time>2020-05-12T15:36:33Z</time>
      </trkpt>
      <trkpt lat="47.80137" lon="6.39198">
        <ele>291.263092</ele>
        <time>2020-05-12T15:36:34Z</time>
      </trkpt>
      <trkpt lat="47.8014" lon="6.39181">
        <ele>290.461212</ele>
        <time>2020-05-12T15:36:36Z</time>
      </trkpt>
      <trkpt lat="47.8014" lon="6.3916">
        <ele>289.67041</ele>
        <time>2020-05-12T15:36:37Z</time>
      </trkpt>
      <trkpt lat="47.80138" lon="6.3915">
        <ele>289.452148</ele>
        <time>2020-05-12T15:36:39Z</time>
      </trkpt>
      <trkpt lat="47.80135" lon="6.39141">
        <ele>289.273712</ele>
        <time>2020-05-12T15:36:40Z</time>
      </trkpt>
      <trkpt lat="47.80132" lon="6.39134">
        <ele>289.116364</ele>
        <time>2020-05-12T15:36:41Z</time>
      </trkpt>
      <trkpt lat="47.80128" lon="6.39125">
        <ele>288.920013</ele>
        <time>2020-05-12T15:36:42Z</time>
      </trkpt>
      <trkpt lat="47.80125" lon="6.39117">
        <ele>288.765015</ele>
        <time>2020-05-12T15:36:44Z</time>
      </trkpt>
      <trkpt lat="47.8012" lon="6.39104">
        <ele>288.532501</ele>
        <time>2020-05-12T15:36:45Z</time>
      </trkpt>
      <trkpt lat="47.80118" lon="6.391">
        <ele>288.454987</ele>
        <time>2020-05-12T15:36:46Z</time>
      </trkpt>
      <trkpt lat="47.80117" lon="6.39099">
        <ele>288.429993</ele>
        <time>2020-05-12T15:36:47Z</time>
      </trkpt>
      <trkpt lat="47.80114" lon="6.39095">
        <ele>288.389984</ele>
        <time>2020-05-12T15:36:48Z</time>
      </trkpt>
      <trkpt lat="47.80111" lon="6.39092">
        <ele>288.406494</ele>
        <time>2020-05-12T15:36:50Z</time>
      </trkpt>
      <trkpt lat="47.80108" lon="6.39089">
        <ele>288.40979</ele>
        <time>2020-05-12T15:36:51Z</time>
      </trkpt>
      <trkpt lat="47.80096" lon="6.39081">
        <ele>288.474854</ele>
        <time>2020-05-12T15:36:52Z</time>
      </trkpt>
      <trkpt lat="47.80085" lon="6.39074">
        <ele>288.482513</ele>
        <time>2020-05-12T15:36:54Z</time>
      </trkpt>
      <trkpt lat="47.8007" lon="6.39049">
        <ele>287.76001</ele>
        <time>2020-05-12T15:36:56Z</time>
      </trkpt>
      <trkpt lat="47.80066" lon="6.39046">
        <ele>287.662506</ele>
        <time>2020-05-12T15:36:57Z</time>
      </trkpt>
      <trkpt lat="47.80063" lon="6.39043">
        <ele>287.579987</ele>
        <time>2020-05-12T15:36:59Z</time>
      </trkpt>
      <trkpt lat="47.8006" lon="6.39038">
        <ele>287.462494</ele>
        <time>2020-05-12T15:37:00Z</time>
      </trkpt>
      <trkpt lat="47.80057" lon="6.39034">
        <ele>287.339996</ele>
        <time>2020-05-12T15:37:01Z</time>
      </trkpt>
      <trkpt lat="47.80053" lon="6.3903">
        <ele>287.217499</ele>
        <time>2020-05-12T15:37:03Z</time>
      </trkpt>
      <trkpt lat="47.80048" lon="6.39026">
        <ele>287.11499</ele>
        <time>2020-05-12T15:37:04Z</time>
      </trkpt>
      <trkpt lat="47.8004" lon="6.39016">
        <ele>286.827515</ele>
        <time>2020-05-12T15:37:05Z</time>
      </trkpt>
      <trkpt lat="47.80037" lon="6.39011">
        <ele>286.695007</ele>
        <time>2020-05-12T15:37:06Z</time>
      </trkpt>
      <trkpt lat="47.80034" lon="6.39005">
        <ele>286.535004</ele>
        <time>2020-05-12T15:37:08Z</time>
      </trkpt>
      <trkpt lat="47.80001" lon="6.38975">
        <ele>285.714996</ele>
        <time>2020-05-12T15:37:09Z</time>
      </trkpt>
      <trkpt lat="47.79986" lon="6.38962">
        <ele>285.674988</ele>
        <time>2020-05-12T15:37:11Z</time>
      </trkpt>
      <trkpt lat="47.79965" lon="6.38943">
        <ele>285.70874</ele>
        <time>2020-05-12T15:37:13Z</time>
      </trkpt>
      <trkpt lat="47.7995" lon="6.38931">
        <ele>285.85675</ele>
        <time>2020-05-12T15:37:15Z</time>
      </trkpt>
      <trkpt lat="47.79943" lon="6.38926">
        <ele>285.88739</ele>
        <time>2020-05-12T15:37:16Z</time>
      </trkpt>
      <trkpt lat="47.79937" lon="6.38921">
        <ele>285.899506</ele>
        <time>2020-05-12T15:37:17Z</time>
      </trkpt>
      <trkpt lat="47.79924" lon="6.38913">
        <ele>285.88089</ele>
        <time>2020-05-12T15:37:19Z</time>
      </trkpt>
      <trkpt lat="47.79912" lon="6.38905">
        <ele>285.832489</ele>
        <time>2020-05-12T15:37:21Z</time>
      </trkpt>
      <trkpt lat="47.799" lon="6.38903">
        <ele>286.047485</ele>
        <time>2020-05-12T15:37:23Z</time>
      </trkpt>
      <trkpt lat="47.79887" lon="6.38897">
        <ele>286.195007</ele>
        <time>2020-05-12T15:37:25Z</time>
      </trkpt>
      <trkpt lat="47.79881" lon="6.38895">
        <ele>286.297485</ele>
        <time>2020-05-12T15:37:26Z</time>
      </trkpt>
      <trkpt lat="47.79875" lon="6.38895">
        <ele>286.422485</ele>
        <time>2020-05-12T15:37:27Z</time>
      </trkpt>
      <trkpt lat="47.79866" lon="6.38891">
        <ele>286.492493</ele>
        <time>2020-05-12T15:37:29Z</time>
      </trkpt>
      <trkpt lat="47.79863" lon="6.3889">
        <ele>286.459991</ele>
        <time>2020-05-12T15:37:30Z</time>
      </trkpt>
      <trkpt lat="47.79858" lon="6.38892">
        <ele>286.547485</ele>
        <time>2020-05-12T15:37:32Z</time>
      </trkpt>
      <trkpt lat="47.79856" lon="6.38894">
        <ele>286.600006</ele>
        <time>2020-05-12T15:37:33Z</time>
      </trkpt>
      <trkpt lat="47.79851" lon="6.38896">
        <ele>286.692505</ele>
        <time>2020-05-12T15:37:35Z</time>
      </trkpt>
      <trkpt lat="47.79848" lon="6.38897">
        <ele>286.722504</ele>
        <time>2020-05-12T15:37:36Z</time>
      </trkpt>
      <trkpt lat="47.79844" lon="6.38897">
        <ele>286.732513</ele>
        <time>2020-05-12T15:37:37Z</time>
      </trkpt>
      <trkpt lat="47.79838" lon="6.38893">
        <ele>286.609985</ele>
        <time>2020-05-12T15:37:39Z</time>
      </trkpt>
      <trkpt lat="47.79835" lon="6.38891">
        <ele>286.579987</ele>
        <time>2020-05-12T15:37:40Z</time>
      </trkpt>
      <trkpt lat="47.79833" lon="6.38892">
        <ele>286.595001</ele>
        <time>2020-05-12T15:37:41Z</time>
      </trkpt>
      <trkpt lat="47.79828" lon="6.38892">
        <ele>286.619995</ele>
        <time>2020-05-12T15:37:42Z</time>
      </trkpt>
      <trkpt lat="47.79824" lon="6.38892">
        <ele>286.617493</ele>
        <time>2020-05-12T15:37:43Z</time>
      </trkpt>
      <trkpt lat="47.79821" lon="6.38891">
        <ele>286.640015</ele>
        <time>2020-05-12T15:37:44Z</time>
      </trkpt>
      <trkpt lat="47.79815" lon="6.38889">
        <ele>286.720001</ele>
        <time>2020-05-12T15:37:46Z</time>
      </trkpt>
      <trkpt lat="47.79812" lon="6.38888">
        <ele>286.795013</ele>
        <time>2020-05-12T15:37:47Z</time>
      </trkpt>
      <trkpt lat="47.79804" lon="6.38891">
        <ele>287.057495</ele>
        <time>2020-05-12T15:37:49Z</time>
      </trkpt>
      <trkpt lat="47.798" lon="6.38893">
        <ele>287.202484</ele>
        <time>2020-05-12T15:37:50Z</time>
      </trkpt>
      <trkpt lat="47.79799" lon="6.38894">
        <ele>287.255005</ele>
        <time>2020-05-12T15:37:51Z</time>
      </trkpt>
      <trkpt lat="47.79796" lon="6.38894">
        <ele>287.345001</ele>
        <time>2020-05-12T15:37:53Z</time>
      </trkpt>
      <trkpt lat="47.79793" lon="6.38893">
        <ele>287.399994</ele>
        <time>2020-05-12T15:37:54Z</time>
      </trkpt>
      <trkpt lat="47.79789" lon="6.38892">
        <ele>287.442505</ele>
        <time>2020-05-12T15:37:55Z</time>
      </trkpt>
      <trkpt lat="47.79785" lon="6.3889">
        <ele>287.482513</ele>
        <time>2020-05-12T15:37:56Z</time>
      </trkpt>
      <trkpt lat="47.79781" lon="6.38887">
        <ele>287.5</ele>
        <time>2020-05-12T15:37:58Z</time>
      </trkpt>
      <trkpt lat="47.79775" lon="6.38879">
        <ele>287.345001</ele>
        <time>2020-05-12T15:37:59Z</time>
      </trkpt>
      <trkpt lat="47.79772" lon="6.38878">
        <ele>287.307495</ele>
        <time>2020-05-12T15:38:00Z</time>
      </trkpt>
      <trkpt lat="47.79769" lon="6.38876">
        <ele>287.255005</ele>
        <time>2020-05-12T15:38:02Z</time>
      </trkpt>
      <trkpt lat="47.79765" lon="6.38873">
        <ele>287.192505</ele>
        <time>2020-05-12T15:38:03Z</time>
      </trkpt>
      <trkpt lat="47.79762" lon="6.38874">
        <ele>287.232513</ele>
        <time>2020-05-12T15:38:04Z</time>
      </trkpt>
      <trkpt lat="47.79759" lon="6.38878">
        <ele>287.337494</ele>
        <time>2020-05-12T15:38:05Z</time>
      </trkpt>
      <trkpt lat="47.79755" lon="6.38878">
        <ele>287.347504</ele>
        <time>2020-05-12T15:38:07Z</time>
      </trkpt>
      <trkpt lat="47.79752" lon="6.38877">
        <ele>287.337494</ele>
        <time>2020-05-12T15:38:08Z</time>
      </trkpt>
      <trkpt lat="47.79745" lon="6.3888">
        <ele>287.429993</ele>
        <time>2020-05-12T15:38:09Z</time>
      </trkpt>
      <trkpt lat="47.79743" lon="6.38878">
        <ele>287.38501</ele>
        <time>2020-05-12T15:38:11Z</time>
      </trkpt>
      <trkpt lat="47.79739" lon="6.38876">
        <ele>287.334991</ele>
        <time>2020-05-12T15:38:12Z</time>
      </trkpt>
      <trkpt lat="47.79736" lon="6.38876">
        <ele>287.332489</ele>
        <time>2020-05-12T15:38:14Z</time>
      </trkpt>
      <trkpt lat="47.79731" lon="6.38876">
        <ele>287.345001</ele>
        <time>2020-05-12T15:38:15Z</time>
      </trkpt>
      <trkpt lat="47.79726" lon="6.38876">
        <ele>287.375</ele>
        <time>2020-05-12T15:38:16Z</time>
      </trkpt>
      <trkpt lat="47.79723" lon="6.38879">
        <ele>287.452515</ele>
        <time>2020-05-12T15:38:18Z</time>
      </trkpt>
      <trkpt lat="47.79717" lon="6.38885">
        <ele>287.672485</ele>
        <time>2020-05-12T15:38:19Z</time>
      </trkpt>
      <trkpt lat="47.79714" lon="6.38887">
        <ele>287.730011</ele>
        <time>2020-05-12T15:38:21Z</time>
      </trkpt>
      <trkpt lat="47.7971" lon="6.38889">
        <ele>287.799988</ele>
        <time>2020-05-12T15:38:22Z</time>
      </trkpt>
      <trkpt lat="47.79706" lon="6.38892">
        <ele>287.887512</ele>
        <time>2020-05-12T15:38:24Z</time>
      </trkpt>
      <trkpt lat="47.79701" lon="6.38894">
        <ele>287.967499</ele>
        <time>2020-05-12T15:38:25Z</time>
      </trkpt>
      <trkpt lat="47.79696" lon="6.38898">
        <ele>288.105011</ele>
        <time>2020-05-12T15:38:26Z</time>
      </trkpt>
      <trkpt lat="47.79691" lon="6.38904">
        <ele>288.287506</ele>
        <time>2020-05-12T15:38:28Z</time>
      </trkpt>
      <trkpt lat="47.79683" lon="6.38912">
        <ele>288.576294</ele>
        <time>2020-05-12T15:38:30Z</time>
      </trkpt>
      <trkpt lat="47.7968" lon="6.38915">
        <ele>288.670197</ele>
        <time>2020-05-12T15:38:31Z</time>
      </trkpt>
      <trkpt lat="47.79676" lon="6.3892">
        <ele>288.819092</ele>
        <time>2020-05-12T15:38:32Z</time>
      </trkpt>
      <trkpt lat="47.79672" lon="6.38926">
        <ele>289.002106</ele>
        <time>2020-05-12T15:38:34Z</time>
      </trkpt>
      <trkpt lat="47.79667" lon="6.38933">
        <ele>289.157013</ele>
        <time>2020-05-12T15:38:35Z</time>
      </trkpt>
      <trkpt lat="47.79659" lon="6.38945">
        <ele>289.406311</ele>
        <time>2020-05-12T15:38:36Z</time>
      </trkpt>
      <trkpt lat="47.7965" lon="6.38953">
        <ele>289.524597</ele>
        <time>2020-05-12T15:38:37Z</time>
      </trkpt>
      <trkpt lat="47.79645" lon="6.38959">
        <ele>289.581177</ele>
        <time>2020-05-12T15:38:39Z</time>
      </trkpt>
      <trkpt lat="47.79635" lon="6.38974">
        <ele>289.647491</ele>
        <time>2020-05-12T15:38:40Z</time>
      </trkpt>
      <trkpt lat="47.79631" lon="6.38981">
        <ele>289.674988</ele>
        <time>2020-05-12T15:38:42Z</time>
      </trkpt>
      <trkpt lat="47.79627" lon="6.38987">
        <ele>289.669983</ele>
        <time>2020-05-12T15:38:43Z</time>
      </trkpt>
      <trkpt lat="47.79624" lon="6.38993">
        <ele>289.654999</ele>
        <time>2020-05-12T15:38:44Z</time>
      </trkpt>
      <trkpt lat="47.7962" lon="6.39">
        <ele>289.589996</ele>
        <time>2020-05-12T15:38:46Z</time>
      </trkpt>
      <trkpt lat="47.79616" lon="6.39008">
        <ele>289.5</ele>
        <time>2020-05-12T15:38:48Z</time>
      </trkpt>
      <trkpt lat="47.79613" lon="6.39012">
        <ele>289.434998</ele>
        <time>2020-05-12T15:38:49Z</time>
      </trkpt>
      <trkpt lat="47.79605" lon="6.39021">
        <ele>289.265015</ele>
        <time>2020-05-12T15:38:51Z</time>
      </trkpt>
      <trkpt lat="47.79604" lon="6.39025">
        <ele>289.25</ele>
        <time>2020-05-12T15:38:52Z</time>
      </trkpt>
      <trkpt lat="47.79602" lon="6.39032">
        <ele>289.200012</ele>
        <time>2020-05-12T15:38:53Z</time>
      </trkpt>
      <trkpt lat="47.79598" lon="6.39043">
        <ele>289.13501</ele>
        <time>2020-05-12T15:38:54Z</time>
      </trkpt>
      <trkpt lat="47.79595" lon="6.39052">
        <ele>289.075012</ele>
        <time>2020-05-12T15:38:56Z</time>
      </trkpt>
      <trkpt lat="47.7959" lon="6.3906">
        <ele>288.929993</ele>
        <time>2020-05-12T15:38:58Z</time>
      </trkpt>
      <trkpt lat="47.79571" lon="6.39079">
        <ele>288.100006</ele>
        <time>2020-05-12T15:38:59Z</time>
      </trkpt>
      <trkpt lat="47.79566" lon="6.39084">
        <ele>287.869995</ele>
        <time>2020-05-12T15:39:01Z</time>
      </trkpt>
      <trkpt lat="47.79561" lon="6.39088">
        <ele>287.700012</ele>
        <time>2020-05-12T15:39:02Z</time>
      </trkpt>
      <trkpt lat="47.79557" lon="6.39091">
        <ele>287.48999</ele>
        <time>2020-05-12T15:39:04Z</time>
      </trkpt>
      <trkpt lat="47.79554" lon="6.39094">
        <ele>287.359985</ele>
        <time>2020-05-12T15:39:05Z</time>
      </trkpt>
      <trkpt lat="47.7955" lon="6.39097">
        <ele>287.190002</ele>
        <time>2020-05-12T15:39:06Z</time>
      </trkpt>
      <trkpt lat="47.79544" lon="6.39102">
        <ele>286.963135</ele>
        <time>2020-05-12T15:39:08Z</time>
      </trkpt>
      <trkpt lat="47.79535" lon="6.3912">
        <ele>286.822906</ele>
        <time>2020-05-12T15:39:09Z</time>
      </trkpt>
      <trkpt lat="47.7952" lon="6.39129">
        <ele>286.558594</ele>
        <time>2020-05-12T15:39:11Z</time>
      </trkpt>
      <trkpt lat="47.79513" lon="6.39134">
        <ele>286.386627</ele>
        <time>2020-05-12T15:39:12Z</time>
      </trkpt>
      <trkpt lat="47.79507" lon="6.39138">
        <ele>286.238007</ele>
        <time>2020-05-12T15:39:13Z</time>
      </trkpt>
      <trkpt lat="47.79503" lon="6.39143">
        <ele>286.121552</ele>
        <time>2020-05-12T15:39:15Z</time>
      </trkpt>
      <trkpt lat="47.79498" lon="6.39145">
        <ele>285.96167</ele>
        <time>2020-05-12T15:39:16Z</time>
      </trkpt>
      <trkpt lat="47.79493" lon="6.39143">
        <ele>285.805939</ele>
        <time>2020-05-12T15:39:17Z</time>
      </trkpt>
      <trkpt lat="47.79489" lon="6.39139">
        <ele>285.631134</ele>
        <time>2020-05-12T15:39:19Z</time>
      </trkpt>
      <trkpt lat="47.79486" lon="6.39137">
        <ele>285.534027</ele>
        <time>2020-05-12T15:39:20Z</time>
      </trkpt>
      <trkpt lat="47.79483" lon="6.39141">
        <ele>285.444427</ele>
        <time>2020-05-12T15:39:21Z</time>
      </trkpt>
      <trkpt lat="47.79478" lon="6.39146">
        <ele>285.299103</ele>
        <time>2020-05-12T15:39:23Z</time>
      </trkpt>
      <trkpt lat="47.79474" lon="6.39147">
        <ele>285.186676</ele>
        <time>2020-05-12T15:39:24Z</time>
      </trkpt>
      <trkpt lat="47.7947" lon="6.39144">
        <ele>285.016052</ele>
        <time>2020-05-12T15:39:26Z</time>
      </trkpt>
      <trkpt lat="47.79467" lon="6.39143">
        <ele>284.928406</ele>
        <time>2020-05-12T15:39:27Z</time>
      </trkpt>
      <trkpt lat="47.79463" lon="6.39142">
        <ele>284.768341</ele>
        <time>2020-05-12T15:39:29Z</time>
      </trkpt>
      <trkpt lat="47.7946" lon="6.39141">
        <ele>284.668976</ele>
        <time>2020-05-12T15:39:30Z</time>
      </trkpt>
      <trkpt lat="47.79458" lon="6.39141">
        <ele>284.589508</ele>
        <time>2020-05-12T15:39:31Z</time>
      </trkpt>
      <trkpt lat="47.79455" lon="6.39139">
        <ele>284.455261</ele>
        <time>2020-05-12T15:39:33Z</time>
      </trkpt>
      <trkpt lat="47.79452" lon="6.39136">
        <ele>284.344971</ele>
        <time>2020-05-12T15:39:35Z</time>
      </trkpt>
      <trkpt lat="47.79452" lon="6.39136">
        <ele>284.306458</ele>
        <time>2020-05-12T15:39:36Z</time>
      </trkpt>
      <trkpt lat="47.79448" lon="6.39132">
        <ele>284.159271</ele>
        <time>2020-05-12T15:39:38Z</time>
      </trkpt>
      <trkpt lat="47.79445" lon="6.39128">
        <ele>284.026001</ele>
        <time>2020-05-12T15:39:39Z</time>
      </trkpt>
      <trkpt lat="47.79439" lon="6.39118">
        <ele>283.745056</ele>
        <time>2020-05-12T15:39:40Z</time>
      </trkpt>
      <trkpt lat="47.79433" lon="6.39103">
        <ele>283.601257</ele>
        <time>2020-05-12T15:39:41Z</time>
      </trkpt>
      <trkpt lat="47.79435" lon="6.39095">
        <ele>283.755005</ele>
        <time>2020-05-12T15:39:43Z</time>
      </trkpt>
      <trkpt lat="47.79434" lon="6.39085">
        <ele>283.869995</ele>
        <time>2020-05-12T15:39:44Z</time>
      </trkpt>
      <trkpt lat="47.79437" lon="6.39076">
        <ele>284.053741</ele>
        <time>2020-05-12T15:39:46Z</time>
      </trkpt>
      <trkpt lat="47.79437" lon="6.3907">
        <ele>284.158752</ele>
        <time>2020-05-12T15:39:47Z</time>
      </trkpt>
      <trkpt lat="47.79442" lon="6.3906">
        <ele>284.411255</ele>
        <time>2020-05-12T15:39:49Z</time>
      </trkpt>
      <trkpt lat="47.79445" lon="6.39055">
        <ele>284.551239</ele>
        <time>2020-05-12T15:39:50Z</time>
      </trkpt>
      <trkpt lat="47.7945" lon="6.39041">
        <ele>284.857788</ele>
        <time>2020-05-12T15:39:51Z</time>
      </trkpt>
      <trkpt lat="47.79459" lon="6.39027">
        <ele>285.253754</ele>
        <time>2020-05-12T15:39:53Z</time>
      </trkpt>
      <trkpt lat="47.79468" lon="6.39014">
        <ele>285.448761</ele>
        <time>2020-05-12T15:39:55Z</time>
      </trkpt>
      <trkpt lat="47.79473" lon="6.39009">
        <ele>285.542511</ele>
        <time>2020-05-12T15:39:56Z</time>
      </trkpt>
      <trkpt lat="47.79481" lon="6.38996">
        <ele>285.734985</ele>
        <time>2020-05-12T15:39:58Z</time>
      </trkpt>
      <trkpt lat="47.79486" lon="6.38989">
        <ele>285.856262</ele>
        <time>2020-05-12T15:39:59Z</time>
      </trkpt>
      <trkpt lat="47.79497" lon="6.38974">
        <ele>286.091248</ele>
        <time>2020-05-12T15:40:01Z</time>
      </trkpt>
      <trkpt lat="47.79508" lon="6.38959">
        <ele>286.377502</ele>
        <time>2020-05-12T15:40:03Z</time>
      </trkpt>
      <trkpt lat="47.79519" lon="6.38945">
        <ele>286.841248</ele>
        <time>2020-05-12T15:40:05Z</time>
      </trkpt>
      <trkpt lat="47.79529" lon="6.38932">
        <ele>287.261261</ele>
        <time>2020-05-12T15:40:07Z</time>
      </trkpt>
      <trkpt lat="47.79539" lon="6.3892">
        <ele>287.668762</ele>
        <time>2020-05-12T15:40:09Z</time>
      </trkpt>
      <trkpt lat="47.79549" lon="6.38909">
        <ele>287.945007</ele>
        <time>2020-05-12T15:40:11Z</time>
      </trkpt>
      <trkpt lat="47.79554" lon="6.38904">
        <ele>288</ele>
        <time>2020-05-12T15:40:12Z</time>
      </trkpt>
      <trkpt lat="47.79563" lon="6.38894">
        <ele>288</ele>
        <time>2020-05-12T15:40:14Z</time>
      </trkpt>
      <trkpt lat="47.79571" lon="6.38885">
        <ele>288</ele>
        <time>2020-05-12T15:40:16Z</time>
      </trkpt>
      <trkpt lat="47.79575" lon="6.38882">
        <ele>288</ele>
        <time>2020-05-12T15:40:17Z</time>
      </trkpt>
      <trkpt lat="47.79579" lon="6.38878">
        <ele>288</ele>
        <time>2020-05-12T15:40:18Z</time>
      </trkpt>
      <trkpt lat="47.79586" lon="6.3887">
        <ele>288</ele>
        <time>2020-05-12T15:40:20Z</time>
      </trkpt>
      <trkpt lat="47.79591" lon="6.38866">
        <ele>288</ele>
        <time>2020-05-12T15:40:21Z</time>
      </trkpt>
      <trkpt lat="47.79601" lon="6.38858">
        <ele>288.00235</ele>
        <time>2020-05-12T15:40:23Z</time>
      </trkpt>
      <trkpt lat="47.79609" lon="6.38849">
        <ele>287.890198</ele>
        <time>2020-05-12T15:40:25Z</time>
      </trkpt>
      <trkpt lat="47.79613" lon="6.38844">
        <ele>287.788757</ele>
        <time>2020-05-12T15:40:26Z</time>
      </trkpt>
      <trkpt lat="47.7962" lon="6.38837">
        <ele>287.601685</ele>
        <time>2020-05-12T15:40:28Z</time>
      </trkpt>
      <trkpt lat="47.79628" lon="6.38829">
        <ele>287.33786</ele>
        <time>2020-05-12T15:40:30Z</time>
      </trkpt>
      <trkpt lat="47.79636" lon="6.3882">
        <ele>287.010498</ele>
        <time>2020-05-12T15:40:32Z</time>
      </trkpt>
      <trkpt lat="47.7964" lon="6.38815">
        <ele>286.811676</ele>
        <time>2020-05-12T15:40:33Z</time>
      </trkpt>
      <trkpt lat="47.79649" lon="6.38806">
        <ele>286.428497</ele>
        <time>2020-05-12T15:40:35Z</time>
      </trkpt>
      <trkpt lat="47.79658" lon="6.38797">
        <ele>286.125427</ele>
        <time>2020-05-12T15:40:37Z</time>
      </trkpt>
      <trkpt lat="47.79663" lon="6.38792">
        <ele>285.987488</ele>
        <time>2020-05-12T15:40:38Z</time>
      </trkpt>
      <trkpt lat="47.79672" lon="6.38783">
        <ele>285.695007</ele>
        <time>2020-05-12T15:40:40Z</time>
      </trkpt>
      <trkpt lat="47.79682" lon="6.38773">
        <ele>285.380005</ele>
        <time>2020-05-12T15:40:42Z</time>
      </trkpt>
      <trkpt lat="47.79693" lon="6.38763">
        <ele>285.057007</ele>
        <time>2020-05-12T15:40:44Z</time>
      </trkpt>
      <trkpt lat="47.79703" lon="6.38754">
        <ele>284.666901</ele>
        <time>2020-05-12T15:40:46Z</time>
      </trkpt>
      <trkpt lat="47.79709" lon="6.38748">
        <ele>284.480835</ele>
        <time>2020-05-12T15:40:47Z</time>
      </trkpt>
      <trkpt lat="47.79721" lon="6.38738">
        <ele>284.166718</ele>
        <time>2020-05-12T15:40:49Z</time>
      </trkpt>
      <trkpt lat="47.79728" lon="6.38732">
        <ele>284.03241</ele>
        <time>2020-05-12T15:40:50Z</time>
      </trkpt>
      <trkpt lat="47.79742" lon="6.38719">
        <ele>283.820007</ele>
        <time>2020-05-12T15:40:52Z</time>
      </trkpt>
      <trkpt lat="47.79749" lon="6.38713">
        <ele>283.722504</ele>
        <time>2020-05-12T15:40:53Z</time>
      </trkpt>
      <trkpt lat="47.79756" lon="6.38708">
        <ele>283.63501</ele>
        <time>2020-05-12T15:40:54Z</time>
      </trkpt>
      <trkpt lat="47.79769" lon="6.38696">
        <ele>283.445007</ele>
        <time>2020-05-12T15:40:56Z</time>
      </trkpt>
      <trkpt lat="47.79782" lon="6.38684">
        <ele>283.251251</ele>
        <time>2020-05-12T15:40:58Z</time>
      </trkpt>
      <trkpt lat="47.7979" lon="6.38678">
        <ele>283.153748</ele>
        <time>2020-05-12T15:40:59Z</time>
      </trkpt>
      <trkpt lat="47.79798" lon="6.38671">
        <ele>283.028748</ele>
        <time>2020-05-12T15:41:00Z</time>
      </trkpt>
      <trkpt lat="47.79814" lon="6.38656">
        <ele>283</ele>
        <time>2020-05-12T15:41:02Z</time>
      </trkpt>
      <trkpt lat="47.79822" lon="6.38649">
        <ele>283</ele>
        <time>2020-05-12T15:41:03Z</time>
      </trkpt>
      <trkpt lat="47.7983" lon="6.38642">
        <ele>283</ele>
        <time>2020-05-12T15:41:04Z</time>
      </trkpt>
      <trkpt lat="47.79844" lon="6.38628">
        <ele>283</ele>
        <time>2020-05-12T15:41:06Z</time>
      </trkpt>
      <trkpt lat="47.79857" lon="6.38616">
        <ele>283</ele>
        <time>2020-05-12T15:41:08Z</time>
      </trkpt>
      <trkpt lat="47.7987" lon="6.38604">
        <ele>282.941254</ele>
        <time>2020-05-12T15:41:10Z</time>
      </trkpt>
      <trkpt lat="47.79877" lon="6.38597">
        <ele>282.839996</ele>
        <time>2020-05-12T15:41:11Z</time>
      </trkpt>
      <trkpt lat="47.7989" lon="6.38585">
        <ele>282.648743</ele>
        <time>2020-05-12T15:41:13Z</time>
      </trkpt>
      <trkpt lat="47.79903" lon="6.38574">
        <ele>282.454987</ele>
        <time>2020-05-12T15:41:15Z</time>
      </trkpt>
      <trkpt lat="47.7991" lon="6.38568">
        <ele>282.362488</ele>
        <time>2020-05-12T15:41:16Z</time>
      </trkpt>
      <trkpt lat="47.79916" lon="6.38562">
        <ele>282.272491</ele>
        <time>2020-05-12T15:41:17Z</time>
      </trkpt>
      <trkpt lat="47.7993" lon="6.38552">
        <ele>282.096252</ele>
        <time>2020-05-12T15:41:19Z</time>
      </trkpt>
      <trkpt lat="47.79937" lon="6.38546">
        <ele>282.005005</ele>
        <time>2020-05-12T15:41:20Z</time>
      </trkpt>
      <trkpt lat="47.79944" lon="6.3854">
        <ele>282</ele>
        <time>2020-05-12T15:41:21Z</time>
      </trkpt>
      <trkpt lat="47.79959" lon="6.38529">
        <ele>282</ele>
        <time>2020-05-12T15:41:23Z</time>
      </trkpt>
      <trkpt lat="47.79966" lon="6.38523">
        <ele>282</ele>
        <time>2020-05-12T15:41:24Z</time>
      </trkpt>
      <trkpt lat="47.7998" lon="6.38512">
        <ele>282.092651</ele>
        <time>2020-05-12T15:41:26Z</time>
      </trkpt>
      <trkpt lat="47.79994" lon="6.385">
        <ele>282.130035</ele>
        <time>2020-05-12T15:41:28Z</time>
      </trkpt>
      <trkpt lat="47.80001" lon="6.38495">
        <ele>282.107239</ele>
        <time>2020-05-12T15:41:29Z</time>
      </trkpt>
      <trkpt lat="47.80014" lon="6.38484">
        <ele>282</ele>
        <time>2020-05-12T15:41:31Z</time>
      </trkpt>
      <trkpt lat="47.80027" lon="6.38474">
        <ele>282</ele>
        <time>2020-05-12T15:41:33Z</time>
      </trkpt>
      <trkpt lat="47.8004" lon="6.38465">
        <ele>282</ele>
        <time>2020-05-12T15:41:35Z</time>
      </trkpt>
      <trkpt lat="47.80046" lon="6.38461">
        <ele>282</ele>
        <time>2020-05-12T15:41:36Z</time>
      </trkpt>
      <trkpt lat="47.8006" lon="6.38452">
        <ele>282</ele>
        <time>2020-05-12T15:41:38Z</time>
      </trkpt>
      <trkpt lat="47.80066" lon="6.38447">
        <ele>282.026611</ele>
        <time>2020-05-12T15:41:39Z</time>
      </trkpt>
      <trkpt lat="47.8008" lon="6.38439">
        <ele>282.089264</ele>
        <time>2020-05-12T15:41:41Z</time>
      </trkpt>
      <trkpt lat="47.80087" lon="6.38435">
        <ele>282.08905</ele>
        <time>2020-05-12T15:41:42Z</time>
      </trkpt>
      <trkpt lat="47.80101" lon="6.38429">
        <ele>282.048462</ele>
        <time>2020-05-12T15:41:44Z</time>
      </trkpt>
      <trkpt lat="47.80117" lon="6.38426">
        <ele>282.005005</ele>
        <time>2020-05-12T15:41:46Z</time>
      </trkpt>
      <trkpt lat="47.80132" lon="6.38424">
        <ele>282</ele>
        <time>2020-05-12T15:41:48Z</time>
      </trkpt>
      <trkpt lat="47.80147" lon="6.38421">
        <ele>282</ele>
        <time>2020-05-12T15:41:50Z</time>
      </trkpt>
      <trkpt lat="47.80154" lon="6.3842">
        <ele>282</ele>
        <time>2020-05-12T15:41:51Z</time>
      </trkpt>
      <trkpt lat="47.80169" lon="6.38417">
        <ele>282.253174</ele>
        <time>2020-05-12T15:41:53Z</time>
      </trkpt>
      <trkpt lat="47.80161" lon="6.38396">
        <ele>282.062653</ele>
      </trkpt>
      <trkpt lat="47.80096" lon="6.38301">
        <ele>281.681732</ele>
      </trkpt>
      <trkpt lat="47.80037" lon="6.38203">
        <ele>281</ele>
      </trkpt>
      <trkpt lat="47.79977" lon="6.38121">
        <ele>281</ele>
      </trkpt>
      <trkpt lat="47.79883" lon="6.3804">
        <ele>280.674988</ele>
      </trkpt>
      <trkpt lat="47.7985" lon="6.38014">
        <ele>280</ele>
      </trkpt>
      <trkpt lat="47.79775" lon="6.37969">
        <ele>280</ele>
      </trkpt>
      <trkpt lat="47.79924" lon="6.3788">
        <ele>281</ele>
      </trkpt>
      <trkpt lat="47.80034" lon="6.37835">
        <ele>281</ele>
      </trkpt>
      <trkpt lat="47.79444" lon="6.36908">
        <ele>275.122406</ele>
      </trkpt>
    </trkseg>
  </trk>
</gpx>